
Distance (Route):
Temperature : 23.9°C
Humidity : 47.9%
Pressure : 0hPa| Receiver | Frames | First received | Last received |
|---|---|---|---|
| IW2NTF | 1381 | 2026-09-03 23:02:26 | 2026-09-04 02:11:15 |
| DO3MHA-11 | 433 | 2026-09-03 23:56:58 | 2026-09-04 01:31:03 |
| DB0UT-7 | 174 | 2026-09-03 23:57:12 | 2026-09-04 01:31:11 |
| RDZBGO | 103 | 2026-09-04 00:39:18 | 2026-09-04 01:24:11 |
| DF1GD-15 | 83 | 2026-09-04 00:48:49 | 2026-09-04 01:28:35 |
| NBG1-10 | 81 | 2026-09-04 00:13:43 | 2026-09-04 01:25:00 |
| OE5DRO-10 | 81 | 2026-09-04 00:40:22 | 2026-09-04 01:16:34 |
| DK5PH-5 | 21 | 2026-09-04 01:01:20 | 2026-09-04 01:12:50 |
| IN3HCDX | 18 | 2026-09-04 01:03:19 | 2026-09-04 01:11:52 |
| S52SK | 10 | 2026-09-04 01:00:57 | 2026-09-04 01:10:46 |
| BAUMI2-15 | 10 | 2026-09-04 01:05:55 | 2026-09-04 01:07:41 |
| PG1ADW-2 | 9 | 2026-09-04 01:07:19 | 2026-09-04 01:11:26 |
| OE5DXL-15 | 8 | 2026-09-04 00:54:15 | 2026-09-04 01:04:03 |
| DF7PN | 4 | 2026-09-04 01:06:10 | 2026-09-04 01:11:21 |
| DL1ZP-14 | 3 | 2026-09-04 01:07:32 | 2026-09-04 01:11:41 |
| Receiver | Date | Latitude | Longitude | Direction | Speed | Altitude | Climb | Temperature | Humidity | Pressure | Voltage | Killtimer | Uptime | BKT | XDATA |
|---|---|---|---|---|---|---|---|---|---|---|---|---|---|---|---|
| IW2NTF | 2026-09-04 02:11:15 | 44.83084 | 9.48584 | 31° | 13km/h | 903m | -4.7m/s | 23.9°C | 47.9% | 0hPa | 2.8V | 07:30:22 | 03:37:30 | 00:00:00 | |
| IW2NTF | 2026-09-04 02:11:10 | 44.83080 | 9.48580 | 42° | 7km/h | 913m | -4.5m/s | 23.8°C | 47.2% | 0hPa | 2.8V | 07:30:24 | 03:37:28 | 00:00:00 | |
| IW2NTF | 2026-09-04 02:11:10 | 44.83078 | 9.48576 | 62° | 7km/h | 921m | -4.6m/s | 23.8°C | 45.9% | 0hPa | 2.8V | 07:30:26 | 03:37:26 | 00:00:00 | |
| IW2NTF | 2026-09-04 02:11:10 | 44.83075 | 9.48571 | 37° | 9km/h | 931m | -4.5m/s | 23.8°C | 44.8% | 0hPa | 2.8V | 07:30:28 | 03:37:24 | 00:00:00 | |
| IW2NTF | 2026-09-04 02:11:04 | 44.83072 | 9.48569 | 9° | 9km/h | 939m | -4.7m/s | 23.8°C | 44.3% | 0hPa | 2.8V | 07:30:30 | 03:37:22 | 00:00:00 | |
| IW2NTF | 2026-09-04 02:11:04 | 44.83068 | 9.48568 | 27° | 5km/h | 949m | -4.5m/s | 23.8°C | 42% | 0hPa | 2.8V | 07:30:32 | 03:37:20 | 00:00:00 | |
| IW2NTF | 2026-09-04 02:11:04 | 44.83066 | 9.48565 | 60° | 9km/h | 958m | -5.2m/s | 23.8°C | 39% | 0hPa | 2.8V | 07:30:34 | 03:37:18 | 00:00:00 | |
| IW2NTF | 2026-09-04 02:10:57 | 44.83064 | 9.48559 | 60° | 11km/h | 968m | -4.9m/s | 23.8°C | 36.1% | 0hPa | 2.8V | 07:30:36 | 03:37:16 | 00:00:00 | |
| IW2NTF | 2026-09-04 02:10:57 | 44.83060 | 9.48553 | 41° | 13km/h | 978m | -4.7m/s | 23.8°C | 35.8% | 0hPa | 2.8V | 07:30:38 | 03:37:14 | 00:00:00 | |
| IW2NTF | 2026-09-04 02:10:57 | 44.83055 | 9.48549 | 11° | 9km/h | 987m | -4.2m/s | 23.8°C | 33.8% | 0hPa | 2.8V | 07:30:40 | 03:37:12 | 00:00:00 | |
| IW2NTF | 2026-09-04 02:10:51 | 44.83052 | 9.48550 | 326° | 5km/h | 996m | -4.3m/s | 23.7°C | 33.6% | 0hPa | 2.8V | 07:30:42 | 03:37:10 | 00:00:00 | |
| IW2NTF | 2026-09-04 02:10:51 | 44.83052 | 9.48551 | 200° | 2km/h | 1005m | -4.4m/s | 23.7°C | 32.7% | 0hPa | 2.7V | 07:30:44 | 03:37:08 | 00:00:00 | |
| IW2NTF | 2026-09-04 02:10:51 | 44.83052 | 9.48550 | 113° | 2km/h | 1013m | -4.1m/s | 23.6°C | 32.7% | 0hPa | 2.8V | 07:30:46 | 03:37:06 | 00:00:00 | |
| IW2NTF | 2026-09-04 02:10:46 | 44.83052 | 9.48549 | 42° | 2km/h | 1021m | -3.9m/s | 23.6°C | 32.6% | 0hPa | 2.8V | 07:30:48 | 03:37:04 | 00:00:00 | |
| IW2NTF | 2026-09-04 02:10:46 | 44.83051 | 9.48548 | 357° | 4km/h | 1029m | -4.1m/s | 23.5°C | 31.7% | 0hPa | 2.8V | 07:30:50 | 03:37:02 | 00:00:00 | |
| IW2NTF | 2026-09-04 02:10:46 | 44.83049 | 9.48548 | 349° | 4km/h | 1038m | -4.7m/s | 23.5°C | 31.6% | 0hPa | 2.8V | 07:30:52 | 03:37:00 | 00:00:00 | |
| IW2NTF | 2026-09-04 02:10:39 | 44.83048 | 9.48548 | 39° | 4km/h | 1046m | -3.9m/s | 23.5°C | 29.8% | 0hPa | 2.8V | 07:30:54 | 03:36:58 | 00:00:00 | |
| IW2NTF | 2026-09-04 02:10:39 | 44.83046 | 9.48546 | 25° | 5km/h | 1055m | -5m/s | 23.5°C | 28.2% | 0hPa | 2.8V | 07:30:56 | 03:36:56 | 00:00:00 | |
| IW2NTF | 2026-09-04 02:10:39 | 44.83044 | 9.48544 | 24° | 5km/h | 1064m | -4.5m/s | 23.4°C | 27.7% | 0hPa | 2.8V | 07:30:58 | 03:36:54 | 00:00:00 | |
| IW2NTF | 2026-09-04 02:10:34 | 44.83042 | 9.48543 | 30° | 2km/h | 1073m | -4.2m/s | 23.4°C | 27.1% | 0hPa | 2.8V | 07:31:00 | 03:36:52 | 00:00:00 | |
| IW2NTF | 2026-09-04 02:10:34 | 44.83042 | 9.48542 | 97° | 4km/h | 1082m | -4.5m/s | 23.3°C | 27% | 0hPa | 2.8V | 07:31:02 | 03:36:50 | 00:00:00 | |
| IW2NTF | 2026-09-04 02:10:34 | 44.83043 | 9.48540 | 115° | 4km/h | 1091m | -4.6m/s | 23.3°C | 26% | 0hPa | 2.8V | 07:31:04 | 03:36:48 | 00:00:00 | |
| IW2NTF | 2026-09-04 02:10:27 | 44.83043 | 9.48537 | 107° | 5km/h | 1100m | -4.4m/s | 23.3°C | 24.2% | 0hPa | 2.8V | 07:31:06 | 03:36:46 | 00:00:00 | |
| IW2NTF | 2026-09-04 02:10:27 | 44.83043 | 9.48533 | 71° | 7km/h | 1109m | -4m/s | 23.2°C | 24.6% | 0hPa | 2.8V | 07:31:08 | 03:36:44 | 00:00:00 | |
| IW2NTF | 2026-09-04 02:10:27 | 44.83042 | 9.48528 | 57° | 7km/h | 1117m | -4.5m/s | 23.1°C | 24.1% | 0hPa | 2.8V | 07:31:10 | 03:36:42 | 00:00:00 | |
| IW2NTF | 2026-09-04 02:10:21 | 44.83040 | 9.48525 | 44° | 7km/h | 1126m | -4.6m/s | 23.1°C | 24.1% | 0hPa | 2.8V | 07:31:12 | 03:36:40 | 00:00:00 | |
| IW2NTF | 2026-09-04 02:10:21 | 44.83038 | 9.48523 | 2° | 4km/h | 1134m | -3.7m/s | 23°C | 24.4% | 0hPa | 2.8V | 07:31:14 | 03:36:38 | 00:00:00 | |
| IW2NTF | 2026-09-04 02:10:21 | 44.83036 | 9.48523 | 236° | 0km/h | 1142m | -4.4m/s | 22.9°C | 24% | 0hPa | 2.8V | 07:31:16 | 03:36:36 | 00:00:00 | |
| IW2NTF | 2026-09-04 02:10:15 | 44.83037 | 9.48522 | 103° | 4km/h | 1151m | -3.7m/s | 22.9°C | 23.3% | 0hPa | 2.8V | 07:31:18 | 03:36:34 | 00:00:00 | |
| IW2NTF | 2026-09-04 02:10:15 | 44.83036 | 9.48519 | 62° | 5km/h | 1159m | -4m/s | 22.9°C | 23.4% | 0hPa | 2.8V | 07:31:20 | 03:36:32 | 00:00:00 | |
| IW2NTF | 2026-09-04 02:10:15 | 44.83035 | 9.48516 | 47° | 4km/h | 1167m | -4.2m/s | 22.8°C | 23.6% | 0hPa | 2.8V | 07:31:22 | 03:36:30 | 00:00:00 | |
| IW2NTF | 2026-09-04 02:10:10 | 44.83035 | 9.48514 | 106° | 4km/h | 1175m | -4.1m/s | 22.7°C | 23.7% | 0hPa | 2.8V | 07:31:24 | 03:36:28 | 00:00:00 | |
| IW2NTF | 2026-09-04 02:10:10 | 44.83035 | 9.48510 | 88° | 7km/h | 1183m | -4.2m/s | 22.7°C | 23.8% | 0hPa | 2.8V | 07:31:26 | 03:36:26 | 00:00:00 | |
| IW2NTF | 2026-09-04 02:10:10 | 44.83034 | 9.48505 | 55° | 7km/h | 1192m | -4.1m/s | 22.6°C | 24.6% | 0hPa | 2.8V | 07:31:28 | 03:36:24 | 00:00:00 | |
| IW2NTF | 2026-09-04 02:10:03 | 44.83032 | 9.48502 | 27° | 4km/h | 1200m | -4.1m/s | 22.5°C | 26.3% | 0hPa | 2.8V | 07:31:30 | 03:36:22 | 00:00:00 | |
| IW2NTF | 2026-09-04 02:10:03 | 44.83031 | 9.48502 | 298° | 0km/h | 1209m | -4.8m/s | 22.4°C | 28.2% | 0hPa | 2.7V | 07:31:32 | 03:36:20 | 00:00:00 | |
| IW2NTF | 2026-09-04 02:10:03 | 44.83032 | 9.48502 | 171° | 4km/h | 1218m | -4.2m/s | 22.3°C | 28.8% | 0hPa | 2.8V | 07:31:34 | 03:36:18 | 00:00:00 | |
| IW2NTF | 2026-09-04 02:09:57 | 44.83034 | 9.48500 | 144° | 7km/h | 1227m | -4.3m/s | 22.2°C | 32.1% | 0hPa | 2.8V | 07:31:36 | 03:36:16 | 00:00:00 | |
| IW2NTF | 2026-09-04 02:09:57 | 44.83036 | 9.48497 | 127° | 7km/h | 1235m | -5m/s | 22.1°C | 32.7% | 0hPa | 2.8V | 07:31:38 | 03:36:14 | 00:00:00 | |
| IW2NTF | 2026-09-04 02:09:57 | 44.83039 | 9.48493 | 124° | 7km/h | 1244m | -4.5m/s | 22°C | 33.5% | 0hPa | 2.8V | 07:31:40 | 03:36:12 | 00:00:00 | |
| IW2NTF | 2026-09-04 02:09:51 | 44.83040 | 9.48489 | 109° | 4km/h | 1254m | -4.5m/s | 21.9°C | 33.9% | 0hPa | 2.8V | 07:31:42 | 03:36:10 | 00:00:00 | |
| IW2NTF | 2026-09-04 02:09:51 | 44.83041 | 9.48488 | 168° | 4km/h | 1262m | -4.4m/s | 21.8°C | 39% | 0hPa | 2.8V | 07:31:44 | 03:36:08 | 00:00:00 | |
| IW2NTF | 2026-09-04 02:09:51 | 44.83044 | 9.48487 | 160° | 7km/h | 1271m | -4m/s | 21.7°C | 38.9% | 0hPa | 2.8V | 07:31:46 | 03:36:06 | 00:00:00 | |
| IW2NTF | 2026-09-04 02:09:45 | 44.83047 | 9.48484 | 145° | 7km/h | 1279m | -4.2m/s | 21.6°C | 40.7% | 0hPa | 2.8V | 07:31:48 | 03:36:04 | 00:00:00 | |
| IW2NTF | 2026-09-04 02:09:45 | 44.83051 | 9.48481 | 157° | 9km/h | 1287m | -4.2m/s | 21.5°C | 40.9% | 0hPa | 2.8V | 07:31:50 | 03:36:02 | 00:00:00 | |
| IW2NTF | 2026-09-04 02:09:45 | 44.83056 | 9.48478 | 149° | 15km/h | 1296m | -4.2m/s | 21.4°C | 41% | 0hPa | 2.7V | 07:31:52 | 03:36:00 | 00:00:00 | |
| IW2NTF | 2026-09-04 02:09:39 | 44.83062 | 9.48471 | 136° | 15km/h | 1305m | -4.5m/s | 21.3°C | 40.7% | 0hPa | 2.8V | 07:31:54 | 03:35:58 | 00:00:00 | |
| IW2NTF | 2026-09-04 02:09:39 | 44.83067 | 9.48464 | 137° | 15km/h | 1313m | -3.8m/s | 21.3°C | 41% | 0hPa | 2.8V | 07:31:56 | 03:35:56 | 00:00:00 | |
| IW2NTF | 2026-09-04 02:09:39 | 44.83073 | 9.48458 | 152° | 13km/h | 1321m | -3.9m/s | 21.2°C | 43.8% | 0hPa | 2.8V | 07:31:58 | 03:35:54 | 00:00:00 | |
| IW2NTF | 2026-09-04 02:09:33 | 44.83079 | 9.48455 | 166° | 15km/h | 1329m | -3.8m/s | 21.1°C | 44.2% | 0hPa | 2.8V | 07:32:00 | 03:35:52 | 00:00:00 | |
| IW2NTF | 2026-09-04 02:09:33 | 44.83085 | 9.48451 | 151° | 15km/h | 1338m | -4.2m/s | 21°C | 43.9% | 0hPa | 2.8V | 07:32:02 | 03:35:50 | 00:00:00 | |
| IW2NTF | 2026-09-04 02:09:33 | 44.83090 | 9.48446 | 135° | 9km/h | 1346m | -4m/s | 20.9°C | 44.4% | 0hPa | 2.8V | 07:32:04 | 03:35:48 | 00:00:00 | |
| IW2NTF | 2026-09-04 02:09:27 | 44.83094 | 9.48443 | 162° | 7km/h | 1354m | -4.1m/s | 20.9°C | 45.3% | 0hPa | 2.8V | 07:32:06 | 03:35:46 | 00:00:00 | |
| IW2NTF | 2026-09-04 02:09:27 | 44.83099 | 9.48441 | 166° | 11km/h | 1362m | -4.1m/s | 20.8°C | 45.9% | 0hPa | 2.8V | 07:32:08 | 03:35:44 | 00:00:00 | |
| IW2NTF | 2026-09-04 02:09:27 | 44.83104 | 9.48437 | 144° | 15km/h | 1370m | -3.8m/s | 20.7°C | 48.2% | 0hPa | 2.8V | 07:32:10 | 03:35:42 | 00:00:00 | |
| IW2NTF | 2026-09-04 02:09:21 | 44.83109 | 9.48431 | 128° | 11km/h | 1379m | -4.5m/s | 20.7°C | 49.1% | 0hPa | 2.8V | 07:32:12 | 03:35:40 | 00:00:00 | |
| IW2NTF | 2026-09-04 02:09:21 | 44.83113 | 9.48426 | 153° | 9km/h | 1387m | -3.9m/s | 20.7°C | 48.8% | 0hPa | 2.8V | 07:32:14 | 03:35:38 | 00:00:00 | |
| IW2NTF | 2026-09-04 02:09:21 | 44.83118 | 9.48426 | 185° | 13km/h | 1395m | -3.7m/s | 20.8°C | 47.6% | 0hPa | 2.8V | 07:32:16 | 03:35:36 | 00:00:00 | |
| IW2NTF | 2026-09-04 02:09:15 | 44.83126 | 9.48427 | 181° | 16km/h | 1403m | -4.4m/s | 20.8°C | 46.1% | 0hPa | 2.8V | 07:32:18 | 03:35:34 | 00:00:00 | |
| IW2NTF | 2026-09-04 02:09:15 | 44.83134 | 9.48426 | 168° | 16km/h | 1411m | -3.9m/s | 20.8°C | 43.9% | 0hPa | 2.7V | 07:32:20 | 03:35:32 | 00:00:00 | |
| IW2NTF | 2026-09-04 02:09:15 | 44.83141 | 9.48423 | 156° | 11km/h | 1419m | -3.9m/s | 20.8°C | 42% | 0hPa | 2.7V | 07:32:22 | 03:35:30 | 00:00:00 | |
| IW2NTF | 2026-09-04 02:09:09 | 44.83146 | 9.48420 | 162° | 9km/h | 1427m | -4.2m/s | 20.9°C | 37% | 0hPa | 2.8V | 07:32:24 | 03:35:28 | 00:00:00 | |
| IW2NTF | 2026-09-04 02:09:09 | 44.83151 | 9.48419 | 174° | 13km/h | 1435m | -4.4m/s | 20.9°C | 35.5% | 0hPa | 2.8V | 07:32:26 | 03:35:26 | 00:00:00 | |
| IW2NTF | 2026-09-04 02:09:09 | 44.83158 | 9.48417 | 156° | 16km/h | 1444m | -3.9m/s | 20.8°C | 35.5% | 0hPa | 2.8V | 07:32:28 | 03:35:24 | 00:00:00 | |
| IW2NTF | 2026-09-04 02:09:03 | 44.83165 | 9.48411 | 143° | 15km/h | 1452m | -4.1m/s | 20.8°C | 34.8% | 0hPa | 2.8V | 07:32:30 | 03:35:22 | 00:00:00 | |
| IW2NTF | 2026-09-04 02:09:03 | 44.83170 | 9.48405 | 142° | 13km/h | 1460m | -3.9m/s | 20.8°C | 33.1% | 0hPa | 2.7V | 07:32:32 | 03:35:20 | 00:00:00 | |
| IW2NTF | 2026-09-04 02:09:03 | 44.83176 | 9.48399 | 141° | 15km/h | 1468m | -4.1m/s | 20.9°C | 29.2% | 0hPa | 2.8V | 07:32:34 | 03:35:18 | 00:00:00 | |
| IW2NTF | 2026-09-04 02:08:58 | 44.83182 | 9.48391 | 128° | 15km/h | 1477m | -4.8m/s | 20.9°C | 27.1% | 0hPa | 2.7V | 07:32:36 | 03:35:16 | 00:00:00 | |
| IW2NTF | 2026-09-04 02:08:58 | 44.83185 | 9.48383 | 119° | 11km/h | 1486m | -3.8m/s | 20.9°C | 25.1% | 0hPa | 2.7V | 07:32:38 | 03:35:14 | 00:00:00 | |
| IW2NTF | 2026-09-04 02:08:58 | 44.83188 | 9.48377 | 122° | 9km/h | 1494m | -4m/s | 20.9°C | 22.8% | 0hPa | 2.7V | 07:32:40 | 03:35:12 | 00:00:00 | |
| IW2NTF | 2026-09-04 02:08:51 | 44.83190 | 9.48372 | 129° | 9km/h | 1502m | -4.1m/s | 20.9°C | 21.7% | 0hPa | 2.7V | 07:32:42 | 03:35:10 | 00:00:00 | |
| IW2NTF | 2026-09-04 02:08:51 | 44.83193 | 9.48366 | 113° | 9km/h | 1510m | -4.5m/s | 20.9°C | 21.2% | 0hPa | 2.7V | 07:32:44 | 03:35:08 | 00:00:00 | |
| IW2NTF | 2026-09-04 02:08:51 | 44.83195 | 9.48360 | 106° | 7km/h | 1519m | -4.5m/s | 20.9°C | 19.6% | 0hPa | 2.7V | 07:32:46 | 03:35:06 | 00:00:00 | |
| IW2NTF | 2026-09-04 02:08:45 | 44.83197 | 9.48356 | 146° | 9km/h | 1528m | -3.9m/s | 20.9°C | 18.5% | 0hPa | 2.7V | 07:32:48 | 03:35:04 | 00:00:00 | |
| IW2NTF | 2026-09-04 02:08:45 | 44.83202 | 9.48352 | 145° | 15km/h | 1536m | -4m/s | 20.8°C | 18.6% | 0hPa | 2.7V | 07:32:50 | 03:35:02 | 00:00:00 | |
| IW2NTF | 2026-09-04 02:08:45 | 44.83208 | 9.48343 | 125° | 18km/h | 1544m | -4.4m/s | 20.8°C | 17.1% | 0hPa | 2.7V | 07:32:52 | 03:35:00 | 00:00:00 | |
| IW2NTF | 2026-09-04 02:08:39 | 44.83212 | 9.48332 | 111° | 16km/h | 1553m | -4.5m/s | 20.8°C | 17.6% | 0hPa | 2.7V | 07:32:54 | 03:34:58 | 00:00:00 | |
| IW2NTF | 2026-09-04 02:08:39 | 44.83214 | 9.48322 | 99° | 13km/h | 1561m | -4.3m/s | 20.9°C | 16.8% | 0hPa | 2.7V | 07:32:56 | 03:34:56 | 00:00:00 | |
| IW2NTF | 2026-09-04 02:08:39 | 44.83214 | 9.48314 | 87° | 9km/h | 1570m | -4.1m/s | 20.9°C | 16.9% | 0hPa | 2.7V | 07:32:58 | 03:34:54 | 00:00:00 | |
| IW2NTF | 2026-09-04 02:08:33 | 44.83213 | 9.48308 | 81° | 5km/h | 1578m | -4.1m/s | 20.9°C | 17% | 0hPa | 2.7V | 07:33:00 | 03:34:52 | 00:00:00 | |
| IW2NTF | 2026-09-04 02:08:33 | 44.83213 | 9.48305 | 83° | 5km/h | 1587m | -4.3m/s | 20.9°C | 17% | 0hPa | 2.7V | 07:33:02 | 03:34:50 | 00:00:00 | |
| IW2NTF | 2026-09-04 02:08:33 | 44.83213 | 9.48302 | 86° | 4km/h | 1595m | -4.3m/s | 20.9°C | 17.1% | 0hPa | 2.7V | 07:33:04 | 03:34:48 | 00:00:00 | |
| IW2NTF | 2026-09-04 02:08:27 | 44.83213 | 9.48299 | 127° | 4km/h | 1604m | -4.1m/s | 20.9°C | 16.4% | 0hPa | 2.7V | 07:33:06 | 03:34:46 | 00:00:00 | |
| IW2NTF | 2026-09-04 02:08:27 | 44.83216 | 9.48297 | 152° | 7km/h | 1612m | -4m/s | 20.8°C | 16% | 0hPa | 2.7V | 07:33:08 | 03:34:44 | 00:00:00 | |
| IW2NTF | 2026-09-04 02:08:27 | 44.83220 | 9.48293 | 139° | 11km/h | 1620m | -4m/s | 20.8°C | 16.6% | 0hPa | 2.7V | 07:33:10 | 03:34:42 | 00:00:00 | |
| IW2NTF | 2026-09-04 02:08:22 | 44.83223 | 9.48289 | 129° | 7km/h | 1629m | -4.5m/s | 20.8°C | 20% | 0hPa | 2.7V | 07:33:12 | 03:34:40 | 00:00:00 | |
| IW2NTF | 2026-09-04 02:08:22 | 44.83229 | 9.48285 | 163° | 11km/h | 1646m | -4.5m/s | 20.6°C | 24.3% | 0hPa | 2.7V | 07:33:16 | 03:34:36 | 00:00:00 | |
| IW2NTF | 2026-09-04 02:08:15 | 44.83234 | 9.48281 | 139° | 13km/h | 1654m | -4m/s | 20.5°C | 25.3% | 0hPa | 2.7V | 07:33:18 | 03:34:34 | 00:00:00 | |
| IW2NTF | 2026-09-04 02:08:15 | 44.83238 | 9.48274 | 120° | 11km/h | 1663m | -4.7m/s | 20.5°C | 25.8% | 0hPa | 2.7V | 07:33:20 | 03:34:32 | 00:00:00 | |
| IW2NTF | 2026-09-04 02:08:15 | 44.83241 | 9.48268 | 110° | 9km/h | 1672m | -4m/s | 20.4°C | 26.1% | 0hPa | 2.7V | 07:33:22 | 03:34:30 | 00:00:00 | |
| IW2NTF | 2026-09-04 02:08:09 | 44.83242 | 9.48263 | 110° | 7km/h | 1681m | -4.3m/s | 20.3°C | 26.3% | 0hPa | 2.7V | 07:33:24 | 03:34:28 | 00:00:00 | |
| IW2NTF | 2026-09-04 02:08:09 | 44.83243 | 9.48260 | 142° | 4km/h | 1689m | -4.1m/s | 20.2°C | 26.5% | 0hPa | 2.7V | 07:33:26 | 03:34:26 | 00:00:00 | |
| IW2NTF | 2026-09-04 02:08:09 | 44.83245 | 9.48260 | 200° | 7km/h | 1697m | -4.2m/s | 20.2°C | 26.7% | 0hPa | 2.7V | 07:33:28 | 03:34:24 | 00:00:00 | |
| IW2NTF | 2026-09-04 02:08:03 | 44.83250 | 9.48261 | 186° | 11km/h | 1706m | -4.1m/s | 20.1°C | 26.9% | 0hPa | 2.7V | 07:33:30 | 03:34:22 | 00:00:00 | |
| IW2NTF | 2026-09-04 02:08:03 | 44.83256 | 9.48260 | 165° | 15km/h | 1714m | -3.9m/s | 20°C | 27.1% | 0hPa | 2.7V | 07:33:32 | 03:34:20 | 00:00:00 | |
| IW2NTF | 2026-09-04 02:08:03 | 44.83262 | 9.48257 | 152° | 13km/h | 1722m | -4.5m/s | 20°C | 27.2% | 0hPa | 2.7V | 07:33:34 | 03:34:18 | 00:00:00 | |
| IW2NTF | 2026-09-04 02:07:57 | 44.83268 | 9.48254 | 172° | 11km/h | 1730m | -4m/s | 19.9°C | 27.3% | 0hPa | 2.7V | 07:33:36 | 03:34:16 | 00:00:00 | |
| IW2NTF | 2026-09-04 02:07:57 | 44.83274 | 9.48254 | 181° | 15km/h | 1739m | -4.3m/s | 19.8°C | 27.7% | 0hPa | 2.7V | 07:33:38 | 03:34:14 | 00:00:00 | |
| IW2NTF | 2026-09-04 02:07:57 | 44.83281 | 9.48253 | 164° | 15km/h | 1747m | -4m/s | 19.7°C | 27.8% | 0hPa | 2.7V | 07:33:40 | 03:34:12 | 00:00:00 | |
| IW2NTF | 2026-09-04 02:07:52 | 44.83287 | 9.48249 | 154° | 11km/h | 1756m | -4.2m/s | 19.6°C | 27.9% | 0hPa | 2.7V | 07:33:42 | 03:34:10 | 00:00:00 | |
| IW2NTF | 2026-09-04 02:07:52 | 44.83292 | 9.48247 | 177° | 7km/h | 1764m | -4.1m/s | 19.5°C | 29.3% | 0hPa | 2.7V | 07:33:44 | 03:34:08 | 00:00:00 | |
| IW2NTF | 2026-09-04 02:07:52 | 44.83297 | 9.48248 | 181° | 11km/h | 1772m | -4.1m/s | 19.4°C | 29.7% | 0hPa | 2.7V | 07:33:46 | 03:34:06 | 00:00:00 | |
| IW2NTF | 2026-09-04 02:07:46 | 44.83303 | 9.48246 | 155° | 11km/h | 1780m | -4.4m/s | 19.4°C | 30.6% | 0hPa | 2.7V | 07:33:48 | 03:34:04 | 00:00:00 | |
| IW2NTF | 2026-09-04 02:07:46 | 44.83306 | 9.48243 | 143° | 5km/h | 1789m | -4.1m/s | 19.3°C | 31% | 0hPa | 2.7V | 07:33:50 | 03:34:02 | 00:00:00 | |
| IW2NTF | 2026-09-04 02:07:46 | 44.83308 | 9.48242 | 193° | 4km/h | 1798m | -4.8m/s | 19.2°C | 31.1% | 0hPa | 2.7V | 07:33:52 | 03:34:00 | 00:00:00 | |
| IW2NTF | 2026-09-04 02:07:39 | 44.83311 | 9.48244 | 196° | 7km/h | 1807m | -3.9m/s | 19.1°C | 31.4% | 0hPa | 2.7V | 07:33:54 | 03:33:58 | 00:00:00 | |
| IW2NTF | 2026-09-04 02:07:39 | 44.83315 | 9.48244 | 174° | 9km/h | 1815m | -4.9m/s | 19.1°C | 31.6% | 0hPa | 2.7V | 07:33:56 | 03:33:56 | 00:00:00 | |
| IW2NTF | 2026-09-04 02:07:39 | 44.83320 | 9.48243 | 164° | 9km/h | 1825m | -4.7m/s | 19°C | 32% | 0hPa | 2.7V | 07:33:58 | 03:33:54 | 00:00:00 | |
| IW2NTF | 2026-09-04 02:07:33 | 44.83324 | 9.48240 | 142° | 9km/h | 1834m | -4.5m/s | 18.9°C | 32.5% | 0hPa | 2.7V | 07:34:00 | 03:33:52 | 00:00:00 | |
| IW2NTF | 2026-09-04 02:07:33 | 44.83327 | 9.48237 | 148° | 5km/h | 1843m | -4m/s | 18.9°C | 33.1% | 0hPa | 2.7V | 07:34:02 | 03:33:50 | 00:00:00 | |
| IW2NTF | 2026-09-04 02:07:33 | 44.83329 | 9.48237 | 184° | 4km/h | 1851m | -4.2m/s | 18.9°C | 33.6% | 0hPa | 2.7V | 07:34:04 | 03:33:48 | 00:00:00 | |
| IW2NTF | 2026-09-04 02:07:27 | 44.83332 | 9.48237 | 167° | 7km/h | 1859m | -4.1m/s | 18.8°C | 33.7% | 0hPa | 2.7V | 07:34:06 | 03:33:46 | 00:00:00 | |
| IW2NTF | 2026-09-04 02:07:27 | 44.83335 | 9.48234 | 141° | 7km/h | 1868m | -4.7m/s | 18.8°C | 33.5% | 0hPa | 2.7V | 07:34:08 | 03:33:44 | 00:00:00 | |
| IW2NTF | 2026-09-04 02:07:27 | 44.83337 | 9.48231 | 119° | 4km/h | 1877m | -4.2m/s | 18.7°C | 33.7% | 0hPa | 2.7V | 07:34:10 | 03:33:42 | 00:00:00 | |
| IW2NTF | 2026-09-04 02:07:21 | 44.83339 | 9.48230 | 183° | 2km/h | 1885m | -4.2m/s | 18.6°C | 33.8% | 0hPa | 2.7V | 07:34:12 | 03:33:40 | 00:00:00 | |
| IW2NTF | 2026-09-04 02:07:21 | 44.83340 | 9.48230 | 184° | 5km/h | 1893m | -4m/s | 18.6°C | 33.9% | 0hPa | 2.7V | 07:34:14 | 03:33:38 | 00:00:00 | |
| IW2NTF | 2026-09-04 02:07:21 | 44.83344 | 9.48229 | 156° | 5km/h | 1902m | -4.4m/s | 18.5°C | 33.9% | 0hPa | 2.7V | 07:34:16 | 03:33:36 | 00:00:00 | |
| IW2NTF | 2026-09-04 02:07:16 | 44.83345 | 9.48228 | 154° | 4km/h | 1910m | -4.5m/s | 18.4°C | 34% | 0hPa | 2.7V | 07:34:18 | 03:33:34 | 00:00:00 | |
| IW2NTF | 2026-09-04 02:07:16 | 44.83348 | 9.48227 | 176° | 5km/h | 1919m | -4.2m/s | 18.4°C | 33.9% | 0hPa | 2.7V | 07:34:20 | 03:33:32 | 00:00:00 | |
| IW2NTF | 2026-09-04 02:07:16 | 44.83352 | 9.48226 | 163° | 9km/h | 1929m | -4.9m/s | 18.4°C | 33.9% | 0hPa | 2.7V | 07:34:22 | 03:33:30 | 00:00:00 | |
| IW2NTF | 2026-09-04 02:07:09 | 44.83356 | 9.48223 | 152° | 11km/h | 1939m | -5m/s | 18.3°C | 33.9% | 0hPa | 2.7V | 07:34:24 | 03:33:28 | 00:00:00 | |
| IW2NTF | 2026-09-04 02:07:09 | 44.83360 | 9.48219 | 147° | 11km/h | 1948m | -4.3m/s | 18.3°C | 33.8% | 0hPa | 2.7V | 07:34:26 | 03:33:26 | 00:00:00 | |
| IW2NTF | 2026-09-04 02:07:09 | 44.83365 | 9.48215 | 148° | 9km/h | 1957m | -4.7m/s | 18.2°C | 33.7% | 0hPa | 2.7V | 07:34:28 | 03:33:24 | 00:00:00 | |
| IW2NTF | 2026-09-04 02:07:03 | 44.83369 | 9.48212 | 138° | 9km/h | 1965m | -4.4m/s | 18.2°C | 33.7% | 0hPa | 2.7V | 07:34:30 | 03:33:22 | 00:00:00 | |
| IW2NTF | 2026-09-04 02:07:03 | 44.83372 | 9.48207 | 128° | 9km/h | 1975m | -5.2m/s | 18.1°C | 33.9% | 0hPa | 2.7V | 07:34:32 | 03:33:20 | 00:00:00 | |
| IW2NTF | 2026-09-04 02:07:03 | 44.83374 | 9.48203 | 136° | 9km/h | 1984m | -4.4m/s | 18.1°C | 34.2% | 0hPa | 2.7V | 07:34:34 | 03:33:18 | 00:00:00 | |
| IW2NTF | 2026-09-04 02:06:57 | 44.83378 | 9.48199 | 144° | 9km/h | 1993m | -4.3m/s | 18°C | 34.6% | 0hPa | 2.7V | 07:34:36 | 03:33:16 | 00:00:00 | |
| IW2NTF | 2026-09-04 02:06:57 | 44.83384 | 9.48194 | 155° | 4km/h | 2011m | -4.5m/s | 17.8°C | 35.3% | 0hPa | 2.7V | 07:34:40 | 03:33:12 | 00:00:00 | |
| IW2NTF | 2026-09-04 02:06:50 | 44.83393 | 9.48191 | 142° | 2km/h | 2047m | -5.1m/s | 17.5°C | 36.4% | 0hPa | 2.7V | 07:34:48 | 03:33:04 | 00:00:00 | |
| IW2NTF | 2026-09-04 02:06:43 | 44.83397 | 9.48204 | 235° | 11km/h | 2074m | -4.5m/s | 17.2°C | 37.4% | 0hPa | 2.7V | 07:34:54 | 03:32:58 | 00:00:00 | |
| IW2NTF | 2026-09-04 02:06:37 | 44.83413 | 9.48207 | 148° | 11km/h | 2102m | -4.5m/s | 17°C | 38% | 0hPa | 2.7V | 07:35:00 | 03:32:52 | 00:00:00 | |
| IW2NTF | 2026-09-04 02:06:31 | 44.83420 | 9.48198 | 132° | 4km/h | 2129m | -4.3m/s | 16.8°C | 38.6% | 0hPa | 2.7V | 07:35:06 | 03:32:46 | 00:00:00 | |
| IW2NTF | 2026-09-04 02:06:25 | 44.83420 | 9.48202 | 280° | 4km/h | 2154m | -4.5m/s | 16.6°C | 38.9% | 0hPa | 2.7V | 07:35:12 | 03:32:40 | 00:00:00 | |
| IW2NTF | 2026-09-04 02:06:19 | 44.83422 | 9.48201 | 154° | 7km/h | 2180m | -4.4m/s | 16.5°C | 38.7% | 0hPa | 2.7V | 07:35:18 | 03:32:34 | 00:00:00 | |
| IW2NTF | 2026-09-04 02:06:13 | 44.83431 | 9.48198 | 157° | 5km/h | 2209m | -5.2m/s | 16.4°C | 37.8% | 0hPa | 2.7V | 07:35:24 | 03:32:28 | 00:00:00 | |
| IW2NTF | 2026-09-04 02:06:07 | 44.83439 | 9.48192 | 154° | 5km/h | 2238m | -4.9m/s | 16.2°C | 37.1% | 0hPa | 2.7V | 07:35:30 | 03:32:22 | 00:00:00 | |
| IW2NTF | 2026-09-04 02:06:01 | 44.83447 | 9.48185 | 138° | 7km/h | 2267m | -4.7m/s | 16.1°C | 36.5% | 0hPa | 2.7V | 07:35:36 | 03:32:16 | 00:00:00 | |
| IW2NTF | 2026-09-04 02:05:55 | 44.83455 | 9.48175 | 137° | 9km/h | 2297m | -5m/s | 15.8°C | 36.4% | 0hPa | 2.7V | 07:35:42 | 03:32:10 | 00:00:00 | |
| IW2NTF | 2026-09-04 02:05:50 | 44.83464 | 9.48161 | 129° | 9km/h | 2326m | -5m/s | 15.6°C | 36.3% | 0hPa | 2.7V | 07:35:48 | 03:32:04 | 00:00:00 | |
| IW2NTF | 2026-09-04 02:05:43 | 44.83474 | 9.48147 | 135° | 9km/h | 2357m | -5.3m/s | 15.4°C | 35.9% | 0hPa | 2.7V | 07:35:54 | 03:31:58 | 00:00:00 | |
| IW2NTF | 2026-09-04 02:05:37 | 44.83485 | 9.48130 | 133° | 13km/h | 2387m | -5.1m/s | 15.2°C | 35.7% | 0hPa | 2.7V | 07:36:00 | 03:31:52 | 00:00:00 | |
| IW2NTF | 2026-09-04 02:05:31 | 44.83498 | 9.48110 | 129° | 11km/h | 2417m | -5m/s | 14.8°C | 36.4% | 0hPa | 2.6V | 07:36:06 | 03:31:46 | 00:00:00 | |
| IW2NTF | 2026-09-04 02:05:25 | 44.83510 | 9.48089 | 125° | 15km/h | 2447m | -5.3m/s | 14.6°C | 36.3% | 0hPa | 2.7V | 07:36:12 | 03:31:40 | 00:00:00 | |
| IW2NTF | 2026-09-04 02:05:19 | 44.83522 | 9.48066 | 128° | 15km/h | 2478m | -5.3m/s | 14.4°C | 36.3% | 0hPa | 2.7V | 07:36:18 | 03:31:34 | 00:00:00 | |
| IW2NTF | 2026-09-04 02:05:13 | 44.83535 | 9.48041 | 122° | 15km/h | 2509m | -5.3m/s | 14.1°C | 36.7% | 0hPa | 2.7V | 07:36:24 | 03:31:28 | 00:00:00 | |
| IW2NTF | 2026-09-04 02:05:07 | 44.83547 | 9.48015 | 124° | 16km/h | 2540m | -4.9m/s | 13.8°C | 36.9% | 0hPa | 2.7V | 07:36:30 | 03:31:22 | 00:00:00 | |
| IW2NTF | 2026-09-04 02:05:01 | 44.83562 | 9.47987 | 126° | 16km/h | 2570m | -5.1m/s | 13.5°C | 37.4% | 0hPa | 2.6V | 07:36:36 | 03:31:16 | 00:00:00 | |
| IW2NTF | 2026-09-04 02:04:55 | 44.83577 | 9.47959 | 129° | 16km/h | 2601m | -5.1m/s | 13.3°C | 38.2% | 0hPa | 2.6V | 07:36:42 | 03:31:10 | 00:00:00 | |
| IW2NTF | 2026-09-04 02:04:49 | 44.83596 | 9.47931 | 137° | 18km/h | 2631m | -5m/s | 13.1°C | 40% | 0hPa | 2.7V | 07:36:48 | 03:31:04 | 00:00:00 | |
| IW2NTF | 2026-09-04 02:04:43 | 44.83619 | 9.47904 | 139° | 20km/h | 2662m | -5.2m/s | 12.8°C | 41% | 0hPa | 2.7V | 07:36:54 | 03:30:58 | 00:00:00 | |
| IW2NTF | 2026-09-04 02:04:37 | 44.83643 | 9.47874 | 138° | 22km/h | 2692m | -5.2m/s | 12.6°C | 42.3% | 0hPa | 2.7V | 07:37:00 | 03:30:52 | 00:00:00 | |
| IW2NTF | 2026-09-04 02:04:31 | 44.83666 | 9.47843 | 132° | 20km/h | 2723m | -5.4m/s | 12.7°C | 41.1% | 0hPa | 2.6V | 07:37:06 | 03:30:46 | 00:00:00 | |
| IW2NTF | 2026-09-04 02:04:25 | 44.83687 | 9.47811 | 133° | 22km/h | 2754m | -5.4m/s | 12.8°C | 39.4% | 0hPa | 2.7V | 07:37:12 | 03:30:40 | 00:00:00 | |
| IW2NTF | 2026-09-04 02:04:19 | 44.83708 | 9.47776 | 132° | 20km/h | 2786m | -5.4m/s | 12.7°C | 37.3% | 0hPa | 2.7V | 07:37:18 | 03:30:34 | 00:00:00 | |
| IW2NTF | 2026-09-04 02:04:13 | 44.83730 | 9.47745 | 137° | 20km/h | 2817m | -5.1m/s | 12.6°C | 37% | 0hPa | 2.6V | 07:37:24 | 03:30:28 | 00:00:00 | |
| IW2NTF | 2026-09-04 02:04:07 | 44.83752 | 9.47717 | 138° | 20km/h | 2848m | -5.1m/s | 12.4°C | 36.7% | 0hPa | 2.7V | 07:37:30 | 03:30:22 | 00:00:00 | |
| IW2NTF | 2026-09-04 02:04:01 | 44.83775 | 9.47691 | 144° | 18km/h | 2879m | -5.2m/s | 12.3°C | 35.7% | 0hPa | 2.7V | 07:37:36 | 03:30:16 | 00:00:00 | |
| IW2NTF | 2026-09-04 02:03:55 | 44.83798 | 9.47669 | 146° | 18km/h | 2910m | -5.5m/s | 12.1°C | 35% | 0hPa | 2.6V | 07:37:42 | 03:30:10 | 00:00:00 | |
| IW2NTF | 2026-09-04 02:03:49 | 44.83820 | 9.47646 | 139° | 18km/h | 2941m | -5.3m/s | 11.8°C | 35% | 0hPa | 2.7V | 07:37:48 | 03:30:04 | 00:00:00 | |
| IW2NTF | 2026-09-04 02:03:43 | 44.83840 | 9.47624 | 142° | 16km/h | 2972m | -5m/s | 11.7°C | 35% | 0hPa | 2.7V | 07:37:54 | 03:29:58 | 00:00:00 | |
| IW2NTF | 2026-09-04 02:03:37 | 44.83861 | 9.47599 | 135° | 18km/h | 3003m | -5m/s | 11.4°C | 35.5% | 0hPa | 2.7V | 07:38:00 | 03:29:52 | 00:00:00 | |
| IW2NTF | 2026-09-04 02:03:31 | 44.83881 | 9.47571 | 137° | 18km/h | 3034m | -5.2m/s | 11.2°C | 35.7% | 0hPa | 2.7V | 07:38:06 | 03:29:46 | 00:00:00 | |
| IW2NTF | 2026-09-04 02:03:25 | 44.83903 | 9.47542 | 137° | 20km/h | 3065m | -5m/s | 11°C | 34.1% | 0hPa | 2.6V | 07:38:12 | 03:29:40 | 00:00:00 | |
| IW2NTF | 2026-09-04 02:03:19 | 44.83926 | 9.47513 | 138° | 20km/h | 3096m | -5m/s | 10.8°C | 34.5% | 0hPa | 2.7V | 07:38:18 | 03:29:34 | 00:00:00 | |
| IW2NTF | 2026-09-04 02:03:13 | 44.83949 | 9.47486 | 143° | 20km/h | 3127m | -5.5m/s | 10.4°C | 35.1% | 0hPa | 2.7V | 07:38:24 | 03:29:28 | 00:00:00 | |
| IW2NTF | 2026-09-04 02:03:08 | 44.83973 | 9.47459 | 139° | 20km/h | 3158m | -5.4m/s | 10.1°C | 35.7% | 0hPa | 2.7V | 07:38:30 | 03:29:22 | 00:00:00 | |
| IW2NTF | 2026-09-04 02:03:01 | 44.83996 | 9.47432 | 142° | 18km/h | 3189m | -5.1m/s | 9.9°C | 36% | 0hPa | 2.7V | 07:38:36 | 03:29:16 | 00:00:00 | |
| IW2NTF | 2026-09-04 02:02:55 | 44.84019 | 9.47406 | 142° | 20km/h | 3220m | -5m/s | 9.6°C | 36.7% | 0hPa | 2.6V | 07:38:42 | 03:29:10 | 00:00:00 | |
| IW2NTF | 2026-09-04 02:02:49 | 44.84043 | 9.47378 | 137° | 20km/h | 3250m | -4.9m/s | 9.3°C | 37.3% | 0hPa | 2.7V | 07:38:48 | 03:29:04 | 00:00:00 | |
| IW2NTF | 2026-09-04 02:02:44 | 44.84066 | 9.47350 | 143° | 20km/h | 3281m | -5m/s | 9°C | 37.9% | 0hPa | 2.7V | 07:38:54 | 03:28:58 | 00:00:00 | |
| IW2NTF | 2026-09-04 02:02:37 | 44.84091 | 9.47323 | 141° | 22km/h | 3311m | -5m/s | 8.7°C | 38.4% | 0hPa | 2.7V | 07:39:00 | 03:28:52 | 00:00:00 | |
| IW2NTF | 2026-09-04 02:02:31 | 44.84117 | 9.47293 | 139° | 22km/h | 3340m | -5.1m/s | 8.4°C | 38.9% | 0hPa | 2.6V | 07:39:06 | 03:28:46 | 00:00:00 | |
| IW2NTF | 2026-09-04 02:02:25 | 44.84144 | 9.47263 | 146° | 22km/h | 3370m | -5m/s | 8.1°C | 39.2% | 0hPa | 2.7V | 07:39:12 | 03:28:40 | 00:00:00 | |
| IW2NTF | 2026-09-04 02:02:19 | 44.84174 | 9.47233 | 137° | 26km/h | 3399m | -5.1m/s | 7.9°C | 39.3% | 0hPa | 2.7V | 07:39:18 | 03:28:34 | 00:00:00 | |
| IW2NTF | 2026-09-04 02:02:13 | 44.84200 | 9.47191 | 131° | 22km/h | 3428m | -4m/s | 7.6°C | 39.6% | 0hPa | 2.7V | 07:39:24 | 03:28:28 | 00:00:00 | |
| IW2NTF | 2026-09-04 02:02:07 | 44.84229 | 9.47171 | 157° | 27km/h | 3456m | -4.7m/s | 7.3°C | 40.1% | 0hPa | 2.6V | 07:39:30 | 03:28:22 | 00:00:00 | |
| IW2NTF | 2026-09-04 02:02:01 | 44.84263 | 9.47132 | 128° | 27km/h | 3484m | -4.5m/s | 7.1°C | 39.9% | 0hPa | 2.7V | 07:39:36 | 03:28:16 | 00:00:00 | |
| IW2NTF | 2026-09-04 02:01:55 | 44.84287 | 9.47090 | 130° | 24km/h | 3511m | -4.4m/s | 6.8°C | 40.6% | 0hPa | 2.7V | 07:39:42 | 03:28:10 | 00:00:00 | |
| IW2NTF | 2026-09-04 02:01:49 | 44.84308 | 9.47057 | 131° | 18km/h | 3539m | -4.8m/s | 6.6°C | 40.9% | 0hPa | 2.6V | 07:39:48 | 03:28:04 | 00:00:00 | |
| IW2NTF | 2026-09-04 02:01:43 | 44.84332 | 9.47039 | 169° | 24km/h | 3567m | -4.5m/s | 6.3°C | 41.6% | 0hPa | 2.7V | 07:39:54 | 03:27:58 | 00:00:00 | |
| IW2NTF | 2026-09-04 02:01:37 | 44.84373 | 9.47018 | 147° | 29km/h | 3594m | -4.3m/s | 6.1°C | 41.9% | 0hPa | 2.6V | 07:40:00 | 03:27:52 | 00:00:00 | |
| IW2NTF | 2026-09-04 02:01:31 | 44.84403 | 9.46980 | 137° | 27km/h | 3622m | -4.6m/s | 5.9°C | 41.2% | 0hPa | 2.6V | 07:40:06 | 03:27:46 | 00:00:00 | |
| IW2NTF | 2026-09-04 02:01:25 | 44.84436 | 9.46940 | 142° | 29km/h | 3649m | -4.3m/s | 5.8°C | 41.4% | 0hPa | 2.7V | 07:40:12 | 03:27:40 | 00:00:00 | |
| IW2NTF | 2026-09-04 02:01:19 | 44.84473 | 9.46917 | 164° | 22km/h | 3675m | -4.4m/s | 5.9°C | 38% | 0hPa | 2.7V | 07:40:18 | 03:27:34 | 00:00:00 | |
| IW2NTF | 2026-09-04 02:01:13 | 44.84507 | 9.46898 | 157° | 26km/h | 3703m | -4.6m/s | 5.7°C | 37.6% | 0hPa | 2.7V | 07:40:24 | 03:27:28 | 00:00:00 | |
| IW2NTF | 2026-09-04 02:01:07 | 44.84545 | 9.46878 | 163° | 26km/h | 3731m | -4.6m/s | 5.5°C | 36.1% | 0hPa | 2.7V | 07:40:30 | 03:27:22 | 00:00:00 | |
| IW2NTF | 2026-09-04 02:01:01 | 44.84583 | 9.46861 | 159° | 27km/h | 3760m | -4.7m/s | 5.4°C | 34% | 0hPa | 2.6V | 07:40:36 | 03:27:16 | 00:00:00 | |
| IW2NTF | 2026-09-04 02:00:55 | 44.84624 | 9.46839 | 161° | 29km/h | 3788m | -4.8m/s | 5.5°C | 23.6% | 0hPa | 2.6V | 07:40:42 | 03:27:10 | 00:00:00 | |
| IW2NTF | 2026-09-04 02:00:49 | 44.84668 | 9.46818 | 159° | 31km/h | 3816m | -4.8m/s | 5.7°C | 15.6% | 0hPa | 2.7V | 07:40:48 | 03:27:04 | 00:00:00 | |
| IW2NTF | 2026-09-04 02:00:43 | 44.84711 | 9.46794 | 158° | 29km/h | 3845m | -4.8m/s | 5.7°C | 11.1% | 0hPa | 2.7V | 07:40:54 | 03:26:58 | 00:00:00 | |
| IW2NTF | 2026-09-04 02:00:37 | 44.84753 | 9.46770 | 156° | 29km/h | 3873m | -4.6m/s | 5.6°C | 9.2% | 0hPa | 2.7V | 07:41:00 | 03:26:52 | 00:00:00 | |
| IW2NTF | 2026-09-04 02:00:31 | 44.84793 | 9.46743 | 154° | 31km/h | 3901m | -4.8m/s | 5.6°C | 3.6% | 0hPa | 2.7V | 07:41:06 | 03:26:46 | 00:00:00 | |
| IW2NTF | 2026-09-04 02:00:25 | 44.84837 | 9.46716 | 156° | 33km/h | 3930m | -4.7m/s | 5.6°C | 3% | 0hPa | 2.7V | 07:41:12 | 03:26:40 | 00:00:00 | |
| IW2NTF | 2026-09-04 02:00:19 | 44.84884 | 9.46689 | 157° | 35km/h | 3958m | -4.9m/s | 5.6°C | 2.4% | 0hPa | 2.6V | 07:41:18 | 03:26:34 | 00:00:00 | |
| IW2NTF | 2026-09-04 02:00:13 | 44.84934 | 9.46662 | 160° | 37km/h | 3988m | -5m/s | 5.5°C | 2.3% | 0hPa | 2.6V | 07:41:24 | 03:26:28 | 00:00:00 | |
| IW2NTF | 2026-09-04 02:00:07 | 44.84986 | 9.46636 | 159° | 35km/h | 4017m | -5m/s | 5.5°C | 2.4% | 0hPa | 2.6V | 07:41:30 | 03:26:22 | 00:00:00 | |
| IW2NTF | 2026-09-04 02:00:01 | 44.85037 | 9.46612 | 163° | 35km/h | 4048m | -5.2m/s | 5.5°C | 2.5% | 0hPa | 2.7V | 07:41:36 | 03:26:16 | 00:00:00 | |
| IW2NTF | 2026-09-04 01:59:53 | 44.85107 | 9.46583 | 161° | 37km/h | 4089m | -4.9m/s | 5.4°C | 3.4% | 0hPa | 2.6V | 07:41:44 | 03:26:08 | 00:00:00 | |
| IW2NTF | 2026-09-04 01:59:47 | 44.85160 | 9.46558 | 159° | 37km/h | 4119m | -4.8m/s | 5.2°C | 14.6% | 0hPa | 2.6V | 07:41:50 | 03:26:02 | 00:00:00 | |
| IW2NTF | 2026-09-04 01:59:41 | 44.85212 | 9.46531 | 160° | 37km/h | 4149m | -5.1m/s | 4.9°C | 28.5% | 0hPa | 2.6V | 07:41:56 | 03:25:56 | 00:00:00 | |
| IW2NTF | 2026-09-04 01:59:35 | 44.85266 | 9.46507 | 163° | 38km/h | 4179m | -5m/s | 4.6°C | 31.5% | 0hPa | 2.6V | 07:42:02 | 03:25:50 | 00:00:00 | |
| IW2NTF | 2026-09-04 01:59:29 | 44.85320 | 9.46482 | 162° | 37km/h | 4210m | -5.2m/s | 4.3°C | 35.9% | 0hPa | 2.7V | 07:42:08 | 03:25:44 | 00:00:00 | |
| IW2NTF | 2026-09-04 01:59:23 | 44.85373 | 9.46456 | 160° | 37km/h | 4242m | -5.3m/s | 4°C | 38.2% | 0hPa | 2.7V | 07:42:14 | 03:25:38 | 00:00:00 | |
| IW2NTF | 2026-09-04 01:59:17 | 44.85426 | 9.46430 | 160° | 37km/h | 4273m | -5.4m/s | 3.8°C | 39.8% | 0hPa | 2.7V | 07:42:20 | 03:25:32 | 00:00:00 | |
| IW2NTF | 2026-09-04 01:59:11 | 44.85477 | 9.46404 | 159° | 37km/h | 4304m | -5.3m/s | 3.5°C | 40.7% | 0hPa | 2.7V | 07:42:26 | 03:25:26 | 00:00:00 | |
| IW2NTF | 2026-09-04 01:59:05 | 44.85531 | 9.46377 | 160° | 38km/h | 4335m | -5.2m/s | 3.2°C | 41.3% | 0hPa | 2.7V | 07:42:32 | 03:25:20 | 00:00:00 | |
| IW2NTF | 2026-09-04 01:58:59 | 44.85585 | 9.46350 | 159° | 37km/h | 4367m | -5.3m/s | 2.9°C | 41.5% | 0hPa | 2.7V | 07:42:38 | 03:25:14 | 00:00:00 | |
| IW2NTF | 2026-09-04 01:58:53 | 44.85638 | 9.46321 | 158° | 38km/h | 4399m | -5.4m/s | 2.7°C | 40.5% | 0hPa | 2.7V | 07:42:44 | 03:25:08 | 00:00:00 | |
| IW2NTF | 2026-09-04 01:58:47 | 44.85693 | 9.46292 | 158° | 37km/h | 4430m | -5.4m/s | 2.4°C | 39.8% | 0hPa | 2.7V | 07:42:50 | 03:25:02 | 00:00:00 | |
| IW2NTF | 2026-09-04 01:58:41 | 44.85745 | 9.46262 | 158° | 38km/h | 4462m | -5.6m/s | 2.1°C | 41.6% | 0hPa | 2.7V | 07:42:56 | 03:24:56 | 00:00:00 | |
| IW2NTF | 2026-09-04 01:58:35 | 44.85798 | 9.46233 | 159° | 37km/h | 4494m | -5.7m/s | 1.8°C | 42.7% | 0hPa | 2.7V | 07:43:02 | 03:24:50 | 00:00:00 | |
| IW2NTF | 2026-09-04 01:58:29 | 44.85849 | 9.46205 | 158° | 37km/h | 4527m | -5.3m/s | 1.5°C | 43.8% | 0hPa | 2.7V | 07:43:08 | 03:24:44 | 00:00:00 | |
| IW2NTF | 2026-09-04 01:58:23 | 44.85900 | 9.46179 | 159° | 35km/h | 4559m | -5.5m/s | 1.2°C | 44.6% | 0hPa | 2.7V | 07:43:14 | 03:24:38 | 00:00:00 | |
| IW2NTF | 2026-09-04 01:58:17 | 44.85951 | 9.46155 | 162° | 35km/h | 4592m | -5.6m/s | 0.9°C | 45.3% | 0hPa | 2.7V | 07:43:20 | 03:24:32 | 00:00:00 | |
| IW2NTF | 2026-09-04 01:58:11 | 44.86001 | 9.46132 | 162° | 35km/h | 4624m | -5.6m/s | 0.6°C | 46.3% | 0hPa | 2.7V | 07:43:26 | 03:24:26 | 00:00:00 | |
| IW2NTF | 2026-09-04 01:58:05 | 44.86051 | 9.46109 | 162° | 35km/h | 4657m | -5.5m/s | 0.3°C | 47.4% | 0hPa | 2.7V | 07:43:32 | 03:24:20 | 00:00:00 | |
| IW2NTF | 2026-09-04 01:57:59 | 44.86100 | 9.46086 | 160° | 33km/h | 4690m | -5.6m/s | 0°C | 48.5% | 0hPa | 2.7V | 07:43:38 | 03:24:14 | 00:00:00 | |
| IW2NTF | 2026-09-04 01:57:53 | 44.86146 | 9.46062 | 160° | 31km/h | 4723m | -5.5m/s | -0.3°C | 49.4% | 0hPa | 2.7V | 07:43:44 | 03:24:08 | 00:00:00 | |
| IW2NTF | 2026-09-04 01:57:47 | 44.86192 | 9.46038 | 158° | 33km/h | 4756m | -5.6m/s | -0.6°C | 49.9% | 0hPa | 2.7V | 07:43:50 | 03:24:02 | 00:00:00 | |
| IW2NTF | 2026-09-04 01:57:41 | 44.86238 | 9.46014 | 159° | 33km/h | 4789m | -5.2m/s | -0.9°C | 51% | 0hPa | 2.6V | 07:43:56 | 03:23:56 | 00:00:00 | |
| IW2NTF | 2026-09-04 01:57:35 | 44.86283 | 9.45989 | 158° | 31km/h | 4821m | -5.4m/s | -1.1°C | 52.9% | 0hPa | 2.7V | 07:44:02 | 03:23:50 | 00:00:00 | |
| IW2NTF | 2026-09-04 01:57:29 | 44.86328 | 9.45961 | 155° | 33km/h | 4855m | -5.6m/s | -1.4°C | 53.6% | 0hPa | 2.6V | 07:44:08 | 03:23:44 | 00:00:00 | |
| IW2NTF | 2026-09-04 01:57:23 | 44.86372 | 9.45932 | 154° | 33km/h | 4887m | -5.6m/s | -1.7°C | 54.3% | 0hPa | 2.6V | 07:44:14 | 03:23:38 | 00:00:00 | |
| IW2NTF | 2026-09-04 01:57:17 | 44.86417 | 9.45904 | 154° | 33km/h | 4919m | -5.3m/s | -2°C | 54.8% | 0hPa | 2.6V | 07:44:20 | 03:23:32 | 00:00:00 | |
| IW2NTF | 2026-09-04 01:57:11 | 44.86463 | 9.45872 | 154° | 35km/h | 4951m | -5.3m/s | -2.3°C | 55.9% | 0hPa | 2.6V | 07:44:26 | 03:23:26 | 00:00:00 | |
| IW2NTF | 2026-09-04 01:57:05 | 44.86510 | 9.45839 | 152° | 35km/h | 4983m | -5.2m/s | -2.6°C | 56.7% | 0hPa | 2.6V | 07:44:32 | 03:23:20 | 00:00:00 | |
| IW2NTF | 2026-09-04 01:56:59 | 44.86556 | 9.45804 | 149° | 33km/h | 5016m | -5.5m/s | -2.8°C | 55.8% | 0hPa | 2.6V | 07:44:38 | 03:23:14 | 00:00:00 | |
| IW2NTF | 2026-09-04 01:56:49 | 44.86633 | 9.45748 | 151° | 35km/h | 5070m | -5.6m/s | -3.3°C | 55.9% | 0hPa | 2.6V | 07:44:48 | 03:23:04 | 00:00:00 | |
| IW2NTF | 2026-09-04 01:56:39 | 44.86706 | 9.45683 | 144° | 35km/h | 5126m | -5.5m/s | -3.7°C | 57.4% | 0hPa | 2.5V | 07:44:58 | 03:22:54 | 00:00:00 | |
| IW2NTF | 2026-09-04 01:56:29 | 44.86769 | 9.45606 | 135° | 33km/h | 5180m | -5.1m/s | -3.7°C | 47.3% | 0hPa | 2.6V | 07:45:08 | 03:22:44 | 00:00:00 | |
| IW2NTF | 2026-09-04 01:56:03 | 44.86928 | 9.45397 | 134° | 33km/h | 5318m | -5.2m/s | -3.9°C | 35.5% | 0hPa | 2.5V | 07:45:34 | 03:22:18 | 00:00:00 | |
| IW2NTF | 2026-09-04 01:55:53 | 44.86987 | 9.45309 | 133° | 35km/h | 5370m | -5.4m/s | -4.1°C | 34% | 0hPa | 2.5V | 07:45:44 | 03:22:08 | 00:00:00 | |
| IW2NTF | 2026-09-04 01:55:44 | 44.87051 | 9.45218 | 136° | 37km/h | 5423m | -5.5m/s | -4.5°C | 37.2% | 0hPa | 2.6V | 07:45:54 | 03:21:58 | 00:00:00 | |
| IW2NTF | 2026-09-04 01:53:46 | 44.87965 | 9.44187 | 152° | 40km/h | 6046m | -5.4m/s | -8.8°C | 29.9% | 0hPa | 2.5V | 07:47:51 | 03:20:01 | 00:00:00 | |
| IW2NTF | 2026-09-04 01:53:36 | 44.88058 | 9.44128 | 158° | 40km/h | 6101m | -5.6m/s | -9.1°C | 29.9% | 0hPa | 2.6V | 07:48:01 | 03:19:51 | 00:00:00 | |
| IW2NTF | 2026-09-04 01:53:26 | 44.88148 | 9.44070 | 152° | 40km/h | 6156m | -5.7m/s | -9.5°C | 31.9% | 0hPa | 2.6V | 07:48:11 | 03:19:41 | 00:00:00 | |
| IW2NTF | 2026-09-04 01:53:16 | 44.88237 | 9.44004 | 150° | 40km/h | 6212m | -5.5m/s | -9.9°C | 29.9% | 0hPa | 2.6V | 07:48:21 | 03:19:31 | 00:00:00 | |
| IW2NTF | 2026-09-04 01:53:06 | 44.88326 | 9.43926 | 145° | 42km/h | 6267m | -5.2m/s | -10.4°C | 29.7% | 0hPa | 2.5V | 07:48:31 | 03:19:21 | 00:00:00 | |
| IW2NTF | 2026-09-04 01:52:56 | 44.88412 | 9.43834 | 138° | 44km/h | 6320m | -5.1m/s | -10.6°C | 27.7% | 0hPa | 2.5V | 07:48:41 | 03:19:11 | 00:00:00 | |
| IW2NTF | 2026-09-04 01:52:46 | 44.88496 | 9.43725 | 137° | 46km/h | 6374m | -5.2m/s | -10.7°C | 24% | 0hPa | 2.6V | 07:48:51 | 03:19:01 | 00:00:00 | |
| IW2NTF | 2026-09-04 01:52:36 | 44.88583 | 9.43605 | 134° | 49km/h | 6426m | -5.5m/s | -10.9°C | 21% | 0hPa | 2.6V | 07:49:01 | 03:18:51 | 00:00:00 | |
| IW2NTF | 2026-09-04 01:52:26 | 44.88668 | 9.43478 | 132° | 49km/h | 6479m | -5.1m/s | -11.2°C | 21.8% | 0hPa | 2.6V | 07:49:11 | 03:18:41 | 00:00:00 | |
| IW2NTF | 2026-09-04 01:52:16 | 44.88755 | 9.43348 | 132° | 49km/h | 6532m | -5.4m/s | -11.6°C | 22.4% | 0hPa | 2.5V | 07:49:21 | 03:18:31 | 00:00:00 | |
| IW2NTF | 2026-09-04 01:52:06 | 44.88842 | 9.43218 | 133° | 49km/h | 6584m | -5.4m/s | -12.1°C | 21.7% | 0hPa | 2.5V | 07:49:31 | 03:18:21 | 00:00:00 | |
| IW2NTF | 2026-09-04 01:51:56 | 44.88929 | 9.43091 | 135° | 49km/h | 6638m | -5.5m/s | -12.6°C | 21.8% | 0hPa | 2.6V | 07:49:41 | 03:18:11 | 00:00:00 | |
| IW2NTF | 2026-09-04 01:51:46 | 44.89012 | 9.42969 | 134° | 46km/h | 6692m | -5.3m/s | -13°C | 22.2% | 0hPa | 2.5V | 07:49:51 | 03:18:01 | 00:00:00 | |
| IW2NTF | 2026-09-04 01:51:33 | 44.89115 | 9.42819 | 135° | 46km/h | 6762m | -5.4m/s | -13.5°C | 21.7% | 0hPa | 2.6V | 07:50:04 | 03:17:48 | 00:00:00 | |
| IW2NTF | 2026-09-04 01:51:17 | 44.89248 | 9.42640 | 136° | 47km/h | 6849m | -5.8m/s | -14.2°C | 22.8% | 0hPa | 2.5V | 07:50:20 | 03:17:32 | 00:00:00 | |
| IW2NTF | 2026-09-04 01:51:07 | 44.89338 | 9.42524 | 138° | 49km/h | 6904m | -5.3m/s | -14.5°C | 20.4% | 0hPa | 2.5V | 07:50:30 | 03:17:22 | 00:00:00 | |
| IW2NTF | 2026-09-04 01:50:57 | 44.89431 | 9.42409 | 139° | 46km/h | 6959m | -5.5m/s | -14.9°C | 18.6% | 0hPa | 2.6V | 07:50:40 | 03:17:12 | 00:00:00 | |
| IW2NTF | 2026-09-04 01:50:47 | 44.89523 | 9.42304 | 140° | 47km/h | 7013m | -5.3m/s | -14.9°C | 15.2% | 0hPa | 2.6V | 07:50:50 | 03:17:02 | 00:00:00 | |
| IW2NTF | 2026-09-04 01:50:37 | 44.89620 | 9.42201 | 143° | 49km/h | 7069m | -5.4m/s | -15.3°C | 14.2% | 0hPa | 2.5V | 07:51:00 | 03:16:52 | 00:00:00 | |
| IW2NTF | 2026-09-04 01:50:27 | 44.89725 | 9.42094 | 145° | 53km/h | 7123m | -5.8m/s | -15.7°C | 14% | 0hPa | 2.6V | 07:51:10 | 03:16:42 | 00:00:00 | |
| IW2NTF | 2026-09-04 01:50:17 | 44.89835 | 9.41990 | 146° | 53km/h | 7179m | -5.9m/s | -16.2°C | 14.5% | 0hPa | 2.5V | 07:51:20 | 03:16:32 | 00:00:00 | |
| IW2NTF | 2026-09-04 01:50:07 | 44.89947 | 9.41882 | 144° | 53km/h | 7236m | -6.1m/s | -16.8°C | 15.2% | 0hPa | 2.6V | 07:51:30 | 03:16:22 | 00:00:00 | |
| IW2NTF | 2026-09-04 01:49:57 | 44.90059 | 9.41776 | 145° | 55km/h | 7293m | -6m/s | -17.3°C | 15.9% | 0hPa | 2.6V | 07:51:40 | 03:16:12 | 00:00:00 | |
| IW2NTF | 2026-09-04 01:49:48 | 44.90172 | 9.41662 | 143° | 55km/h | 7352m | -5.8m/s | -17.9°C | 17.2% | 0hPa | 2.5V | 07:51:50 | 03:16:02 | 00:00:00 | |
| IW2NTF | 2026-09-04 01:49:35 | 44.90307 | 9.41516 | 141° | 57km/h | 7424m | -5.5m/s | -18.6°C | 18.4% | 0hPa | 2.5V | 07:52:02 | 03:15:50 | 00:00:00 | |
| IW2NTF | 2026-09-04 01:49:25 | 44.90427 | 9.41389 | 143° | 62km/h | 7480m | -5.3m/s | -19.2°C | 19.2% | 0hPa | 2.6V | 07:52:12 | 03:15:40 | 00:00:00 | |
| IW2NTF | 2026-09-04 01:49:15 | 44.90541 | 9.41259 | 142° | 62km/h | 7536m | -5.7m/s | -19.6°C | 19.9% | 0hPa | 2.6V | 07:52:22 | 03:15:30 | 00:00:00 | |
| IW2NTF | 2026-09-04 01:49:05 | 44.90670 | 9.41102 | 135° | 64km/h | 7593m | -5.6m/s | -20.1°C | 20.7% | 0hPa | 2.6V | 07:52:32 | 03:15:20 | 00:00:00 | |
| IW2NTF | 2026-09-04 01:48:55 | 44.90786 | 9.40945 | 134° | 66km/h | 7649m | -5.8m/s | -20.7°C | 21.4% | 0hPa | 2.5V | 07:52:42 | 03:15:10 | 00:00:00 | |
| IW2NTF | 2026-09-04 01:48:45 | 44.90894 | 9.40773 | 130° | 64km/h | 7708m | -5.9m/s | -21.1°C | 20.5% | 0hPa | 2.6V | 07:52:52 | 03:15:00 | 00:00:00 | |
| IW2NTF | 2026-09-04 01:48:35 | 44.90991 | 9.40598 | 125° | 60km/h | 7768m | -6m/s | -21.6°C | 20.2% | 0hPa | 2.6V | 07:53:02 | 03:14:50 | 00:00:00 | |
| IW2NTF | 2026-09-04 01:48:25 | 44.91077 | 9.40413 | 121° | 64km/h | 7828m | -6.2m/s | -21.9°C | 17.1% | 0hPa | 2.5V | 07:53:12 | 03:14:40 | 00:00:00 | |
| IW2NTF | 2026-09-04 01:48:15 | 44.91155 | 9.40225 | 119° | 62km/h | 7889m | -6.2m/s | -22.1°C | 15.1% | 0hPa | 2.5V | 07:53:22 | 03:14:30 | 00:00:00 | |
| IW2NTF | 2026-09-04 01:48:05 | 44.91230 | 9.40041 | 120° | 58km/h | 7950m | -6.3m/s | -22.5°C | 14.3% | 0hPa | 2.5V | 07:53:32 | 03:14:20 | 00:00:00 | |
| IW2NTF | 2026-09-04 01:47:55 | 44.91304 | 9.39869 | 121° | 55km/h | 8010m | -5.9m/s | -22.7°C | 12.6% | 0hPa | 2.6V | 07:53:42 | 03:14:10 | 00:00:00 | |
| IW2NTF | 2026-09-04 01:47:45 | 44.91380 | 9.39703 | 122° | 55km/h | 8070m | -6.1m/s | -23.1°C | 11.5% | 0hPa | 2.5V | 07:53:52 | 03:14:00 | 00:00:00 | |
| IW2NTF | 2026-09-04 01:47:35 | 44.91460 | 9.39543 | 125° | 55km/h | 8129m | -6m/s | -23.7°C | 11.4% | 0hPa | 2.5V | 07:54:02 | 03:13:50 | 00:00:00 | |
| IW2NTF | 2026-09-04 01:47:25 | 44.91536 | 9.39387 | 125° | 51km/h | 8188m | -5.8m/s | -24.1°C | 11% | 0hPa | 2.6V | 07:54:12 | 03:13:40 | 00:00:00 | |
| IW2NTF | 2026-09-04 01:47:15 | 44.91612 | 9.39242 | 126° | 49km/h | 8246m | -6m/s | -24.6°C | 10.7% | 0hPa | 2.5V | 07:54:22 | 03:13:30 | 00:00:00 | |
| IW2NTF | 2026-09-04 01:47:06 | 44.91687 | 9.39104 | 128° | 49km/h | 8303m | -5.7m/s | -24.9°C | 9.8% | 0hPa | 2.6V | 07:54:32 | 03:13:20 | 00:00:00 | |
| IW2NTF | 2026-09-04 01:46:55 | 44.91767 | 9.38966 | 129° | 51km/h | 8362m | -5.8m/s | -25.2°C | 9.4% | 0hPa | 2.5V | 07:54:42 | 03:13:10 | 00:00:00 | |
| IW2NTF | 2026-09-04 01:46:45 | 44.91847 | 9.38833 | 131° | 47km/h | 8420m | -5.7m/s | -25.6°C | 9.8% | 0hPa | 2.6V | 07:54:52 | 03:13:00 | 00:00:00 | |
| IW2NTF | 2026-09-04 01:46:35 | 44.91931 | 9.38700 | 131° | 49km/h | 8478m | -6m/s | -26°C | 9.5% | 0hPa | 2.4V | 07:55:02 | 03:12:50 | 00:00:00 | |
| IW2NTF | 2026-09-04 01:46:25 | 44.92020 | 9.38558 | 131° | 57km/h | 8536m | -6.2m/s | -26.4°C | 10.3% | 0hPa | 2.6V | 07:55:12 | 03:12:40 | 00:00:00 | |
| IW2NTF | 2026-09-04 01:46:15 | 44.92113 | 9.38400 | 127° | 58km/h | 8593m | -5.8m/s | -26.8°C | 10.4% | 0hPa | 2.6V | 07:55:22 | 03:12:30 | 00:00:00 | |
| IW2NTF | 2026-09-04 01:46:05 | 44.92210 | 9.38224 | 128° | 66km/h | 8653m | -5.8m/s | -27.3°C | 10.6% | 0hPa | 2.4V | 07:55:32 | 03:12:20 | 00:00:00 | |
| IW2NTF | 2026-09-04 01:45:55 | 44.92312 | 9.38043 | 127° | 66km/h | 8711m | -5.3m/s | -27.7°C | 10.9% | 0hPa | 2.5V | 07:55:42 | 03:12:10 | 00:00:00 | |
| IW2NTF | 2026-09-04 01:45:45 | 44.92416 | 9.37844 | 126° | 68km/h | 8769m | -5.8m/s | -28.2°C | 11.2% | 0hPa | 2.4V | 07:55:52 | 03:12:00 | 00:00:00 | |
| IW2NTF | 2026-09-04 01:45:35 | 44.92514 | 9.37642 | 123° | 71km/h | 8831m | -6.2m/s | -28.8°C | 11.4% | 0hPa | 2.4V | 07:56:02 | 03:11:50 | 00:00:00 | |
| IW2NTF | 2026-09-04 01:45:25 | 44.92613 | 9.37421 | 121° | 71km/h | 8889m | -5.5m/s | -29.2°C | 11.8% | 0hPa | 2.4V | 07:56:12 | 03:11:40 | 00:00:00 | |
| IW2NTF | 2026-09-04 01:45:15 | 44.92704 | 9.37196 | 117° | 75km/h | 8948m | -5.6m/s | -29.6°C | 11.8% | 0hPa | 2.4V | 07:56:22 | 03:11:30 | 00:00:00 | |
| IW2NTF | 2026-09-04 01:45:05 | 44.92796 | 9.36956 | 117° | 78km/h | 9012m | -7m/s | -30.2°C | 11.8% | 0hPa | 2.4V | 07:56:32 | 03:11:20 | 00:00:00 | |
| IW2NTF | 2026-09-04 01:44:55 | 44.92884 | 9.36706 | 116° | 78km/h | 9079m | -6.7m/s | -30.8°C | 12.1% | 0hPa | 2.5V | 07:56:42 | 03:11:10 | 00:00:00 | |
| IW2NTF | 2026-09-04 01:44:45 | 44.92970 | 9.36454 | 115° | 78km/h | 9142m | -6.5m/s | -31.3°C | 12.2% | 0hPa | 2.5V | 07:56:52 | 03:11:00 | 00:00:00 | |
| IW2NTF | 2026-09-04 01:44:35 | 44.93058 | 9.36210 | 116° | 77km/h | 9204m | -6.2m/s | -31.8°C | 12.5% | 0hPa | 2.4V | 07:57:02 | 03:10:50 | 00:00:00 | |
| IW2NTF | 2026-09-04 01:44:25 | 44.93145 | 9.35965 | 116° | 77km/h | 9266m | -6.1m/s | -32.3°C | 12.2% | 0hPa | 2.4V | 07:57:12 | 03:10:40 | 00:00:00 | |
| IW2NTF | 2026-09-04 01:44:15 | 44.93231 | 9.35729 | 117° | 73km/h | 9328m | -6.2m/s | -32.8°C | 12.4% | 0hPa | 2.4V | 07:57:22 | 03:10:30 | 00:00:00 | |
| IW2NTF | 2026-09-04 01:44:05 | 44.93317 | 9.35497 | 117° | 73km/h | 9389m | -6m/s | -33.4°C | 13% | 0hPa | 2.5V | 07:57:32 | 03:10:20 | 00:00:00 | |
| IW2NTF | 2026-09-04 01:43:55 | 44.93401 | 9.35270 | 117° | 71km/h | 9451m | -6.3m/s | -33.9°C | 13.4% | 0hPa | 2.5V | 07:57:42 | 03:10:10 | 00:00:00 | |
| IW2NTF | 2026-09-04 01:43:45 | 44.93485 | 9.35043 | 116° | 71km/h | 9510m | -6.2m/s | -34.5°C | 13.9% | 0hPa | 2.5V | 07:57:52 | 03:10:00 | 00:00:00 | |
| IW2NTF | 2026-09-04 01:43:35 | 44.93569 | 9.34816 | 118° | 71km/h | 9573m | -6.1m/s | -35°C | 14.2% | 0hPa | 2.4V | 07:58:02 | 03:09:50 | 00:00:00 | |
| IW2NTF | 2026-09-04 01:43:25 | 44.93652 | 9.34584 | 117° | 73km/h | 9637m | -6.5m/s | -35.7°C | 14.4% | 0hPa | 2.4V | 07:58:12 | 03:09:40 | 00:00:00 | |
| IW2NTF | 2026-09-04 01:43:15 | 44.93734 | 9.34354 | 117° | 73km/h | 9700m | -6.5m/s | -36.2°C | 14.5% | 0hPa | 2.4V | 07:58:22 | 03:09:30 | 00:00:00 | |
| IW2NTF | 2026-09-04 01:43:05 | 44.93821 | 9.34121 | 116° | 75km/h | 9765m | -6.5m/s | -36.8°C | 13.1% | 0hPa | 2.5V | 07:58:32 | 03:09:20 | 00:00:00 | |
| IW2NTF | 2026-09-04 01:42:55 | 44.93912 | 9.33889 | 119° | 71km/h | 9829m | -6.7m/s | -37.3°C | 12.6% | 0hPa | 2.4V | 07:58:42 | 03:09:10 | 00:00:00 | |
| IW2NTF | 2026-09-04 01:42:46 | 44.94004 | 9.33661 | 119° | 75km/h | 9895m | -6.7m/s | -37.9°C | 13% | 0hPa | 2.4V | 07:58:52 | 03:09:00 | 00:00:00 | |
| IW2NTF | 2026-09-04 01:42:35 | 44.94095 | 9.33433 | 119° | 73km/h | 9960m | -6.8m/s | -38.5°C | 13.5% | 0hPa | 2.4V | 07:59:02 | 03:08:50 | 00:00:00 | |
| IW2NTF | 2026-09-04 01:42:25 | 44.94186 | 9.33209 | 119° | 71km/h | 10026m | -6.7m/s | -39.2°C | 14% | 0hPa | 2.5V | 07:59:12 | 03:08:40 | 00:00:00 | |
| IW2NTF | 2026-09-04 01:42:15 | 44.94276 | 9.32985 | 119° | 71km/h | 10093m | -6.5m/s | -39.8°C | 14.3% | 0hPa | 2.4V | 07:59:22 | 03:08:30 | 00:00:00 | |
| IW2NTF | 2026-09-04 01:42:05 | 44.94361 | 9.32772 | 119° | 68km/h | 10158m | -6.3m/s | -40.3°C | 14.2% | 0hPa | 2.4V | 07:59:32 | 03:08:20 | 00:00:00 | |
| IW2NTF | 2026-09-04 01:41:55 | 44.94448 | 9.32561 | 119° | 66km/h | 10224m | -6.5m/s | -40.8°C | 13.8% | 0hPa | 2.5V | 07:59:42 | 03:08:10 | 00:00:00 | |
| IW2NTF | 2026-09-04 01:41:45 | 44.94529 | 9.32345 | 118° | 69km/h | 10289m | -6.7m/s | -41.2°C | 14.2% | 0hPa | 2.4V | 07:59:52 | 03:08:00 | 00:00:00 | |
| IW2NTF | 2026-09-04 01:41:35 | 44.94613 | 9.32146 | 118° | 68km/h | 10355m | -6.5m/s | -41.8°C | 15.2% | 0hPa | 2.4V | 08:00:02 | 03:07:50 | 00:00:00 | |
| IW2NTF | 2026-09-04 01:41:25 | 44.94699 | 9.31947 | 120° | 62km/h | 10420m | -6.5m/s | -42.4°C | 15.7% | 0hPa | 2.5V | 08:00:12 | 03:07:40 | 00:00:00 | |
| IW2NTF | 2026-09-04 01:41:15 | 44.94779 | 9.31730 | 120° | 73km/h | 10486m | -6.5m/s | -43°C | 15.7% | 0hPa | 2.4V | 08:00:22 | 03:07:30 | 00:00:00 | |
| IW2NTF | 2026-09-04 01:41:05 | 44.94873 | 9.31517 | 121° | 71km/h | 10552m | -6.7m/s | -43.6°C | 16% | 0hPa | 2.4V | 08:00:32 | 03:07:20 | 00:00:00 | |
| IW2NTF | 2026-09-04 01:40:55 | 44.94964 | 9.31312 | 122° | 66km/h | 10613m | -5.8m/s | -44.1°C | 16.4% | 0hPa | 2.5V | 08:00:42 | 03:07:10 | 00:00:00 | |
| IW2NTF | 2026-09-04 01:40:45 | 44.95055 | 9.31118 | 123° | 64km/h | 10675m | -6.4m/s | -44.6°C | 17.3% | 0hPa | 2.4V | 08:00:52 | 03:07:00 | 00:00:00 | |
| IW2NTF | 2026-09-04 01:40:35 | 44.95143 | 9.30934 | 122° | 62km/h | 10737m | -6.3m/s | -45.2°C | 18.9% | 0hPa | 2.4V | 08:01:02 | 03:06:50 | 00:00:00 | |
| IW2NTF | 2026-09-04 01:40:25 | 44.95226 | 9.30752 | 122° | 60km/h | 10799m | -6.3m/s | -45.5°C | 21.6% | 0hPa | 2.4V | 08:01:12 | 03:06:40 | 00:00:00 | |
| IW2NTF | 2026-09-04 01:40:15 | 44.95309 | 9.30569 | 123° | 60km/h | 10862m | -6.2m/s | -46.2°C | 22.8% | 0hPa | 2.4V | 08:01:22 | 03:06:30 | 00:00:00 | |
| IW2NTF | 2026-09-04 01:40:05 | 44.95393 | 9.30389 | 123° | 62km/h | 10926m | -6.4m/s | -46.8°C | 24.8% | 0hPa | 2.5V | 08:01:32 | 03:06:20 | 00:00:00 | |
| IW2NTF | 2026-09-04 01:39:55 | 44.95480 | 9.30215 | 124° | 58km/h | 10990m | -6.8m/s | -47.4°C | 25.6% | 0hPa | 2.4V | 08:01:42 | 03:06:10 | 00:00:00 | |
| IW2NTF | 2026-09-04 01:39:45 | 44.95564 | 9.30034 | 125° | 58km/h | 11054m | -6.4m/s | -48°C | 25% | 0hPa | 2.5V | 08:01:52 | 03:06:00 | 00:00:00 | |
| IW2NTF | 2026-09-04 01:39:35 | 44.95649 | 9.29875 | 127° | 55km/h | 11115m | -5.9m/s | -48.5°C | 24.5% | 0hPa | 2.4V | 08:02:02 | 03:05:50 | 00:00:00 | |
| IW2NTF | 2026-09-04 01:39:25 | 44.95737 | 9.29716 | 129° | 55km/h | 11174m | -6m/s | -49.1°C | 24.8% | 0hPa | 2.4V | 08:02:12 | 03:05:40 | 00:00:00 | |
| IW2NTF | 2026-09-04 01:39:15 | 44.95829 | 9.29571 | 134° | 55km/h | 11234m | -6.3m/s | -49.6°C | 24.9% | 0hPa | 2.4V | 08:02:22 | 03:05:30 | 00:00:00 | |
| IW2NTF | 2026-09-04 01:39:05 | 44.95926 | 9.29434 | 136° | 53km/h | 11295m | -6.2m/s | -50.1°C | 26.1% | 0hPa | 2.4V | 08:02:32 | 03:05:20 | 00:00:00 | |
| IW2NTF | 2026-09-04 01:38:55 | 44.96026 | 9.29296 | 134° | 55km/h | 11356m | -6.6m/s | -50.6°C | 28.3% | 0hPa | 2.4V | 08:02:42 | 03:05:10 | 00:00:00 | |
| IW2NTF | 2026-09-04 01:38:45 | 44.96125 | 9.29157 | 134° | 57km/h | 11418m | -6.5m/s | -51.2°C | 31.3% | 0hPa | 2.4V | 08:02:52 | 03:05:00 | 00:00:00 | |
| IW2NTF | 2026-09-04 01:38:35 | 44.96226 | 9.29013 | 134° | 57km/h | 11483m | -6.2m/s | -51.8°C | 31.8% | 0hPa | 2.5V | 08:03:02 | 03:04:50 | 00:00:00 | |
| IW2NTF | 2026-09-04 01:38:25 | 44.96328 | 9.28859 | 132° | 60km/h | 11545m | -6.3m/s | -52.3°C | 32.6% | 0hPa | 2.4V | 08:03:12 | 03:04:40 | 00:00:00 | |
| IW2NTF | 2026-09-04 01:38:15 | 44.96431 | 9.28702 | 131° | 62km/h | 11610m | -6.8m/s | -52.8°C | 35.1% | 0hPa | 2.5V | 08:03:22 | 03:04:30 | 00:00:00 | |
| IW2NTF | 2026-09-04 01:38:05 | 44.96537 | 9.28550 | 134° | 57km/h | 11674m | -6.4m/s | -53.4°C | 35.9% | 0hPa | 2.4V | 08:03:32 | 03:04:20 | 00:00:00 | |
| IW2NTF | 2026-09-04 01:37:56 | 44.96642 | 9.28401 | 133° | 57km/h | 11739m | -6.7m/s | -54°C | 35.9% | 0hPa | 2.5V | 08:03:42 | 03:04:10 | 00:00:00 | |
| IW2NTF | 2026-09-04 01:37:45 | 44.96741 | 9.28256 | 133° | 57km/h | 11804m | -6.9m/s | -54.5°C | 36.9% | 0hPa | 2.4V | 08:03:52 | 03:04:00 | 00:00:00 | |
| IW2NTF | 2026-09-04 01:37:35 | 44.96842 | 9.28113 | 138° | 55km/h | 11868m | -6.4m/s | -55.1°C | 38.6% | 0hPa | 2.5V | 08:04:02 | 03:03:50 | 00:00:00 | |
| IW2NTF | 2026-09-04 01:37:25 | 44.96946 | 9.27973 | 136° | 57km/h | 11929m | -5.6m/s | -55.7°C | 40.6% | 0hPa | 2.4V | 08:04:12 | 03:03:40 | 00:00:00 | |
| IW2NTF | 2026-09-04 01:37:16 | 44.97053 | 9.27849 | 142° | 53km/h | 11987m | -5.8m/s | -56.2°C | 42.1% | 0hPa | 2.5V | 08:04:22 | 03:03:30 | 00:00:00 | |
| IW2NTF | 2026-09-04 01:37:05 | 44.97165 | 9.27736 | 142° | 53km/h | 12046m | -6.1m/s | -56.6°C | 44.8% | 0hPa | 2.4V | 08:04:32 | 03:03:20 | 00:00:00 | |
| IW2NTF | 2026-09-04 01:36:55 | 44.97276 | 9.27629 | 146° | 57km/h | 12116m | -7.5m/s | -57.3°C | 48.2% | 0hPa | 2.5V | 08:04:42 | 03:03:10 | 00:00:00 | |
| IW2NTF | 2026-09-04 01:36:45 | 44.97389 | 9.27527 | 149° | 53km/h | 12187m | -6.8m/s | -57.9°C | 52.3% | 0hPa | 2.4V | 08:04:52 | 03:03:00 | 00:00:00 | |
| IW2NTF | 2026-09-04 01:36:35 | 44.97501 | 9.27427 | 150° | 51km/h | 12260m | -7.2m/s | -58.5°C | 57.2% | 0hPa | 2.4V | 08:05:02 | 03:02:50 | 00:00:00 | |
| IW2NTF | 2026-09-04 01:36:25 | 44.97614 | 9.27330 | 151° | 49km/h | 12333m | -7.5m/s | -59.1°C | 57% | 0hPa | 2.4V | 08:05:12 | 03:02:40 | 00:00:00 | |
| IW2NTF | 2026-09-04 01:36:15 | 44.97727 | 9.27234 | 142° | 53km/h | 12406m | -7.3m/s | -59.7°C | 55.5% | 0hPa | 2.4V | 08:05:22 | 03:02:30 | 00:00:00 | |
| IW2NTF | 2026-09-04 01:36:05 | 44.97840 | 9.27140 | 153° | 58km/h | 12479m | -7.1m/s | -60.3°C | 50.1% | 0hPa | 2.4V | 08:05:32 | 03:02:20 | 00:00:00 | |
| IW2NTF | 2026-09-04 01:35:55 | 44.97967 | 9.27029 | 150° | 53km/h | 12552m | -7.7m/s | -60.7°C | 44.8% | 0hPa | 2.4V | 08:05:42 | 03:02:10 | 00:00:00 | |
| IW2NTF | 2026-09-04 01:35:45 | 44.98086 | 9.26916 | 147° | 69km/h | 12630m | -8m/s | -61.1°C | 43.3% | 0hPa | 2.4V | 08:05:52 | 03:02:00 | 00:00:00 | |
| IW2NTF | 2026-09-04 01:35:35 | 44.98222 | 9.26822 | 144° | 53km/h | 12704m | -7m/s | -61.6°C | 44.9% | 0hPa | 2.4V | 08:06:02 | 03:01:50 | 00:00:00 | |
| IW2NTF | 2026-09-04 01:35:25 | 44.98347 | 9.26687 | 152° | 69km/h | 12780m | -7.2m/s | -61.9°C | 44% | 0hPa | 2.4V | 08:06:12 | 03:01:40 | 00:00:00 | |
| IW2NTF | 2026-09-04 01:35:15 | 44.98493 | 9.26568 | 143° | 73km/h | 12853m | -7.6m/s | -62.3°C | 43.7% | 0hPa | 2.4V | 08:06:22 | 03:01:30 | 00:00:00 | |
| IW2NTF | 2026-09-04 01:35:05 | 44.98657 | 9.26418 | 152° | 71km/h | 12930m | -7.3m/s | -62.4°C | 43.9% | 0hPa | 2.4V | 08:06:32 | 03:01:20 | 00:00:00 | |
| IW2NTF | 2026-09-04 01:34:55 | 44.98796 | 9.26308 | 159° | 62km/h | 13009m | -8.8m/s | -63.1°C | 46.5% | 0hPa | 2.4V | 08:06:42 | 03:01:10 | 00:00:00 | |
| IW2NTF | 2026-09-04 01:34:45 | 44.98935 | 9.26166 | 146° | 77km/h | 13089m | -7.8m/s | -63.9°C | 48.6% | 0hPa | 2.4V | 08:06:52 | 03:01:00 | 00:00:00 | |
| IW2NTF | 2026-09-04 01:34:35 | 44.99091 | 9.26070 | 150° | 58km/h | 13167m | -7.6m/s | -64.6°C | 50.2% | 0hPa | 2.6V | 08:07:02 | 03:00:50 | 00:00:00 | |
| IW2NTF | 2026-09-04 01:34:25 | 44.99240 | 9.25963 | 159° | 68km/h | 13245m | -7.3m/s | -65.2°C | 51.3% | 0hPa | 2.4V | 08:07:12 | 03:00:40 | 00:00:00 | |
| IW2NTF | 2026-09-04 01:34:15 | 44.99395 | 9.25869 | 153° | 68km/h | 13325m | -8m/s | -65.2°C | 49.9% | 0hPa | 2.6V | 08:07:22 | 03:00:30 | 00:00:00 | |
| IW2NTF | 2026-09-04 01:34:05 | 44.99545 | 9.25753 | 149° | 68km/h | 13406m | -8.1m/s | -65.6°C | 48.4% | 0hPa | 2.4V | 08:07:32 | 03:00:20 | 00:00:00 | |
| IW2NTF | 2026-09-04 01:33:55 | 44.99694 | 9.25630 | 149° | 69km/h | 13486m | -8.1m/s | -66.2°C | 47.1% | 0hPa | 2.5V | 08:07:42 | 03:00:10 | 00:00:00 | |
| IW2NTF | 2026-09-04 01:33:45 | 44.99842 | 9.25497 | 150° | 73km/h | 13569m | -8.2m/s | -66.8°C | 45.5% | 0hPa | 2.4V | 08:07:52 | 03:00:00 | 00:00:00 | |
| IW2NTF | 2026-09-04 01:33:35 | 44.99996 | 9.25366 | 145° | 73km/h | 13650m | -8.3m/s | -67.5°C | 46.4% | 0hPa | 2.5V | 08:08:02 | 02:59:50 | 00:00:00 | |
| IW2NTF | 2026-09-04 01:33:25 | 45.00166 | 9.25225 | 153° | 82km/h | 13734m | -8.3m/s | -66.7°C | 40.6% | 0hPa | 2.4V | 08:08:12 | 02:59:40 | 00:00:00 | |
| IW2NTF | 2026-09-04 01:33:16 | 45.00356 | 9.25092 | 152° | 84km/h | 13817m | -8.4m/s | -66°C | 36.2% | 0hPa | 2.4V | 08:08:22 | 02:59:30 | 00:00:00 | |
| IW2NTF | 2026-09-04 01:33:05 | 45.00542 | 9.24962 | 155° | 78km/h | 13902m | -8.3m/s | -65°C | 29.7% | 0hPa | 2.5V | 08:08:32 | 02:59:20 | 00:00:00 | |
| IW2NTF | 2026-09-04 01:32:55 | 45.00712 | 9.24843 | 155° | 73km/h | 13985m | -8.8m/s | -65.5°C | 28% | 0hPa | 2.4V | 08:08:42 | 02:59:10 | 00:00:00 | |
| IW2NTF | 2026-09-04 01:32:45 | 45.00877 | 9.24727 | 149° | 73km/h | 14069m | -8.3m/s | -65.6°C | 23.9% | 0hPa | 2.6V | 08:08:52 | 02:59:00 | 00:00:00 | |
| IW2NTF | 2026-09-04 01:32:35 | 45.01035 | 9.24594 | 148° | 71km/h | 14154m | -8.5m/s | -65°C | 19.5% | 0hPa | 2.4V | 08:09:02 | 02:58:50 | 00:00:00 | |
| IW2NTF | 2026-09-04 01:32:25 | 45.01183 | 9.24457 | 143° | 64km/h | 14240m | -8.8m/s | -65.1°C | 17.2% | 0hPa | 2.5V | 08:09:12 | 02:58:40 | 00:00:00 | |
| IW2NTF | 2026-09-04 01:32:15 | 45.01305 | 9.24303 | 136° | 68km/h | 14326m | -8.7m/s | -64.3°C | 14.4% | 0hPa | 2.5V | 08:09:22 | 02:58:30 | 00:00:00 | |
| IW2NTF | 2026-09-04 01:32:05 | 45.01443 | 9.24126 | 138° | 75km/h | 14413m | -8.9m/s | -63.5°C | 12.3% | 0hPa | 2.4V | 08:09:32 | 02:58:20 | 00:00:00 | |
| IW2NTF | 2026-09-04 01:31:55 | 45.01592 | 9.23938 | 137° | 84km/h | 14501m | -8.8m/s | -62.8°C | 10.7% | 0hPa | 2.6V | 08:09:42 | 02:58:10 | 00:00:00 | |
| IW2NTF | 2026-09-04 01:31:45 | 45.01746 | 9.23725 | 137° | 82km/h | 14592m | -9m/s | -62.6°C | 9.6% | 0hPa | 2.5V | 08:09:52 | 02:58:00 | 00:00:00 | |
| IW2NTF | 2026-09-04 01:31:20 | 45.02091 | 9.23253 | 141° | 71km/h | 14818m | -8.3m/s | -62.5°C | 9.1% | 0hPa | 2.5V | 08:10:17 | 02:57:35 | 00:00:00 | |
| DB0UT-7 | 2026-09-04 01:31:11 | 45.02142 | 9.23184 | 131° | 71km/h | 14855m | -8.9m/s | -62.3°C | 9.1% | 0hPa | 2.4V | 00:00:00 | 02:57:31 | 00:00:00 | |
| IW2NTF | 2026-09-04 01:31:10 | 45.02224 | 9.23062 | 134° | 75km/h | 14910m | -8.2m/s | -62.3°C | 9.1% | 0hPa | 2.4V | 08:10:27 | 02:57:25 | 00:00:00 | |
| DO3MHA-11 | 2026-09-04 01:31:03 | 45.02251 | 9.23024 | 137° | 71km/h | 14928m | -9.6m/s | -62.2°C | 9.0% | 0hPa | 2.5V | 00:00:00 | 02:57:23 | 00:00:00 | |
| IW2NTF | 2026-09-04 01:30:54 | 45.02453 | 9.22808 | 146° | 69km/h | 15059m | -9.5m/s | -60.9°C | 7.9% | 0hPa | 2.5V | 08:10:43 | 02:57:09 | 00:00:00 | |
| DO3MHA-11 | 2026-09-04 01:30:53 | 45.02393 | 9.22866 | 145° | 68km/h | 15022m | -9.0m/s | -61.0°C | 8.0% | 0hPa | 2.6V | 00:00:00 | 02:57:13 | 00:00:00 | |
| IW2NTF | 2026-09-04 01:30:44 | 45.02595 | 9.22674 | 150° | 77km/h | 15155m | -9.2m/s | -61.2°C | 8% | 0hPa | 2.5V | 08:10:53 | 02:56:59 | 00:00:00 | |
| DO3MHA-11 | 2026-09-04 01:30:43 | 45.02534 | 9.22728 | 145° | 73km/h | 15117m | -9.6m/s | -61.2°C | 8.1% | 0hPa | 2.6V | 00:00:00 | 02:57:03 | 00:00:00 | |
| DB0UT-7 | 2026-09-04 01:30:41 | 45.02563 | 9.22701 | 147° | 57km/h | 15136m | -9.9m/s | -61.2°C | 8.1% | 0hPa | 2.6V | 00:00:00 | 00:00:00 | 00:00:00 | |
| IW2NTF | 2026-09-04 01:30:34 | 45.02755 | 9.22554 | 155° | 68km/h | 15248m | -10.3m/s | -61.5°C | 8.1% | 0hPa | 2.6V | 08:11:03 | 02:56:49 | 00:00:00 | |
| DO3MHA-11 | 2026-09-04 01:30:33 | 45.02696 | 9.22599 | 151° | 66km/h | 15211m | -8.6m/s | -61.2°C | 8.0% | 0hPa | 2.5V | 00:00:00 | 02:56:53 | 00:00:00 | |
| IW2NTF | 2026-09-04 01:30:24 | 45.02895 | 9.22449 | 149° | 60km/h | 15346m | -9.8m/s | -61.2°C | 8% | 0hPa | 2.5V | 08:11:13 | 02:56:39 | 00:00:00 | |
| DO3MHA-11 | 2026-09-04 01:30:23 | 45.02842 | 9.22494 | 150° | 60km/h | 15307m | -9.8m/s | -61.3°C | 8.2% | 0hPa | 2.6V | 00:00:00 | 02:56:43 | 00:00:00 | |
| IW2NTF | 2026-09-04 01:30:15 | 45.03020 | 9.22342 | 139° | 55km/h | 15443m | -10.1m/s | -61.5°C | 8% | 0hPa | 2.5V | 08:11:23 | 02:56:29 | 00:00:00 | |
| DO3MHA-11 | 2026-09-04 01:30:13 | 45.02974 | 9.22387 | 152° | 51km/h | 15405m | -9.3m/s | -61.2°C | 8.0% | 0hPa | 2.6V | 00:00:00 | 02:56:33 | 00:00:00 | |
| IW2NTF | 2026-09-04 01:30:04 | 45.03120 | 9.22240 | 140° | 55km/h | 15535m | -9.7m/s | -61.6°C | 8% | 0hPa | 2.6V | 08:11:33 | 02:56:19 | 00:00:00 | |
| IW2NTF | 2026-09-04 01:29:54 | 45.03225 | 9.22108 | 143° | 58km/h | 15628m | -8.9m/s | -61.5°C | 7.8% | 0hPa | 2.5V | 08:11:43 | 02:56:09 | 00:00:00 | |
| DO3MHA-11 | 2026-09-04 01:29:53 | 45.03180 | 9.22157 | 140° | 57km/h | 15591m | -8.9m/s | -61.8°C | 8.1% | 0hPa | 2.6V | 08:11:00 | 02:56:13 | 00:00:00 | |
| IW2NTF | 2026-09-04 01:29:44 | 45.03338 | 9.22003 | 149° | 49km/h | 15722m | -9.7m/s | -61.8°C | 7.8% | 0hPa | 2.5V | 08:11:53 | 02:55:59 | 00:00:00 | |
| DO3MHA-11 | 2026-09-04 01:29:43 | 45.03295 | 9.22040 | 148° | 51km/h | 15684m | -8.4m/s | -61.6°C | 7.8% | 0hPa | 2.6V | 00:00:00 | 02:56:03 | 00:00:00 | |
| IW2NTF | 2026-09-04 01:29:34 | 45.03457 | 9.21921 | 148° | 49km/h | 15817m | -8.1m/s | -61.6°C | 7.5% | 0hPa | 2.6V | 08:12:03 | 02:55:49 | 00:00:00 | |
| DO3MHA-11 | 2026-09-04 01:29:33 | 45.03410 | 9.21955 | 156° | 51km/h | 15779m | -8.6m/s | -61.8°C | 7.7% | 0hPa | 2.5V | 00:00:00 | 02:55:53 | 00:00:00 | |
| IW2NTF | 2026-09-04 01:29:24 | 45.03559 | 9.21806 | 149° | 57km/h | 15907m | -8.8m/s | -62°C | 7.6% | 0hPa | 2.5V | 08:12:13 | 02:55:39 | 00:00:00 | |
| DB0UT-7 | 2026-09-04 01:29:24 | 45.03514 | 9.21853 | 137° | 58km/h | 15872m | -8.7m/s | -61.8°C | 7.5% | 0hPa | 2.6V | 00:00:00 | 00:00:00 | 00:00:00 | |
| DO3MHA-11 | 2026-09-04 01:29:23 | 45.03514 | 9.21853 | 137° | 53km/h | 15872m | -8.7m/s | -61.8°C | 7.5% | 0hPa | 2.6V | 00:00:00 | 02:55:43 | 00:00:00 | |
| IW2NTF | 2026-09-04 01:29:14 | 45.03654 | 9.21669 | 125° | 60km/h | 16001m | -10.2m/s | -62.5°C | 7.5% | 0hPa | 2.5V | 08:12:23 | 02:55:29 | 00:00:00 | |
| DO3MHA-11 | 2026-09-04 01:29:13 | 45.03621 | 9.21736 | 126° | 60km/h | 15962m | -10.0m/s | -62.3°C | 7.6% | 0hPa | 2.5V | 00:00:00 | 02:55:33 | 00:00:00 | |
| DO3MHA-11 | 2026-09-04 01:29:03 | 45.03716 | 9.21564 | 135° | 64km/h | 16061m | -9.4m/s | -62.7°C | 7.6% | 0hPa | 2.5V | 00:00:00 | 02:55:23 | 00:00:00 | |
| IW2NTF | 2026-09-04 01:29:02 | 45.03783 | 9.21469 | 131° | 62km/h | 16118m | -10.5m/s | -63°C | 7.7% | 0hPa | 2.5V | 08:12:35 | 02:55:17 | 00:00:00 | |
| DO3MHA-11 | 2026-09-04 01:28:53 | 45.03826 | 9.21401 | 133° | 68km/h | 16154m | -8.9m/s | -63.2°C | 7.9% | 0hPa | 2.6V | 00:00:00 | 02:55:13 | 00:00:00 | |
| IW2NTF | 2026-09-04 01:28:52 | 45.03899 | 9.21303 | 138° | 68km/h | 16209m | -8.8m/s | -63.5°C | 8% | 0hPa | 2.6V | 08:12:45 | 02:55:07 | 00:00:00 | |
| DO3MHA-11 | 2026-09-04 01:28:43 | 45.03952 | 9.21242 | 144° | 62km/h | 16246m | -9.6m/s | -63.5°C | 8.0% | 0hPa | 2.5V | 00:00:00 | 02:55:03 | 00:00:00 | |
| IW2NTF | 2026-09-04 01:28:42 | 45.04034 | 9.21169 | 150° | 60km/h | 16302m | -9.1m/s | -63.5°C | 8% | 0hPa | 2.5V | 08:12:55 | 02:54:57 | 00:00:00 | |
| DF1GD-15 | 2026-09-04 01:28:35 | 45.04047 | 9.21158 | 151° | 58km/h | 16311m | -9.1m/s | 0°C | 0% | 0hPa | 2.5V | 00:00:00 | 00:00:00 | 00:00:00 | |
| DO3MHA-11 | 2026-09-04 01:28:33 | 45.04084 | 9.21125 | 147° | 51km/h | 16339m | -9.9m/s | -63.4°C | 8.0% | 0hPa | 2.5V | 00:00:00 | 02:54:53 | 00:00:00 | |
| IW2NTF | 2026-09-04 01:28:32 | 45.04151 | 9.21058 | 136° | 49km/h | 16396m | -10m/s | -62.8°C | 7.5% | 0hPa | 2.5V | 08:13:05 | 02:54:47 | 00:00:00 | |
| DB0UT-7 | 2026-09-04 01:28:23 | 45.04181 | 9.21010 | 127° | 53km/h | 16436m | -9.5m/s | -62.6°C | 7.4% | 0hPa | 2.5V | 00:00:00 | 00:00:00 | 00:00:00 | |
| IW2NTF | 2026-09-04 01:28:22 | 45.04234 | 9.20932 | 141° | 58km/h | 16495m | -9.4m/s | -62.5°C | 7.3% | 0hPa | 2.5V | 08:13:15 | 02:54:37 | 00:00:00 | |
| IW2NTF | 2026-09-04 01:28:13 | 45.04330 | 9.20802 | 117° | 49km/h | 16591m | -9.8m/s | -62°C | 7% | 0hPa | 2.6V | 08:13:25 | 02:54:27 | 00:00:00 | |
| DO3MHA-11 | 2026-09-04 01:28:03 | 45.04362 | 9.20736 | 137° | 49km/h | 16628m | -8.9m/s | -61.8°C | 6.9% | 0hPa | 2.5V | 00:00:00 | 02:54:23 | 00:00:00 | |
| IW2NTF | 2026-09-04 01:28:02 | 45.04433 | 9.20681 | 157° | 38km/h | 16685m | -9.9m/s | -61.6°C | 6.9% | 0hPa | 2.5V | 08:13:35 | 02:54:17 | 00:00:00 | |
| DO3MHA-11 | 2026-09-04 01:27:53 | 45.04464 | 9.20649 | 133° | 49km/h | 16723m | -9.8m/s | -61.2°C | 6.7% | 0hPa | 2.5V | 00:00:00 | 02:54:13 | 00:00:00 | |
| IW2NTF | 2026-09-04 01:27:52 | 45.04523 | 9.20573 | 146° | 53km/h | 16782m | -9.6m/s | -60.9°C | 6.6% | 0hPa | 2.5V | 08:13:45 | 02:54:07 | 00:00:00 | |
| DB0UT-7 | 2026-09-04 01:27:50 | 45.04490 | 9.20610 | 137° | 42km/h | 16752m | -10.5m/s | -61.1°C | 6.7% | 0hPa | 2.6V | 00:00:00 | 02:54:10 | 00:00:00 | |
| DO3MHA-11 | 2026-09-04 01:27:43 | 45.04560 | 9.20540 | 147° | 38km/h | 16822m | -11.2m/s | -60.4°C | 6.2% | 0hPa | 2.6V | 00:00:00 | 02:54:03 | 00:00:00 | |
| IW2NTF | 2026-09-04 01:27:42 | 45.04585 | 9.20485 | 106° | 44km/h | 16882m | -10.2m/s | -60.3°C | 6.2% | 0hPa | 2.6V | 08:13:55 | 02:53:57 | 00:00:00 | |
| DO3MHA-11 | 2026-09-04 01:27:33 | 45.04602 | 9.20416 | 113° | 44km/h | 16924m | -10.6m/s | -60.1°C | 6.0% | 0hPa | 2.5V | 00:00:00 | 02:53:53 | 00:00:00 | |
| IW2NTF | 2026-09-04 01:27:32 | 45.04647 | 9.20335 | 136° | 33km/h | 16986m | -10.4m/s | -59.6°C | 5.7% | 0hPa | 2.5V | 08:14:05 | 02:53:47 | 00:00:00 | |
| DO3MHA-11 | 2026-09-04 01:27:23 | 45.04666 | 9.20297 | 112° | 47km/h | 17028m | -10.4m/s | -59.6°C | 5.7% | 0hPa | 2.5V | 00:00:00 | 02:53:43 | 00:00:00 | |
| IW2NTF | 2026-09-04 01:27:20 | 45.04708 | 9.20171 | 124° | 40km/h | 17110m | -10.1m/s | -59.8°C | 5.8% | 0hPa | 2.6V | 08:14:17 | 02:53:35 | 00:00:00 | |
| DB0UT-7 | 2026-09-04 01:27:20 | 45.04677 | 9.20250 | 111° | 38km/h | 17059m | -10.3m/s | -59.6°C | 5.7% | 0hPa | 2.6V | 00:00:00 | 00:00:00 | 00:00:00 | |
| DO3MHA-11 | 2026-09-04 01:27:13 | 45.04718 | 9.20149 | 123° | 31km/h | 17130m | -10.3m/s | -59.7°C | 5.8% | 0hPa | 2.5V | 00:00:00 | 02:53:33 | 00:00:00 | |
| DF1GD-15 | 2026-09-04 01:27:12 | 45.04718 | 9.20149 | 123° | 31km/h | 17130m | -10.3m/s | -59.7°C | 2.4% | 0hPa | 2.5V | 00:00:00 | 00:00:00 | 00:00:00 | |
| IW2NTF | 2026-09-04 01:27:10 | 45.04737 | 9.20071 | 104° | 37km/h | 17212m | -10.9m/s | -59.7°C | 5.6% | 0hPa | 2.5V | 08:14:27 | 02:53:25 | 00:00:00 | |
| DO3MHA-11 | 2026-09-04 01:27:03 | 45.04744 | 9.20043 | 113° | 37km/h | 17235m | -11.0m/s | -59.7°C | 5.6% | 0hPa | 2.5V | 00:00:00 | 02:53:23 | 00:00:00 | |
| IW2NTF | 2026-09-04 01:27:00 | 45.04773 | 9.19950 | 98° | 33km/h | 17318m | -10.4m/s | -60°C | 5.8% | 0hPa | 2.5V | 08:14:37 | 02:53:15 | 00:00:00 | |
| DO3MHA-11 | 2026-09-04 01:26:53 | 45.04777 | 9.19924 | 107° | 47km/h | 17338m | -10.2m/s | -60.1°C | 5.8% | 0hPa | 2.5V | 08:14:00 | 02:53:13 | 00:00:00 | |
| DF1GD-15 | 2026-09-04 01:26:52 | 45.04777 | 9.19924 | 108° | 40km/h | 17338m | -10.2m/s | -60.1°C | 2.4% | 0hPa | 2.6V | 08:15:00 | 00:00:00 | 00:00:00 | |
| IW2NTF | 2026-09-04 01:26:50 | 45.04819 | 9.19806 | 123° | 53km/h | 17421m | -10.8m/s | -60.3°C | 5.8% | 0hPa | 2.6V | 08:14:47 | 02:53:05 | 00:00:00 | |
| DB0UT-7 | 2026-09-04 01:26:50 | 45.04789 | 9.19883 | 116° | 49km/h | 17370m | -10.4m/s | -60.1°C | 5.8% | 0hPa | 2.5V | 00:00:00 | 02:53:10 | 00:00:00 | |
| DO3MHA-11 | 2026-09-04 01:26:43 | 45.04835 | 9.19775 | 128° | 51km/h | 17443m | -11.2m/s | -60.3°C | 5.8% | 0hPa | 2.5V | 00:00:00 | 02:53:03 | 00:00:00 | |
| IW2NTF | 2026-09-04 01:26:32 | 45.04975 | 9.19566 | 144° | 51km/h | 17616m | -8.7m/s | -60.2°C | 5.7% | 0hPa | 2.5V | 08:15:05 | 02:52:47 | 00:00:00 | |
| IW2NTF | 2026-09-04 01:26:22 | 45.05063 | 9.19472 | 151° | 44km/h | 17713m | -9.3m/s | -60.6°C | 6% | 0hPa | 2.6V | 08:15:15 | 02:52:37 | 00:00:00 | |
| DB0UT-7 | 2026-09-04 01:26:20 | 45.05037 | 9.19498 | 141° | 37km/h | 17684m | -8.6m/s | -60.5°C | 5.9% | 0hPa | 2.5V | 00:00:00 | 00:00:00 | 00:00:00 | |
| DO3MHA-11 | 2026-09-04 01:26:16 | 45.05074 | 9.19465 | 156° | 46km/h | 17724m | -10.6m/s | -60.6°C | 6.0% | 0hPa | 2.5V | 00:00:00 | 02:52:36 | 00:00:00 | |
| IW2NTF | 2026-09-04 01:26:12 | 45.05166 | 9.19386 | 136° | 46km/h | 17816m | -8.9m/s | -60.3°C | 6% | 0hPa | 2.5V | 08:15:25 | 02:52:27 | 00:00:00 | |
| DO3MHA-11 | 2026-09-04 01:26:05 | 45.05182 | 9.19365 | 140° | 44km/h | 17835m | -10.2m/s | -60.2°C | 6.0% | 0hPa | 2.6V | 00:00:00 | 02:52:25 | 00:00:00 | |
| IW2NTF | 2026-09-04 01:26:02 | 45.05260 | 9.19301 | 155° | 38km/h | 17917m | -10.1m/s | -59.4°C | 5.7% | 0hPa | 2.5V | 08:15:35 | 02:52:17 | 00:00:00 | |
| DO3MHA-11 | 2026-09-04 01:25:55 | 45.05277 | 9.19290 | 155° | 27km/h | 17937m | -11.3m/s | -59.1°C | 5.6% | 0hPa | 2.5V | 00:00:00 | 02:52:15 | 00:00:00 | |
| IW2NTF | 2026-09-04 01:25:52 | 45.05330 | 9.19266 | 184° | 24km/h | 18017m | -9.2m/s | -58.4°C | 5.2% | 0hPa | 2.5V | 08:15:45 | 02:52:07 | 00:00:00 | |
| DF1GD-15 | 2026-09-04 01:25:51 | 45.05298 | 9.19276 | 157° | 29km/h | 17968m | -9.1m/s | -58.9°C | 2.2% | 0hPa | 2.6V | 08:16:00 | 00:00:00 | 00:00:00 | |
| DO3MHA-11 | 2026-09-04 01:25:45 | 45.05341 | 9.19269 | 196° | 20km/h | 18037m | -10.2m/s | -58.1°C | 5.0% | 0hPa | 2.6V | 00:00:00 | 02:52:05 | 00:00:00 | |
| DB0UT-7 | 2026-09-04 01:25:44 | 45.05347 | 9.19271 | 200° | 20km/h | 18048m | -9.8m/s | -58.0°C | 5.0% | 0hPa | 2.6V | 00:00:00 | 02:52:04 | 00:00:00 | |
| IW2NTF | 2026-09-04 01:25:38 | 45.05381 | 9.19276 | 156° | 16km/h | 18120m | -9.2m/s | -58°C | 4.9% | 0hPa | 2.6V | 08:15:55 | 02:51:57 | 00:00:00 | |
| DO3MHA-11 | 2026-09-04 01:25:35 | 45.05388 | 9.19270 | 143° | 20km/h | 18141m | -9.4m/s | -58.1°C | 5.0% | 0hPa | 2.5V | 00:00:00 | 02:51:55 | 00:00:00 | |
| IW2NTF | 2026-09-04 01:25:32 | 45.05426 | 9.19261 | 219° | 18km/h | 18222m | -10.4m/s | -58.6°C | 5.1% | 0hPa | 2.6V | 08:16:05 | 02:51:47 | 00:00:00 | |
| DF1GD-15 | 2026-09-04 01:25:31 | 45.05405 | 9.19257 | 165° | 24km/h | 18181m | -10.2m/s | -58.2°C | 1.9% | 0hPa | 2.5V | 08:16:00 | 00:00:00 | 00:00:00 | |
| DO3MHA-11 | 2026-09-04 01:25:25 | 45.05430 | 9.19269 | 263° | 20km/h | 18243m | -10.3m/s | -58.6°C | 5.0% | 0hPa | 2.5V | 00:00:00 | 02:51:45 | 00:00:00 | |
| IW2NTF | 2026-09-04 01:25:22 | 45.05425 | 9.19228 | 111° | 31km/h | 18330m | -11.1m/s | -59.1°C | 5.1% | 0hPa | 2.5V | 08:16:15 | 02:51:37 | 00:00:00 | |
| DO3MHA-11 | 2026-09-04 01:25:15 | 45.05433 | 9.19210 | 131° | 29km/h | 18353m | -11.2m/s | -59.2°C | 5.2% | 0hPa | 2.5V | 00:00:00 | 02:51:35 | 00:00:00 | |
| DB0UT-7 | 2026-09-04 01:25:14 | 45.05438 | 9.19201 | 136° | 29km/h | 18365m | -11.2m/s | -59.3°C | 5.3% | 0hPa | 2.5V | 00:00:00 | 00:00:00 | 00:00:00 | |
| IW2NTF | 2026-09-04 01:25:11 | 45.05479 | 9.19145 | 147° | 31km/h | 18457m | -11.5m/s | -59.9°C | 5.6% | 0hPa | 2.5V | 08:16:26 | 02:51:26 | 00:00:00 | |
| DF1GD-15 | 2026-09-04 01:25:09 | 45.05457 | 9.19173 | 129° | 27km/h | 18411m | -11.2m/s | -59.7°C | 2.0% | 0hPa | 2.5V | 08:17:00 | 00:00:00 | 00:00:00 | |
| DO3MHA-11 | 2026-09-04 01:25:05 | 45.05486 | 9.19139 | 150° | 24km/h | 18468m | -11.1m/s | -59.8°C | 5.6% | 0hPa | 2.5V | 08:16:00 | 02:51:25 | 00:00:00 | |
| IW2NTF | 2026-09-04 01:25:01 | 45.05533 | 9.19101 | 147° | 22km/h | 18568m | -10.5m/s | -59.5°C | 5.4% | 0hPa | 2.5V | 08:16:36 | 02:51:16 | 00:00:00 | |
| NBG1-10 | 2026-09-04 01:25:00 | 45.05516 | 9.19118 | 150° | 31km/h | 18522m | -9.8m/s | -59.4°C | 5.4% | 0hPa | 2.5V | 00:00:00 | 02:51:20 | 00:00:00 | |
| DO3MHA-11 | 2026-09-04 01:24:55 | 45.05538 | 9.19097 | 152° | 40km/h | 18579m | -11.7m/s | -59.5°C | 5.4% | 0hPa | 2.5V | 00:00:00 | 02:51:15 | 00:00:00 | |
| IW2NTF | 2026-09-04 01:24:51 | 45.05603 | 9.19044 | 144° | 31km/h | 18684m | -11.4m/s | -59.5°C | 5.5% | 0hPa | 2.5V | 08:16:46 | 02:51:06 | 00:00:00 | |
| DF1GD-15 | 2026-09-04 01:24:49 | 45.05574 | 9.19071 | 152° | 35km/h | 18638m | -12.1m/s | -59.5°C | 2.0% | 0hPa | 2.5V | 08:17:00 | 00:00:00 | 00:00:00 | |
| DB0UT-7 | 2026-09-04 01:24:44 | 45.05614 | 9.19033 | 141° | 40km/h | 18709m | -11.6m/s | -59.4°C | 5.5% | 0hPa | 2.5V | 00:00:00 | 02:51:04 | 00:00:00 | |
| IW2NTF | 2026-09-04 01:24:39 | 45.05667 | 9.18954 | 133° | 51km/h | 18822m | -12.1m/s | -59.8°C | 5.7% | 0hPa | 2.5V | 08:16:58 | 02:50:54 | 00:00:00 | |
| DF1GD-15 | 2026-09-04 01:24:28 | 45.05705 | 9.18904 | 141° | 27km/h | 18883m | -11.4m/s | -59.2°C | 2.0% | 0hPa | 2.5V | 08:17:00 | 00:00:00 | 00:00:00 | |
| NBG1-10 | 2026-09-04 01:24:27 | 45.05715 | 9.18895 | 162° | 33km/h | 18907m | -12.7m/s | -58.7°C | 5.3% | 0hPa | 2.5V | 00:00:00 | 02:50:47 | 00:00:00 | |
| IW2NTF | 2026-09-04 01:24:25 | 45.05738 | 9.18895 | 186° | 40km/h | 18942m | -12.3m/s | -58.6°C | 5.3% | 0hPa | 2.5V | 08:17:08 | 02:50:44 | 00:00:00 | |
| DO3MHA-11 | 2026-09-04 01:24:20 | 45.05791 | 9.18891 | 164° | 38km/h | 18992m | -12.9m/s | -58.6°C | 5.4% | 0hPa | 2.6V | 00:00:00 | 02:50:40 | 00:00:00 | |
| IW2NTF | 2026-09-04 01:24:19 | 45.05844 | 9.18830 | 108° | 24km/h | 19065m | -12.6m/s | -58.6°C | 5.5% | 0hPa | 2.6V | 08:17:18 | 02:50:34 | 00:00:00 | |
| DB0UT-7 | 2026-09-04 01:24:14 | 45.05844 | 9.18829 | 109° | 27km/h | 19066m | -12.6m/s | -58.6°C | 5.5% | 0hPa | 2.6V | 08:17:00 | 00:00:00 | 00:00:00 | |
| RDZBGO | 2026-09-04 01:24:11 | 45.05845 | 9.18820 | 105° | 5km/h | 19090m | -11.8m/s | -58.2°C | 2.0% | 0hPa | 2.5V | 00:00:00 | 00:00:00 | 00:00:00 | |
| DO3MHA-11 | 2026-09-04 01:24:10 | 45.05848 | 9.18823 | 241° | 37km/h | 19113m | -11.0m/s | -58.0°C | 5.4% | 0hPa | 2.5V | 00:00:00 | 02:50:30 | 00:00:00 | |
| IW2NTF | 2026-09-04 01:24:09 | 45.05896 | 9.18851 | 169° | 44km/h | 19184m | -11.8m/s | -57.2°C | 5% | 0hPa | 2.6V | 08:17:28 | 02:50:24 | 00:00:00 | |
| DF1GD-15 | 2026-09-04 01:24:07 | 45.05856 | 9.18837 | 220° | 35km/h | 19136m | -12.2m/s | -57.8°C | 1.9% | 0hPa | 2.6V | 08:17:00 | 00:00:00 | 00:00:00 | |
| DO3MHA-11 | 2026-09-04 01:24:00 | 45.05927 | 9.18816 | 113° | 22km/h | 19231m | -11.0m/s | -56.7°C | 4.8% | 0hPa | 2.6V | 00:00:00 | 02:50:20 | 00:00:00 | |
| IW2NTF | 2026-09-04 01:23:57 | 45.05947 | 9.18806 | 202° | 29km/h | 19321m | -12.1m/s | -56.8°C | 4.8% | 0hPa | 2.6V | 08:17:40 | 02:50:12 | 00:00:00 | |
| NBG1-10 | 2026-09-04 01:23:54 | 45.05936 | 9.18798 | 214° | 26km/h | 19299m | -11.3m/s | -56.9°C | 4.8% | 0hPa | 2.6V | 00:00:00 | 02:50:14 | 00:00:00 | |
| DO3MHA-11 | 2026-09-04 01:23:50 | 45.05962 | 9.18813 | 191° | 31km/h | 19346m | -12.1m/s | -56.6°C | 4.7% | 0hPa | 2.6V | 00:00:00 | 02:50:10 | 00:00:00 | |
| IW2NTF | 2026-09-04 01:23:47 | 45.06016 | 9.18778 | 130° | 31km/h | 19440m | -11.8m/s | -56.7°C | 4.7% | 0hPa | 2.6V | 08:17:50 | 02:50:02 | 00:00:00 | |
| DF1GD-15 | 2026-09-04 01:23:46 | 45.05986 | 9.18812 | 164° | 29km/h | 19381m | -12.2m/s | -56.6°C | 1.7% | 0hPa | 2.5V | 08:17:00 | 00:00:00 | 00:00:00 | |
| RDZBGO | 2026-09-04 01:23:45 | 45.05992 | 9.18808 | 152° | 29km/h | 19393m | -11.7m/s | -56.5°C | 1.7% | 0hPa | 2.5V | 00:00:00 | 00:00:00 | 00:00:00 | |
| DB0UT-7 | 2026-09-04 01:23:44 | 45.06005 | 9.18795 | 136° | 24km/h | 19416m | -12.3m/s | -56.6°C | 4.6% | 0hPa | 2.5V | 00:00:00 | 02:50:04 | 00:00:00 | |
| DO3MHA-11 | 2026-09-04 01:23:40 | 45.06025 | 9.18761 | 126° | 22km/h | 19464m | -11.6m/s | -56.6°C | 4.7% | 0hPa | 2.5V | 00:00:00 | 02:50:00 | 00:00:00 | |
| IW2NTF | 2026-09-04 01:23:37 | 45.06060 | 9.18721 | 148° | 16km/h | 19561m | -13.7m/s | -57°C | 4.8% | 0hPa | 2.5V | 08:18:00 | 02:49:52 | 00:00:00 | |
| DO3MHA-11 | 2026-09-04 01:23:30 | 45.06065 | 9.18715 | 139° | 24km/h | 19584m | -12.2m/s | -56.9°C | 4.8% | 0hPa | 2.5V | 00:00:00 | 02:49:50 | 00:00:00 | |
| IW2NTF | 2026-09-04 01:23:27 | 45.06097 | 9.18673 | 140° | 35km/h | 19681m | -11.9m/s | -57.1°C | 4.8% | 0hPa | 2.5V | 08:18:10 | 02:49:42 | 00:00:00 | |
| DF1GD-15 | 2026-09-04 01:23:26 | 45.06073 | 9.18705 | 137° | 16km/h | 19622m | -11.9m/s | -57.0°C | 1.8% | 0hPa | 2.5V | 08:18:00 | 00:00:00 | 00:00:00 | |
| NBG1-10 | 2026-09-04 01:23:21 | 45.06104 | 9.18666 | 145° | 20km/h | 19694m | -14.1m/s | -57.0°C | 4.9% | 0hPa | 2.5V | 00:00:00 | 02:49:41 | 00:00:00 | |
| DO3MHA-11 | 2026-09-04 01:23:20 | 45.06111 | 9.18659 | 148° | 26km/h | 19707m | -12.7m/s | -57.0°C | 4.8% | 0hPa | 2.5V | 00:00:00 | 02:49:40 | 00:00:00 | |
| IW2NTF | 2026-09-04 01:23:17 | 45.06160 | 9.18634 | 159° | 22km/h | 19804m | -11.8m/s | -56.7°C | 4.8% | 0hPa | 2.5V | 08:18:20 | 02:49:32 | 00:00:00 | |
| RDZBGO | 2026-09-04 01:23:16 | 45.06131 | 9.18645 | 163° | 26km/h | 19745m | -12.9m/s | -57.1°C | 1.7% | 0hPa | 2.5V | 08:18:00 | 00:00:00 | 00:00:00 | |
| DB0UT-7 | 2026-09-04 01:23:14 | 45.06148 | 9.18638 | 167° | 20km/h | 19782m | -12.6m/s | -56.9°C | 4.9% | 0hPa | 2.5V | 00:00:00 | 00:00:00 | 00:00:00 | |
| DO3MHA-11 | 2026-09-04 01:23:10 | 45.06170 | 9.18627 | 151° | 31km/h | 19827m | -13.0m/s | -56.7°C | 4.8% | 0hPa | 2.5V | 08:18:00 | 02:49:30 | 00:00:00 | |
| IW2NTF | 2026-09-04 01:23:05 | 45.06242 | 9.18580 | 159° | 29km/h | 19952m | -13.3m/s | -56.8°C | 4.9% | 0hPa | 2.5V | 08:18:32 | 02:49:20 | 00:00:00 | |
| DO3MHA-11 | 2026-09-04 01:23:00 | 45.06242 | 9.18580 | 160° | 15km/h | 19952m | -13.3m/s | -56.7°C | 4.9% | 0hPa | 2.6V | 00:00:00 | 02:49:20 | 00:00:00 | |
| IW2NTF | 2026-09-04 01:22:55 | 45.06261 | 9.18550 | 260° | 4km/h | 20079m | -12.2m/s | -56.3°C | 4.6% | 0hPa | 2.6V | 08:18:42 | 02:49:10 | 00:00:00 | |
| RDZBGO | 2026-09-04 01:22:53 | 45.06262 | 9.18554 | 89° | 11km/h | 20027m | -12.5m/s | -56.3°C | 1.6% | 0hPa | 2.5V | 08:18:00 | 00:00:00 | 00:00:00 | |
| DO3MHA-11 | 2026-09-04 01:22:50 | 45.06261 | 9.18550 | 261° | 11km/h | 20080m | -12.2m/s | -56.2°C | 4.6% | 0hPa | 2.5V | 00:00:00 | 02:49:10 | 00:00:00 | |
| IW2NTF | 2026-09-04 01:22:45 | 45.06250 | 9.18583 | 320° | 9km/h | 20205m | -11.9m/s | -56.2°C | 4.6% | 0hPa | 2.5V | 08:18:52 | 02:49:00 | 00:00:00 | |
| DB0UT-7 | 2026-09-04 01:22:44 | 45.06260 | 9.18571 | 305° | 11km/h | 20158m | -11.0m/s | -56.0°C | 4.5% | 0hPa | 2.6V | 00:00:00 | 02:49:04 | 00:00:00 | |
| DO3MHA-11 | 2026-09-04 01:22:40 | 45.06250 | 9.18583 | 321° | 7km/h | 20206m | -11.8m/s | -56.2°C | 4.6% | 0hPa | 2.5V | 00:00:00 | 02:49:00 | 00:00:00 | |
| IW2NTF | 2026-09-04 01:22:35 | 45.06240 | 9.18599 | 12° | 11km/h | 20334m | -12.3m/s | -56.4°C | 4.7% | 0hPa | 2.5V | 08:19:02 | 02:48:50 | 00:00:00 | |
| RDZBGO | 2026-09-04 01:22:31 | 45.06246 | 9.18598 | 347° | 11km/h | 20308m | -13.8m/s | -56.3°C | 1.6% | 0hPa | 2.5V | 08:19:00 | 00:00:00 | 00:00:00 | |
| DO3MHA-11 | 2026-09-04 01:22:30 | 45.06240 | 9.18599 | 13° | 13km/h | 20334m | -12.3m/s | -56.4°C | 4.7% | 0hPa | 2.5V | 00:00:00 | 02:48:50 | 00:00:00 | |
| IW2NTF | 2026-09-04 01:22:25 | 45.06227 | 9.18567 | 18° | 7km/h | 20467m | -15.2m/s | -56.6°C | 4.9% | 0hPa | 2.5V | 08:19:12 | 02:48:40 | 00:00:00 | |
| DO3MHA-11 | 2026-09-04 01:22:19 | 45.06225 | 9.18566 | 16° | 18km/h | 20481m | -12.6m/s | -56.5°C | 4.9% | 0hPa | 2.5V | 00:00:00 | 02:48:39 | 00:00:00 | |
| IW2NTF | 2026-09-04 01:22:15 | 45.06230 | 9.18520 | 120° | 20km/h | 20597m | -13.1m/s | -56.4°C | 4.9% | 0hPa | 2.5V | 08:19:22 | 02:48:30 | 00:00:00 | |
| DB0UT-7 | 2026-09-04 01:22:14 | 45.06219 | 9.18548 | 109° | 16km/h | 20548m | -13.0m/s | -56.4°C | 4.9% | 0hPa | 2.6V | 00:00:00 | 00:00:00 | 00:00:00 | |
| RDZBGO | 2026-09-04 01:22:11 | 45.06224 | 9.18534 | 121° | 24km/h | 20574m | -13.2m/s | -56.6°C | 1.7% | 0hPa | 2.6V | 08:19:00 | 00:00:00 | 00:00:00 | |
| DO3MHA-11 | 2026-09-04 01:22:09 | 45.06232 | 9.18514 | 120° | 13km/h | 20611m | -12.5m/s | -56.1°C | 4.8% | 0hPa | 2.6V | 00:00:00 | 02:48:29 | 00:00:00 | |
| IW2NTF | 2026-09-04 01:22:05 | 45.06250 | 9.18485 | 162° | 18km/h | 20726m | -12.7m/s | -55.4°C | 4.4% | 0hPa | 2.5V | 08:19:32 | 02:48:20 | 00:00:00 | |
| DF1GD-15 | 2026-09-04 01:22:04 | 45.06239 | 9.18498 | 120° | 9km/h | 20663m | -13.1m/s | -55.5°C | 1.6% | 0hPa | 2.5V | 08:19:00 | 00:00:00 | 00:00:00 | |
| DO3MHA-11 | 2026-09-04 01:21:59 | 45.06255 | 9.18483 | 170° | 16km/h | 20739m | -12.8m/s | -55.3°C | 4.4% | 0hPa | 2.5V | 00:00:00 | 02:48:19 | 00:00:00 | |
| IW2NTF | 2026-09-04 01:21:55 | 45.06291 | 9.18486 | 199° | 11km/h | 20850m | -12.4m/s | -55.3°C | 4.4% | 0hPa | 2.5V | 08:19:42 | 02:48:10 | 00:00:00 | |
| NBG1-10 | 2026-09-04 01:21:50 | 45.06291 | 9.18486 | 200° | 9km/h | 20851m | -12.4m/s | -55.3°C | 4.4% | 0hPa | 2.6V | 00:00:00 | 02:48:10 | 00:00:00 | |
| DO3MHA-11 | 2026-09-04 01:21:49 | 45.06293 | 9.18488 | 217° | 5km/h | 20863m | -13.3m/s | -55.3°C | 4.4% | 0hPa | 2.6V | 00:00:00 | 02:48:09 | 00:00:00 | |
| IW2NTF | 2026-09-04 01:21:45 | 45.06302 | 9.18494 | 138° | 7km/h | 20980m | -12.9m/s | -55.5°C | 4.3% | 0hPa | 2.6V | 08:19:52 | 02:48:00 | 00:00:00 | |
| DB0UT-7 | 2026-09-04 01:21:44 | 45.06298 | 9.18494 | 225° | 11km/h | 20929m | -13.2m/s | -55.3°C | 4.4% | 0hPa | 2.5V | 00:00:00 | 02:48:04 | 00:00:00 | |
| DF1GD-15 | 2026-09-04 01:21:43 | 45.06298 | 9.18495 | 225° | 4km/h | 20929m | -13.2m/s | -55.4°C | 1.5% | 0hPa | 2.5V | 08:20:00 | 00:00:00 | 00:00:00 | |
| DO3MHA-11 | 2026-09-04 01:21:39 | 45.06304 | 9.18492 | 132° | 15km/h | 20993m | -13.2m/s | -55.5°C | 4.4% | 0hPa | 2.5V | 08:19:00 | 02:47:59 | 00:00:00 | |
| IW2NTF | 2026-09-04 01:21:35 | 45.06332 | 9.18470 | 188° | 7km/h | 21109m | -13.6m/s | -56.2°C | 4.7% | 0hPa | 2.6V | 08:20:02 | 02:47:50 | 00:00:00 | |
| DO3MHA-11 | 2026-09-04 01:21:29 | 45.06333 | 9.18470 | 184° | 9km/h | 21122m | -13.3m/s | -56.1°C | 4.7% | 0hPa | 2.6V | 00:00:00 | 02:47:49 | 00:00:00 | |
| RDZBGO | 2026-09-04 01:21:28 | 45.06333 | 9.18470 | 185° | 5km/h | 21122m | -13.3m/s | -56.2°C | 1.6% | 0hPa | 2.6V | 08:20:00 | 00:00:00 | 00:00:00 | |
| IW2NTF | 2026-09-04 01:21:25 | 45.06349 | 9.18480 | 251° | 11km/h | 21240m | -12.9m/s | -56°C | 4.6% | 0hPa | 2.6V | 08:20:12 | 02:47:40 | 00:00:00 | |
| DF1GD-15 | 2026-09-04 01:21:22 | 45.06344 | 9.18471 | 212° | 9km/h | 21201m | -14.1m/s | -55.8°C | 1.6% | 0hPa | 2.5V | 08:20:00 | 00:00:00 | 00:00:00 | |
| DO3MHA-11 | 2026-09-04 01:21:19 | 45.06349 | 9.18484 | 266° | 11km/h | 21253m | -11.8m/s | -55.9°C | 4.6% | 0hPa | 2.5V | 00:00:00 | 02:47:39 | 00:00:00 | |
| NBG1-10 | 2026-09-04 01:21:17 | 45.06348 | 9.18494 | 293° | 9km/h | 21275m | -10.6m/s | -55.9°C | 4.5% | 0hPa | 2.5V | 00:00:00 | 02:47:37 | 00:00:00 | |
| IW2NTF | 2026-09-04 01:21:15 | 45.06330 | 9.18505 | 33° | 5km/h | 21361m | -13.1m/s | -56.3°C | 4.7% | 0hPa | 2.5V | 08:20:22 | 02:47:30 | 00:00:00 | |
| DB0UT-7 | 2026-09-04 01:21:14 | 45.06340 | 9.18506 | 335° | 9km/h | 21310m | -12.2m/s | -56.0°C | 4.5% | 0hPa | 2.6V | 00:00:00 | 00:00:00 | 00:00:00 | |
| RDZBGO | 2026-09-04 01:21:08 | 45.06328 | 9.18504 | 329° | 4km/h | 21388m | -13.8m/s | -56.5°C | 1.6% | 0hPa | 2.6V | 08:20:00 | 00:00:00 | 00:00:00 | |
| IW2NTF | 2026-09-04 01:21:02 | 45.06321 | 9.18509 | 124° | 11km/h | 21534m | -13.7m/s | -56.6°C | 4.8% | 0hPa | 2.6V | 08:20:35 | 02:47:17 | 00:00:00 | |
| DO3MHA-11 | 2026-09-04 01:20:58 | 45.06321 | 9.18512 | 105° | 13km/h | 21521m | -13.2m/s | -56.5°C | 4.8% | 0hPa | 2.5V | 00:00:00 | 02:47:18 | 00:00:00 | |
| IW2NTF | 2026-09-04 01:20:52 | 45.06350 | 9.18486 | 135° | 4km/h | 21665m | -13.7m/s | -56.4°C | 4.8% | 0hPa | 2.5V | 08:20:45 | 02:47:07 | 00:00:00 | |
| DO3MHA-11 | 2026-09-04 01:20:48 | 45.06349 | 9.18486 | 151° | 4km/h | 21651m | -14.4m/s | -56.4°C | 4.8% | 0hPa | 2.5V | 00:00:00 | 02:47:08 | 00:00:00 | |
| RDZBGO | 2026-09-04 01:20:46 | 45.06350 | 9.18486 | 136° | 4km/h | 21665m | -13.7m/s | -56.4°C | 1.6% | 0hPa | 2.5V | 08:21:00 | 00:00:00 | 00:00:00 | |
| DB0UT-7 | 2026-09-04 01:20:44 | 45.06349 | 9.18483 | 13° | 7km/h | 21705m | -12.4m/s | -56.3°C | 4.8% | 0hPa | 2.5V | 00:00:00 | 02:47:04 | 00:00:00 | |
| DF1GD-15 | 2026-09-04 01:20:42 | 45.06347 | 9.18483 | 2° | 5km/h | 21718m | -13.4m/s | -56.2°C | 1.6% | 0hPa | 2.5V | 08:21:00 | 00:00:00 | 00:00:00 | |
| IW2NTF | 2026-09-04 01:20:41 | 45.06352 | 9.18488 | 211° | 11km/h | 21812m | -14.8m/s | -56°C | 4.8% | 0hPa | 2.5V | 08:20:56 | 02:46:56 | 00:00:00 | |
| DO3MHA-11 | 2026-09-04 01:20:38 | 45.06347 | 9.18485 | 197° | 9km/h | 21784m | -13.5m/s | -56.1°C | 4.8% | 0hPa | 2.6V | 00:00:00 | 02:46:58 | 00:00:00 | |
| IW2NTF | 2026-09-04 01:20:31 | 45.06358 | 9.18515 | 291° | 9km/h | 21947m | -14.4m/s | -54.9°C | 4.4% | 0hPa | 2.5V | 08:21:06 | 02:46:46 | 00:00:00 | |
| DO3MHA-11 | 2026-09-04 01:20:28 | 45.06359 | 9.18509 | 273° | 7km/h | 21921m | -14.2m/s | -55.0°C | 4.4% | 0hPa | 2.6V | 00:00:00 | 02:46:48 | 00:00:00 | |
| RDZBGO | 2026-09-04 01:20:26 | 45.06359 | 9.18512 | 279° | 9km/h | 21934m | -11.6m/s | -55.0°C | 1.5% | 0hPa | 2.6V | 08:21:00 | 00:00:00 | 00:00:00 | |
| IW2NTF | 2026-09-04 01:20:21 | 45.06345 | 9.18514 | 22° | 7km/h | 22083m | -13.4m/s | -54.8°C | 4.4% | 0hPa | 2.6V | 08:21:16 | 02:46:36 | 00:00:00 | |
| DO3MHA-11 | 2026-09-04 01:20:18 | 45.06348 | 9.18516 | 30° | 7km/h | 22056m | -12.9m/s | -54.8°C | 4.4% | 0hPa | 2.5V | 00:00:00 | 02:46:38 | 00:00:00 | |
| DB0UT-7 | 2026-09-04 01:20:14 | 45.06341 | 9.18512 | 12° | 5km/h | 22110m | -12.8m/s | -54.6°C | 4.3% | 0hPa | 2.5V | 00:00:00 | 00:00:00 | 00:00:00 | |
| IW2NTF | 2026-09-04 01:20:11 | 45.06333 | 9.18499 | 61° | 9km/h | 22218m | -14m/s | -54.8°C | 4.3% | 0hPa | 2.5V | 08:21:26 | 02:46:26 | 00:00:00 | |
| NBG1-10 | 2026-09-04 01:20:11 | 45.06337 | 9.18511 | 38° | 11km/h | 22151m | -12.0m/s | -54.5°C | 4.3% | 0hPa | 2.5V | 00:00:00 | 02:46:31 | 00:00:00 | |
| RDZBGO | 2026-09-04 01:20:05 | 45.06333 | 9.18499 | 62° | 9km/h | 22219m | -14.0m/s | -54.8°C | 1.4% | 0hPa | 2.5V | 08:22:00 | 00:00:00 | 00:00:00 | |
| IW2NTF | 2026-09-04 01:20:01 | 45.06334 | 9.18482 | 145° | 7km/h | 22356m | -13.6m/s | -54.8°C | 4.3% | 0hPa | 2.5V | 08:21:36 | 02:46:16 | 00:00:00 | |
| DF1GD-15 | 2026-09-04 01:20:00 | 45.06329 | 9.18486 | 102° | 4km/h | 22287m | -14.6m/s | -55.0°C | 1.5% | 0hPa | 2.5V | 08:22:00 | 00:00:00 | 00:00:00 | |
| DO3MHA-11 | 2026-09-04 01:19:58 | 45.06331 | 9.18484 | 163° | 5km/h | 22329m | -13.7m/s | -54.9°C | 4.4% | 0hPa | 2.5V | 00:00:00 | 02:46:18 | 00:00:00 | |
| IW2NTF | 2026-09-04 01:19:51 | 45.06349 | 9.18491 | 241° | 15km/h | 22495m | -14.2m/s | -55°C | 4.5% | 0hPa | 2.5V | 08:21:46 | 02:46:06 | 00:00:00 | |
| DO3MHA-11 | 2026-09-04 01:19:48 | 45.06345 | 9.18483 | 219° | 13km/h | 22467m | -13.7m/s | -55.0°C | 4.5% | 0hPa | 2.6V | 00:00:00 | 02:46:08 | 00:00:00 | |
| RDZBGO | 2026-09-04 01:19:44 | 45.06350 | 9.18495 | 261° | 15km/h | 22510m | -14.8m/s | -55.0°C | 1.5% | 0hPa | 2.6V | 08:22:00 | 00:00:00 | 00:00:00 | |
| IW2NTF | 2026-09-04 01:19:41 | 45.06334 | 9.18508 | 26° | 7km/h | 22638m | -15.1m/s | -54.7°C | 4.4% | 0hPa | 2.6V | 08:21:56 | 02:45:56 | 00:00:00 | |
| DF1GD-15 | 2026-09-04 01:19:39 | 45.06343 | 9.18510 | 357° | 11km/h | 22583m | -15.0m/s | -54.8°C | 1.5% | 0hPa | 2.5V | 08:22:00 | 00:00:00 | 00:00:00 | |
| DO3MHA-11 | 2026-09-04 01:19:38 | 45.06338 | 9.18509 | 12° | 9km/h | 22611m | -14.9m/s | -54.7°C | 4.4% | 0hPa | 2.5V | 00:00:00 | 02:45:58 | 00:00:00 | |
| DB0UT-7 | 2026-09-04 01:19:32 | 45.06331 | 9.18499 | 102° | 13km/h | 22697m | -13.7m/s | -54.6°C | 4.4% | 0hPa | 2.6V | 08:22:00 | 02:45:52 | 00:00:00 | |
| IW2NTF | 2026-09-04 01:19:31 | 45.06328 | 9.18478 | 52° | 16km/h | 22781m | -14.2m/s | -54.6°C | 4.4% | 0hPa | 2.6V | 08:22:06 | 02:45:46 | 00:00:00 | |
| DO3MHA-11 | 2026-09-04 01:19:28 | 45.06332 | 9.18486 | 68° | 16km/h | 22753m | -14.6m/s | -54.5°C | 4.4% | 0hPa | 2.6V | 00:00:00 | 02:45:48 | 00:00:00 | |
| RDZBGO | 2026-09-04 01:19:24 | 45.06322 | 9.18467 | 55° | 22km/h | 22810m | -14.6m/s | -54.7°C | 1.5% | 0hPa | 2.6V | 00:00:00 | 00:00:00 | 00:00:00 | |
| IW2NTF | 2026-09-04 01:19:21 | 45.06324 | 9.18425 | 153° | 11km/h | 22926m | -15.7m/s | -54.3°C | 4.3% | 0hPa | 2.6V | 08:22:16 | 02:45:36 | 00:00:00 | |
| DF1GD-15 | 2026-09-04 01:19:19 | 45.06317 | 9.18440 | 101° | 16km/h | 22870m | -14.5m/s | -54.6°C | 1.5% | 0hPa | 2.6V | 08:22:00 | 00:00:00 | 00:00:00 | |
| DO3MHA-11 | 2026-09-04 01:19:18 | 45.06319 | 9.18431 | 133° | 9km/h | 22898m | -15.0m/s | -54.3°C | 4.3% | 0hPa | 2.6V | 00:00:00 | 02:45:38 | 00:00:00 | |
| IW2NTF | 2026-09-04 01:19:11 | 45.06319 | 9.18421 | 81° | 11km/h | 23076m | -13.3m/s | -54.3°C | 4.4% | 0hPa | 2.6V | 08:22:26 | 02:45:26 | 00:00:00 | |
| DO3MHA-11 | 2026-09-04 01:19:08 | 45.06321 | 9.18427 | 36° | 11km/h | 23047m | -14.6m/s | -54.3°C | 4.4% | 0hPa | 2.5V | 00:00:00 | 02:45:28 | 00:00:00 | |
| RDZBGO | 2026-09-04 01:19:03 | 45.06322 | 9.18409 | 133° | 13km/h | 23117m | -14.4m/s | -54.3°C | 1.4% | 0hPa | 2.6V | 00:00:00 | 00:00:00 | 00:00:00 | |
| IW2NTF | 2026-09-04 01:19:01 | 45.06321 | 9.18385 | 46° | 20km/h | 23225m | -15.6m/s | -53.7°C | 4.3% | 0hPa | 2.6V | 08:22:36 | 02:45:16 | 00:00:00 | |
| DB0UT-7 | 2026-09-04 01:19:01 | 45.06327 | 9.18403 | 121° | 20km/h | 23147m | -16.9m/s | -54.3°C | 4.5% | 0hPa | 2.6V | 00:00:00 | 00:00:00 | 00:00:00 | |
| NBG1-10 | 2026-09-04 01:19:00 | 45.06328 | 9.18399 | 114° | 20km/h | 23162m | -15.2m/s | -54.2°C | 4.5% | 0hPa | 2.6V | 00:00:00 | 02:45:20 | 00:00:00 | |
| DF1GD-15 | 2026-09-04 01:18:58 | 45.06328 | 9.18397 | 67° | 9km/h | 23178m | -15.4m/s | -54.2°C | 1.5% | 0hPa | 2.6V | 08:22:00 | 00:00:00 | 00:00:00 | |
| DO3MHA-11 | 2026-09-04 01:18:57 | 45.06324 | 9.18390 | 49° | 26km/h | 23208m | -17.3m/s | -53.8°C | 4.4% | 0hPa | 2.6V | 00:00:00 | 02:45:17 | 00:00:00 | |
| IW2NTF | 2026-09-04 01:18:51 | 45.06306 | 9.18298 | 89° | 24km/h | 23380m | -16.9m/s | -53.5°C | 4.1% | 0hPa | 2.6V | 08:22:46 | 02:45:06 | 00:00:00 | |
| DO3MHA-11 | 2026-09-04 01:18:47 | 45.06305 | 9.18307 | 95° | 20km/h | 23365m | -14.8m/s | -53.3°C | 4.1% | 0hPa | 2.5V | 00:00:00 | 02:45:07 | 00:00:00 | |
| RDZBGO | 2026-09-04 01:18:42 | 45.06303 | 9.18277 | 67° | 20km/h | 23427m | -14.4m/s | -53.7°C | 1.4% | 0hPa | 2.5V | 00:00:00 | 00:00:00 | 00:00:00 | |
| IW2NTF | 2026-09-04 01:18:38 | 45.06313 | 9.18226 | 143° | 18km/h | 23588m | -16.9m/s | -53.4°C | 4.2% | 0hPa | 2.5V | 08:22:59 | 02:44:53 | 00:00:00 | |
| DO3MHA-11 | 2026-09-04 01:18:37 | 45.06301 | 9.18238 | 130° | 22km/h | 23520m | -15.2m/s | -53.3°C | 4.2% | 0hPa | 2.6V | 08:22:00 | 02:44:57 | 00:00:00 | |
| DB0UT-7 | 2026-09-04 01:18:31 | 45.06321 | 9.18216 | 137° | 13km/h | 23623m | -17.2m/s | -53.2°C | 4.1% | 0hPa | 2.5V | 00:00:00 | 02:44:51 | 00:00:00 | |
| IW2NTF | 2026-09-04 01:18:28 | 45.06370 | 9.18212 | 213° | 18km/h | 23759m | -16.5m/s | -53.3°C | 4.2% | 0hPa | 2.5V | 08:23:09 | 02:44:43 | 00:00:00 | |
| DO3MHA-11 | 2026-09-04 01:18:27 | 45.06347 | 9.18201 | 182° | 16km/h | 23691m | -17.0m/s | -53.2°C | 4.1% | 0hPa | 2.5V | 00:00:00 | 02:44:47 | 00:00:00 | |
| RDZBGO | 2026-09-04 01:18:21 | 45.06373 | 9.18216 | 219° | 16km/h | 23775m | -15.9m/s | -53.3°C | 1.3% | 0hPa | 2.5V | 08:23:00 | 00:00:00 | 00:00:00 | |
| IW2NTF | 2026-09-04 01:18:18 | 45.06384 | 9.18232 | 214° | 11km/h | 23926m | -16.9m/s | -53.1°C | 4.1% | 0hPa | 2.5V | 08:23:19 | 02:44:33 | 00:00:00 | |
| DO3MHA-11 | 2026-09-04 01:18:17 | 45.06379 | 9.18225 | 235° | 7km/h | 23860m | -16.8m/s | -53.5°C | 4.3% | 0hPa | 2.5V | 00:00:00 | 02:44:37 | 00:00:00 | |
| DF1GD-15 | 2026-09-04 01:18:16 | 45.06379 | 9.18225 | 235° | 2km/h | 23860m | -16.9m/s | -53.5°C | 1.4% | 0hPa | 2.5V | 08:23:00 | 00:00:00 | 00:00:00 | |
| IW2NTF | 2026-09-04 01:18:08 | 45.06393 | 9.18223 | 116° | 13km/h | 24101m | -17.2m/s | -52.6°C | 4% | 0hPa | 2.5V | 08:23:29 | 02:44:23 | 00:00:00 | |
| DO3MHA-11 | 2026-09-04 01:18:07 | 45.06392 | 9.18238 | 97° | 11km/h | 24029m | -18.0m/s | -52.9°C | 4.1% | 0hPa | 2.6V | 00:00:00 | 02:44:27 | 00:00:00 | |
| DB0UT-7 | 2026-09-04 01:18:01 | 45.06397 | 9.18217 | 143° | 11km/h | 24134m | -16.8m/s | -52.6°C | 4.0% | 0hPa | 2.6V | 00:00:00 | 00:00:00 | 00:00:00 | |
| RDZBGO | 2026-09-04 01:18:00 | 45.06400 | 9.18214 | 149° | 11km/h | 24150m | -16.1m/s | -52.6°C | 1.3% | 0hPa | 2.5V | 08:23:00 | 00:00:00 | 00:00:00 | |
| IW2NTF | 2026-09-04 01:17:58 | 45.06408 | 9.18221 | 261° | 15km/h | 24271m | -16.7m/s | -52.4°C | 4% | 0hPa | 2.5V | 08:23:39 | 02:44:13 | 00:00:00 | |
| DO3MHA-11 | 2026-09-04 01:17:57 | 45.06405 | 9.18210 | 204° | 11km/h | 24197m | -19.6m/s | -52.5°C | 4.0% | 0hPa | 2.5V | 00:00:00 | 02:44:17 | 00:00:00 | |
| DF1GD-15 | 2026-09-04 01:17:54 | 45.06406 | 9.18213 | 261° | 7km/h | 24235m | -18.5m/s | -52.4°C | 1.3% | 0hPa | 2.5V | 08:23:00 | 00:00:00 | 00:00:00 | |
| IW2NTF | 2026-09-04 01:17:48 | 45.06407 | 9.18242 | 162° | 7km/h | 24446m | -17.1m/s | -52.3°C | 3.9% | 0hPa | 2.5V | 08:23:49 | 02:44:03 | 00:00:00 | |
| DO3MHA-11 | 2026-09-04 01:17:47 | 45.06406 | 9.18245 | 332° | 11km/h | 24375m | -17.8m/s | -52.1°C | 3.8% | 0hPa | 2.5V | 00:00:00 | 02:44:07 | 00:00:00 | |
| NBG1-10 | 2026-09-04 01:17:39 | 45.06417 | 9.18250 | 242° | 16km/h | 24517m | -19.3m/s | -52.2°C | 3.9% | 0hPa | 2.5V | 00:00:00 | 02:43:59 | 00:00:00 | |
| IW2NTF | 2026-09-04 01:17:38 | 45.06429 | 9.18285 | 242° | 11km/h | 24623m | -16.9m/s | -52.8°C | 4.1% | 0hPa | 2.5V | 08:23:59 | 02:43:53 | 00:00:00 | |
| DO3MHA-11 | 2026-09-04 01:17:37 | 45.06421 | 9.18263 | 249° | 13km/h | 24551m | -17.0m/s | -52.4°C | 3.9% | 0hPa | 2.6V | 00:00:00 | 02:43:57 | 00:00:00 | |
| DF1GD-15 | 2026-09-04 01:17:33 | 45.06427 | 9.18281 | 244° | 15km/h | 24605m | -17.7m/s | -52.7°C | 1.4% | 0hPa | 2.5V | 08:24:00 | 00:00:00 | 00:00:00 | |
| DB0UT-7 | 2026-09-04 01:17:31 | 45.06431 | 9.18291 | 231° | 18km/h | 24657m | -17.0m/s | -52.8°C | 4.1% | 0hPa | 2.5V | 00:00:00 | 02:43:51 | 00:00:00 | |
| IW2NTF | 2026-09-04 01:17:28 | 45.06447 | 9.18316 | 244° | 20km/h | 24797m | -19.2m/s | -52.5°C | 4.1% | 0hPa | 2.5V | 08:24:09 | 02:43:43 | 00:00:00 | |
| DO3MHA-11 | 2026-09-04 01:17:27 | 45.06438 | 9.18299 | 230° | 20km/h | 24727m | -18.1m/s | -52.9°C | 4.2% | 0hPa | 2.5V | 00:00:00 | 02:43:47 | 00:00:00 | |
| IW2NTF | 2026-09-04 01:17:18 | 45.06456 | 9.18389 | 320° | 22km/h | 24979m | -18.4m/s | -52.3°C | 4.2% | 0hPa | 2.5V | 08:24:19 | 02:43:33 | 00:00:00 | |
| DO3MHA-11 | 2026-09-04 01:17:16 | 45.06462 | 9.18372 | 270° | 22km/h | 24926m | -17.8m/s | -52.4°C | 4.2% | 0hPa | 2.5V | 00:00:00 | 02:43:36 | 00:00:00 | |
| DF1GD-15 | 2026-09-04 01:17:13 | 45.06456 | 9.18389 | 321° | 22km/h | 24979m | -18.4m/s | -52.3°C | 1.4% | 0hPa | 2.5V | 08:24:00 | 00:00:00 | 00:00:00 | |
| IW2NTF | 2026-09-04 01:17:08 | 45.06417 | 9.18405 | 58° | 24km/h | 25168m | -20m/s | -51.7°C | 4.1% | 0hPa | 2.5V | 08:24:29 | 02:43:23 | 00:00:00 | |
| DO3MHA-11 | 2026-09-04 01:17:06 | 45.06426 | 9.18420 | 25° | 18km/h | 25109m | -20.9m/s | -52.0°C | 4.1% | 0hPa | 2.5V | 08:24:00 | 02:43:26 | 00:00:00 | |
| DB0UT-7 | 2026-09-04 01:17:01 | 45.06411 | 9.18391 | 62° | 13km/h | 25208m | -19.1m/s | -51.5°C | 4.0% | 0hPa | 2.5V | 00:00:00 | 00:00:00 | 00:00:00 | |
| IW2NTF | 2026-09-04 01:16:58 | 45.06404 | 9.18376 | 190° | 9km/h | 25360m | -18.9m/s | -50.8°C | 3.8% | 0hPa | 2.5V | 08:24:39 | 02:43:13 | 00:00:00 | |
| RDZBGO | 2026-09-04 01:16:58 | 45.06404 | 9.18374 | 45° | 11km/h | 25265m | -20.6m/s | -51.4°C | 1.3% | 0hPa | 2.5V | 08:24:00 | 00:00:00 | 00:00:00 | |
| DO3MHA-11 | 2026-09-04 01:16:56 | 45.06401 | 9.18373 | 315° | 13km/h | 25304m | -17.1m/s | -51.0°C | 4.0% | 0hPa | 2.5V | 00:00:00 | 02:43:16 | 00:00:00 | |
| DF1GD-15 | 2026-09-04 01:16:51 | 45.06406 | 9.18376 | 169° | 9km/h | 25379m | -17.6m/s | -50.8°C | 1.3% | 0hPa | 2.5V | 08:24:00 | 00:00:00 | 00:00:00 | |
| IW2NTF | 2026-09-04 01:16:48 | 45.06443 | 9.18377 | 254° | 15km/h | 25548m | -18.4m/s | -50.5°C | 3.9% | 0hPa | 2.5V | 08:24:49 | 02:43:03 | 00:00:00 | |
| DO3MHA-11 | 2026-09-04 01:16:46 | 45.06435 | 9.18368 | 188° | 11km/h | 25493m | -20.1m/s | -50.5°C | 3.9% | 0hPa | 2.6V | 00:00:00 | 02:43:06 | 00:00:00 | |
| IW2NTF | 2026-09-04 01:16:38 | 45.06452 | 9.18378 | 124° | 13km/h | 25739m | -21.4m/s | -49.1°C | 3.4% | 0hPa | 2.6V | 08:24:59 | 02:42:53 | 00:00:00 | |
| RDZBGO | 2026-09-04 01:16:37 | 45.06442 | 9.18388 | 129° | 4km/h | 25641m | -20.8m/s | -49.8°C | 1.1% | 0hPa | 2.5V | 08:25:00 | 00:00:00 | 00:00:00 | |
| DO3MHA-11 | 2026-09-04 01:16:36 | 45.06445 | 9.18385 | 154° | 9km/h | 25682m | -19.7m/s | -49.5°C | 3.5% | 0hPa | 2.5V | 00:00:00 | 02:42:56 | 00:00:00 | |
| OE5DRO-10 | 2026-09-04 01:16:34 | 45.06449 | 9.18381 | 150° | 15km/h | 25720m | -17.5m/s | -49.2°C | 3.4% | 0hPa | 2.6V | 00:00:00 | 00:00:00 | 00:00:00 | |
| IW2NTF | 2026-09-04 01:16:29 | 45.06454 | 9.18390 | 213° | 16km/h | 25945m | -21m/s | -48.9°C | 3.3% | 0hPa | 2.6V | 08:25:09 | 02:42:43 | 00:00:00 | |
| DO3MHA-11 | 2026-09-04 01:16:26 | 45.06449 | 9.18379 | 262° | 18km/h | 25882m | -22.2m/s | -48.9°C | 3.3% | 0hPa | 2.5V | 00:00:00 | 02:42:46 | 00:00:00 | |
| IW2NTF | 2026-09-04 01:16:18 | 45.06487 | 9.18442 | 278° | 29km/h | 26141m | -20.5m/s | -49.8°C | 3.6% | 0hPa | 2.5V | 08:25:19 | 02:42:33 | 00:00:00 | |
| DO3MHA-11 | 2026-09-04 01:16:16 | 45.06486 | 9.18413 | 246° | 24km/h | 26083m | -18.1m/s | -49.6°C | 3.5% | 0hPa | 2.5V | 00:00:00 | 02:42:36 | 00:00:00 | |
| NBG1-10 | 2026-09-04 01:16:11 | 45.06486 | 9.18460 | 265° | 15km/h | 26183m | -21.1m/s | -49.8°C | 3.6% | 0hPa | 2.5V | 00:00:00 | 02:42:31 | 00:00:00 | |
| DF1GD-15 | 2026-09-04 01:16:10 | 45.06487 | 9.18469 | 257° | 22km/h | 26203m | -20.3m/s | -49.8°C | 1.2% | 0hPa | 2.5V | 08:25:00 | 00:00:00 | 00:00:00 | |
| IW2NTF | 2026-09-04 01:16:08 | 45.06493 | 9.18520 | 302° | 31km/h | 26351m | -20.8m/s | -49.9°C | 3.6% | 0hPa | 2.5V | 08:25:29 | 02:42:23 | 00:00:00 | |
| DO3MHA-11 | 2026-09-04 01:16:06 | 45.06497 | 9.18496 | 250° | 26km/h | 26288m | -21.2m/s | -49.7°C | 3.6% | 0hPa | 2.6V | 00:00:00 | 02:42:26 | 00:00:00 | |
| DB0UT-7 | 2026-09-04 01:16:01 | 45.06482 | 9.18539 | 315° | 9km/h | 26392m | -20.2m/s | -50.0°C | 3.6% | 0hPa | 2.6V | 00:00:00 | 00:00:00 | 00:00:00 | |
| IW2NTF | 2026-09-04 01:15:58 | 45.06469 | 9.18546 | 116° | 13km/h | 26557m | -21.5m/s | -50.2°C | 3.9% | 0hPa | 2.6V | 08:25:39 | 02:42:13 | 00:00:00 | |
| DO3MHA-11 | 2026-09-04 01:15:56 | 45.06464 | 9.18558 | 109° | 7km/h | 26499m | -18.8m/s | -50.1°C | 3.8% | 0hPa | 2.5V | 00:00:00 | 02:42:16 | 00:00:00 | |
| DF1GD-15 | 2026-09-04 01:15:49 | 45.06471 | 9.18539 | 0° | 0km/h | 26619m | -20.1m/s | -50.0°C | 1.2% | 0hPa | 2.5V | 08:26:00 | 00:00:00 | 00:00:00 | |
| DO3MHA-11 | 2026-09-04 01:15:46 | 45.06467 | 9.18545 | 305° | 5km/h | 26699m | -18.4m/s | -49.4°C | 3.7% | 0hPa | 2.5V | 00:00:00 | 02:42:06 | 00:00:00 | |
| IW2NTF | 2026-09-04 01:15:45 | 45.06466 | 9.18551 | 152° | 5km/h | 26825m | -23.4m/s | -49.2°C | 3.6% | 0hPa | 2.5V | 08:25:52 | 02:42:00 | 00:00:00 | |
| DO3MHA-11 | 2026-09-04 01:15:36 | 45.06473 | 9.18545 | 171° | 9km/h | 26914m | -21.0m/s | -49.1°C | 3.7% | 0hPa | 2.6V | 08:25:00 | 02:41:56 | 00:00:00 | |
| IW2NTF | 2026-09-04 01:15:35 | 45.06481 | 9.18550 | 88° | 5km/h | 27046m | -21.7m/s | -48.7°C | 3.6% | 0hPa | 2.5V | 08:26:02 | 02:41:50 | 00:00:00 | |
| DB0UT-7 | 2026-09-04 01:15:31 | 45.06481 | 9.18551 | 107° | 13km/h | 27025m | -23.0m/s | -48.8°C | 3.7% | 0hPa | 2.6V | 00:00:00 | 02:41:51 | 00:00:00 | |
| DF1GD-15 | 2026-09-04 01:15:28 | 45.06481 | 9.18547 | 83° | 11km/h | 27068m | -21.4m/s | -48.6°C | 1.1% | 0hPa | 2.6V | 08:26:00 | 00:00:00 | 00:00:00 | |
| DO3MHA-11 | 2026-09-04 01:15:26 | 45.06481 | 9.18531 | 109° | 11km/h | 27130m | -23.0m/s | -48.4°C | 3.6% | 0hPa | 2.6V | 00:00:00 | 02:41:46 | 00:00:00 | |
| IW2NTF | 2026-09-04 01:15:25 | 45.06488 | 9.18534 | 308° | 9km/h | 27263m | -23.6m/s | -47.5°C | 3.3% | 0hPa | 2.6V | 08:26:12 | 02:41:40 | 00:00:00 | |
| DO3MHA-11 | 2026-09-04 01:15:17 | 45.06483 | 9.18524 | 81° | 18km/h | 27354m | -22.1m/s | -47.1°C | 3.2% | 0hPa | 2.5V | 00:00:00 | 02:41:36 | 00:00:00 | |
| RDZBGO | 2026-09-04 01:15:16 | 45.06483 | 9.18524 | 82° | 20km/h | 27354m | -22.2m/s | -47.2°C | 1.0% | 0hPa | 2.5V | 08:26:00 | 00:00:00 | 00:00:00 | |
| DF1GD-15 | 2026-09-04 01:15:08 | 45.06475 | 9.18495 | 342° | 16km/h | 27507m | -23.3m/s | -46.7°C | 1.0% | 0hPa | 2.5V | 08:27:00 | 00:00:00 | 00:00:00 | |
| DO3MHA-11 | 2026-09-04 01:15:06 | 45.06463 | 9.18499 | 357° | 9km/h | 27576m | -25.6m/s | -46.6°C | 3.1% | 0hPa | 2.5V | 00:00:00 | 02:41:26 | 00:00:00 | |
| DB0UT-7 | 2026-09-04 01:15:01 | 45.06451 | 9.18495 | 21° | 18km/h | 27689m | -25.3m/s | -46.7°C | 3.0% | 0hPa | 2.5V | 08:26:00 | 00:00:00 | 00:00:00 | |
| OE5DRO-10 | 2026-09-04 01:14:57 | 45.06446 | 9.18494 | 337° | 18km/h | 27783m | -23.7m/s | -47.0°C | 3.2% | 0hPa | 2.6V | 00:00:00 | 00:00:00 | 00:00:00 | |
| DO3MHA-11 | 2026-09-04 01:14:56 | 45.06445 | 9.18495 | 314° | 9km/h | 27806m | -23.2m/s | -47.1°C | 3.2% | 0hPa | 2.6V | 00:00:00 | 02:41:16 | 00:00:00 | |
| RDZBGO | 2026-09-04 01:14:55 | 45.06445 | 9.18495 | 314° | 5km/h | 27806m | -23.3m/s | -47.1°C | 1.0% | 0hPa | 2.6V | 08:27:00 | 00:00:00 | 00:00:00 | |
| IW2NTF | 2026-09-04 01:14:53 | 45.06441 | 9.18497 | 21° | 5km/h | 27921m | -24.2m/s | -47.5°C | 3.4% | 0hPa | 2.6V | 08:26:41 | 02:41:11 | 00:00:00 | |
| DF1GD-15 | 2026-09-04 01:14:48 | 45.06436 | 9.18495 | 14° | 13km/h | 27970m | -24.3m/s | -47.6°C | 1.1% | 0hPa | 2.5V | 08:27:00 | 00:00:00 | 00:00:00 | |
| IW2NTF | 2026-09-04 01:14:46 | 45.06388 | 9.18453 | 49° | 35km/h | 28160m | -25m/s | -47.6°C | 3.6% | 0hPa | 2.5V | 08:26:51 | 02:41:01 | 00:00:00 | |
| OE5DRO-10 | 2026-09-04 01:14:38 | 45.06371 | 9.18427 | 42° | 15km/h | 28235m | -26.0m/s | -47.1°C | 3.5% | 0hPa | 2.6V | 00:00:00 | 00:00:00 | 00:00:00 | |
| RDZBGO | 2026-09-04 01:14:34 | 45.06354 | 9.18415 | 8° | 22km/h | 28308m | -23.1m/s | -46.6°C | 1.0% | 0hPa | 2.6V | 08:27:00 | 00:00:00 | 00:00:00 | |
| IW2NTF | 2026-09-04 01:14:32 | 45.06345 | 9.18412 | 82° | 22km/h | 28498m | -22.9m/s | -45.3°C | 3.1% | 0hPa | 2.6V | 08:27:05 | 02:40:47 | 00:00:00 | |
| DB0UT-7 | 2026-09-04 01:14:31 | 45.06343 | 9.18422 | 249° | 15km/h | 28403m | -22.7m/s | -45.4°C | 3.1% | 0hPa | 2.5V | 00:00:00 | 02:40:51 | 00:00:00 | |
| DF1GD-15 | 2026-09-04 01:14:27 | 45.06345 | 9.18418 | 90° | 16km/h | 28475m | -25.6m/s | -45.4°C | 1.0% | 0hPa | 2.5V | 08:27:00 | 00:00:00 | 00:00:00 | |
| IW2NTF | 2026-09-04 01:14:20 | 45.06328 | 9.18378 | 266° | 18km/h | 28746m | -25.3m/s | -44.5°C | 2.9% | 0hPa | 2.5V | 08:27:15 | 02:40:37 | 00:00:00 | |
| NBG1-10 | 2026-09-04 01:14:15 | 45.06328 | 9.18390 | 285° | 18km/h | 28794m | -22.5m/s | -44.5°C | 2.9% | 0hPa | 2.5V | 00:00:00 | 02:40:35 | 00:00:00 | |
| RDZBGO | 2026-09-04 01:14:14 | 45.06328 | 9.18390 | 286° | 16km/h | 28794m | -22.6m/s | -44.5°C | 0.9% | 0hPa | 2.5V | 08:28:00 | 00:00:00 | 00:00:00 | |
| IW2NTF | 2026-09-04 01:14:10 | 45.06314 | 9.18423 | 51° | 7km/h | 29038m | -25.6m/s | -43.8°C | 2.7% | 0hPa | 2.5V | 08:27:27 | 02:40:25 | 00:00:00 | |
| OE5DRO-10 | 2026-09-04 01:14:03 | 45.06311 | 9.18419 | 41° | 24km/h | 29091m | -26.7m/s | -43.9°C | 2.7% | 0hPa | 2.5V | 00:00:00 | 00:00:00 | 00:00:00 | |
| DB0UT-7 | 2026-09-04 01:14:01 | 45.06305 | 9.18414 | 15° | 18km/h | 29145m | -26.6m/s | -44.1°C | 2.8% | 0hPa | 2.5V | 00:00:00 | 00:00:00 | 00:00:00 | |
| IW2NTF | 2026-09-04 01:14:00 | 45.06281 | 9.18406 | 75° | 11km/h | 29306m | -26.3m/s | -44.5°C | 2.8% | 0hPa | 2.5V | 08:27:37 | 02:40:15 | 00:00:00 | |
| RDZBGO | 2026-09-04 01:13:54 | 45.06281 | 9.18406 | 76° | 11km/h | 29306m | -26.3m/s | -44.5°C | 0.8% | 0hPa | 2.6V | 08:28:00 | 00:00:00 | 00:00:00 | |
| IW2NTF | 2026-09-04 01:13:50 | 45.06319 | 9.18321 | 80° | 13km/h | 29569m | -27.8m/s | -45.1°C | 3% | 0hPa | 2.6V | 08:27:47 | 02:40:05 | 00:00:00 | |
| DF1GD-15 | 2026-09-04 01:13:46 | 45.06317 | 9.18333 | 114° | 24km/h | 29518m | -27.1m/s | -44.9°C | 0.9% | 0hPa | 2.5V | 08:28:00 | 00:00:00 | 00:00:00 | |
| OE5DRO-10 | 2026-09-04 01:13:44 | 45.06318 | 9.18317 | 55° | 15km/h | 29597m | -28.6m/s | -45.1°C | 3.0% | 0hPa | 2.5V | 08:27:00 | 00:00:00 | 00:00:00 | |
| NBG1-10 | 2026-09-04 01:13:42 | 45.06316 | 9.18312 | 75° | 13km/h | 29652m | -28.2m/s | -45.0°C | 3.0% | 0hPa | 2.5V | 08:27:00 | 02:40:02 | 00:00:00 | |
| IW2NTF | 2026-09-04 01:13:40 | 45.06325 | 9.18300 | 27° | 9km/h | 29844m | -27.3m/s | -45.1°C | 3.1% | 0hPa | 2.5V | 08:27:57 | 02:39:55 | 00:00:00 | |
| RDZBGO | 2026-09-04 01:13:34 | 45.06325 | 9.18300 | 28° | 9km/h | 29844m | -27.3m/s | -45.1°C | 1.0% | 0hPa | 2.5V | 08:28:00 | 00:00:00 | 00:00:00 | |
| DB0UT-7 | 2026-09-04 01:13:31 | 45.06315 | 9.18293 | 57° | 13km/h | 29951m | -27.2m/s | -44.4°C | 3.0% | 0hPa | 2.5V | 00:00:00 | 02:39:51 | 00:00:00 | |
| IW2NTF | 2026-09-04 01:13:30 | 45.06335 | 9.18254 | 143° | 29km/h | 30112m | -28.1m/s | -44.4°C | 3% | 0hPa | 2.5V | 08:28:07 | 02:39:45 | 00:00:00 | |
| DF1GD-15 | 2026-09-04 01:13:25 | 45.06329 | 9.18261 | 141° | 31km/h | 30085m | -27.6m/s | -44.4°C | 0.9% | 0hPa | 2.6V | 08:28:00 | 00:00:00 | 00:00:00 | |
| IW2NTF | 2026-09-04 01:13:20 | 45.06346 | 9.18259 | 31° | 4km/h | 30379m | -26.2m/s | -44.2°C | 3.1% | 0hPa | 2.6V | 08:28:17 | 02:39:35 | 00:00:00 | |
| RDZBGO | 2026-09-04 01:13:14 | 45.06346 | 9.18258 | 85° | 5km/h | 30405m | -26.5m/s | -44.2°C | 1.0% | 0hPa | 2.5V | 08:28:00 | 00:00:00 | 00:00:00 | |
| OE5DRO-10 | 2026-09-04 01:13:12 | 45.06348 | 9.18255 | 174° | 15km/h | 30458m | -28.9m/s | -44.1°C | 3.2% | 0hPa | 2.5V | 00:00:00 | 00:00:00 | 00:00:00 | |
| IW2NTF | 2026-09-04 01:13:09 | 45.06359 | 9.18263 | 336° | 5km/h | 30651m | -27.7m/s | -42.5°C | 2.9% | 0hPa | 2.5V | 08:28:27 | 02:39:25 | 00:00:00 | |
| NBG1-10 | 2026-09-04 01:13:09 | 45.06356 | 9.18257 | 201° | 29km/h | 30542m | -27.8m/s | -43.3°C | 3.1% | 0hPa | 2.5V | 00:00:00 | 02:39:29 | 00:00:00 | |
| DF1GD-15 | 2026-09-04 01:13:05 | 45.06360 | 9.18262 | 264° | 4km/h | 30624m | -27.7m/s | -42.6°C | 0.9% | 0hPa | 2.5V | 08:28:00 | 00:00:00 | 00:00:00 | |
| DB0UT-7 | 2026-09-04 01:13:01 | 45.06356 | 9.18264 | 205° | 35km/h | 30763m | -26.9m/s | -41.2°C | 2.7% | 0hPa | 2.5V | 00:00:00 | 00:00:00 | 00:00:00 | |
| IW2NTF | 2026-09-04 01:12:58 | 45.06390 | 9.18287 | 194° | 29km/h | 30934m | -30.1m/s | -40.5°C | 2.5% | 0hPa | 2.5V | 08:28:37 | 02:39:15 | 00:00:00 | |
| OE5DRO-10 | 2026-09-04 01:12:53 | 45.06403 | 9.18287 | 171° | 29km/h | 30994m | -29.9m/s | -40.4°C | 2.5% | 0hPa | 2.6V | 00:00:00 | 00:00:00 | 00:00:00 | |
| IW2NTF | 2026-09-04 01:12:50 | 45.06481 | 9.18276 | 194° | 55km/h | 31233m | -30.5m/s | -39.6°C | 2.3% | 0hPa | 2.6V | 08:28:47 | 02:39:05 | 00:00:00 | |
| DK5PH-5 | 2026-09-04 01:12:50 | 45.06426 | 9.18276 | 162° | 35km/h | 31083m | -31.2m/s | -40.0°C | 2.4% | 0hPa | 2.5V | 00:00:00 | 02:39:10 | 00:00:00 | |
| DF1GD-15 | 2026-09-04 01:12:45 | 45.06481 | 9.18276 | 196° | 55km/h | 31233m | -30.5m/s | -39.6°C | 0.7% | 0hPa | 2.5V | 08:28:00 | 00:00:00 | 00:00:00 | |
| IW2NTF | 2026-09-04 01:12:40 | 45.06564 | 9.18341 | 260° | 31km/h | 31534m | -30.1m/s | -39.3°C | 2.3% | 0hPa | 2.5V | 08:30:00 | 02:38:55 | 00:00:00 | |
| DO3MHA-11 | 2026-09-04 01:12:36 | 45.06562 | 9.18331 | 255° | 27km/h | 31505m | -28.8m/s | -39.2°C | 2.3% | 0hPa | 2.5V | 00:00:00 | 02:38:56 | 00:00:00 | |
| RDZBGO | 2026-09-04 01:12:33 | 45.06564 | 9.18361 | 266° | 29km/h | 31594m | -31.2m/s | -39.6°C | 0.7% | 0hPa | 2.5V | 08:29:00 | 00:00:00 | 00:00:00 | |
| DB0UT-7 | 2026-09-04 01:12:31 | 45.06566 | 9.18381 | 261° | 26km/h | 31654m | -27.3m/s | -39.8°C | 2.4% | 0hPa | 2.5V | 00:00:00 | 02:38:51 | 00:00:00 | |
| IW2NTF | 2026-09-04 01:12:30 | 45.06575 | 9.18432 | 296° | 18km/h | 31833m | -30.6m/s | -40°C | 2.5% | 0hPa | 2.5V | 08:30:00 | 02:38:45 | 00:00:00 | |
| DO3MHA-11 | 2026-09-04 01:12:25 | 45.06575 | 9.18432 | 297° | 24km/h | 31834m | -30.6m/s | -40.0°C | 2.5% | 0hPa | 2.5V | 00:00:00 | 02:38:45 | 00:00:00 | |
| DF1GD-15 | 2026-09-04 01:12:24 | 45.06575 | 9.18432 | 297° | 18km/h | 31834m | -30.6m/s | -40.0°C | 0.8% | 0hPa | 2.5V | 08:29:00 | 00:00:00 | 00:00:00 | |
| IW2NTF | 2026-09-04 01:12:20 | 45.06594 | 9.18493 | 209° | 51km/h | 32132m | -32.7m/s | -38.6°C | 2.2% | 0hPa | 2.5V | 08:30:00 | 02:38:35 | 00:00:00 | |
| DK5PH-5 | 2026-09-04 01:12:20 | 45.06563 | 9.18454 | 274° | 22km/h | 31985m | -30.5m/s | -39.5°C | 2.4% | 0hPa | 2.6V | 00:00:00 | 02:38:40 | 00:00:00 | |
| DO3MHA-11 | 2026-09-04 01:12:15 | 45.06594 | 9.18493 | 210° | 26km/h | 32133m | -32.6m/s | -38.5°C | 2.2% | 0hPa | 2.6V | 00:00:00 | 02:38:35 | 00:00:00 | |
| RDZBGO | 2026-09-04 01:12:13 | 45.06615 | 9.18508 | 205° | 42km/h | 32198m | -32.3m/s | -38.6°C | 0.6% | 0hPa | 2.6V | 08:29:00 | 00:00:00 | 00:00:00 | |
| IW2NTF | 2026-09-04 01:12:10 | 45.06620 | 9.18535 | 283° | 26km/h | 32452m | -34.1m/s | -39.4°C | 2.5% | 0hPa | 2.6V | 08:30:00 | 02:38:25 | 00:00:00 | |
| OE5DRO-10 | 2026-09-04 01:12:10 | 45.06631 | 9.18518 | 198° | 18km/h | 32290m | -30.9m/s | -38.9°C | 2.3% | 0hPa | 2.6V | 00:00:00 | 00:00:00 | 00:00:00 | |
| DO3MHA-11 | 2026-09-04 01:12:05 | 45.06620 | 9.18535 | 284° | 24km/h | 32452m | -34.1m/s | -39.4°C | 2.5% | 0hPa | 2.6V | 08:29:00 | 02:38:25 | 00:00:00 | |
| DF1GD-15 | 2026-09-04 01:12:03 | 45.06619 | 9.18545 | 267° | 33km/h | 32487m | -35.8m/s | -39.3°C | 0.7% | 0hPa | 2.5V | 08:29:00 | 00:00:00 | 00:00:00 | |
| DB0UT-7 | 2026-09-04 01:12:01 | 45.06629 | 9.18580 | 233° | 15km/h | 32596m | -37.7m/s | -39.0°C | 2.4% | 0hPa | 2.5V | 00:00:00 | 00:00:00 | 00:00:00 | |
| IW2NTF | 2026-09-04 01:12:00 | 45.06637 | 9.18598 | 358° | 9km/h | 32812m | -37.3m/s | -38.5°C | 2.3% | 0hPa | 2.5V | 08:30:00 | 02:38:15 | 00:00:00 | |
| NBG1-10 | 2026-09-04 01:11:59 | 45.06636 | 9.18593 | 233° | 13km/h | 32670m | -36.2m/s | -38.8°C | 2.3% | 0hPa | 2.6V | 00:00:00 | 02:38:19 | 00:00:00 | |
| DO3MHA-11 | 2026-09-04 01:11:55 | 45.06637 | 9.18598 | 359° | 11km/h | 32813m | -37.3m/s | -38.5°C | 2.3% | 0hPa | 2.5V | 00:00:00 | 02:38:15 | 00:00:00 | |
| IN3HCDX | 2026-09-04 01:11:52 | 45.06633 | 9.18601 | 301° | 5km/h | 32886m | -36.6m/s | -38.5°C | 0.7% | 0hPa | 2.5V | 00:00:00 | 00:00:00 | 00:00:00 | |
| OE5DRO-10 | 2026-09-04 01:11:51 | 45.06634 | 9.18604 | 223° | 13km/h | 32957m | -37.6m/s | -38.5°C | 2.3% | 0hPa | 2.5V | 00:00:00 | 00:00:00 | 00:00:00 | |
| IW2NTF | 2026-09-04 01:11:50 | 45.06642 | 9.18630 | 249° | 16km/h | 33178m | -38.5m/s | -38.4°C | 2.4% | 0hPa | 2.5V | 08:30:00 | 02:38:05 | 00:00:00 | |
| DK5PH-5 | 2026-09-04 01:11:50 | 45.06636 | 9.18607 | 223° | 13km/h | 32993m | -35.7m/s | -38.5°C | 2.4% | 0hPa | 2.5V | 00:00:00 | 02:38:10 | 00:00:00 | |
| DO3MHA-11 | 2026-09-04 01:11:45 | 45.06642 | 9.18630 | 250° | 22km/h | 33178m | -38.5m/s | -38.3°C | 2.4% | 0hPa | 2.5V | 00:00:00 | 02:38:05 | 00:00:00 | |
| DF1GD-15 | 2026-09-04 01:11:43 | 45.06643 | 9.18636 | 256° | 18km/h | 33218m | -41.1m/s | -38.3°C | 0.7% | 0hPa | 2.5V | 00:00:00 | 00:00:00 | 00:00:00 | |
| DL1ZP-14 | 2026-09-04 01:11:41 | 45.06650 | 9.18656 | 240° | 29km/h | 33344m | -51.0m/s | -38.1°C | -1.0% | -1.0hPa | 2.5V | 00:00:00 | 00:00:00 | 00:00:00 | |
| IW2NTF | 2026-09-04 01:11:37 | 45.06661 | 9.18699 | 342° | 2km/h | 33837m | -58.6m/s | -36.4°C | 2% | 0hPa | 2.6V | 08:30:00 | 02:37:52 | 00:00:00 | |
| DO3MHA-11 | 2026-09-04 01:11:35 | 45.06663 | 9.18697 | 293° | 5km/h | 33668m | -55.4m/s | -36.9°C | 2.2% | 0hPa | 2.5V | 00:00:00 | 02:37:55 | 00:00:00 | |
| DB0UT-7 | 2026-09-04 01:11:31 | 45.06660 | 9.18700 | 342° | 15km/h | 33896m | -59.5m/s | -36.4°C | 2.0% | 0hPa | 2.5V | 00:00:00 | 02:37:51 | 00:00:00 | |
| OE5DRO-10 | 2026-09-04 01:11:28 | 45.06658 | 9.18703 | 284° | 16km/h | 34067m | -56.0m/s | -36.9°C | 2.1% | 0hPa | 2.5V | 00:00:00 | 00:00:00 | 00:00:00 | |
| IW2NTF | 2026-09-04 01:11:27 | 45.06651 | 9.18723 | 346° | 11km/h | 34337m | -34m/s | -36.4°C | 2.1% | 0hPa | 2.5V | 08:30:00 | 02:37:42 | 00:00:00 | |
| PG1ADW-2 | 2026-09-04 01:11:26 | 45.06657 | 9.18710 | 290° | 15km/h | 34173m | -49.0m/s | -37.0°C | 2.2% | 0hPa | 2.5V | 00:00:00 | 00:00:00 | 00:00:00 | |
| DO3MHA-11 | 2026-09-04 01:11:25 | 45.06656 | 9.18714 | 294° | 16km/h | 34221m | -45.6m/s | -36.8°C | 2.2% | 0hPa | 2.5V | 00:00:00 | 02:37:45 | 00:00:00 | |
| DF1GD-15 | 2026-09-04 01:11:23 | 45.06655 | 9.18718 | 304° | 13km/h | 34264m | -41.1m/s | -36.6°C | 0.7% | 0hPa | 2.5V | 00:00:00 | 00:00:00 | 00:00:00 | |
| DF7PN | 2026-09-04 01:11:21 | 45.06634 | 9.18702 | 53° | 24km/h | 34480m | -24.5m/s | -36.3°C | 0.6% | -1.0hPa | 2.5V | 00:00:00 | 00:00:00 | 00:00:00 | |
| IW2NTF | 2026-09-04 01:11:17 | 45.06618 | 9.18688 | 310° | 16km/h | 34590m | -23.9m/s | -35.6°C | 2% | 0hPa | 2.5V | 08:30:00 | 02:37:32 | 00:00:00 | |
| DO3MHA-11 | 2026-09-04 01:11:15 | 45.06627 | 9.18690 | 45° | 16km/h | 34528m | -23.1m/s | -36.1°C | 2.2% | 0hPa | 2.6V | 00:00:00 | 02:37:35 | 00:00:00 | |
| IN3HCDX | 2026-09-04 01:11:11 | 45.06615 | 9.18694 | 296° | 22km/h | 34613m | -23.1m/s | -35.3°C | 0.6% | 0hPa | 2.6V | 00:00:00 | 00:00:00 | 00:00:00 | |
| RDZBGO | 2026-09-04 01:11:10 | 45.06615 | 9.18694 | 296° | 22km/h | 34613m | -23.1m/s | -35.3°C | 0.6% | 0hPa | 2.6V | 00:00:00 | 00:00:00 | 00:00:00 | |
| OE5DRO-10 | 2026-09-04 01:11:09 | 45.06612 | 9.18709 | 239° | 18km/h | 34661m | -39.4m/s | -34.8°C | 1.9% | 0hPa | 2.6V | 00:00:00 | 00:00:00 | 00:00:00 | |
| IW2NTF | 2026-09-04 01:11:07 | 45.06630 | 9.18722 | 201° | 11km/h | 34853m | 3.3m/s | -35°C | 1.9% | 0hPa | 2.6V | 08:30:00 | 02:37:22 | 00:00:00 | |
| PG1ADW-2 | 2026-09-04 01:11:06 | 45.06620 | 9.18715 | 209° | 22km/h | 34791m | -34.2m/s | -34.8°C | 1.9% | 0hPa | 2.5V | 00:00:00 | 00:00:00 | 00:00:00 | |
| DO3MHA-11 | 2026-09-04 01:11:05 | 45.06622 | 9.18717 | 206° | 29km/h | 34820m | -25.0m/s | -34.8°C | 1.9% | 0hPa | 2.5V | 00:00:00 | 02:37:25 | 00:00:00 | |
| DF1GD-15 | 2026-09-04 01:11:02 | 45.06627 | 9.18720 | 202° | 13km/h | 34852m | -6.6m/s | -34.9°C | 0.6% | 0hPa | 2.6V | 00:00:00 | 00:00:00 | 00:00:00 | |
| DB0UT-7 | 2026-09-04 01:11:01 | 45.06633 | 9.18723 | 207° | 20km/h | 34846m | 13.5m/s | -35.0°C | 1.9% | 0hPa | 2.6V | 00:00:00 | 00:00:00 | 00:00:00 | |
| IW2NTF | 2026-09-04 01:10:57 | 45.06583 | 9.18766 | 129° | 13km/h | 34799m | 6.1m/s | -35.3°C | 1.9% | 0hPa | 2.6V | 08:30:00 | 02:37:12 | 00:00:00 | |
| DO3MHA-11 | 2026-09-04 01:10:54 | 45.06584 | 9.18768 | 347° | 15km/h | 34811m | 4.4m/s | -35.2°C | 1.9% | 0hPa | 2.6V | 00:00:00 | 02:37:14 | 00:00:00 | |
| NBG1-10 | 2026-09-04 01:10:52 | 45.06582 | 9.18766 | 130° | 16km/h | 34800m | 6.0m/s | -35.2°C | 1.9% | 0hPa | 2.6V | 00:00:00 | 02:37:12 | 00:00:00 | |
| RDZBGO | 2026-09-04 01:10:50 | 45.06590 | 9.18757 | 144° | 22km/h | 34790m | 3.8m/s | -35.3°C | 0.5% | 0hPa | 2.6V | 00:00:00 | 00:00:00 | 00:00:00 | |
| IN3HCDX | 2026-09-04 01:10:49 | 45.06590 | 9.18757 | 144° | 22km/h | 34790m | 3.8m/s | -35.3°C | 0.5% | 0hPa | 2.6V | 00:00:00 | 00:00:00 | 00:00:00 | |
| IW2NTF | 2026-09-04 01:10:47 | 45.06567 | 9.18783 | 322° | 31km/h | 34756m | 3.3m/s | -35.5°C | 1.9% | 0hPa | 2.6V | 08:30:00 | 02:37:02 | 00:00:00 | |
| S52SK | 2026-09-04 01:10:46 | 45.06595 | 9.18751 | 319° | 7km/h | 34779m | 4.4m/s | -35.6°C | 0% | 0hPa | 2.5V | 00:00:00 | 00:00:00 | 00:00:00 | |
| DO3MHA-11 | 2026-09-04 01:10:44 | 45.06581 | 9.18767 | 323° | 18km/h | 34764m | 4.4m/s | -35.6°C | 2.0% | 0hPa | 2.5V | 00:00:00 | 02:37:04 | 00:00:00 | |
| PG1ADW-2 | 2026-09-04 01:10:43 | 45.06573 | 9.18775 | 323° | 15km/h | 34760m | 3.5m/s | -35.5°C | 1.9% | 0hPa | 2.5V | 00:00:00 | 02:37:03 | 00:00:00 | |
| DF1GD-15 | 2026-09-04 01:10:42 | 45.06573 | 9.18775 | 324° | 37km/h | 34760m | 3.6m/s | -35.5°C | 0.6% | 0hPa | 2.5V | 00:00:00 | 00:00:00 | 00:00:00 | |
| IW2NTF | 2026-09-04 01:10:38 | 45.06564 | 9.18786 | 334° | 16km/h | 34713m | 4.5m/s | -35.6°C | 1.9% | 0hPa | 2.5V | 08:30:00 | 02:36:52 | 00:00:00 | |
| DO3MHA-11 | 2026-09-04 01:10:34 | 45.06568 | 9.18784 | 81° | 15km/h | 34723m | 3.9m/s | -35.5°C | 1.9% | 0hPa | 2.6V | 00:00:00 | 02:36:54 | 08:30:00 | |
| DB0UT-7 | 2026-09-04 01:10:31 | 45.06560 | 9.18790 | 331° | 16km/h | 34709m | 4.4m/s | -35.6°C | 2.0% | 0hPa | 2.5V | 00:00:00 | 02:36:51 | 08:30:00 | |
| RDZBGO | 2026-09-04 01:10:28 | 45.06550 | 9.18799 | 323° | 24km/h | 34701m | 3.8m/s | -35.8°C | 0.6% | 0hPa | 2.5V | 00:00:00 | 00:00:00 | 00:00:00 | |
| IN3HCDX | 2026-09-04 01:10:27 | 45.06546 | 9.18804 | 314° | 20km/h | 34697m | 3.9m/s | -35.8°C | 0.6% | 0hPa | 2.5V | 00:00:00 | 00:00:00 | 00:00:00 | |
| IW2NTF | 2026-09-04 01:10:26 | 45.06544 | 9.18820 | 13° | 5km/h | 34673m | 3.7m/s | -36°C | 2% | 0hPa | 2.5V | 08:30:00 | 02:36:42 | 00:00:00 | |
| DO3MHA-11 | 2026-09-04 01:10:24 | 45.06544 | 9.18818 | 224° | 16km/h | 34680m | 3.7m/s | -35.9°C | 2.0% | 0hPa | 2.6V | 00:00:00 | 02:36:44 | 00:00:00 | |
| PG1ADW-2 | 2026-09-04 01:10:23 | 45.06545 | 9.18819 | 220° | 16km/h | 34677m | 3.4m/s | 0°C | 0% | 0hPa | 2.6V | 00:00:00 | 00:00:00 | 00:00:00 | |
| DF1GD-15 | 2026-09-04 01:10:21 | 45.06544 | 9.18819 | 14° | 5km/h | 34673m | 3.7m/s | -36.0°C | 0.6% | 0hPa | 2.6V | 00:00:00 | 00:00:00 | 00:00:00 | |
| DK5PH-5 | 2026-09-04 01:10:20 | 45.06538 | 9.18818 | 11° | 20km/h | 34664m | 5.3m/s | -36.0°C | 2.0% | 0hPa | 2.6V | 00:00:00 | 02:36:40 | 08:30:00 | |
| DF7PN | 2026-09-04 01:10:19 | 45.06525 | 9.18815 | 8° | 29km/h | 34654m | 3.9m/s | 0°C | -1.0% | -1.0hPa | 2.5V | 00:00:00 | 00:00:00 | 00:00:00 | |
| NBG1-10 | 2026-09-04 01:10:18 | 45.06525 | 9.18814 | 9° | 18km/h | 34654m | 3.9m/s | -36.0°C | 2.0% | 0hPa | 2.5V | 00:00:00 | 02:36:38 | 00:00:00 | |
| IW2NTF | 2026-09-04 01:10:17 | 45.06507 | 9.18806 | 155° | 7km/h | 34628m | 3.8m/s | -36.4°C | 2.1% | 0hPa | 2.6V | 08:30:00 | 02:36:32 | 00:00:00 | |
| DO3MHA-11 | 2026-09-04 01:10:14 | 45.06506 | 9.18809 | 39° | 15km/h | 34637m | 5.1m/s | -36.2°C | 2.0% | 0hPa | 2.6V | 00:00:00 | 02:36:34 | 00:00:00 | |
| OE5DRO-10 | 2026-09-04 01:10:12 | 45.06507 | 9.18806 | 156° | 16km/h | 34628m | 3.7m/s | -36.3°C | 2.1% | 0hPa | 2.6V | 00:00:00 | 00:00:00 | 08:30:00 | |
| RDZBGO | 2026-09-04 01:10:08 | 45.06507 | 9.18803 | 17° | 9km/h | 34618m | 4.3m/s | -36.5°C | 0.6% | 0hPa | 2.6V | 00:00:00 | 00:00:00 | 00:00:00 | |
| IW2NTF | 2026-09-04 01:10:07 | 45.06462 | 9.18799 | 9° | 13km/h | 34587m | 5.1m/s | -36.6°C | 2.1% | 0hPa | 2.6V | 08:30:00 | 02:36:22 | 00:00:00 | |
| IN3HCDX | 2026-09-04 01:10:07 | 45.06498 | 9.18802 | 5° | 27km/h | 34607m | 5.3m/s | -36.6°C | 0.6% | 0hPa | 2.5V | 00:00:00 | 00:00:00 | 00:00:00 | |
| DO3MHA-11 | 2026-09-04 01:10:04 | 45.06473 | 9.18800 | 3° | 16km/h | 34595m | 3.0m/s | -36.6°C | 2.1% | 0hPa | 2.5V | 00:00:00 | 02:36:24 | 00:00:00 | |
| PG1ADW-2 | 2026-09-04 01:10:01 | 45.06460 | 9.18798 | 54° | 13km/h | 34582m | 5.4m/s | 0°C | 0% | 0hPa | 2.6V | 00:00:00 | 00:00:00 | 00:00:00 | |
| IW2NTF | 2026-09-04 01:09:57 | 45.06435 | 9.18769 | 3° | 37km/h | 34542m | 3.2m/s | -36.8°C | 2.1% | 0hPa | 2.6V | 08:30:00 | 02:36:12 | 00:00:00 | |
| DF7PN | 2026-09-04 01:09:48 | 45.06416 | 9.18776 | 195° | 9km/h | 34520m | 4.7m/s | 0°C | -1.0% | -1.0hPa | 2.6V | 00:00:00 | 00:00:00 | 00:00:00 | |
| IW2NTF | 2026-09-04 01:09:47 | 45.06421 | 9.18760 | 44° | 24km/h | 34499m | 4.8m/s | -36.9°C | 2.1% | 0hPa | 2.6V | 08:30:00 | 02:36:02 | 00:00:00 | |
| NBG1-10 | 2026-09-04 01:09:45 | 45.06422 | 9.18774 | 145° | 18km/h | 34513m | 3.6m/s | -36.8°C | 2.1% | 0hPa | 2.6V | 00:00:00 | 02:36:05 | 00:00:00 | |
| DO3MHA-11 | 2026-09-04 01:09:44 | 45.06424 | 9.18771 | 107° | 22km/h | 34509m | 4.1m/s | -36.8°C | 2.1% | 0hPa | 2.6V | 00:00:00 | 02:36:04 | 00:00:00 | |
| DF1GD-15 | 2026-09-04 01:09:40 | 45.06416 | 9.18754 | 31° | 29km/h | 34495m | 4.5m/s | -36.8°C | 0.6% | 0hPa | 2.6V | 00:00:00 | 00:00:00 | 00:00:00 | |
| IW2NTF | 2026-09-04 01:09:37 | 45.06377 | 9.18756 | 39° | 5km/h | 34455m | 4.3m/s | -36.9°C | 2.1% | 0hPa | 2.6V | 08:30:00 | 02:35:52 | 00:00:00 | |
| DO3MHA-11 | 2026-09-04 01:09:34 | 45.06378 | 9.18755 | 293° | 15km/h | 34463m | 3.9m/s | -36.8°C | 2.1% | 0hPa | 2.5V | 00:00:00 | 02:35:54 | 00:00:00 | |
| DB0UT-7 | 2026-09-04 01:09:31 | 45.06375 | 9.18754 | 45° | 18km/h | 34451m | 4.6m/s | -36.9°C | 2.1% | 0hPa | 2.6V | 00:00:00 | 02:35:51 | 00:00:00 | |
| IW2NTF | 2026-09-04 01:09:27 | 45.06344 | 9.18749 | 240° | 16km/h | 34409m | 4.3m/s | -37°C | 2.1% | 0hPa | 2.6V | 08:30:00 | 02:35:42 | 00:00:00 | |
| RDZBGO | 2026-09-04 01:09:26 | 45.06356 | 9.18738 | 19° | 26km/h | 34433m | 3.5m/s | -37.0°C | 0.6% | 0hPa | 2.6V | 00:00:00 | 00:00:00 | 00:00:00 | |
| DO3MHA-11 | 2026-09-04 01:09:24 | 45.06343 | 9.18740 | 303° | 15km/h | 34420m | 5.5m/s | -36.9°C | 2.1% | 0hPa | 2.6V | 00:00:00 | 02:35:44 | 00:00:00 | |
| DK5PH-5 | 2026-09-04 01:09:20 | 45.06349 | 9.18755 | 189° | 16km/h | 34402m | 3.8m/s | -37.0°C | 2.1% | 0hPa | 2.6V | 00:00:00 | 02:35:40 | 00:00:00 | |
| DF1GD-15 | 2026-09-04 01:09:19 | 45.06349 | 9.18755 | 190° | 11km/h | 34402m | 3.9m/s | -37.0°C | 0.6% | 0hPa | 2.6V | 00:00:00 | 00:00:00 | 00:00:00 | |
| IW2NTF | 2026-09-04 01:09:17 | 45.06337 | 9.18734 | 302° | 18km/h | 34366m | 5.5m/s | -37.3°C | 2.1% | 0hPa | 2.6V | 08:30:00 | 02:35:32 | 00:00:00 | |
| OE5DRO-10 | 2026-09-04 01:09:15 | 45.06348 | 9.18733 | 44° | 18km/h | 34379m | 3.1m/s | -37.1°C | 2.1% | 0hPa | 2.5V | 00:00:00 | 00:00:00 | 00:00:00 | |
| DO3MHA-11 | 2026-09-04 01:09:14 | 45.06344 | 9.18730 | 18° | 16km/h | 34375m | 3.4m/s | -37.1°C | 2.1% | 0hPa | 2.6V | 00:00:00 | 02:35:34 | 00:00:00 | |
| NBG1-10 | 2026-09-04 01:09:12 | 45.06337 | 9.18734 | 303° | 18km/h | 34366m | 5.5m/s | -37.2°C | 2.1% | 0hPa | 2.6V | 00:00:00 | 02:35:32 | 00:00:00 | |
| IW2NTF | 2026-09-04 01:09:07 | 45.06341 | 9.18764 | 85° | 13km/h | 34321m | 2.9m/s | -37.6°C | 2.1% | 0hPa | 2.6V | 08:30:00 | 02:35:22 | 00:00:00 | |
| RDZBGO | 2026-09-04 01:09:06 | 45.06338 | 9.18777 | 248° | 15km/h | 34345m | 4.4m/s | -37.5°C | 0.6% | 0hPa | 2.5V | 00:00:00 | 00:00:00 | 00:00:00 | |
| IN3HCDX | 2026-09-04 01:09:04 | 45.06341 | 9.18774 | 94° | 15km/h | 34329m | 4.9m/s | -37.5°C | 0.6% | 0hPa | 2.5V | 00:00:00 | 00:00:00 | 00:00:00 | |
| S52SK | 2026-09-04 01:09:03 | 45.06341 | 9.18774 | 94° | 15km/h | 34329m | 4.9m/s | -37.5°C | 0% | 0hPa | 2.5V | 00:00:00 | 00:00:00 | 00:00:00 | |
| DB0UT-7 | 2026-09-04 01:09:01 | 45.06340 | 9.18761 | 87° | 15km/h | 34318m | 3.7m/s | -37.6°C | 2.1% | 0hPa | 2.5V | 00:00:00 | 00:00:00 | 00:00:00 | |
| DF1GD-15 | 2026-09-04 01:08:58 | 45.06341 | 9.18765 | 259° | 16km/h | 34309m | 5.7m/s | -37.8°C | 0.6% | 0hPa | 2.6V | 00:00:00 | 00:00:00 | 00:00:00 | |
| IW2NTF | 2026-09-04 01:08:57 | 45.06352 | 9.18811 | 111° | 9km/h | 34275m | 5.4m/s | -38.1°C | 2.2% | 0hPa | 2.6V | 08:30:00 | 02:35:12 | 00:00:00 | |
| OE5DRO-10 | 2026-09-04 01:08:56 | 45.06346 | 9.18793 | 255° | 13km/h | 34294m | 3.4m/s | -37.9°C | 2.2% | 0hPa | 2.5V | 00:00:00 | 00:00:00 | 00:00:00 | |
| DO3MHA-11 | 2026-09-04 01:08:55 | 45.06350 | 9.18809 | 245° | 13km/h | 34286m | 4.6m/s | -38.0°C | 2.2% | 0hPa | 2.5V | 00:00:00 | 02:35:14 | 00:00:00 | |
| DK5PH-5 | 2026-09-04 01:08:51 | 45.06353 | 9.18801 | 94° | 15km/h | 34266m | 3.8m/s | -38.1°C | 2.2% | 0hPa | 2.5V | 00:00:00 | 02:35:10 | 00:00:00 | |
| IW2NTF | 2026-09-04 01:08:47 | 45.06354 | 9.18829 | 282° | 24km/h | 34229m | 4.4m/s | -38.3°C | 2.2% | 0hPa | 2.6V | 08:30:00 | 02:35:02 | 00:00:00 | |
| RDZBGO | 2026-09-04 01:08:45 | 45.06355 | 9.18795 | 263° | 15km/h | 34249m | 5.2m/s | -38.2°C | 0.6% | 0hPa | 2.5V | 00:00:00 | 00:00:00 | 00:00:00 | |
| DO3MHA-11 | 2026-09-04 01:08:44 | 45.06355 | 9.18810 | 273° | 13km/h | 34238m | 4.8m/s | -38.2°C | 2.2% | 0hPa | 2.5V | 00:00:00 | 02:35:04 | 00:00:00 | |
| IN3HCDX | 2026-09-04 01:08:42 | 45.06355 | 9.18820 | 277° | 27km/h | 34234m | 4.8m/s | -38.3°C | 0.7% | 0hPa | 2.5V | 00:00:00 | 00:00:00 | 00:00:00 | |
| NBG1-10 | 2026-09-04 01:08:39 | 45.06349 | 9.18843 | 326° | 20km/h | 34216m | 4.6m/s | -38.4°C | 2.2% | 0hPa | 2.5V | 00:00:00 | 02:34:59 | 08:30:00 | |
| IW2NTF | 2026-09-04 01:08:37 | 45.06342 | 9.18834 | 5° | 13km/h | 34181m | 4.7m/s | -38.6°C | 2.3% | 0hPa | 2.6V | 08:30:00 | 02:34:52 | 00:00:00 | |
| DO3MHA-11 | 2026-09-04 01:08:34 | 45.06346 | 9.18836 | 48° | 16km/h | 34190m | 4.4m/s | -38.6°C | 2.3% | 0hPa | 2.5V | 00:00:00 | 02:34:54 | 00:00:00 | |
| DB0UT-7 | 2026-09-04 01:08:31 | 45.06338 | 9.18834 | 359° | 24km/h | 34176m | 5.2m/s | -38.5°C | 2.3% | 0hPa | 2.6V | 00:00:00 | 02:34:51 | 00:00:00 | |
| IW2NTF | 2026-09-04 01:08:28 | 45.06308 | 9.18862 | 259° | 15km/h | 34132m | 4.2m/s | -38.2°C | 2.3% | 0hPa | 2.6V | 08:30:00 | 02:34:42 | 00:00:00 | |
| OE5DRO-10 | 2026-09-04 01:08:27 | 45.06317 | 9.18840 | 338° | 22km/h | 34156m | 4.1m/s | -38.4°C | 2.3% | 0hPa | 2.6V | 00:00:00 | 00:00:00 | 00:00:00 | |
| RDZBGO | 2026-09-04 01:08:25 | 45.06312 | 9.18843 | 324° | 18km/h | 34152m | 4.2m/s | -38.4°C | 0.7% | 0hPa | 2.6V | 00:00:00 | 00:00:00 | 00:00:00 | |
| DO3MHA-11 | 2026-09-04 01:08:24 | 45.06308 | 9.18852 | 282° | 20km/h | 34143m | 5.5m/s | -38.3°C | 2.3% | 0hPa | 2.6V | 00:00:00 | 02:34:44 | 00:00:00 | |
| IN3HCDX | 2026-09-04 01:08:21 | 45.06308 | 9.18862 | 261° | 15km/h | 34132m | 4.2m/s | -38.2°C | 0.7% | 0hPa | 2.6V | 00:00:00 | 00:00:00 | 00:00:00 | |
| DK5PH-5 | 2026-09-04 01:08:20 | 45.06308 | 9.18869 | 317° | 29km/h | 34125m | 3.6m/s | -38.1°C | 2.3% | 0hPa | 2.6V | 00:00:00 | 02:34:40 | 00:00:00 | |
| PG1ADW-2 | 2026-09-04 01:08:19 | 45.06305 | 9.18871 | 356° | 29km/h | 34121m | 4.4m/s | 0°C | 0% | 0hPa | 2.6V | 00:00:00 | 00:00:00 | 00:00:00 | |
| IW2NTF | 2026-09-04 01:08:18 | 45.06261 | 9.18878 | 291° | 26km/h | 34088m | 6.4m/s | -37.9°C | 2.2% | 0hPa | 2.6V | 08:30:00 | 02:34:32 | 00:00:00 | |
| DF1GD-15 | 2026-09-04 01:08:17 | 45.06301 | 9.18870 | 10° | 22km/h | 34116m | 6.0m/s | -38.1°C | 0.7% | 0hPa | 2.6V | 00:00:00 | 00:00:00 | 00:00:00 | |
| DO3MHA-11 | 2026-09-04 01:08:14 | 45.06271 | 9.18867 | 345° | 26km/h | 34098m | 2.8m/s | -37.9°C | 2.2% | 0hPa | 2.6V | 00:00:00 | 02:34:34 | 00:00:00 | |
| OE5DRO-10 | 2026-09-04 01:08:08 | 45.06268 | 9.18921 | 248° | 27km/h | 34070m | 2.6m/s | -37.8°C | 2.2% | 0hPa | 2.6V | 00:00:00 | 00:00:00 | 00:00:00 | |
| IW2NTF | 2026-09-04 01:08:07 | 45.06242 | 9.18924 | 11° | 38km/h | 34040m | 2.5m/s | -38°C | 2.2% | 0hPa | 2.6V | 08:30:00 | 02:34:22 | 00:00:00 | |
| DL1ZP-14 | 2026-09-04 01:08:04 | 45.06226 | 9.18925 | 336° | 26km/h | 34035m | 4.0m/s | 0°C | -1.0% | -1.0hPa | 2.5V | 00:00:00 | 00:00:00 | 00:00:00 | |
| DB0UT-7 | 2026-09-04 01:08:01 | 45.06233 | 9.18923 | 360° | 22km/h | 34038m | 2.5m/s | -37.9°C | 2.2% | 0hPa | 2.6V | 00:00:00 | 00:00:00 | 00:00:00 | |
| IN3HCDX | 2026-09-04 01:08:00 | 45.06233 | 9.18923 | 360° | 33km/h | 34038m | 2.5m/s | -37.9°C | 0.6% | 0hPa | 2.6V | 00:00:00 | 00:00:00 | 00:00:00 | |
| PG1ADW-2 | 2026-09-04 01:07:59 | 45.06221 | 9.18930 | 304° | 27km/h | 34030m | 5.5m/s | 0°C | 0% | 0hPa | 2.6V | 00:00:00 | 02:34:19 | 00:00:00 | |
| IW2NTF | 2026-09-04 01:07:57 | 45.06232 | 9.18996 | 305° | 9km/h | 33995m | 5.3m/s | -37.9°C | 2.2% | 0hPa | 2.6V | 08:30:00 | 02:34:12 | 00:00:00 | |
| DF1GD-15 | 2026-09-04 01:07:56 | 45.06220 | 9.18951 | 257° | 37km/h | 34018m | 5.9m/s | -37.9°C | 0.7% | 0hPa | 2.5V | 00:00:00 | 00:00:00 | 00:00:00 | |
| DO3MHA-11 | 2026-09-04 01:07:54 | 45.06231 | 9.18985 | 244° | 24km/h | 34005m | 3.7m/s | -37.8°C | 2.2% | 0hPa | 2.5V | 00:00:00 | 02:34:14 | 00:00:00 | |
| DK5PH-5 | 2026-09-04 01:07:50 | 45.06225 | 9.18998 | 360° | 20km/h | 33985m | 5.0m/s | -37.8°C | 2.2% | 0hPa | 2.5V | 00:00:00 | 02:34:10 | 00:00:00 | |
| IW2NTF | 2026-09-04 01:07:46 | 45.06208 | 9.19069 | 231° | 16km/h | 33938m | 4.8m/s | -37.8°C | 2.1% | 0hPa | 2.5V | 08:30:00 | 02:34:00 | 00:00:00 | |
| DO3MHA-11 | 2026-09-04 01:07:44 | 45.06197 | 9.19032 | 268° | 16km/h | 33957m | 5.0m/s | -37.8°C | 2.2% | 0hPa | 2.5V | 00:00:00 | 02:34:04 | 00:00:00 | |
| BAUMI2-15 | 2026-09-04 01:07:41 | 45.06205 | 9.19062 | 238° | 15km/h | 33943m | 4.6m/s | 0°C | 0% | 0hPa | 2.5V | 00:00:00 | 02:34:01 | 00:00:00 | |
| IN3HCDX | 2026-09-04 01:07:40 | 45.06205 | 9.19062 | 238° | 26km/h | 33943m | 4.7m/s | -37.8°C | 0.6% | 0hPa | 2.5V | 00:00:00 | 00:00:00 | 00:00:00 | |
| PG1ADW-2 | 2026-09-04 01:07:39 | 45.06210 | 9.19072 | 228° | 15km/h | 33933m | 4.7m/s | 0°C | 0% | 0hPa | 2.5V | 00:00:00 | 00:00:00 | 00:00:00 | |
| DF1GD-15 | 2026-09-04 01:07:36 | 45.06211 | 9.19075 | 329° | 4km/h | 33924m | 4.5m/s | -37.8°C | 0.6% | 0hPa | 2.5V | 00:00:00 | 00:00:00 | 00:00:00 | |
| IW2NTF | 2026-09-04 01:07:35 | 45.06207 | 9.19111 | 252° | 20km/h | 33890m | 5m/s | -38°C | 2.2% | 0hPa | 2.5V | 08:30:00 | 02:33:50 | 00:00:00 | |
| DO3MHA-11 | 2026-09-04 01:07:34 | 45.06206 | 9.19082 | 292° | 16km/h | 33910m | 5.0m/s | -37.8°C | 2.1% | 0hPa | 2.5V | 00:00:00 | 02:33:54 | 08:30:00 | |
| BAUMI2-15 | 2026-09-04 01:07:33 | 45.06205 | 9.19088 | 279° | 18km/h | 33905m | 4.6m/s | 0°C | 0% | 0hPa | 2.6V | 00:00:00 | 02:33:53 | 00:00:00 | |
| DL1ZP-14 | 2026-09-04 01:07:32 | 45.06205 | 9.19096 | 268° | 20km/h | 33900m | 4.6m/s | 0°C | -1.0% | -1.0hPa | 2.6V | 00:00:00 | 00:00:00 | 00:00:00 | |
| DB0UT-7 | 2026-09-04 01:07:31 | 45.06205 | 9.19103 | 262° | 18km/h | 33896m | 4.5m/s | -37.9°C | 2.2% | 0hPa | 2.5V | 00:00:00 | 02:33:51 | 00:00:00 | |
| OE5DRO-10 | 2026-09-04 01:07:27 | 45.06212 | 9.19125 | 225° | 18km/h | 33876m | 4.4m/s | -38.0°C | 2.2% | 0hPa | 2.5V | 00:00:00 | 00:00:00 | 00:00:00 | |
| IW2NTF | 2026-09-04 01:07:25 | 45.06226 | 9.19165 | 245° | 26km/h | 33843m | 4m/s | -38.2°C | 2.2% | 0hPa | 2.5V | 08:30:00 | 02:33:40 | 00:00:00 | |
| DO3MHA-11 | 2026-09-04 01:07:24 | 45.06219 | 9.19136 | 242° | 20km/h | 33863m | 4.6m/s | -38.0°C | 2.1% | 0hPa | 2.5V | 00:00:00 | 02:33:44 | 00:00:00 | |
| RDZBGO | 2026-09-04 01:07:23 | 45.06219 | 9.19136 | 242° | 15km/h | 33863m | 4.6m/s | -38.1°C | 0.6% | 0hPa | 2.5V | 00:00:00 | 00:00:00 | 00:00:00 | |
| DK5PH-5 | 2026-09-04 01:07:20 | 45.06226 | 9.19164 | 246° | 22km/h | 33844m | 3.9m/s | -38.1°C | 2.2% | 0hPa | 2.5V | 00:00:00 | 02:33:40 | 00:00:00 | |
| PG1ADW-2 | 2026-09-04 01:07:19 | 45.06230 | 9.19172 | 235° | 20km/h | 33840m | 3.8m/s | 0°C | 0% | 0hPa | 2.5V | 00:00:00 | 00:00:00 | 00:00:00 | |
| IN3HCDX | 2026-09-04 01:07:16 | 45.06238 | 9.19181 | 196° | 18km/h | 33830m | 5.8m/s | -38.3°C | 0.7% | 0hPa | 2.5V | 00:00:00 | 00:00:00 | 00:00:00 | |
| IW2NTF | 2026-09-04 01:07:15 | 45.06255 | 9.19189 | 278° | 27km/h | 33796m | 5.9m/s | -38.5°C | 2.3% | 0hPa | 2.5V | 08:30:00 | 02:33:30 | 00:00:00 | |
| DO3MHA-11 | 2026-09-04 01:07:15 | 45.06251 | 9.19177 | 153° | 20km/h | 33815m | 3.7m/s | -38.3°C | 2.2% | 0hPa | 2.6V | 00:00:00 | 02:33:34 | 00:00:00 | |
| OE5DRO-10 | 2026-09-04 01:07:08 | 45.06251 | 9.19211 | 287° | 22km/h | 33787m | 3.4m/s | -38.5°C | 2.2% | 0hPa | 2.6V | 00:00:00 | 00:00:00 | 08:30:00 | |
| IW2NTF | 2026-09-04 01:07:05 | 45.06264 | 9.19228 | 177° | 22km/h | 33751m | 3.8m/s | -38.6°C | 2.2% | 0hPa | 2.5V | 08:30:00 | 02:33:20 | 00:00:00 | |
| DO3MHA-11 | 2026-09-04 01:07:04 | 45.06247 | 9.19239 | 177° | 24km/h | 33770m | 5.6m/s | -38.6°C | 2.3% | 0hPa | 2.5V | 00:00:00 | 02:33:24 | 00:00:00 | |
| RDZBGO | 2026-09-04 01:07:03 | 45.06247 | 9.19239 | 178° | 5km/h | 33770m | 5.7m/s | -38.6°C | 0.7% | 0hPa | 2.5V | 00:00:00 | 00:00:00 | 00:00:00 | |
| DB0UT-7 | 2026-09-04 01:07:01 | 45.06258 | 9.19230 | 159° | 24km/h | 33755m | 3.3m/s | -38.6°C | 2.3% | 0hPa | 2.5V | 00:00:00 | 00:00:00 | 00:00:00 | |
| IW2NTF | 2026-09-04 01:06:55 | 45.06255 | 9.19285 | 87° | 7km/h | 33704m | 4m/s | -38.9°C | 2.3% | 0hPa | 2.5V | 08:30:00 | 02:33:10 | 00:00:00 | |
| DO3MHA-11 | 2026-09-04 01:06:54 | 45.06269 | 9.19275 | 307° | 24km/h | 33722m | 4.9m/s | -38.7°C | 2.2% | 0hPa | 2.5V | 00:00:00 | 02:33:14 | 00:00:00 | |
| DK5PH-5 | 2026-09-04 01:06:50 | 45.06255 | 9.19284 | 88° | 24km/h | 33704m | 4.0m/s | -38.9°C | 2.3% | 0hPa | 2.5V | 00:00:00 | 02:33:10 | 00:00:00 | |
| OE5DRO-10 | 2026-09-04 01:06:49 | 45.06256 | 9.19282 | 151° | 26km/h | 33700m | 4.2m/s | -38.9°C | 2.3% | 0hPa | 2.5V | 00:00:00 | 00:00:00 | 00:00:00 | |
| IW2NTF | 2026-09-04 01:06:45 | 45.06290 | 9.19352 | 301° | 16km/h | 33658m | 5.2m/s | -39.1°C | 2.3% | 0hPa | 2.5V | 08:30:00 | 02:33:00 | 00:00:00 | |
| DO3MHA-11 | 2026-09-04 01:06:44 | 45.06286 | 9.19309 | 242° | 20km/h | 33676m | 4.1m/s | -39.0°C | 2.3% | 0hPa | 2.5V | 00:00:00 | 02:33:04 | 00:00:00 | |
| RDZBGO | 2026-09-04 01:06:43 | 45.06286 | 9.19309 | 242° | 42km/h | 33676m | 4.1m/s | -39.0°C | 0.7% | 0hPa | 2.5V | 00:00:00 | 00:00:00 | 00:00:00 | |
| BAUMI2-15 | 2026-09-04 01:06:41 | 45.06291 | 9.19345 | 282° | 13km/h | 33663m | 4.7m/s | 0°C | 0% | 0hPa | 2.5V | 00:00:00 | 02:33:01 | 00:00:00 | |
| IW2NTF | 2026-09-04 01:06:35 | 45.06317 | 9.19411 | 254° | 44km/h | 33610m | 3.9m/s | -39.4°C | 2.3% | 0hPa | 2.5V | 08:30:00 | 02:32:50 | 00:00:00 | |
| BAUMI2-15 | 2026-09-04 01:06:34 | 45.06297 | 9.19361 | 221° | 37km/h | 33630m | 5.0m/s | 0°C | 0% | 0hPa | 2.5V | 00:00:00 | 02:32:54 | 00:00:00 | |
| IN3HCDX | 2026-09-04 01:06:33 | 45.06297 | 9.19361 | 222° | 29km/h | 33630m | 5.1m/s | -39.3°C | 0.7% | 0hPa | 2.5V | 00:00:00 | 00:00:00 | 00:00:00 | |
| DB0UT-7 | 2026-09-04 01:06:31 | 45.06313 | 9.19396 | 249° | 24km/h | 33615m | 4.4m/s | -39.3°C | 2.3% | 0hPa | 2.5V | 00:00:00 | 02:32:51 | 00:00:00 | |
| OE5DRO-10 | 2026-09-04 01:06:30 | 45.06317 | 9.19411 | 255° | 24km/h | 33611m | 3.8m/s | -39.3°C | 2.3% | 0hPa | 2.5V | 00:00:00 | 00:00:00 | 00:00:00 | |
| BAUMI2-15 | 2026-09-04 01:06:29 | 45.06319 | 9.19425 | 260° | 22km/h | 33607m | 3.9m/s | 0°C | 0% | 0hPa | 2.5V | 00:00:00 | 02:32:49 | 00:00:00 | |
| DO3MHA-11 | 2026-09-04 01:06:24 | 45.06323 | 9.19453 | 201° | 27km/h | 33582m | 4.4m/s | -39.5°C | 2.4% | 0hPa | 2.5V | 00:00:00 | 02:32:44 | 00:00:00 | |
| IW2NTF | 2026-09-04 01:06:21 | 45.06330 | 9.19472 | 257° | 29km/h | 33563m | 5.4m/s | -39.6°C | 2.4% | 0hPa | 2.5V | 08:30:00 | 02:32:40 | 00:00:00 | |
| DK5PH-5 | 2026-09-04 01:06:20 | 45.06330 | 9.19472 | 258° | 24km/h | 33564m | 5.3m/s | -39.6°C | 2.4% | 0hPa | 2.5V | 00:00:00 | 02:32:40 | 00:00:00 | |
| BAUMI2-15 | 2026-09-04 01:06:18 | 45.06333 | 9.19497 | 263° | 33km/h | 33553m | 4.6m/s | 0°C | 0% | 0hPa | 2.5V | 00:00:00 | 02:32:38 | 00:00:00 | |
| IW2NTF | 2026-09-04 01:06:15 | 45.06348 | 9.19562 | 233° | 18km/h | 33516m | 5.3m/s | -39.6°C | 2.4% | 0hPa | 2.5V | 08:30:00 | 02:32:30 | 00:00:00 | |
| DO3MHA-11 | 2026-09-04 01:06:14 | 45.06339 | 9.19543 | 250° | 26km/h | 33535m | 4.8m/s | -39.5°C | 2.4% | 0hPa | 2.5V | 00:00:00 | 02:32:34 | 00:00:00 | |
| BAUMI2-15 | 2026-09-04 01:06:13 | 45.06341 | 9.19549 | 239° | 20km/h | 33530m | 4.6m/s | 0°C | 0% | 0hPa | 2.5V | 00:00:00 | 02:32:33 | 00:00:00 | |
| IN3HCDX | 2026-09-04 01:06:12 | 45.06341 | 9.19549 | 239° | 16km/h | 33530m | 4.6m/s | -39.6°C | 0.7% | 0hPa | 2.5V | 00:00:00 | 00:00:00 | 00:00:00 | |
| OE5DRO-10 | 2026-09-04 01:06:11 | 45.06345 | 9.19558 | 230° | 24km/h | 33521m | 5.0m/s | -39.5°C | 2.4% | 0hPa | 2.5V | 00:00:00 | 00:00:00 | 00:00:00 | |
| DF7PN | 2026-09-04 01:06:10 | 45.06348 | 9.19562 | 233° | 16km/h | 33516m | 5.3m/s | 0°C | -1.0% | -1.0hPa | 2.5V | 00:00:00 | 00:00:00 | 00:00:00 | |
| BAUMI2-15 | 2026-09-04 01:06:07 | 45.06356 | 9.19584 | 248° | 27km/h | 33502m | 4.1m/s | 0°C | 0% | 0hPa | 2.5V | 00:00:00 | 02:32:27 | 00:00:00 | |
| IW2NTF | 2026-09-04 01:06:05 | 45.06370 | 9.19639 | 254° | 26km/h | 33468m | 5.1m/s | -39.6°C | 2.4% | 0hPa | 2.5V | 08:30:00 | 02:32:20 | 00:00:00 | |
| DO3MHA-11 | 2026-09-04 01:06:04 | 45.06362 | 9.19609 | 251° | 26km/h | 33487m | 5.2m/s | -39.5°C | 2.4% | 0hPa | 2.5V | 00:00:00 | 02:32:24 | 08:30:00 | |
| BAUMI2-15 | 2026-09-04 01:06:02 | 45.06366 | 9.19623 | 251° | 26km/h | 33478m | 4.4m/s | 0°C | 0% | 0hPa | 2.5V | 00:00:00 | 02:32:22 | 00:00:00 | |
| DB0UT-7 | 2026-09-04 01:06:01 | 45.06368 | 9.19630 | 253° | 26km/h | 33473m | 4.3m/s | -39.6°C | 2.4% | 0hPa | 2.5V | 00:00:00 | 00:00:00 | 08:30:00 | |
| IW2NTF | 2026-09-04 01:05:55 | 45.06381 | 9.19718 | 255° | 22km/h | 33421m | 5m/s | -39.7°C | 2.4% | 0hPa | 2.5V | 08:30:00 | 02:32:10 | 00:00:00 | |
| BAUMI2-15 | 2026-09-04 01:05:55 | 45.06377 | 9.19688 | 260° | 18km/h | 33445m | 5.0m/s | 0°C | 0% | 0hPa | 2.5V | 00:00:00 | 02:32:15 | 00:00:00 | |
| DO3MHA-11 | 2026-09-04 01:05:54 | 45.06378 | 9.19695 | 262° | 26km/h | 33440m | 5.5m/s | -39.6°C | 2.4% | 0hPa | 2.5V | 00:00:00 | 02:32:14 | 00:00:00 | |
| OE5DRO-10 | 2026-09-04 01:05:52 | 45.06380 | 9.19706 | 260° | 26km/h | 33430m | 4.0m/s | -39.6°C | 2.4% | 0hPa | 2.5V | 00:00:00 | 00:00:00 | 00:00:00 | |
| DK5PH-5 | 2026-09-04 01:05:50 | 45.06381 | 9.19718 | 256° | 26km/h | 33421m | 4.9m/s | -39.6°C | 2.4% | 0hPa | 2.5V | 00:00:00 | 02:32:10 | 08:30:00 | |
| IN3HCDX | 2026-09-04 01:05:49 | 45.06381 | 9.19718 | 257° | 22km/h | 33421m | 5.0m/s | -39.7°C | 0.7% | 0hPa | 2.5V | 00:00:00 | 00:00:00 | 00:00:00 | |
| IW2NTF | 2026-09-04 01:05:45 | 45.06400 | 9.19807 | 249° | 15km/h | 33372m | 3.8m/s | -39.5°C | 2.4% | 0hPa | 2.5V | 08:30:00 | 02:32:00 | 00:00:00 | |
| DO3MHA-11 | 2026-09-04 01:05:44 | 45.06394 | 9.19784 | 254° | 24km/h | 33392m | 5.2m/s | -39.5°C | 2.4% | 0hPa | 2.5V | 00:00:00 | 02:32:04 | 00:00:00 | |
| S52SK | 2026-09-04 01:05:43 | 45.06394 | 9.19784 | 255° | 27km/h | 33392m | 5.2m/s | -39.6°C | 0% | 0hPa | 2.5V | 00:00:00 | 00:00:00 | 00:00:00 | |
| NBG1-10 | 2026-09-04 01:05:41 | 45.06399 | 9.19803 | 250° | 24km/h | 33377m | 4.3m/s | -39.5°C | 2.4% | 0hPa | 2.5V | 00:00:00 | 02:32:01 | 00:00:00 | |
| S52SK | 2026-09-04 01:05:37 | 45.06403 | 9.19820 | 253° | 26km/h | 33363m | 5.4m/s | -39.5°C | 0% | 0hPa | 2.5V | 00:00:00 | 00:00:00 | 00:00:00 | |
| IW2NTF | 2026-09-04 01:05:35 | 45.06422 | 9.19908 | 248° | 22km/h | 33324m | 4.3m/s | -39.4°C | 2.3% | 0hPa | 2.5V | 08:30:00 | 02:31:50 | 00:00:00 | |
| DO3MHA-11 | 2026-09-04 01:05:34 | 45.06413 | 9.19868 | 255° | 27km/h | 33344m | 4.7m/s | -39.4°C | 2.4% | 0hPa | 2.5V | 00:00:00 | 02:31:54 | 00:00:00 | |
| OE5DRO-10 | 2026-09-04 01:05:33 | 45.06415 | 9.19880 | 255° | 24km/h | 33339m | 4.9m/s | -39.4°C | 2.3% | 0hPa | 2.5V | 00:00:00 | 00:00:00 | 00:00:00 | |
| DB0UT-7 | 2026-09-04 01:05:31 | 45.06419 | 9.19900 | 252° | 22km/h | 33329m | 4.3m/s | -39.4°C | 2.4% | 0hPa | 2.5V | 00:00:00 | 02:31:51 | 00:00:00 | |
| IN3HCDX | 2026-09-04 01:05:26 | 45.06429 | 9.19930 | 244° | 24km/h | 33309m | 4.9m/s | -39.4°C | 0.7% | 0hPa | 2.5V | 00:00:00 | 00:00:00 | 00:00:00 | |
| IW2NTF | 2026-09-04 01:05:25 | 45.06437 | 9.19977 | 271° | 18km/h | 33276m | 4.1m/s | -39.4°C | 2.4% | 0hPa | 2.5V | 08:30:00 | 02:31:40 | 00:00:00 | |
| DO3MHA-11 | 2026-09-04 01:05:24 | 45.06436 | 9.19953 | 254° | 24km/h | 33296m | 4.6m/s | -39.3°C | 2.3% | 0hPa | 2.5V | 00:00:00 | 02:31:44 | 00:00:00 | |
| DK5PH-5 | 2026-09-04 01:05:20 | 45.06437 | 9.19977 | 272° | 22km/h | 33276m | 4.0m/s | -39.4°C | 2.4% | 0hPa | 2.5V | 00:00:00 | 02:31:40 | 00:00:00 | |
| IW2NTF | 2026-09-04 01:05:15 | 45.06458 | 9.20049 | 240° | 9km/h | 33227m | 4.2m/s | -39.6°C | 2.4% | 0hPa | 2.5V | 08:30:00 | 02:31:30 | 00:00:00 | |
| DO3MHA-11 | 2026-09-04 01:05:14 | 45.06449 | 9.20033 | 239° | 20km/h | 33248m | 5.0m/s | -39.5°C | 2.4% | 0hPa | 2.5V | 00:00:00 | 02:31:34 | 00:00:00 | |
| DF1GD-15 | 2026-09-04 01:05:12 | 45.06452 | 9.20040 | 234° | 18km/h | 33242m | 5.6m/s | -39.5°C | 0.7% | 0hPa | 2.5V | 00:00:00 | 00:00:00 | 00:00:00 | |
| NBG1-10 | 2026-09-04 01:05:08 | 45.06460 | 9.20058 | 261° | 22km/h | 33218m | 5.2m/s | -39.5°C | 2.4% | 0hPa | 2.5V | 00:00:00 | 02:31:28 | 00:00:00 | |
| IN3HCDX | 2026-09-04 01:05:05 | 45.06462 | 9.20076 | 264° | 31km/h | 33208m | 4.6m/s | -39.6°C | 0% | 0hPa | 2.5V | 00:00:00 | 00:00:00 | 00:00:00 | |
| DO3MHA-11 | 2026-09-04 01:05:04 | 45.06464 | 9.20099 | 262° | 22km/h | 33199m | 4.7m/s | -39.6°C | 2.4% | 0hPa | 2.5V | 00:00:00 | 02:31:24 | 00:00:00 | |
| IW2NTF | 2026-09-04 01:05:03 | 45.06472 | 9.20139 | 248° | 18km/h | 33169m | 5.3m/s | -39.6°C | 2.4% | 0hPa | 2.6V | 08:30:00 | 02:31:18 | 00:00:00 | |
| DB0UT-7 | 2026-09-04 01:05:01 | 45.06468 | 9.20124 | 252° | 22km/h | 33184m | 4.7m/s | -39.6°C | 2.4% | 0hPa | 2.5V | 00:00:00 | 00:00:00 | 00:00:00 | |
| RDZBGO | 2026-09-04 01:04:59 | 45.06469 | 9.20129 | 248° | 15km/h | 33179m | 4.6m/s | -39.7°C | 0.7% | 0hPa | 2.5V | 00:00:00 | 00:00:00 | 00:00:00 | |
| OE5DRO-10 | 2026-09-04 01:04:55 | 45.06477 | 9.20162 | 261° | 22km/h | 33155m | 4.3m/s | -39.6°C | 2.4% | 0hPa | 2.5V | 00:00:00 | 00:00:00 | 00:00:00 | |
| DO3MHA-11 | 2026-09-04 01:04:54 | 45.06477 | 9.20171 | 266° | 22km/h | 33150m | 4.3m/s | -39.6°C | 2.4% | 0hPa | 2.5V | 00:00:00 | 02:31:14 | 00:00:00 | |
| DF1GD-15 | 2026-09-04 01:04:51 | 45.06477 | 9.20187 | 277° | 20km/h | 33140m | 5.6m/s | -39.7°C | 0.7% | 0hPa | 2.5V | 00:00:00 | 00:00:00 | 00:00:00 | |
| DK5PH-5 | 2026-09-04 01:04:50 | 45.06476 | 9.20200 | 283° | 22km/h | 33129m | 4.6m/s | -39.6°C | 2.4% | 0hPa | 2.5V | 00:00:00 | 02:31:10 | 00:00:00 | |
| IW2NTF | 2026-09-04 01:04:47 | 45.06474 | 9.20232 | 268° | 27km/h | 33109m | 4.5m/s | -39.6°C | 2.4% | 0hPa | 2.5V | 08:30:00 | 02:31:06 | 00:00:00 | |
| DO3MHA-11 | 2026-09-04 01:04:44 | 45.06474 | 9.20251 | 268° | 22km/h | 33100m | 4.6m/s | -39.6°C | 2.4% | 0hPa | 2.5V | 00:00:00 | 02:31:04 | 00:00:00 | |
| IW2NTF | 2026-09-04 01:04:41 | 45.06467 | 9.20305 | 275° | 31km/h | 33059m | 5m/s | -39.5°C | 2.4% | 0hPa | 2.5V | 08:30:00 | 02:30:56 | 00:00:00 | |
| RDZBGO | 2026-09-04 01:04:38 | 45.06471 | 9.20279 | 289° | 18km/h | 33075m | 4.4m/s | -39.5°C | 0.7% | 0hPa | 2.5V | 00:00:00 | 00:00:00 | 00:00:00 | |
| NBG1-10 | 2026-09-04 01:04:35 | 45.06467 | 9.20316 | 273° | 24km/h | 33055m | 4.2m/s | -39.4°C | 2.4% | 0hPa | 2.5V | 00:00:00 | 02:30:55 | 00:00:00 | |
| DO3MHA-11 | 2026-09-04 01:04:34 | 45.06467 | 9.20327 | 270° | 18km/h | 33051m | 3.8m/s | -39.4°C | 2.4% | 0hPa | 2.5V | 00:00:00 | 02:30:54 | 08:30:00 | |
| DB0UT-7 | 2026-09-04 01:04:31 | 45.06469 | 9.20348 | 250° | 24km/h | 33035m | 5.9m/s | -39.3°C | 2.3% | 0hPa | 2.5V | 00:00:00 | 02:30:51 | 00:00:00 | |
| IW2NTF | 2026-09-04 01:04:29 | 45.06471 | 9.20392 | 271° | 37km/h | 32999m | 4.6m/s | -39.4°C | 2.4% | 0hPa | 2.5V | 08:30:00 | 02:30:44 | 00:00:00 | |
| DO3MHA-11 | 2026-09-04 01:04:24 | 45.06471 | 9.20392 | 272° | 26km/h | 32999m | 4.6m/s | -39.4°C | 2.4% | 0hPa | 2.5V | 00:00:00 | 02:30:44 | 00:00:00 | |
| DK5PH-5 | 2026-09-04 01:04:20 | 45.06473 | 9.20435 | 257° | 26km/h | 32979m | 5.1m/s | -39.3°C | 2.3% | 0hPa | 2.5V | 00:00:00 | 02:30:40 | 00:00:00 | |
| IW2NTF | 2026-09-04 01:04:19 | 45.06485 | 9.20477 | 252° | 29km/h | 32948m | 4.8m/s | -39.4°C | 2.3% | 0hPa | 2.5V | 08:30:00 | 02:30:34 | 00:00:00 | |
| RDZBGO | 2026-09-04 01:04:18 | 45.06474 | 9.20441 | 251° | 16km/h | 32974m | 4.9m/s | -39.4°C | 0.7% | 0hPa | 2.6V | 00:00:00 | 00:00:00 | 00:00:00 | |
| OE5DRO-10 | 2026-09-04 01:04:17 | 45.06478 | 9.20452 | 245° | 20km/h | 32964m | 5.1m/s | -39.3°C | 2.3% | 0hPa | 2.6V | 00:00:00 | 00:00:00 | 08:30:00 | |
| DO3MHA-11 | 2026-09-04 01:04:14 | 45.06484 | 9.20477 | 253° | 27km/h | 32949m | 4.7m/s | -39.3°C | 2.3% | 0hPa | 2.5V | 00:00:00 | 02:30:34 | 00:00:00 | |
| DF1GD-15 | 2026-09-04 01:04:11 | 45.06489 | 9.20497 | 257° | 29km/h | 32939m | 5.0m/s | -39.3°C | 0.7% | 0hPa | 2.5V | 00:00:00 | 00:00:00 | 00:00:00 | |
| IW2NTF | 2026-09-04 01:04:09 | 45.06499 | 9.20571 | 258° | 37km/h | 32897m | 5.2m/s | -39.5°C | 2.4% | 0hPa | 2.5V | 08:30:00 | 02:30:24 | 00:00:00 | |
| DO3MHA-11 | 2026-09-04 01:04:04 | 45.06499 | 9.20571 | 259° | 27km/h | 32897m | 5.1m/s | -39.4°C | 2.4% | 0hPa | 2.5V | 00:00:00 | 02:30:24 | 00:00:00 | |
| OE5DXL-15 | 2026-09-04 01:04:03 | 45.06501 | 9.20584 | 257° | 24km/h | 32892m | 4.6m/s | 0°C | 0% | 0hPa | 2.5V | 00:00:00 | 00:00:00 | 00:00:00 | |
| NBG1-10 | 2026-09-04 01:04:02 | 45.06503 | 9.20596 | 255° | 20km/h | 32888m | 4.4m/s | -39.4°C | 2.4% | 0hPa | 2.5V | 00:00:00 | 02:30:22 | 00:00:00 | |
| DB0UT-7 | 2026-09-04 01:04:01 | 45.06506 | 9.20607 | 253° | 20km/h | 32883m | 5.5m/s | -39.4°C | 2.4% | 0hPa | 2.5V | 00:00:00 | 00:00:00 | 00:00:00 | |
| IN3HCDX | 2026-09-04 01:04:00 | 45.06506 | 9.20607 | 253° | 29km/h | 32883m | 5.5m/s | -39.5°C | 0% | 0hPa | 2.5V | 00:00:00 | 00:00:00 | 00:00:00 | |
| IW2NTF | 2026-09-04 01:03:59 | 45.06512 | 9.20662 | 272° | 33km/h | 32845m | 5.3m/s | -39.5°C | 2.4% | 0hPa | 2.5V | 08:30:00 | 02:30:14 | 00:00:00 | |
| RDZBGO | 2026-09-04 01:03:58 | 45.06510 | 9.20623 | 252° | 18km/h | 32871m | 5.1m/s | -39.5°C | 0.7% | 0hPa | 2.6V | 00:00:00 | 00:00:00 | 00:00:00 | |
| DO3MHA-11 | 2026-09-04 01:03:54 | 45.06512 | 9.20662 | 273° | 22km/h | 32846m | 5.2m/s | -39.5°C | 2.4% | 0hPa | 2.6V | 00:00:00 | 02:30:14 | 00:00:00 | |
| DK5PH-5 | 2026-09-04 01:03:50 | 45.06512 | 9.20706 | 263° | 16km/h | 32826m | 5.8m/s | -39.4°C | 2.4% | 0hPa | 2.6V | 00:00:00 | 02:30:10 | 00:00:00 | |
| IW2NTF | 2026-09-04 01:03:49 | 45.06524 | 9.20733 | 246° | 20km/h | 32794m | 5.5m/s | -39.5°C | 2.4% | 0hPa | 2.6V | 08:30:00 | 02:30:04 | 00:00:00 | |
| DO3MHA-11 | 2026-09-04 01:03:44 | 45.06523 | 9.20732 | 247° | 18km/h | 32794m | 5.5m/s | -39.5°C | 2.4% | 0hPa | 2.6V | 00:00:00 | 02:30:04 | 00:00:00 | |
| IW2NTF | 2026-09-04 01:03:39 | 45.06517 | 9.20786 | 252° | 13km/h | 32743m | 6m/s | -39.5°C | 2.4% | 0hPa | 2.6V | 08:30:00 | 02:29:54 | 00:00:00 | |
| RDZBGO | 2026-09-04 01:03:37 | 45.06521 | 9.20775 | 316° | 13km/h | 32763m | 5.4m/s | -39.5°C | 0.7% | 0hPa | 2.6V | 00:00:00 | 00:00:00 | 00:00:00 | |
| DO3MHA-11 | 2026-09-04 01:03:34 | 45.06517 | 9.20785 | 253° | 15km/h | 32743m | 5.9m/s | -39.5°C | 2.4% | 0hPa | 2.6V | 00:00:00 | 02:29:54 | 00:00:00 | |
| DB0UT-7 | 2026-09-04 01:03:31 | 45.06524 | 9.20803 | 232° | 16km/h | 32727m | 4.7m/s | -39.6°C | 2.4% | 0hPa | 2.5V | 00:00:00 | 02:29:51 | 00:00:00 | |
| DF1GD-15 | 2026-09-04 01:03:30 | 45.06524 | 9.20803 | 233° | 24km/h | 32727m | 4.8m/s | -39.6°C | 0.7% | 0hPa | 2.5V | 00:00:00 | 00:00:00 | 00:00:00 | |
| NBG1-10 | 2026-09-04 01:03:29 | 45.06532 | 9.20815 | 223° | 16km/h | 32717m | 5.5m/s | -39.6°C | 2.4% | 0hPa | 2.5V | 00:00:00 | 02:29:49 | 00:00:00 | |
| IW2NTF | 2026-09-04 01:03:28 | 45.06533 | 9.20831 | 298° | 18km/h | 32685m | 5.3m/s | -39.6°C | 2.4% | 0hPa | 2.5V | 08:30:00 | 02:29:43 | 00:00:00 | |
| DO3MHA-11 | 2026-09-04 01:03:24 | 45.06535 | 9.20827 | 310° | 16km/h | 32691m | 4.9m/s | -39.6°C | 2.4% | 0hPa | 2.5V | 00:00:00 | 02:29:44 | 00:00:00 | |
| DK5PH-5 | 2026-09-04 01:03:20 | 45.06529 | 9.20855 | 268° | 16km/h | 32671m | 4.3m/s | -39.6°C | 2.4% | 0hPa | 2.5V | 00:00:00 | 02:29:40 | 00:00:00 | |
| IN3HCDX | 2026-09-04 01:03:19 | 45.06529 | 9.20855 | 268° | 26km/h | 32671m | 4.4m/s | 0°C | 0% | 0hPa | 2.5V | 00:00:00 | 00:00:00 | 00:00:00 | |
| IW2NTF | 2026-09-04 01:03:18 | 45.06528 | 9.20872 | 4° | 11km/h | 32635m | 4.2m/s | -39.7°C | 2.4% | 0hPa | 2.5V | 08:30:00 | 02:29:33 | 00:00:00 | |
| OE5DXL-15 | 2026-09-04 01:03:18 | 45.06531 | 9.20870 | 250° | 18km/h | 32662m | 4.7m/s | 0°C | 0% | 0hPa | 2.5V | 00:00:00 | 00:00:00 | 00:00:00 | |
| RDZBGO | 2026-09-04 01:03:17 | 45.06531 | 9.20870 | 251° | 16km/h | 32662m | 4.8m/s | -39.7°C | 0.7% | 0hPa | 2.5V | 00:00:00 | 00:00:00 | 00:00:00 | |
| S52SK | 2026-09-04 01:03:15 | 45.06533 | 9.20875 | 0° | 0km/h | 32651m | 5.9m/s | 0°C | 0% | 0hPa | 2.5V | 00:00:00 | 00:00:00 | 00:00:00 | |
| DO3MHA-11 | 2026-09-04 01:03:14 | 45.06531 | 9.20873 | 30° | 18km/h | 32640m | 4.6m/s | -39.7°C | 2.4% | 0hPa | 2.5V | 00:00:00 | 02:29:34 | 00:00:00 | |
| S52SK | 2026-09-04 01:03:10 | 45.06523 | 9.20876 | 307° | 16km/h | 32626m | 5.0m/s | 0°C | 0% | 0hPa | 2.5V | 00:00:00 | 00:00:00 | 00:00:00 | |
| DF1GD-15 | 2026-09-04 01:03:09 | 45.06521 | 9.20882 | 287° | 20km/h | 32621m | 5.4m/s | -39.8°C | 0.8% | 0hPa | 2.5V | 00:00:00 | 00:00:00 | 00:00:00 | |
| IW2NTF | 2026-09-04 01:03:06 | 45.06518 | 9.20924 | 3° | 15km/h | 32585m | 6m/s | -39.8°C | 2.4% | 0hPa | 2.5V | 08:30:00 | 02:29:23 | 00:00:00 | |
| S52SK | 2026-09-04 01:03:05 | 45.06522 | 9.20916 | 263° | 18km/h | 32602m | 4.6m/s | 0°C | 0% | 0hPa | 2.6V | 00:00:00 | 00:00:00 | 00:00:00 | |
| DO3MHA-11 | 2026-09-04 01:03:04 | 45.06521 | 9.20923 | 334° | 20km/h | 32591m | 6.0m/s | -39.7°C | 2.4% | 0hPa | 2.6V | 00:00:00 | 02:29:24 | 08:30:00 | |
| DB0UT-7 | 2026-09-04 01:03:01 | 45.06508 | 9.20923 | 3° | 26km/h | 32575m | 4.5m/s | -39.7°C | 2.4% | 0hPa | 2.5V | 00:00:00 | 00:00:00 | 00:00:00 | |
| OE5DRO-10 | 2026-09-04 01:02:58 | 45.06495 | 9.20930 | 299° | 26km/h | 32560m | 5.6m/s | -39.6°C | 2.4% | 0hPa | 2.5V | 00:00:00 | 00:00:00 | 00:00:00 | |
| RDZBGO | 2026-09-04 01:02:57 | 45.06495 | 9.20930 | 300° | 20km/h | 32560m | 5.7m/s | -39.7°C | 0.7% | 0hPa | 2.5V | 00:00:00 | 00:00:00 | 00:00:00 | |
| IW2NTF | 2026-09-04 01:02:56 | 45.06498 | 9.20969 | 265° | 15km/h | 32535m | 4.5m/s | -39.8°C | 2.4% | 0hPa | 2.5V | 08:30:00 | 02:29:13 | 00:00:00 | |
| NBG1-10 | 2026-09-04 01:02:56 | 45.06494 | 9.20946 | 261° | 26km/h | 32549m | 4.8m/s | -39.6°C | 2.3% | 0hPa | 2.5V | 00:00:00 | 02:29:16 | 00:00:00 | |
| DO3MHA-11 | 2026-09-04 01:02:54 | 45.06497 | 9.20963 | 254° | 26km/h | 32540m | 4.2m/s | -39.7°C | 2.4% | 0hPa | 2.6V | 00:00:00 | 02:29:14 | 00:00:00 | |
| DK5PH-5 | 2026-09-04 01:02:50 | 45.06489 | 9.20977 | 349° | 27km/h | 32521m | 4.7m/s | -39.8°C | 2.4% | 0hPa | 2.6V | 00:00:00 | 02:29:10 | 00:00:00 | |
| OE5DXL-15 | 2026-09-04 01:02:48 | 45.06475 | 9.20984 | 334° | 37km/h | 32512m | 4.6m/s | 0°C | 0% | 0hPa | 2.6V | 00:00:00 | 00:00:00 | 00:00:00 | |
| IW2NTF | 2026-09-04 01:02:45 | 45.06458 | 9.21034 | 248° | 31km/h | 32487m | 5.6m/s | -40°C | 2.4% | 0hPa | 2.6V | 08:30:00 | 02:29:03 | 00:00:00 | |
| DO3MHA-11 | 2026-09-04 01:02:44 | 45.06456 | 9.21023 | 267° | 24km/h | 32493m | 5.3m/s | -39.9°C | 2.4% | 0hPa | 2.5V | 00:00:00 | 02:29:04 | 00:00:00 | |
| OE5DRO-10 | 2026-09-04 01:02:39 | 45.06469 | 9.21056 | 281° | 26km/h | 32469m | 4.1m/s | -40.0°C | 2.4% | 0hPa | 2.5V | 00:00:00 | 00:00:00 | 00:00:00 | |
| RDZBGO | 2026-09-04 01:02:36 | 45.06463 | 9.21063 | 327° | 26km/h | 32459m | 5.8m/s | -40.0°C | 0.7% | 0hPa | 2.5V | 00:00:00 | 00:00:00 | 00:00:00 | |
| IW2NTF | 2026-09-04 01:02:35 | 45.06438 | 9.21101 | 294° | 38km/h | 32439m | 4.3m/s | -40°C | 2.5% | 0hPa | 2.5V | 08:30:00 | 02:28:53 | 00:00:00 | |
| DO3MHA-11 | 2026-09-04 01:02:34 | 45.06443 | 9.21089 | 306° | 26km/h | 32444m | 4.3m/s | -40.0°C | 2.5% | 0hPa | 2.5V | 00:00:00 | 02:28:54 | 00:00:00 | |
| DB0UT-7 | 2026-09-04 01:02:31 | 45.06435 | 9.21124 | 262° | 24km/h | 32430m | 5.3m/s | -39.9°C | 2.5% | 0hPa | 2.5V | 00:00:00 | 02:28:51 | 00:00:00 | |
| IW2NTF | 2026-09-04 01:02:29 | 45.06446 | 9.21170 | 280° | 26km/h | 32386m | 5.7m/s | -39.6°C | 2.4% | 0hPa | 2.5V | 08:30:00 | 02:28:43 | 00:00:00 | |
| DF1GD-15 | 2026-09-04 01:02:28 | 45.06440 | 9.21139 | 231° | 20km/h | 32418m | 5.7m/s | -39.9°C | 0.8% | 0hPa | 2.5V | 00:00:00 | 00:00:00 | 00:00:00 | |
| DO3MHA-11 | 2026-09-04 01:02:24 | 45.06447 | 9.21162 | 282° | 29km/h | 32392m | 5.0m/s | -39.6°C | 2.4% | 0hPa | 2.5V | 00:00:00 | 02:28:44 | 00:00:00 | |
| NBG1-10 | 2026-09-04 01:02:23 | 45.06446 | 9.21169 | 281° | 27km/h | 32386m | 5.6m/s | -39.6°C | 2.4% | 0hPa | 2.5V | 00:00:00 | 02:28:43 | 00:00:00 | |
| DK5PH-5 | 2026-09-04 01:02:20 | 45.06444 | 9.21204 | 269° | 27km/h | 32369m | 5.0m/s | -39.5°C | 2.4% | 0hPa | 2.5V | 00:00:00 | 02:28:40 | 00:00:00 | |
| IW2NTF | 2026-09-04 01:02:18 | 45.06447 | 9.21269 | 248° | 15km/h | 32334m | 4.8m/s | -39.3°C | 2.4% | 0hPa | 2.5V | 08:30:00 | 02:28:33 | 00:00:00 | |
| RDZBGO | 2026-09-04 01:02:15 | 45.06446 | 9.21251 | 270° | 24km/h | 32350m | 5.9m/s | -39.4°C | 0.7% | 0hPa | 2.6V | 00:00:00 | 00:00:00 | 00:00:00 | |
| DO3MHA-11 | 2026-09-04 01:02:14 | 45.06446 | 9.21264 | 267° | 26km/h | 32339m | 5.0m/s | -39.3°C | 2.4% | 0hPa | 2.6V | 00:00:00 | 02:28:34 | 00:00:00 | |
| IW2NTF | 2026-09-04 01:02:08 | 45.06478 | 9.21344 | 261° | 22km/h | 32282m | 4.4m/s | -39°C | 2.3% | 0hPa | 2.6V | 08:30:00 | 02:28:23 | 00:00:00 | |
| DO3MHA-11 | 2026-09-04 01:02:03 | 45.06477 | 9.21344 | 262° | 29km/h | 32283m | 4.3m/s | -39.0°C | 2.3% | 0hPa | 2.6V | 00:00:00 | 02:28:23 | 00:00:00 | |
| DB0UT-7 | 2026-09-04 01:02:01 | 45.06481 | 9.21360 | 247° | 26km/h | 32273m | 5.5m/s | -38.9°C | 2.3% | 0hPa | 2.6V | 00:00:00 | 00:00:00 | 00:00:00 | |
| IW2NTF | 2026-09-04 01:01:58 | 45.06508 | 9.21437 | 250° | 24km/h | 32230m | 4.7m/s | -38.9°C | 2.3% | 0hPa | 2.6V | 08:30:00 | 02:28:13 | 00:00:00 | |
| RDZBGO | 2026-09-04 01:01:54 | 45.06504 | 9.21419 | 252° | 29km/h | 32241m | 5.6m/s | -38.9°C | 0.7% | 0hPa | 2.6V | 00:00:00 | 00:00:00 | 00:00:00 | |
| DO3MHA-11 | 2026-09-04 01:01:53 | 45.06508 | 9.21437 | 251° | 24km/h | 32231m | 4.7m/s | -38.9°C | 2.3% | 0hPa | 2.6V | 00:00:00 | 02:28:13 | 00:00:00 | |
| DK5PH-5 | 2026-09-04 01:01:50 | 45.06518 | 9.21458 | 226° | 24km/h | 32215m | 5.0m/s | 0°C | 0% | 0hPa | 2.6V | 00:00:00 | 02:28:10 | 00:00:00 | |
| IW2NTF | 2026-09-04 01:01:48 | 45.06539 | 9.21509 | 251° | 27km/h | 32179m | 4.8m/s | -39°C | 2.3% | 0hPa | 2.6V | 08:30:00 | 02:28:03 | 00:00:00 | |
| DO3MHA-11 | 2026-09-04 01:01:43 | 45.06539 | 9.21509 | 252° | 26km/h | 32179m | 4.7m/s | -39.0°C | 2.3% | 0hPa | 2.5V | 00:00:00 | 02:28:03 | 00:00:00 | |
| OE5DRO-10 | 2026-09-04 01:01:42 | 45.06542 | 9.21519 | 244° | 26km/h | 32174m | 5.8m/s | -39.0°C | 2.3% | 0hPa | 2.5V | 00:00:00 | 00:00:00 | 00:00:00 | |
| IW2NTF | 2026-09-04 01:01:38 | 45.06574 | 9.21586 | 234° | 16km/h | 32127m | 4.7m/s | -39°C | 2.3% | 0hPa | 2.5V | 08:30:00 | 02:27:53 | 00:00:00 | |
| RDZBGO | 2026-09-04 01:01:34 | 45.06570 | 9.21575 | 247° | 18km/h | 32138m | 5.2m/s | -39.0°C | 0.7% | 0hPa | 2.5V | 00:00:00 | 00:00:00 | 00:00:00 | |
| DO3MHA-11 | 2026-09-04 01:01:33 | 45.06574 | 9.21586 | 235° | 24km/h | 32128m | 4.7m/s | -39.0°C | 2.3% | 0hPa | 2.5V | 00:00:00 | 02:27:53 | 08:30:00 | |
| DB0UT-7 | 2026-09-04 01:01:31 | 45.06581 | 9.21596 | 217° | 18km/h | 32117m | 5.6m/s | -39.0°C | 2.2% | 0hPa | 2.6V | 00:00:00 | 02:27:51 | 08:30:00 | |
| DF1GD-15 | 2026-09-04 01:01:27 | 45.06600 | 9.21616 | 221° | 31km/h | 32102m | 4.3m/s | -39.1°C | 0.7% | 0hPa | 2.5V | 00:00:00 | 00:00:00 | 00:00:00 | |
| IW2NTF | 2026-09-04 01:01:23 | 45.06615 | 9.21650 | 255° | 16km/h | 32076m | 5m/s | -39.6°C | 2.3% | 0hPa | 2.5V | 08:30:00 | 02:27:43 | 00:00:00 | |
| OE5DRO-10 | 2026-09-04 01:01:23 | 45.06614 | 9.21650 | 256° | 15km/h | 32076m | 5.0m/s | -39.5°C | 2.3% | 0hPa | 2.5V | 00:00:00 | 00:00:00 | 00:00:00 | |
| DO3MHA-11 | 2026-09-04 01:01:22 | 45.06616 | 9.21655 | 244° | 18km/h | 32071m | 5.6m/s | -39.6°C | 2.4% | 0hPa | 2.6V | 00:00:00 | 02:27:42 | 00:00:00 | |
| DK5PH-5 | 2026-09-04 01:01:20 | 45.06620 | 9.21662 | 212° | 13km/h | 32060m | 4.8m/s | 0°C | 0% | 0hPa | 2.6V | 00:00:00 | 02:27:40 | 00:00:00 | |
| IW2NTF | 2026-09-04 01:01:18 | 45.06641 | 9.21685 | 229° | 26km/h | 32023m | 6m/s | -39.9°C | 2.4% | 0hPa | 2.6V | 08:30:00 | 02:27:33 | 00:00:00 | |
| NBG1-10 | 2026-09-04 01:01:17 | 45.06629 | 9.21667 | 210° | 13km/h | 32044m | 5.4m/s | -39.7°C | 2.4% | 0hPa | 2.5V | 00:00:00 | 02:27:37 | 08:30:00 | |
| RDZBGO | 2026-09-04 01:01:15 | 45.06634 | 9.21674 | 229° | 16km/h | 32034m | 4.6m/s | -39.8°C | 0.7% | 0hPa | 2.6V | 00:00:00 | 00:00:00 | 00:00:00 | |
| DO3MHA-11 | 2026-09-04 01:01:10 | 45.06652 | 9.21708 | 243° | 13km/h | 32010m | 4.1m/s | -39.9°C | 2.4% | 0hPa | 2.6V | 00:00:00 | 02:27:30 | 00:00:00 | |
| S52SK | 2026-09-04 01:01:08 | 45.06654 | 9.21714 | 255° | 16km/h | 32005m | 5.6m/s | 0°C | 0% | 0hPa | 2.6V | 00:00:00 | 00:00:00 | 00:00:00 | |
| DF1GD-15 | 2026-09-04 01:01:07 | 45.06655 | 9.21719 | 280° | 11km/h | 31999m | 6.1m/s | -39.9°C | 0.8% | 0hPa | 2.6V | 00:00:00 | 00:00:00 | 00:00:00 | |
| IW2NTF | 2026-09-04 01:01:04 | 45.06652 | 9.21721 | 186° | 9km/h | 31973m | 5.4m/s | -40°C | 2.4% | 0hPa | 2.6V | 08:30:00 | 02:27:23 | 00:00:00 | |
| S52SK | 2026-09-04 01:01:02 | 45.06652 | 9.21721 | 188° | 9km/h | 31974m | 5.4m/s | 0°C | 0% | 0hPa | 2.5V | 00:00:00 | 00:00:00 | 00:00:00 | |
| DB0UT-7 | 2026-09-04 01:01:01 | 45.06659 | 9.21725 | 211° | 13km/h | 31964m | 4.3m/s | -39.9°C | 2.4% | 0hPa | 2.5V | 00:00:00 | 00:00:00 | 00:00:00 | |
| DO3MHA-11 | 2026-09-04 01:00:58 | 45.06669 | 9.21740 | 254° | 13km/h | 31949m | 5.7m/s | -40.0°C | 2.4% | 0hPa | 2.5V | 00:00:00 | 02:27:18 | 00:00:00 | |
| S52SK | 2026-09-04 01:00:57 | 45.06669 | 9.21740 | 255° | 18km/h | 31949m | 5.8m/s | 0°C | 0% | 0hPa | 2.5V | 00:00:00 | 00:00:00 | 00:00:00 | |
| IW2NTF | 2026-09-04 01:00:53 | 45.06664 | 9.21764 | 279° | 7km/h | 31924m | 5.7m/s | -40.2°C | 2.4% | 0hPa | 2.5V | 08:30:00 | 02:27:13 | 00:00:00 | |
| IW2NTF | 2026-09-04 01:00:48 | 45.06661 | 9.21780 | 312° | 18km/h | 31872m | 4.6m/s | -40.2°C | 2.4% | 0hPa | 2.5V | 08:30:00 | 02:27:03 | 00:00:00 | |
| DO3MHA-11 | 2026-09-04 01:00:48 | 45.06672 | 9.21769 | 192° | 15km/h | 31899m | 5.1m/s | -40.2°C | 2.4% | 0hPa | 2.6V | 00:00:00 | 02:27:08 | 00:00:00 | |
| DF1GD-15 | 2026-09-04 01:00:47 | 45.06672 | 9.21769 | 193° | 4km/h | 31899m | 5.2m/s | -40.2°C | 0.8% | 0hPa | 2.6V | 00:00:00 | 00:00:00 | 00:00:00 | |
| OE5DRO-10 | 2026-09-04 01:00:45 | 45.06668 | 9.21773 | 332° | 16km/h | 31882m | 5.4m/s | -40.1°C | 2.4% | 0hPa | 2.6V | 00:00:00 | 00:00:00 | 00:00:00 | |
| NBG1-10 | 2026-09-04 01:00:44 | 45.06664 | 9.21776 | 325° | 9km/h | 31877m | 5.0m/s | -40.1°C | 2.4% | 0hPa | 2.6V | 00:00:00 | 02:27:04 | 00:00:00 | |
| IW2NTF | 2026-09-04 01:00:38 | 45.06643 | 9.21822 | 332° | 13km/h | 31820m | 5.2m/s | -40.2°C | 2.5% | 0hPa | 2.6V | 08:30:00 | 02:26:53 | 00:00:00 | |
| DO3MHA-11 | 2026-09-04 01:00:38 | 45.06657 | 9.21808 | 278° | 18km/h | 31846m | 4.8m/s | -40.2°C | 2.5% | 0hPa | 2.5V | 00:00:00 | 02:26:58 | 00:00:00 | |
| RDZBGO | 2026-09-04 01:00:32 | 45.06643 | 9.21822 | 333° | 13km/h | 31820m | 5.2m/s | -40.2°C | 0.8% | 0hPa | 2.5V | 00:00:00 | 00:00:00 | 00:00:00 | |
| DB0UT-7 | 2026-09-04 01:00:31 | 45.06640 | 9.21828 | 284° | 24km/h | 31809m | 5.5m/s | -40.1°C | 2.5% | 0hPa | 2.5V | 00:00:00 | 02:26:51 | 00:00:00 | |
| IW2NTF | 2026-09-04 01:00:28 | 45.06636 | 9.21883 | 270° | 16km/h | 31766m | 6.2m/s | -40.1°C | 2.5% | 0hPa | 2.5V | 08:30:00 | 02:26:43 | 00:00:00 | |
| OE5DRO-10 | 2026-09-04 01:00:26 | 45.06638 | 9.21861 | 282° | 26km/h | 31782m | 4.9m/s | -40.1°C | 2.5% | 0hPa | 2.6V | 00:00:00 | 00:00:00 | 08:30:00 | |
| DO3MHA-11 | 2026-09-04 01:00:24 | 45.06636 | 9.21877 | 280° | 20km/h | 31772m | 5.0m/s | -40.1°C | 2.4% | 0hPa | 2.5V | 00:00:00 | 02:26:44 | 00:00:00 | |
| IW2NTF | 2026-09-04 01:00:17 | 45.06625 | 9.21981 | 253° | 40km/h | 31702m | 4.9m/s | -40°C | 2.5% | 0hPa | 2.5V | 08:30:00 | 02:26:31 | 00:00:00 | |
| DO3MHA-11 | 2026-09-04 01:00:14 | 45.06624 | 9.21940 | 286° | 31km/h | 31719m | 4.8m/s | -40.0°C | 2.5% | 0hPa | 2.5V | 00:00:00 | 02:26:34 | 00:00:00 | |
| RDZBGO | 2026-09-04 01:00:12 | 45.06623 | 9.21953 | 276° | 38km/h | 31714m | 6.1m/s | -40.1°C | 0.8% | 0hPa | 2.5V | 00:00:00 | 00:00:00 | 00:00:00 | |
| OE5DRO-10 | 2026-09-04 01:00:07 | 45.06637 | 9.22024 | 253° | 29km/h | 31680m | 5.7m/s | -39.8°C | 2.5% | 0hPa | 2.5V | 00:00:00 | 00:00:00 | 00:00:00 | |
| IW2NTF | 2026-09-04 01:00:06 | 45.06644 | 9.22068 | 262° | 29km/h | 31647m | 5.2m/s | -39.9°C | 2.4% | 0hPa | 2.5V | 08:30:00 | 02:26:21 | 00:00:00 | |
| DF1GD-15 | 2026-09-04 01:00:05 | 45.06638 | 9.22031 | 258° | 18km/h | 31675m | 5.3m/s | -39.8°C | 0.8% | 0hPa | 2.5V | 00:00:00 | 00:00:00 | 00:00:00 | |
| DO3MHA-11 | 2026-09-04 01:00:04 | 45.06640 | 9.22044 | 256° | 31km/h | 31664m | 6.0m/s | -39.8°C | 2.4% | 0hPa | 2.5V | 00:00:00 | 02:26:24 | 00:00:00 | |
| DB0UT-7 | 2026-09-04 01:00:01 | 45.06644 | 9.22068 | 263° | 33km/h | 31648m | 5.1m/s | -39.8°C | 2.4% | 0hPa | 2.5V | 00:00:00 | 00:00:00 | 00:00:00 | |
| IW2NTF | 2026-09-04 00:59:56 | 45.06681 | 9.22177 | 223° | 27km/h | 31593m | 5.6m/s | -39.7°C | 2.4% | 0hPa | 2.6V | 08:30:00 | 02:26:11 | 00:00:00 | |
| DO3MHA-11 | 2026-09-04 00:59:54 | 45.06661 | 9.22152 | 227° | 38km/h | 31609m | 5.9m/s | -39.7°C | 2.4% | 0hPa | 2.5V | 00:00:00 | 02:26:14 | 08:30:00 | |
| RDZBGO | 2026-09-04 00:59:51 | 45.06675 | 9.22169 | 221° | 33km/h | 31599m | 4.3m/s | -39.7°C | 0.8% | 0hPa | 2.5V | 00:00:00 | 00:00:00 | 00:00:00 | |
| OE5DRO-10 | 2026-09-04 00:59:48 | 45.06688 | 9.22196 | 265° | 33km/h | 31576m | 4.7m/s | -39.6°C | 2.4% | 0hPa | 2.5V | 00:00:00 | 00:00:00 | 00:00:00 | |
| IW2NTF | 2026-09-04 00:59:46 | 45.06720 | 9.22270 | 225° | 46km/h | 31539m | 4.7m/s | -39.5°C | 2.3% | 0hPa | 2.5V | 08:30:00 | 02:26:01 | 00:00:00 | |
| DF1GD-15 | 2026-09-04 00:59:44 | 45.06692 | 9.22222 | 245° | 33km/h | 31561m | 5.8m/s | -39.6°C | 0.8% | 0hPa | 2.5V | 00:00:00 | 00:00:00 | 00:00:00 | |
| DO3MHA-11 | 2026-09-04 00:59:39 | 45.06735 | 9.22291 | 227° | 27km/h | 31530m | 5.7m/s | -39.4°C | 2.3% | 0hPa | 2.5V | 00:00:00 | 02:25:59 | 00:00:00 | |
| IW2NTF | 2026-09-04 00:59:31 | 45.06780 | 9.22345 | 218° | 33km/h | 31488m | 5.5m/s | -39.6°C | 2.3% | 0hPa | 2.5V | 08:30:00 | 02:25:51 | 00:00:00 | |
| DB0UT-7 | 2026-09-04 00:59:31 | 45.06780 | 9.22345 | 219° | 42km/h | 31488m | 5.4m/s | -39.5°C | 2.3% | 0hPa | 2.5V | 00:00:00 | 02:25:51 | 00:00:00 | |
| RDZBGO | 2026-09-04 00:59:30 | 45.06780 | 9.22345 | 219° | 33km/h | 31488m | 5.5m/s | -39.6°C | 0.7% | 0hPa | 2.5V | 00:00:00 | 00:00:00 | 00:00:00 | |
| OE5DRO-10 | 2026-09-04 00:59:29 | 45.06792 | 9.22360 | 221° | 42km/h | 31476m | 5.4m/s | -39.6°C | 2.4% | 0hPa | 2.5V | 00:00:00 | 00:00:00 | 00:00:00 | |
| OE5DXL-15 | 2026-09-04 00:59:27 | 45.06806 | 9.22375 | 216° | 18km/h | 31466m | 5.3m/s | 0°C | 0% | 0hPa | 2.5V | 00:00:00 | 00:00:00 | 00:00:00 | |
| DF1GD-15 | 2026-09-04 00:59:25 | 45.06824 | 9.22391 | 211° | 46km/h | 31454m | 5.6m/s | -39.9°C | 0.7% | 0hPa | 2.5V | 00:00:00 | 00:00:00 | 00:00:00 | |
| IW2NTF | 2026-09-04 00:59:21 | 45.06864 | 9.22419 | 206° | 35km/h | 31434m | 5.8m/s | -39.9°C | 2.4% | 0hPa | 2.5V | 08:30:00 | 02:25:41 | 00:00:00 | |
| IW2NTF | 2026-09-04 00:59:11 | 45.06955 | 9.22487 | 189° | 58km/h | 31380m | 6.1m/s | -39.9°C | 2.4% | 0hPa | 2.6V | 08:30:00 | 02:25:31 | 00:00:00 | |
| OE5DRO-10 | 2026-09-04 00:59:10 | 45.06969 | 9.22489 | 182° | 46km/h | 31374m | 5.7m/s | -39.9°C | 2.4% | 0hPa | 2.6V | 00:00:00 | 00:00:00 | 00:00:00 | |
| IW2NTF | 2026-09-04 00:59:06 | 45.07061 | 9.22520 | 212° | 42km/h | 31326m | 5.8m/s | -40.1°C | 2.5% | 0hPa | 2.6V | 08:30:00 | 02:25:21 | 00:00:00 | |
| DF1GD-15 | 2026-09-04 00:59:03 | 45.07035 | 9.22495 | 210° | 40km/h | 31343m | 5.5m/s | -40.0°C | 0.8% | 0hPa | 2.5V | 00:00:00 | 00:00:00 | 00:00:00 | |
| DB0UT-7 | 2026-09-04 00:59:01 | 45.07061 | 9.22520 | 213° | 40km/h | 31326m | 5.8m/s | -40.0°C | 2.5% | 0hPa | 2.5V | 00:00:00 | 00:00:00 | 00:00:00 | |
| IW2NTF | 2026-09-04 00:58:56 | 45.07171 | 9.22547 | 178° | 29km/h | 31271m | 5.6m/s | -39.9°C | 2.4% | 0hPa | 2.5V | 08:30:00 | 02:25:11 | 00:00:00 | |
| RDZBGO | 2026-09-04 00:58:49 | 45.07178 | 9.22547 | 185° | 27km/h | 31266m | 4.8m/s | -39.9°C | 0.7% | 0hPa | 2.6V | 00:00:00 | 00:00:00 | 00:00:00 | |
| IW2NTF | 2026-09-04 00:58:46 | 45.07275 | 9.22563 | 170° | 40km/h | 31218m | 5m/s | -40°C | 2.4% | 0hPa | 2.6V | 08:30:00 | 02:25:01 | 00:00:00 | |
| DF1GD-15 | 2026-09-04 00:58:43 | 45.07240 | 9.22565 | 187° | 51km/h | 31235m | 5.2m/s | -40.0°C | 0.8% | 0hPa | 2.5V | 00:00:00 | 00:00:00 | 00:00:00 | |
| IW2NTF | 2026-09-04 00:58:37 | 45.07356 | 9.22582 | 178° | 31km/h | 31165m | 4.9m/s | -40.3°C | 2.5% | 0hPa | 2.5V | 08:30:00 | 02:24:51 | 00:00:00 | |
| DB0UT-7 | 2026-09-04 00:58:31 | 45.07356 | 9.22582 | 179° | 29km/h | 31166m | 4.9m/s | -40.2°C | 2.5% | 0hPa | 2.5V | 00:00:00 | 02:24:51 | 00:00:00 | |
| RDZBGO | 2026-09-04 00:58:29 | 45.07364 | 9.22582 | 175° | 33km/h | 31161m | 4.6m/s | -40.3°C | 0.8% | 0hPa | 2.6V | 00:00:00 | 00:00:00 | 00:00:00 | |
| IW2NTF | 2026-09-04 00:58:21 | 45.07422 | 9.22591 | 155° | 18km/h | 31115m | 5.7m/s | -40.4°C | 2.4% | 0hPa | 2.6V | 08:30:00 | 02:24:41 | 00:00:00 | |
| IW2NTF | 2026-09-04 00:58:16 | 45.07491 | 9.22591 | 172° | 18km/h | 31064m | 5.5m/s | -40.7°C | 2.5% | 0hPa | 2.5V | 08:30:00 | 02:24:31 | 00:00:00 | |
| RDZBGO | 2026-09-04 00:58:09 | 45.07495 | 9.22589 | 155° | 22km/h | 31059m | 5.4m/s | -40.7°C | 0.8% | 0hPa | 2.5V | 00:00:00 | 00:00:00 | 00:00:00 | |
| IW2NTF | 2026-09-04 00:58:01 | 45.07565 | 9.22577 | 187° | 26km/h | 31012m | 4.9m/s | -40.6°C | 2.5% | 0hPa | 2.5V | 08:30:00 | 02:24:21 | 00:00:00 | |
| DB0UT-7 | 2026-09-04 00:58:01 | 45.07564 | 9.22577 | 188° | 18km/h | 31012m | 4.8m/s | -40.6°C | 2.5% | 0hPa | 2.6V | 00:00:00 | 00:00:00 | 00:00:00 | |
| IW2NTF | 2026-09-04 00:57:51 | 45.07611 | 9.22564 | 218° | 13km/h | 30961m | 5m/s | -40.7°C | 2.5% | 0hPa | 2.6V | 08:30:00 | 02:24:11 | 00:00:00 | |
| RDZBGO | 2026-09-04 00:57:48 | 45.07617 | 9.22568 | 186° | 16km/h | 30952m | 4.6m/s | -40.7°C | 0.8% | 0hPa | 2.5V | 00:00:00 | 00:00:00 | 00:00:00 | |
| IW2NTF | 2026-09-04 00:57:41 | 45.07664 | 9.22561 | 225° | 7km/h | 30910m | 5.6m/s | -40.8°C | 2.5% | 0hPa | 2.5V | 08:30:00 | 02:24:01 | 00:00:00 | |
| IW2NTF | 2026-09-04 00:57:36 | 45.07690 | 9.22545 | 168° | 16km/h | 30858m | 5.4m/s | -40.9°C | 2.5% | 0hPa | 2.5V | 08:30:00 | 02:23:51 | 00:00:00 | |
| DB0UT-7 | 2026-09-04 00:57:31 | 45.07690 | 9.22545 | 169° | 9km/h | 30859m | 5.4m/s | -40.9°C | 2.5% | 0hPa | 2.5V | 00:00:00 | 02:23:51 | 00:00:00 | |
| RDZBGO | 2026-09-04 00:57:27 | 45.07695 | 9.22543 | 109° | 4km/h | 30843m | 4.6m/s | -40.9°C | 0.8% | 0hPa | 2.5V | 00:00:00 | 00:00:00 | 00:00:00 | |
| IW2NTF | 2026-09-04 00:57:21 | 45.07706 | 9.22535 | 205° | 13km/h | 30808m | 5.7m/s | -41.1°C | 2.5% | 0hPa | 2.5V | 08:30:00 | 02:23:41 | 00:00:00 | |
| DF1GD-15 | 2026-09-04 00:57:20 | 45.07706 | 9.22535 | 206° | 13km/h | 30808m | 5.7m/s | -41.1°C | 0.8% | 0hPa | 2.6V | 00:00:00 | 00:00:00 | 00:00:00 | |
| IW2NTF | 2026-09-04 00:57:16 | 45.07705 | 9.22512 | 25° | 13km/h | 30757m | 4.4m/s | -41.6°C | 2.5% | 0hPa | 2.6V | 08:30:00 | 02:23:31 | 00:00:00 | |
| IW2NTF | 2026-09-04 00:57:06 | 45.07703 | 9.22504 | 332° | 4km/h | 30708m | 4.2m/s | -42.6°C | 2.7% | 0hPa | 2.6V | 08:30:00 | 02:23:21 | 00:00:00 | |
| OE5DRO-10 | 2026-09-04 00:57:04 | 45.07703 | 9.22501 | 188° | 7km/h | 30724m | 5.7m/s | -42.2°C | 2.6% | 0hPa | 2.5V | 00:00:00 | 00:00:00 | 00:00:00 | |
| DB0UT-7 | 2026-09-04 00:57:01 | 45.07703 | 9.22504 | 333° | 7km/h | 30708m | 4.2m/s | -42.5°C | 2.7% | 0hPa | 2.6V | 00:00:00 | 00:00:00 | 08:30:00 | |
| DF1GD-15 | 2026-09-04 00:57:00 | 45.07703 | 9.22504 | 334° | 4km/h | 30708m | 4.2m/s | -42.6°C | 0.8% | 0hPa | 2.6V | 00:00:00 | 00:00:00 | 00:00:00 | |
| IW2NTF | 2026-09-04 00:56:56 | 45.07707 | 9.22486 | 222° | 9km/h | 30658m | 4.7m/s | -42.7°C | 2.6% | 0hPa | 2.6V | 08:30:00 | 02:23:11 | 00:00:00 | |
| IW2NTF | 2026-09-04 00:56:46 | 45.07715 | 9.22483 | 66° | 7km/h | 30608m | 5.8m/s | -43.3°C | 2.7% | 0hPa | 2.5V | 08:30:00 | 02:23:01 | 00:00:00 | |
| RDZBGO | 2026-09-04 00:56:45 | 45.07717 | 9.22487 | 146° | 5km/h | 30634m | 5.3m/s | -42.7°C | 0.8% | 0hPa | 2.5V | 00:00:00 | 00:00:00 | 00:00:00 | |
| OE5DRO-10 | 2026-09-04 00:56:42 | 45.07716 | 9.22485 | 43° | 5km/h | 30614m | 5.1m/s | -43.0°C | 2.7% | 0hPa | 2.5V | 00:00:00 | 00:00:00 | 00:00:00 | |
| DF1GD-15 | 2026-09-04 00:56:39 | 45.07714 | 9.22480 | 83° | 7km/h | 30603m | 4.9m/s | -43.4°C | 0.9% | 0hPa | 2.5V | 00:00:00 | 00:00:00 | 00:00:00 | |
| IW2NTF | 2026-09-04 00:56:36 | 45.07716 | 9.22482 | 114° | 7km/h | 30557m | 5m/s | -43.7°C | 2.8% | 0hPa | 2.5V | 08:30:00 | 02:22:51 | 00:00:00 | |
| DB0UT-7 | 2026-09-04 00:56:31 | 45.07716 | 9.22482 | 115° | 9km/h | 30558m | 5.0m/s | -43.7°C | 2.8% | 0hPa | 2.5V | 00:00:00 | 02:22:51 | 00:00:00 | |
| IW2NTF | 2026-09-04 00:56:26 | 45.07712 | 9.22463 | 177° | 7km/h | 30507m | 5m/s | -44.1°C | 2.9% | 0hPa | 2.5V | 08:30:00 | 02:22:41 | 00:00:00 | |
| RDZBGO | 2026-09-04 00:56:25 | 45.07712 | 9.22471 | 31° | 9km/h | 30533m | 4.3m/s | -44.0°C | 0.9% | 0hPa | 2.5V | 00:00:00 | 00:00:00 | 00:00:00 | |
| OE5DRO-10 | 2026-09-04 00:56:23 | 45.07709 | 9.22465 | 113° | 9km/h | 30517m | 5.0m/s | -44.0°C | 2.9% | 0hPa | 2.5V | 00:00:00 | 00:00:00 | 00:00:00 | |
| DF1GD-15 | 2026-09-04 00:56:19 | 45.07714 | 9.22464 | 199° | 9km/h | 30503m | 6.0m/s | -44.1°C | 0.9% | 0hPa | 2.5V | 00:00:00 | 00:00:00 | 00:00:00 | |
| IW2NTF | 2026-09-04 00:56:16 | 45.07733 | 9.22451 | 59° | 2km/h | 30457m | 5.9m/s | -44.3°C | 2.9% | 0hPa | 2.5V | 08:30:00 | 02:22:31 | 00:00:00 | |
| IW2NTF | 2026-09-04 00:56:06 | 45.07745 | 9.22461 | 195° | 7km/h | 30407m | 5.8m/s | -44.2°C | 2.9% | 0hPa | 2.5V | 08:30:00 | 02:22:21 | 00:00:00 | |
| RDZBGO | 2026-09-04 00:56:05 | 45.07732 | 9.22464 | 223° | 7km/h | 30433m | 5.6m/s | -44.3°C | 0.9% | 0hPa | 2.5V | 00:00:00 | 00:00:00 | 00:00:00 | |
| OE5DRO-10 | 2026-09-04 00:56:04 | 45.07736 | 9.22464 | 161° | 11km/h | 30421m | 5.3m/s | -44.2°C | 2.9% | 0hPa | 2.5V | 00:00:00 | 00:00:00 | 08:30:00 | |
| DB0UT-7 | 2026-09-04 00:56:01 | 45.07745 | 9.22461 | 196° | 9km/h | 30407m | 5.8m/s | -44.1°C | 2.9% | 0hPa | 2.6V | 00:00:00 | 00:00:00 | 00:00:00 | |
| OE5DXL-15 | 2026-09-04 00:55:59 | 45.07746 | 9.22466 | 274° | 9km/h | 30396m | 5.0m/s | 0°C | 0% | 0hPa | 2.6V | 00:00:00 | 00:00:00 | 00:00:00 | |
| DF1GD-15 | 2026-09-04 00:55:58 | 45.07746 | 9.22466 | 275° | 9km/h | 30396m | 5.0m/s | -44.2°C | 0.9% | 0hPa | 2.6V | 00:00:00 | 00:00:00 | 00:00:00 | |
| IW2NTF | 2026-09-04 00:55:56 | 45.07747 | 9.22488 | 240° | 11km/h | 30355m | 5.3m/s | -44.2°C | 2.8% | 0hPa | 2.6V | 08:30:00 | 02:22:11 | 00:00:00 | |
| IW2NTF | 2026-09-04 00:55:46 | 45.07769 | 9.22497 | 252° | 15km/h | 30302m | 4.5m/s | -44.6°C | 3% | 0hPa | 2.6V | 08:30:00 | 02:22:01 | 00:00:00 | |
| OE5DRO-10 | 2026-09-04 00:55:45 | 45.07762 | 9.22492 | 150° | 9km/h | 30324m | 4.6m/s | -44.3°C | 2.9% | 0hPa | 2.6V | 00:00:00 | 00:00:00 | 00:00:00 | |
| RDZBGO | 2026-09-04 00:55:44 | 45.07762 | 9.22492 | 151° | 13km/h | 30324m | 4.7m/s | -44.3°C | 0.9% | 0hPa | 2.6V | 00:00:00 | 00:00:00 | 00:00:00 | |
| DF1GD-15 | 2026-09-04 00:55:38 | 45.07771 | 9.22506 | 251° | 13km/h | 30292m | 5.9m/s | -44.6°C | 1.0% | 0hPa | 2.6V | 00:00:00 | 00:00:00 | 00:00:00 | |
| IW2NTF | 2026-09-04 00:55:36 | 45.07775 | 9.22526 | 250° | 9km/h | 30251m | 4.3m/s | -44.6°C | 3% | 0hPa | 2.6V | 08:30:00 | 02:21:51 | 00:00:00 | |
| DB0UT-7 | 2026-09-04 00:55:31 | 45.07775 | 9.22526 | 251° | 13km/h | 30251m | 4.2m/s | -44.6°C | 3.0% | 0hPa | 2.6V | 00:00:00 | 02:21:51 | 00:00:00 | |
| OE5DXL-15 | 2026-09-04 00:55:29 | 45.07778 | 9.22530 | 204° | 15km/h | 30241m | 6.4m/s | 0°C | 0% | 0hPa | 2.5V | 00:00:00 | 00:00:00 | 00:00:00 | |
| IW2NTF | 2026-09-04 00:55:26 | 45.07789 | 9.22538 | 254° | 2km/h | 30197m | 5.2m/s | -44.5°C | 2.9% | 0hPa | 2.5V | 08:30:00 | 02:21:41 | 00:00:00 | |
| OE5DRO-10 | 2026-09-04 00:55:26 | 45.07787 | 9.22532 | 180° | 13km/h | 30225m | 4.7m/s | -44.5°C | 2.9% | 0hPa | 2.5V | 00:00:00 | 00:00:00 | 00:00:00 | |
| RDZBGO | 2026-09-04 00:55:23 | 45.07790 | 9.22533 | 260° | 4km/h | 30213m | 6.0m/s | -44.5°C | 0.9% | 0hPa | 2.5V | 00:00:00 | 00:00:00 | 00:00:00 | |
| NBG1-10 | 2026-09-04 00:55:19 | 45.07792 | 9.22538 | 169° | 16km/h | 30187m | 5.4m/s | -44.4°C | 2.9% | 0hPa | 2.5V | 00:00:00 | 02:21:39 | 00:00:00 | |
| IW2NTF | 2026-09-04 00:55:16 | 45.07828 | 9.22540 | 163° | 16km/h | 30143m | 6.2m/s | -44.3°C | 2.9% | 0hPa | 2.5V | 08:30:00 | 02:21:31 | 00:00:00 | |
| OE5DRO-10 | 2026-09-04 00:55:07 | 45.07836 | 9.22528 | 108° | 16km/h | 30121m | 6.0m/s | -44.2°C | 2.9% | 0hPa | 2.5V | 00:00:00 | 00:00:00 | 00:00:00 | |
| IW2NTF | 2026-09-04 00:55:06 | 45.07853 | 9.22515 | 161° | 29km/h | 30088m | 5.3m/s | -44.3°C | 2.9% | 0hPa | 2.5V | 08:30:00 | 02:21:21 | 00:00:00 | |
| RDZBGO | 2026-09-04 00:55:02 | 45.07841 | 9.22522 | 156° | 16km/h | 30100m | 6.4m/s | -44.3°C | 0.9% | 0hPa | 2.5V | 00:00:00 | 00:00:00 | 00:00:00 | |
| DB0UT-7 | 2026-09-04 00:55:01 | 45.07853 | 9.22515 | 162° | 20km/h | 30088m | 5.3m/s | -44.2°C | 2.9% | 0hPa | 2.5V | 00:00:00 | 00:00:00 | 00:00:00 | |
| IW2NTF | 2026-09-04 00:54:55 | 45.07893 | 9.22485 | 102° | 18km/h | 30027m | 5.9m/s | -44.4°C | 2.9% | 0hPa | 2.5V | 08:30:00 | 02:21:10 | 00:00:00 | |
| DF1GD-15 | 2026-09-04 00:54:53 | 45.07888 | 9.22508 | 130° | 11km/h | 30050m | 6.4m/s | -44.4°C | 0.9% | 0hPa | 2.5V | 00:00:00 | 00:00:00 | 00:00:00 | |
| OE5DRO-10 | 2026-09-04 00:54:48 | 45.07896 | 9.22475 | 134° | 20km/h | 30016m | 4.9m/s | -44.4°C | 2.9% | 0hPa | 2.5V | 00:00:00 | 00:00:00 | 00:00:00 | |
| OE5DXL-15 | 2026-09-04 00:54:47 | 45.07899 | 9.22471 | 151° | 18km/h | 30011m | 5.1m/s | 0°C | 0% | 0hPa | 2.5V | 00:00:00 | 02:21:07 | 00:00:00 | |
| NBG1-10 | 2026-09-04 00:54:46 | 45.07904 | 9.22468 | 159° | 15km/h | 30005m | 6.5m/s | -44.4°C | 2.9% | 0hPa | 2.5V | 00:00:00 | 02:21:06 | 00:00:00 | |
| RDZBGO | 2026-09-04 00:54:43 | 45.07924 | 9.22457 | 159° | 27km/h | 29987m | 4.5m/s | -44.5°C | 0.9% | 0hPa | 2.6V | 00:00:00 | 00:00:00 | 00:00:00 | |
| IW2NTF | 2026-09-04 00:54:42 | 45.07936 | 9.22447 | 123° | 11km/h | 29970m | 6.7m/s | -44.6°C | 2.9% | 0hPa | 2.6V | 08:30:00 | 02:21:00 | 00:00:00 | |
| IW2NTF | 2026-09-04 00:54:35 | 45.07960 | 9.22401 | 188° | 18km/h | 29913m | 5.6m/s | -45°C | 3% | 0hPa | 2.5V | 08:30:00 | 02:20:50 | 00:00:00 | |
| DF1GD-15 | 2026-09-04 00:54:32 | 45.07945 | 9.22408 | 144° | 26km/h | 29932m | 5.1m/s | -44.9°C | 1.0% | 0hPa | 2.5V | 00:00:00 | 00:00:00 | 00:00:00 | |
| DB0UT-7 | 2026-09-04 00:54:31 | 45.07955 | 9.22401 | 172° | 13km/h | 29919m | 6.1m/s | -44.9°C | 3.0% | 0hPa | 2.5V | 00:00:00 | 02:20:51 | 00:00:00 | |
| OE5DRO-10 | 2026-09-04 00:54:29 | 45.07964 | 9.22402 | 201° | 11km/h | 29909m | 4.9m/s | -44.9°C | 3.0% | 0hPa | 2.5V | 00:00:00 | 00:00:00 | 00:00:00 | |
| IW2NTF | 2026-09-04 00:54:26 | 45.07973 | 9.22391 | 98° | 7km/h | 29858m | 5.3m/s | -45.2°C | 3% | 0hPa | 2.5V | 08:30:00 | 02:20:40 | 00:00:00 | |
| RDZBGO | 2026-09-04 00:54:22 | 45.07974 | 9.22396 | 64° | 7km/h | 29868m | 5.7m/s | -45.2°C | 0.9% | 0hPa | 2.6V | 00:00:00 | 00:00:00 | 00:00:00 | |
| OE5DXL-15 | 2026-09-04 00:54:15 | 45.07987 | 9.22373 | 162° | 15km/h | 29831m | 5.0m/s | 0°C | 0% | 0hPa | 2.6V | 00:00:00 | 00:00:00 | 00:00:00 | |
| DF1GD-15 | 2026-09-04 00:54:12 | 45.07994 | 9.22373 | 206° | 13km/h | 29818m | 6.5m/s | -45.2°C | 1.0% | 0hPa | 2.6V | 00:00:00 | 00:00:00 | 00:00:00 | |
| IW2NTF | 2026-09-04 00:54:11 | 45.08001 | 9.22381 | 206° | 9km/h | 29801m | 5.6m/s | -45.2°C | 3% | 0hPa | 2.6V | 08:30:00 | 02:20:30 | 00:00:00 | |
| NBG1-10 | 2026-09-04 00:54:11 | 45.07999 | 9.22379 | 227° | 13km/h | 29807m | 5.0m/s | -45.1°C | 3.0% | 0hPa | 2.6V | 00:00:00 | 02:20:31 | 00:00:00 | |
| OE5DRO-10 | 2026-09-04 00:54:10 | 45.08001 | 9.22380 | 207° | 13km/h | 29801m | 5.5m/s | -45.1°C | 3.0% | 0hPa | 2.6V | 00:00:00 | 00:00:00 | 00:00:00 | |
| IW2NTF | 2026-09-04 00:54:05 | 45.08022 | 9.22351 | 162° | 13km/h | 29742m | 6.2m/s | -45.2°C | 3.1% | 0hPa | 2.6V | 08:30:00 | 02:20:20 | 00:00:00 | |
| DB0UT-7 | 2026-09-04 00:54:01 | 45.08019 | 9.22352 | 153° | 13km/h | 29749m | 6.3m/s | -45.1°C | 3.1% | 0hPa | 2.6V | 00:00:00 | 00:00:00 | 00:00:00 | |
| IW2NTF | 2026-09-04 00:53:53 | 45.08051 | 9.22337 | 138° | 15km/h | 29684m | 5.1m/s | -44.8°C | 3% | 0hPa | 2.6V | 08:30:00 | 02:20:10 | 00:00:00 | |
| OE5DRO-10 | 2026-09-04 00:53:51 | 45.08047 | 9.22341 | 137° | 13km/h | 29690m | 5.1m/s | -44.8°C | 3.0% | 0hPa | 2.5V | 00:00:00 | 00:00:00 | 00:00:00 | |
| IW2NTF | 2026-09-04 00:53:46 | 45.08079 | 9.22316 | 119° | 22km/h | 29629m | 5.5m/s | -44.8°C | 2.9% | 0hPa | 2.5V | 08:30:00 | 02:20:00 | 00:00:00 | |
| RDZBGO | 2026-09-04 00:53:40 | 45.08076 | 9.22323 | 128° | 24km/h | 29634m | 4.9m/s | -44.7°C | 0.9% | 0hPa | 2.5V | 00:00:00 | 00:00:00 | 00:00:00 | |
| NBG1-10 | 2026-09-04 00:53:38 | 45.08083 | 9.22306 | 116° | 18km/h | 29617m | 6.0m/s | -44.8°C | 2.9% | 0hPa | 2.5V | 00:00:00 | 02:19:58 | 00:00:00 | |
| IW2NTF | 2026-09-04 00:53:35 | 45.08110 | 9.22288 | 136° | 20km/h | 29572m | 6m/s | -45.1°C | 3% | 0hPa | 2.5V | 08:30:00 | 02:19:50 | 00:00:00 | |
| OE5DRO-10 | 2026-09-04 00:53:32 | 45.08100 | 9.22296 | 156° | 20km/h | 29584m | 5.6m/s | -45.1°C | 3.0% | 0hPa | 2.5V | 00:00:00 | 00:00:00 | 00:00:00 | |
| DB0UT-7 | 2026-09-04 00:53:31 | 45.08105 | 9.22292 | 148° | 20km/h | 29578m | 5.2m/s | -45.1°C | 3.0% | 0hPa | 2.5V | 00:00:00 | 02:19:51 | 00:00:00 | |
| DF1GD-15 | 2026-09-04 00:53:30 | 45.08105 | 9.22292 | 148° | 22km/h | 29578m | 5.3m/s | -45.1°C | 1.0% | 0hPa | 2.5V | 00:00:00 | 00:00:00 | 00:00:00 | |
| IW2NTF | 2026-09-04 00:53:25 | 45.08142 | 9.22236 | 137° | 16km/h | 29513m | 5.7m/s | -44.9°C | 3% | 0hPa | 2.5V | 08:30:00 | 02:19:40 | 00:00:00 | |
| RDZBGO | 2026-09-04 00:53:20 | 45.08142 | 9.22236 | 138° | 16km/h | 29514m | 5.7m/s | -44.9°C | 1.0% | 0hPa | 2.5V | 00:00:00 | 00:00:00 | 00:00:00 | |
| IW2NTF | 2026-09-04 00:53:15 | 45.08165 | 9.22178 | 85° | 15km/h | 29457m | 4.6m/s | -44.8°C | 3% | 0hPa | 2.5V | 08:30:00 | 02:19:30 | 00:00:00 | |
| OE5DRO-10 | 2026-09-04 00:53:13 | 45.08164 | 9.22194 | 110° | 16km/h | 29474m | 6.1m/s | -44.8°C | 3.0% | 0hPa | 2.5V | 00:00:00 | 00:00:00 | 08:30:00 | |
| DF1GD-15 | 2026-09-04 00:53:09 | 45.08164 | 9.22177 | 87° | 15km/h | 29457m | 4.6m/s | -44.8°C | 0.9% | 0hPa | 2.6V | 00:00:00 | 00:00:00 | 00:00:00 | |
| IW2NTF | 2026-09-04 00:53:05 | 45.08181 | 9.22120 | 108° | 13km/h | 29401m | 6.2m/s | -44.8°C | 3% | 0hPa | 2.6V | 08:30:00 | 02:19:20 | 00:00:00 | |
| NBG1-10 | 2026-09-04 00:53:05 | 45.08173 | 9.22147 | 120° | 16km/h | 29430m | 5.6m/s | -44.8°C | 3.0% | 0hPa | 2.6V | 00:00:00 | 02:19:25 | 00:00:00 | |
| DB0UT-7 | 2026-09-04 00:53:01 | 45.08180 | 9.22125 | 102° | 16km/h | 29407m | 5.1m/s | -44.8°C | 3.0% | 0hPa | 2.6V | 00:00:00 | 00:00:00 | 00:00:00 | |
| RDZBGO | 2026-09-04 00:52:59 | 45.08182 | 9.22116 | 115° | 15km/h | 29395m | 6.0m/s | -44.8°C | 0.9% | 0hPa | 2.6V | 00:00:00 | 00:00:00 | 00:00:00 | |
| IW2NTF | 2026-09-04 00:52:55 | 45.08180 | 9.22050 | 106° | 18km/h | 29344m | 5.2m/s | -45°C | 3% | 0hPa | 2.6V | 08:30:00 | 02:19:10 | 00:00:00 | |
| OE5DRO-10 | 2026-09-04 00:52:54 | 45.08182 | 9.22083 | 74° | 18km/h | 29367m | 5.1m/s | -44.8°C | 3.0% | 0hPa | 2.5V | 00:00:00 | 00:00:00 | 00:00:00 | |
| DF1GD-15 | 2026-09-04 00:52:49 | 45.08180 | 9.22050 | 107° | 18km/h | 29345m | 5.2m/s | -45.0°C | 1.0% | 0hPa | 2.5V | 00:00:00 | 00:00:00 | 00:00:00 | |
| IW2NTF | 2026-09-04 00:52:37 | 45.08174 | 9.21984 | 77° | 16km/h | 29274m | 5.7m/s | -44.9°C | 3% | 0hPa | 2.5V | 08:30:00 | 02:18:57 | 00:00:00 | |
| OE5DRO-10 | 2026-09-04 00:52:35 | 45.08171 | 9.21975 | 64° | 7km/h | 29264m | 4.8m/s | -44.8°C | 3.0% | 0hPa | 2.5V | 00:00:00 | 00:00:00 | 00:00:00 | |
| NBG1-10 | 2026-09-04 00:52:32 | 45.08170 | 9.21965 | 95° | 5km/h | 29247m | 5.2m/s | -44.8°C | 3.0% | 0hPa | 2.5V | 00:00:00 | 02:18:52 | 00:00:00 | |
| DB0UT-7 | 2026-09-04 00:52:31 | 45.08170 | 9.21963 | 86° | 5km/h | 29242m | 4.8m/s | -44.8°C | 2.9% | 0hPa | 2.5V | 00:00:00 | 02:18:51 | 08:30:00 | |
| IW2NTF | 2026-09-04 00:52:26 | 45.08161 | 9.21947 | 77° | 9km/h | 29208m | 5.9m/s | -44.8°C | 3% | 0hPa | 2.5V | 08:30:00 | 02:18:45 | 00:00:00 | |
| DF1GD-15 | 2026-09-04 00:52:24 | 45.08161 | 9.21947 | 79° | 9km/h | 29208m | 5.9m/s | -44.8°C | 1.0% | 0hPa | 2.5V | 00:00:00 | 00:00:00 | 00:00:00 | |
| IW2NTF | 2026-09-04 00:52:19 | 45.08154 | 9.21946 | 352° | 2km/h | 29153m | 5m/s | -44.7°C | 2.9% | 0hPa | 2.5V | 08:30:00 | 02:18:35 | 00:00:00 | |
| RDZBGO | 2026-09-04 00:52:18 | 45.08155 | 9.21944 | 323° | 7km/h | 29170m | 5.9m/s | -44.8°C | 0.9% | 0hPa | 2.5V | 00:00:00 | 00:00:00 | 00:00:00 | |
| OE5DRO-10 | 2026-09-04 00:52:16 | 45.08154 | 9.21946 | 306° | 5km/h | 29159m | 5.3m/s | -44.7°C | 3.0% | 0hPa | 2.5V | 00:00:00 | 00:00:00 | 00:00:00 | |
| IW2NTF | 2026-09-04 00:52:06 | 45.08148 | 9.21942 | 22° | 5km/h | 29098m | 5.3m/s | -44.8°C | 2.9% | 0hPa | 2.5V | 08:30:00 | 02:18:25 | 00:00:00 | |
| DF1GD-15 | 2026-09-04 00:52:03 | 45.08144 | 9.21940 | 22° | 7km/h | 29089m | 4.1m/s | -44.9°C | 0.9% | 0hPa | 2.5V | 00:00:00 | 00:00:00 | 00:00:00 | |
| DB0UT-7 | 2026-09-04 00:52:01 | 45.08142 | 9.21938 | 90° | 9km/h | 29079m | 6.0m/s | -44.9°C | 2.9% | 0hPa | 2.5V | 00:00:00 | 00:00:00 | 00:00:00 | |
| NBG1-10 | 2026-09-04 00:51:59 | 45.08144 | 9.21936 | 148° | 9km/h | 29068m | 4.8m/s | -44.9°C | 2.9% | 0hPa | 2.5V | 00:00:00 | 02:18:19 | 00:00:00 | |
| IW2NTF | 2026-09-04 00:51:57 | 45.08145 | 9.21935 | 333° | 4km/h | 29047m | 4.2m/s | -45.1°C | 2.9% | 0hPa | 2.5V | 08:30:00 | 02:18:15 | 00:00:00 | |
| OE5DRO-10 | 2026-09-04 00:51:57 | 45.08146 | 9.21934 | 165° | 9km/h | 29057m | 6.0m/s | -45.0°C | 2.9% | 0hPa | 2.5V | 00:00:00 | 00:00:00 | 00:00:00 | |
| IW2NTF | 2026-09-04 00:51:47 | 45.08158 | 9.21922 | 167° | 4km/h | 28996m | 4.2m/s | -45.5°C | 3% | 0hPa | 2.5V | 08:30:00 | 02:18:05 | 00:00:00 | |
| DF1GD-15 | 2026-09-04 00:51:40 | 45.08167 | 9.21915 | 140° | 16km/h | 28975m | 5.0m/s | -45.7°C | 1.0% | 0hPa | 2.5V | 00:00:00 | 00:00:00 | 00:00:00 | |
| OE5DRO-10 | 2026-09-04 00:51:38 | 45.08174 | 9.21901 | 112° | 13km/h | 28959m | 5.6m/s | -45.7°C | 3.0% | 0hPa | 2.5V | 00:00:00 | 00:00:00 | 00:00:00 | |
| IW2NTF | 2026-09-04 00:51:35 | 45.08178 | 9.21891 | 147° | 11km/h | 28944m | 5.8m/s | -45.8°C | 3.1% | 0hPa | 2.5V | 08:30:00 | 02:17:55 | 00:00:00 | |
| DB0UT-7 | 2026-09-04 00:51:31 | 45.08193 | 9.21889 | 181° | 11km/h | 28924m | 4.9m/s | -45.8°C | 3.1% | 0hPa | 2.6V | 00:00:00 | 02:17:51 | 00:00:00 | |
| IW2NTF | 2026-09-04 00:51:27 | 45.08197 | 9.21869 | 95° | 18km/h | 28891m | 5.9m/s | -45.8°C | 3% | 0hPa | 2.6V | 08:30:00 | 02:17:45 | 00:00:00 | |
| NBG1-10 | 2026-09-04 00:51:26 | 45.08197 | 9.21875 | 87° | 18km/h | 28897m | 5.6m/s | -45.8°C | 3.1% | 0hPa | 2.6V | 00:00:00 | 02:17:46 | 08:30:00 | |
| IW2NTF | 2026-09-04 00:51:20 | 45.08208 | 9.21835 | 160° | 11km/h | 28840m | 4.5m/s | -46.1°C | 3.1% | 0hPa | 2.5V | 08:30:00 | 02:17:35 | 00:00:00 | |
| OE5DRO-10 | 2026-09-04 00:51:19 | 45.08203 | 9.21839 | 95° | 9km/h | 28861m | 4.4m/s | -45.9°C | 3.1% | 0hPa | 2.6V | 00:00:00 | 00:00:00 | 00:00:00 | |
| RDZBGO | 2026-09-04 00:51:16 | 45.08206 | 9.21836 | 168° | 9km/h | 28845m | 5.5m/s | -46.1°C | 1.0% | 0hPa | 2.5V | 00:00:00 | 00:00:00 | 00:00:00 | |
| IW2NTF | 2026-09-04 00:51:07 | 45.08218 | 9.21806 | 135° | 7km/h | 28790m | 4.9m/s | -46.4°C | 3.2% | 0hPa | 2.5V | 08:30:00 | 02:17:25 | 00:00:00 | |
| DB0UT-7 | 2026-09-04 00:51:01 | 45.08215 | 9.21802 | 31° | 18km/h | 28769m | 4.0m/s | -46.3°C | 3.1% | 0hPa | 2.6V | 00:00:00 | 00:00:00 | 00:00:00 | |
| IW2NTF | 2026-09-04 00:51:00 | 45.08216 | 9.21771 | 98° | 20km/h | 28739m | 5.5m/s | -46.4°C | 3.1% | 0hPa | 2.6V | 08:30:00 | 02:17:15 | 00:00:00 | |
| OE5DRO-10 | 2026-09-04 00:51:00 | 45.08213 | 9.21799 | 59° | 16km/h | 28765m | 4.8m/s | -46.3°C | 3.2% | 0hPa | 2.6V | 00:00:00 | 00:00:00 | 00:00:00 | |
| DF1GD-15 | 2026-09-04 00:50:59 | 45.08212 | 9.21796 | 85° | 11km/h | 28759m | 5.9m/s | -46.4°C | 1.0% | 0hPa | 2.6V | 00:00:00 | 00:00:00 | 00:00:00 | |
| RDZBGO | 2026-09-04 00:50:54 | 45.08216 | 9.21771 | 99° | 20km/h | 28739m | 5.5m/s | -46.4°C | 1.0% | 0hPa | 2.6V | 00:00:00 | 00:00:00 | 00:00:00 | |
| IW2NTF | 2026-09-04 00:50:50 | 45.08226 | 9.21718 | 94° | 20km/h | 28689m | 5.5m/s | -46.5°C | 3.2% | 0hPa | 2.6V | 08:30:00 | 02:17:05 | 00:00:00 | |
| OE5DRO-10 | 2026-09-04 00:50:41 | 45.08220 | 9.21689 | 72° | 18km/h | 28669m | 5.4m/s | -46.4°C | 3.2% | 0hPa | 2.5V | 00:00:00 | 00:00:00 | 00:00:00 | |
| IW2NTF | 2026-09-04 00:50:38 | 45.08221 | 9.21643 | 87° | 18km/h | 28639m | 5.1m/s | -46.4°C | 3.2% | 0hPa | 2.5V | 08:30:00 | 02:16:55 | 00:00:00 | |
| DF1GD-15 | 2026-09-04 00:50:37 | 45.08220 | 9.21656 | 101° | 20km/h | 28650m | 4.9m/s | -46.4°C | 1.0% | 0hPa | 2.5V | 00:00:00 | 00:00:00 | 00:00:00 | |
| RDZBGO | 2026-09-04 00:50:34 | 45.08221 | 9.21643 | 88° | 18km/h | 28639m | 5.1m/s | -46.4°C | 1.0% | 0hPa | 2.5V | 00:00:00 | 00:00:00 | 00:00:00 | |
| DB0UT-7 | 2026-09-04 00:50:31 | 45.08219 | 9.21614 | 92° | 15km/h | 28619m | 5.2m/s | -46.3°C | 3.2% | 0hPa | 2.5V | 00:00:00 | 02:16:51 | 00:00:00 | |
| IW2NTF | 2026-09-04 00:50:30 | 45.08217 | 9.21573 | 66° | 9km/h | 28588m | 4.7m/s | -46.4°C | 3.2% | 0hPa | 2.5V | 08:30:00 | 02:16:45 | 00:00:00 | |
| NBG1-10 | 2026-09-04 00:50:30 | 45.08220 | 9.21605 | 93° | 20km/h | 28614m | 4.0m/s | -46.3°C | 3.2% | 0hPa | 2.6V | 00:00:00 | 02:16:50 | 00:00:00 | |
| OE5DRO-10 | 2026-09-04 00:50:22 | 45.08218 | 9.21565 | 134° | 13km/h | 28573m | 4.4m/s | -46.3°C | 3.1% | 0hPa | 2.6V | 00:00:00 | 00:00:00 | 08:30:00 | |
| IW2NTF | 2026-09-04 00:50:20 | 45.08216 | 9.21543 | 66° | 24km/h | 28537m | 5.8m/s | -46.3°C | 3.1% | 0hPa | 2.5V | 08:30:00 | 02:16:35 | 00:00:00 | |
| RDZBGO | 2026-09-04 00:50:14 | 45.08214 | 9.21534 | 67° | 27km/h | 28533m | 4.3m/s | -46.3°C | 1.0% | 0hPa | 2.5V | 00:00:00 | 00:00:00 | 00:00:00 | |
| DF1GD-15 | 2026-09-04 00:50:10 | 45.08205 | 9.21513 | 46° | 15km/h | 28520m | 5.7m/s | -46.3°C | 1.0% | 0hPa | 2.5V | 00:00:00 | 00:00:00 | 00:00:00 | |
| IW2NTF | 2026-09-04 00:50:09 | 45.08199 | 9.21511 | 53° | 13km/h | 28484m | 4.4m/s | -46.5°C | 3.1% | 0hPa | 2.5V | 08:30:00 | 02:16:24 | 00:00:00 | |
| OE5DRO-10 | 2026-09-04 00:50:03 | 45.08197 | 9.21507 | 47° | 16km/h | 28480m | 5.4m/s | -46.6°C | 3.1% | 0hPa | 2.6V | 00:00:00 | 00:00:00 | 00:00:00 | |
| DB0UT-7 | 2026-09-04 00:50:01 | 45.08189 | 9.21498 | 33° | 18km/h | 28468m | 5.2m/s | -46.7°C | 3.2% | 0hPa | 2.6V | 00:00:00 | 00:00:00 | 00:00:00 | |
| RDZBGO | 2026-09-04 00:49:53 | 45.08172 | 9.21473 | 49° | 5km/h | 28433m | 5.8m/s | -47.2°C | 1.0% | 0hPa | 2.6V | 00:00:00 | 00:00:00 | 00:00:00 | |
| DF1GD-15 | 2026-09-04 00:49:50 | 45.08165 | 9.21469 | 29° | 15km/h | 28418m | 5.2m/s | -47.3°C | 0% | 0hPa | 2.6V | 00:00:00 | 00:00:00 | 00:00:00 | |
| OE5DRO-10 | 2026-09-04 00:49:44 | 45.08135 | 9.21432 | 31° | 20km/h | 28381m | 5.1m/s | -47.4°C | 3.3% | 0hPa | 2.6V | 00:00:00 | 00:00:00 | 00:00:00 | |
| IW2NTF | 2026-09-04 00:49:40 | 45.08117 | 9.21412 | 24° | 15km/h | 28349m | 6m/s | -47.5°C | 3.3% | 0hPa | 2.6V | 08:30:00 | 02:15:58 | 00:00:00 | |
| RDZBGO | 2026-09-04 00:49:33 | 45.08099 | 9.21399 | 39° | 26km/h | 28328m | 5.1m/s | -47.4°C | 1.0% | 0hPa | 2.6V | 00:00:00 | 00:00:00 | 00:00:00 | |
| IW2NTF | 2026-09-04 00:49:31 | 45.08065 | 9.21373 | 18° | 22km/h | 28297m | 5.1m/s | -47.4°C | 3.2% | 0hPa | 2.6V | 08:30:00 | 02:15:48 | 00:00:00 | |
| DB0UT-7 | 2026-09-04 00:49:31 | 45.08082 | 9.21382 | 28° | 20km/h | 28313m | 6.2m/s | -47.3°C | 3.2% | 0hPa | 2.5V | 00:00:00 | 02:15:51 | 00:00:00 | |
| DF1GD-15 | 2026-09-04 00:49:30 | 45.08082 | 9.21382 | 29° | 27km/h | 28313m | 6.2m/s | 0°C | 0% | 0hPa | 2.5V | 00:00:00 | 00:00:00 | 00:00:00 | |
| OE5DRO-10 | 2026-09-04 00:49:25 | 45.08051 | 9.21363 | 37° | 22km/h | 28281m | 4.3m/s | -47.5°C | 3.3% | 0hPa | 2.5V | 00:00:00 | 00:00:00 | 00:00:00 | |
| DO3MHA-11 | 2026-09-04 00:49:22 | 45.08037 | 9.21353 | 17° | 22km/h | 28265m | 5.6m/s | -47.6°C | 3.3% | 0hPa | 2.5V | 00:00:00 | 02:15:42 | 00:00:00 | |
| IW2NTF | 2026-09-04 00:49:21 | 45.08012 | 9.21339 | 27° | 26km/h | 28243m | 4.8m/s | -47.7°C | 3.3% | 0hPa | 2.5V | 08:30:00 | 02:15:38 | 00:00:00 | |
| RDZBGO | 2026-09-04 00:49:13 | 45.07986 | 9.21333 | 342° | 18km/h | 28218m | 4.8m/s | -48.0°C | 1.1% | 0hPa | 2.5V | 00:00:00 | 00:00:00 | 00:00:00 | |
| IW2NTF | 2026-09-04 00:49:11 | 45.07968 | 9.21336 | 10° | 15km/h | 28191m | 5.2m/s | -48°C | 3.4% | 0hPa | 2.5V | 08:30:00 | 02:15:28 | 00:00:00 | |
| DO3MHA-11 | 2026-09-04 00:49:11 | 45.07977 | 9.21337 | 348° | 15km/h | 28207m | 5.9m/s | -48.0°C | 3.4% | 0hPa | 2.6V | 00:00:00 | 02:15:31 | 00:00:00 | |
| DF1GD-15 | 2026-09-04 00:49:10 | 45.07978 | 9.21337 | 349° | 15km/h | 28207m | 6.0m/s | 0°C | 0% | 0hPa | 2.5V | 00:00:00 | 00:00:00 | 00:00:00 | |
| NBG1-10 | 2026-09-04 00:49:05 | 45.07955 | 9.21335 | 354° | 11km/h | 28175m | 4.6m/s | -47.9°C | 3.4% | 0hPa | 2.5V | 00:00:00 | 02:15:25 | 00:00:00 | |
| IW2NTF | 2026-09-04 00:49:01 | 45.07931 | 9.21330 | 345° | 9km/h | 28139m | 6.1m/s | -47.9°C | 3.4% | 0hPa | 2.5V | 08:30:00 | 02:15:18 | 00:00:00 | |
| DB0UT-7 | 2026-09-04 00:49:01 | 45.07938 | 9.21334 | 28° | 9km/h | 28155m | 5.3m/s | -47.9°C | 3.4% | 0hPa | 2.6V | 00:00:00 | 00:00:00 | 00:00:00 | |
| RDZBGO | 2026-09-04 00:48:52 | 45.07921 | 9.21339 | 9° | 7km/h | 28113m | 5.3m/s | -47.9°C | 1.1% | 0hPa | 2.6V | 00:00:00 | 00:00:00 | 00:00:00 | |
| IW2NTF | 2026-09-04 00:48:51 | 45.07909 | 9.21336 | 3° | 11km/h | 28086m | 4.3m/s | -47.9°C | 3.4% | 0hPa | 2.6V | 08:30:00 | 02:15:08 | 00:00:00 | |
| DF1GD-15 | 2026-09-04 00:48:49 | 45.07915 | 9.21336 | 9° | 11km/h | 28097m | 6.2m/s | 0°C | 0% | 0hPa | 2.6V | 00:00:00 | 00:00:00 | 00:00:00 | |
| DO3MHA-11 | 2026-09-04 00:48:47 | 45.07906 | 9.21335 | 17° | 7km/h | 28082m | 4.6m/s | -47.9°C | 3.5% | 0hPa | 2.6V | 00:00:00 | 02:15:07 | 00:00:00 | |
| IW2NTF | 2026-09-04 00:48:37 | 45.07895 | 9.21313 | 108° | 13km/h | 28002m | 6m/s | -47.6°C | 3.4% | 0hPa | 2.6V | 08:30:00 | 02:14:52 | 00:00:00 | |
| DO3MHA-11 | 2026-09-04 00:48:36 | 45.07896 | 9.21331 | 35° | 11km/h | 28025m | 5.8m/s | -47.7°C | 3.4% | 0hPa | 2.5V | 00:00:00 | 02:14:56 | 00:00:00 | |
| NBG1-10 | 2026-09-04 00:48:32 | 45.07895 | 9.21314 | 109° | 7km/h | 28003m | 5.9m/s | -47.6°C | 3.4% | 0hPa | 2.6V | 00:00:00 | 02:14:52 | 00:00:00 | |
| DB0UT-7 | 2026-09-04 00:48:31 | 45.07896 | 9.21310 | 125° | 9km/h | 27997m | 5.1m/s | -47.6°C | 3.4% | 0hPa | 2.6V | 00:00:00 | 02:14:51 | 00:00:00 | |
| IW2NTF | 2026-09-04 00:48:26 | 45.07899 | 9.21323 | 330° | 11km/h | 27945m | 5.2m/s | -47.6°C | 3.4% | 0hPa | 2.6V | 08:30:00 | 02:14:41 | 00:00:00 | |
| DO3MHA-11 | 2026-09-04 00:48:26 | 45.07904 | 9.21304 | 243° | 11km/h | 27972m | 4.3m/s | -47.6°C | 3.4% | 0hPa | 2.5V | 00:00:00 | 02:14:46 | 00:00:00 | |
| IW2NTF | 2026-09-04 00:48:16 | 45.07888 | 9.21320 | 294° | 13km/h | 27892m | 5.8m/s | -47.5°C | 3.4% | 0hPa | 2.5V | 08:30:00 | 02:14:31 | 00:00:00 | |
| DO3MHA-11 | 2026-09-04 00:48:16 | 45.07890 | 9.21309 | 81° | 9km/h | 27919m | 5.6m/s | -47.5°C | 3.4% | 0hPa | 2.5V | 00:00:00 | 02:14:36 | 00:00:00 | |
| RDZBGO | 2026-09-04 00:48:13 | 45.07890 | 9.21311 | 280° | 11km/h | 27903m | 4.8m/s | -47.5°C | 1.1% | 0hPa | 2.5V | 00:00:00 | 00:00:00 | 00:00:00 | |
| IW2NTF | 2026-09-04 00:48:06 | 45.07877 | 9.21331 | 48° | 7km/h | 27838m | 4.7m/s | -47.2°C | 3.4% | 0hPa | 2.5V | 08:30:00 | 02:14:21 | 00:00:00 | |
| DO3MHA-11 | 2026-09-04 00:48:06 | 45.07881 | 9.21332 | 303° | 7km/h | 27865m | 6.0m/s | -47.3°C | 3.4% | 0hPa | 2.5V | 00:00:00 | 02:14:26 | 08:30:00 | |
| DB0UT-7 | 2026-09-04 00:48:01 | 45.07877 | 9.21331 | 49° | 7km/h | 27838m | 4.6m/s | -47.2°C | 3.4% | 0hPa | 2.5V | 00:00:00 | 00:00:00 | 08:30:00 | |
| IW2NTF | 2026-09-04 00:47:56 | 45.07879 | 9.21354 | 351° | 5km/h | 27786m | 4.2m/s | -47°C | 3.3% | 0hPa | 2.5V | 08:30:00 | 02:14:11 | 00:00:00 | |
| DO3MHA-11 | 2026-09-04 00:47:55 | 45.07879 | 9.21344 | 250° | 9km/h | 27807m | 4.9m/s | -47.0°C | 3.3% | 0hPa | 2.5V | 00:00:00 | 02:14:15 | 00:00:00 | |
| RDZBGO | 2026-09-04 00:47:52 | 45.07880 | 9.21353 | 327° | 4km/h | 27791m | 4.7m/s | -47.0°C | 1.1% | 0hPa | 2.5V | 00:00:00 | 00:00:00 | 00:00:00 | |
| OE5DRO-10 | 2026-09-04 00:47:46 | 45.07875 | 9.21364 | 265° | 9km/h | 27760m | 4.9m/s | -46.8°C | 3.3% | 0hPa | 2.5V | 00:00:00 | 00:00:00 | 00:00:00 | |
| DO3MHA-11 | 2026-09-04 00:47:44 | 45.07876 | 9.21371 | 265° | 5km/h | 27750m | 5.9m/s | -46.8°C | 3.3% | 0hPa | 2.5V | 00:00:00 | 02:14:04 | 00:00:00 | |
| IW2NTF | 2026-09-04 00:47:41 | 45.07875 | 9.21374 | 320° | 2km/h | 27733m | 4.9m/s | -46.8°C | 3.3% | 0hPa | 2.5V | 08:30:00 | 02:14:01 | 00:00:00 | |
| IW2NTF | 2026-09-04 00:47:36 | 45.07881 | 9.21400 | 228° | 11km/h | 27679m | 5.4m/s | -46.5°C | 3.2% | 0hPa | 2.6V | 08:30:00 | 02:13:51 | 00:00:00 | |
| DO3MHA-11 | 2026-09-04 00:47:34 | 45.07876 | 9.21393 | 233° | 7km/h | 27696m | 5.1m/s | -46.5°C | 3.2% | 0hPa | 2.5V | 00:00:00 | 02:13:54 | 00:00:00 | |
| DB0UT-7 | 2026-09-04 00:47:31 | 45.07880 | 9.21400 | 229° | 5km/h | 27679m | 5.4m/s | -46.5°C | 3.2% | 0hPa | 2.6V | 00:00:00 | 02:13:51 | 00:00:00 | |
| OE5DRO-10 | 2026-09-04 00:47:27 | 45.07887 | 9.21408 | 184° | 5km/h | 27658m | 5.5m/s | -46.5°C | 3.2% | 0hPa | 2.6V | 00:00:00 | 00:00:00 | 00:00:00 | |
| IW2NTF | 2026-09-04 00:47:26 | 45.07888 | 9.21420 | 279° | 9km/h | 27626m | 5m/s | -46.7°C | 3.2% | 0hPa | 2.6V | 08:30:00 | 02:13:41 | 00:00:00 | |
| DO3MHA-11 | 2026-09-04 00:47:22 | 45.07888 | 9.21417 | 276° | 5km/h | 27632m | 4.5m/s | -46.6°C | 3.2% | 0hPa | 2.5V | 00:00:00 | 02:13:42 | 00:00:00 | |
| IW2NTF | 2026-09-04 00:47:16 | 45.07885 | 9.21436 | 182° | 2km/h | 27573m | 5.9m/s | -46.6°C | 3.2% | 0hPa | 2.5V | 08:30:00 | 02:13:31 | 00:00:00 | |
| DO3MHA-11 | 2026-09-04 00:47:12 | 45.07884 | 9.21435 | 248° | 4km/h | 27579m | 5.8m/s | -46.6°C | 3.2% | 0hPa | 2.6V | 00:00:00 | 02:13:32 | 00:00:00 | |
| RDZBGO | 2026-09-04 00:47:10 | 45.07884 | 9.21436 | 0° | 0km/h | 27573m | 5.9m/s | -46.6°C | 1.0% | 0hPa | 2.6V | 00:00:00 | 00:00:00 | 00:00:00 | |
| OE5DRO-10 | 2026-09-04 00:47:08 | 45.07887 | 9.21434 | 192° | 5km/h | 27557m | 5.9m/s | -46.6°C | 3.2% | 0hPa | 2.6V | 00:00:00 | 00:00:00 | 00:00:00 | |
| IW2NTF | 2026-09-04 00:47:06 | 45.07887 | 9.21436 | 52° | 5km/h | 27520m | 5m/s | -46.8°C | 3.2% | 0hPa | 2.5V | 08:30:00 | 02:13:21 | 00:00:00 | |
| DO3MHA-11 | 2026-09-04 00:47:02 | 45.07888 | 9.21437 | 41° | 5km/h | 27525m | 4.9m/s | -46.7°C | 3.2% | 0hPa | 2.5V | 00:00:00 | 02:13:22 | 00:00:00 | |
| DB0UT-7 | 2026-09-04 00:47:01 | 45.07887 | 9.21436 | 53° | 9km/h | 27520m | 4.9m/s | -46.7°C | 3.2% | 0hPa | 2.5V | 00:00:00 | 00:00:00 | 00:00:00 | |
| IW2NTF | 2026-09-04 00:46:56 | 45.07893 | 9.21423 | 315° | 4km/h | 27468m | 5.5m/s | -47°C | 3.2% | 0hPa | 2.5V | 08:30:00 | 02:13:11 | 00:00:00 | |
| DO3MHA-11 | 2026-09-04 00:46:52 | 45.07893 | 9.21423 | 53° | 7km/h | 27474m | 5.9m/s | -46.9°C | 3.2% | 0hPa | 2.6V | 00:00:00 | 02:13:12 | 00:00:00 | |
| RDZBGO | 2026-09-04 00:46:50 | 45.07892 | 9.21423 | 317° | 4km/h | 27468m | 5.5m/s | -47.0°C | 1.1% | 0hPa | 2.6V | 00:00:00 | 00:00:00 | 00:00:00 | |
| OE5DRO-10 | 2026-09-04 00:46:49 | 45.07890 | 9.21425 | 333° | 9km/h | 27458m | 4.3m/s | -46.9°C | 3.2% | 0hPa | 2.6V | 00:00:00 | 00:00:00 | 00:00:00 | |
| IW2NTF | 2026-09-04 00:46:46 | 45.07886 | 9.21408 | 143° | 9km/h | 27416m | 4.6m/s | -47.2°C | 3.3% | 0hPa | 2.6V | 08:30:00 | 02:13:01 | 00:00:00 | |
| DO3MHA-11 | 2026-09-04 00:46:42 | 45.07884 | 9.21410 | 139° | 9km/h | 27421m | 4.7m/s | -47.2°C | 3.3% | 0hPa | 2.6V | 00:00:00 | 02:13:02 | 00:00:00 | |
| IW2NTF | 2026-09-04 00:46:36 | 45.07874 | 9.21381 | 54° | 15km/h | 27359m | 4.2m/s | -47.3°C | 3.3% | 0hPa | 2.6V | 08:30:00 | 02:12:50 | 00:00:00 | |
| DO3MHA-11 | 2026-09-04 00:46:32 | 45.07879 | 9.21387 | 27° | 9km/h | 27369m | 5.8m/s | -47.2°C | 3.3% | 0hPa | 2.5V | 00:00:00 | 02:12:52 | 08:30:00 | |
| OE5DRO-10 | 2026-09-04 00:46:30 | 45.07873 | 9.21380 | 55° | 7km/h | 27359m | 4.1m/s | -47.2°C | 3.3% | 0hPa | 2.5V | 00:00:00 | 00:00:00 | 00:00:00 | |
| RDZBGO | 2026-09-04 00:46:29 | 45.07873 | 9.21380 | 56° | 15km/h | 27359m | 4.2m/s | -47.3°C | 1.1% | 0hPa | 2.5V | 00:00:00 | 00:00:00 | 00:00:00 | |
| DB0UT-7 | 2026-09-04 00:46:28 | 45.07871 | 9.21373 | 93° | 7km/h | 27349m | 5.7m/s | -47.3°C | 3.3% | 0hPa | 2.5V | 00:00:00 | 02:12:48 | 00:00:00 | |
| IW2NTF | 2026-09-04 00:46:25 | 45.07877 | 9.21362 | 35° | 2km/h | 27307m | 6m/s | -47.4°C | 3.3% | 0hPa | 2.5V | 08:30:00 | 02:12:40 | 00:00:00 | |
| DO3MHA-11 | 2026-09-04 00:46:22 | 45.07878 | 9.21364 | 82° | 5km/h | 27318m | 4.4m/s | -47.4°C | 3.2% | 0hPa | 2.5V | 00:00:00 | 02:12:42 | 00:00:00 | |
| NBG1-10 | 2026-09-04 00:46:13 | 45.07882 | 9.21345 | 130° | 7km/h | 27266m | 5.5m/s | -47.5°C | 3.3% | 0hPa | 2.5V | 00:00:00 | 02:12:32 | 00:00:00 | |
| DO3MHA-11 | 2026-09-04 00:46:12 | 45.07882 | 9.21345 | 130° | 7km/h | 27266m | 5.5m/s | -47.5°C | 3.3% | 0hPa | 2.5V | 00:00:00 | 02:12:32 | 00:00:00 | |
| RDZBGO | 2026-09-04 00:46:10 | 45.07887 | 9.21340 | 180° | 7km/h | 27256m | 4.4m/s | -47.6°C | 1.1% | 0hPa | 2.5V | 00:00:00 | 00:00:00 | 00:00:00 | |
| DO3MHA-11 | 2026-09-04 00:46:01 | 45.07883 | 9.21347 | 174° | 5km/h | 27210m | 4.9m/s | -47.6°C | 3.3% | 0hPa | 2.5V | 00:00:00 | 02:12:21 | 00:00:00 | |
| DB0UT-7 | 2026-09-04 00:45:58 | 45.07886 | 9.21343 | 88° | 9km/h | 27194m | 4.7m/s | -47.7°C | 3.3% | 0hPa | 2.6V | 00:00:00 | 00:00:00 | 00:00:00 | |
| OE5DRO-10 | 2026-09-04 00:45:52 | 45.07882 | 9.21342 | 339° | 9km/h | 27163m | 5.8m/s | -48.0°C | 3.4% | 0hPa | 2.6V | 00:00:00 | 00:00:00 | 00:00:00 | |
| DO3MHA-11 | 2026-09-04 00:45:51 | 45.07881 | 9.21342 | 5° | 13km/h | 27158m | 5.1m/s | -48.1°C | 3.4% | 0hPa | 2.6V | 00:00:00 | 02:12:11 | 00:00:00 | |
| RDZBGO | 2026-09-04 00:45:48 | 45.07880 | 9.21340 | 109° | 5km/h | 27149m | 4.2m/s | -48.2°C | 1.1% | 0hPa | 2.6V | 00:00:00 | 00:00:00 | 00:00:00 | |
| IW2NTF | 2026-09-04 00:45:47 | 45.07891 | 9.21329 | 145° | 18km/h | 27127m | 5m/s | -48.3°C | 3.4% | 0hPa | 2.6V | 08:30:00 | 02:12:05 | 00:00:00 | |
| DO3MHA-11 | 2026-09-04 00:45:41 | 45.07901 | 9.21314 | 129° | 7km/h | 27108m | 5.1m/s | -48.3°C | 3.4% | 0hPa | 2.6V | 00:00:00 | 02:12:01 | 00:00:00 | |
| NBG1-10 | 2026-09-04 00:45:39 | 45.07903 | 9.21314 | 225° | 11km/h | 27096m | 5.4m/s | -48.2°C | 3.4% | 0hPa | 2.6V | 00:00:00 | 02:11:59 | 00:00:00 | |
| IW2NTF | 2026-09-04 00:45:37 | 45.07904 | 9.21318 | 123° | 2km/h | 27075m | 4.6m/s | -48.2°C | 3.4% | 0hPa | 2.6V | 08:30:00 | 02:11:55 | 00:00:00 | |
| OE5DRO-10 | 2026-09-04 00:45:33 | 45.07907 | 9.21315 | 149° | 13km/h | 27066m | 5.9m/s | -48.2°C | 3.4% | 0hPa | 2.5V | 00:00:00 | 00:00:00 | 00:00:00 | |
| DO3MHA-11 | 2026-09-04 00:45:31 | 45.07914 | 9.21309 | 150° | 15km/h | 27055m | 4.7m/s | -48.2°C | 3.4% | 0hPa | 2.5V | 00:00:00 | 02:11:51 | 00:00:00 | |
| DB0UT-7 | 2026-09-04 00:45:28 | 45.07926 | 9.21295 | 126° | 11km/h | 27040m | 4.6m/s | -48.3°C | 3.4% | 0hPa | 2.5V | 00:00:00 | 02:11:48 | 00:00:00 | |
| IW2NTF | 2026-09-04 00:45:26 | 45.07929 | 9.21288 | 231° | 2km/h | 27025m | 5.8m/s | -48.4°C | 3.4% | 0hPa | 2.5V | 08:30:00 | 02:11:45 | 00:00:00 | |
| DO3MHA-11 | 2026-09-04 00:45:21 | 45.07927 | 9.21302 | 302° | 13km/h | 27004m | 5.5m/s | -48.4°C | 3.5% | 0hPa | 2.5V | 00:00:00 | 02:11:41 | 00:00:00 | |
| IW2NTF | 2026-09-04 00:45:17 | 45.07936 | 9.21301 | 145° | 18km/h | 26972m | 5m/s | -48.5°C | 3.5% | 0hPa | 2.5V | 08:30:00 | 02:11:35 | 00:00:00 | |
| OE5DRO-10 | 2026-09-04 00:45:14 | 45.07940 | 9.21296 | 137° | 11km/h | 26967m | 5.7m/s | -48.5°C | 3.5% | 0hPa | 2.5V | 00:00:00 | 00:00:00 | 00:00:00 | |
| DO3MHA-11 | 2026-09-04 00:45:11 | 45.07945 | 9.21284 | 106° | 11km/h | 26953m | 3.9m/s | -48.6°C | 3.5% | 0hPa | 2.5V | 00:00:00 | 02:11:31 | 00:00:00 | |
| RDZBGO | 2026-09-04 00:45:08 | 45.07947 | 9.21282 | 221° | 7km/h | 26937m | 5.1m/s | -48.7°C | 1.2% | 0hPa | 2.5V | 00:00:00 | 00:00:00 | 00:00:00 | |
| IW2NTF | 2026-09-04 00:45:07 | 45.07952 | 9.21286 | 154° | 5km/h | 26921m | 5.6m/s | -48.7°C | 3.6% | 0hPa | 2.5V | 08:30:00 | 02:11:25 | 00:00:00 | |
| NBG1-10 | 2026-09-04 00:45:06 | 45.07951 | 9.21286 | 201° | 9km/h | 26927m | 5.3m/s | -48.6°C | 3.5% | 0hPa | 2.6V | 00:00:00 | 02:11:26 | 00:00:00 | |
| DO3MHA-11 | 2026-09-04 00:45:00 | 45.07962 | 9.21266 | 132° | 7km/h | 26895m | 4.7m/s | -48.6°C | 3.5% | 0hPa | 2.6V | 00:00:00 | 02:11:20 | 08:30:00 | |
| DB0UT-7 | 2026-09-04 00:44:58 | 45.07966 | 9.21258 | 118° | 11km/h | 26885m | 5.9m/s | -48.6°C | 3.5% | 0hPa | 2.5V | 00:00:00 | 00:00:00 | 00:00:00 | |
| IW2NTF | 2026-09-04 00:44:57 | 45.07965 | 9.21256 | 292° | 4km/h | 26869m | 5.3m/s | -48.6°C | 3.5% | 0hPa | 2.6V | 08:30:00 | 02:11:15 | 00:00:00 | |
| OE5DRO-10 | 2026-09-04 00:44:55 | 45.07966 | 9.21256 | 293° | 11km/h | 26870m | 5.2m/s | -48.5°C | 3.5% | 0hPa | 2.5V | 00:00:00 | 00:00:00 | 00:00:00 | |
| DO3MHA-11 | 2026-09-04 00:44:50 | 45.07970 | 9.21263 | 143° | 13km/h | 26844m | 6.0m/s | -48.5°C | 3.5% | 0hPa | 2.5V | 00:00:00 | 02:11:10 | 00:00:00 | |
| RDZBGO | 2026-09-04 00:44:48 | 45.07971 | 9.21257 | 99° | 13km/h | 26833m | 4.7m/s | -48.5°C | 1.2% | 0hPa | 2.5V | 00:00:00 | 00:00:00 | 00:00:00 | |
| IW2NTF | 2026-09-04 00:44:47 | 45.07975 | 9.21240 | 119° | 18km/h | 26817m | 4.2m/s | -48.5°C | 3.5% | 0hPa | 2.5V | 08:30:00 | 02:11:05 | 00:00:00 | |
| DO3MHA-11 | 2026-09-04 00:44:39 | 45.07978 | 9.21230 | 289° | 11km/h | 26788m | 4.4m/s | -48.3°C | 3.5% | 0hPa | 2.5V | 00:00:00 | 02:10:59 | 00:00:00 | |
| IW2NTF | 2026-09-04 00:44:37 | 45.07985 | 9.21240 | 182° | 13km/h | 26768m | 4m/s | -48.4°C | 3.4% | 0hPa | 2.5V | 08:30:00 | 02:10:55 | 00:00:00 | |
| OE5DRO-10 | 2026-09-04 00:44:36 | 45.07981 | 9.21239 | 205° | 11km/h | 26772m | 4.5m/s | -48.3°C | 3.4% | 0hPa | 2.5V | 00:00:00 | 00:00:00 | 00:00:00 | |
| NBG1-10 | 2026-09-04 00:44:33 | 45.07990 | 9.21238 | 136° | 7km/h | 26758m | 6.0m/s | -48.3°C | 3.4% | 0hPa | 2.5V | 00:00:00 | 02:10:53 | 00:00:00 | |
| DO3MHA-11 | 2026-09-04 00:44:29 | 45.07992 | 9.21219 | 97° | 7km/h | 26738m | 5.0m/s | -48.4°C | 3.5% | 0hPa | 2.5V | 00:00:00 | 02:10:49 | 00:00:00 | |
| IW2NTF | 2026-09-04 00:44:28 | 45.07999 | 9.21212 | 201° | 9km/h | 26718m | 4.8m/s | -48.5°C | 3.5% | 0hPa | 2.5V | 08:30:00 | 02:10:45 | 00:00:00 | |
| RDZBGO | 2026-09-04 00:44:27 | 45.07993 | 9.21215 | 116° | 11km/h | 26733m | 5.3m/s | -48.4°C | 1.1% | 0hPa | 2.6V | 00:00:00 | 00:00:00 | 00:00:00 | |
| DO3MHA-11 | 2026-09-04 00:44:19 | 45.08001 | 9.21223 | 217° | 5km/h | 26686m | 5.3m/s | -48.5°C | 3.5% | 0hPa | 2.6V | 00:00:00 | 02:10:39 | 00:00:00 | |
| IW2NTF | 2026-09-04 00:44:17 | 45.08005 | 9.21221 | 88° | 5km/h | 26666m | 5.4m/s | -48.5°C | 3.4% | 0hPa | 2.6V | 08:30:00 | 02:10:35 | 00:00:00 | |
| OE5DRO-10 | 2026-09-04 00:44:12 | 45.08006 | 9.21217 | 145° | 7km/h | 26650m | 6.0m/s | -48.5°C | 3.4% | 0hPa | 2.5V | 00:00:00 | 00:00:00 | 00:00:00 | |
| DO3MHA-11 | 2026-09-04 00:44:09 | 45.08010 | 9.21217 | 215° | 7km/h | 26636m | 4.3m/s | -48.5°C | 3.4% | 0hPa | 2.6V | 00:00:00 | 02:10:29 | 00:00:00 | |
| IW2NTF | 2026-09-04 00:44:08 | 45.08005 | 9.21219 | 353° | 9km/h | 26615m | 4m/s | -48.6°C | 3.5% | 0hPa | 2.6V | 08:30:00 | 02:10:25 | 00:00:00 | |
| RDZBGO | 2026-09-04 00:44:07 | 45.08010 | 9.21217 | 298° | 2km/h | 26631m | 5.8m/s | -48.5°C | 1.1% | 0hPa | 2.6V | 00:00:00 | 00:00:00 | 00:00:00 | |
| DO3MHA-11 | 2026-09-04 00:43:59 | 45.08008 | 9.21209 | 108° | 9km/h | 26585m | 5.7m/s | -48.8°C | 3.5% | 0hPa | 2.6V | 00:00:00 | 02:10:19 | 00:00:00 | |
| DB0UT-7 | 2026-09-04 00:43:58 | 45.08008 | 9.21204 | 85° | 13km/h | 26580m | 5.2m/s | -48.8°C | 3.5% | 0hPa | 2.5V | 00:00:00 | 00:00:00 | 00:00:00 | |
| IW2NTF | 2026-09-04 00:43:57 | 45.08004 | 9.21192 | 44° | 9km/h | 26564m | 6.3m/s | -49°C | 3.5% | 0hPa | 2.5V | 08:30:00 | 02:10:15 | 00:00:00 | |
| NBG1-10 | 2026-09-04 00:43:56 | 45.08006 | 9.21195 | 56° | 13km/h | 26570m | 4.9m/s | -48.9°C | 3.5% | 0hPa | 2.5V | 00:00:00 | 02:10:16 | 00:00:00 | |
| OE5DRO-10 | 2026-09-04 00:43:53 | 45.08001 | 9.21189 | 15° | 15km/h | 26554m | 4.9m/s | -48.9°C | 3.5% | 0hPa | 2.5V | 00:00:00 | 00:00:00 | 00:00:00 | |
| DO3MHA-11 | 2026-09-04 00:43:49 | 45.07994 | 9.21180 | 71° | 18km/h | 26533m | 4.4m/s | -49.1°C | 3.5% | 0hPa | 2.5V | 00:00:00 | 02:10:09 | 00:00:00 | |
| RDZBGO | 2026-09-04 00:43:48 | 45.07993 | 9.21175 | 85° | 15km/h | 26529m | 5.6m/s | -49.2°C | 1.2% | 0hPa | 2.5V | 00:00:00 | 00:00:00 | 00:00:00 | |
| IW2NTF | 2026-09-04 00:43:47 | 45.07995 | 9.21159 | 99° | 15km/h | 26512m | 4.4m/s | -49.3°C | 3.6% | 0hPa | 2.5V | 08:30:00 | 02:10:05 | 00:00:00 | |
| DO3MHA-11 | 2026-09-04 00:43:39 | 45.07984 | 9.21122 | 66° | 11km/h | 26482m | 5.8m/s | -49.2°C | 3.6% | 0hPa | 2.6V | 00:00:00 | 02:09:59 | 00:00:00 | |
| IW2NTF | 2026-09-04 00:43:36 | 45.07980 | 9.21103 | 63° | 9km/h | 26461m | 6.1m/s | -49.3°C | 3.6% | 0hPa | 2.6V | 08:30:00 | 02:09:55 | 00:00:00 | |
| OE5DRO-10 | 2026-09-04 00:43:32 | 45.07975 | 9.21099 | 11° | 7km/h | 26446m | 4.8m/s | -49.2°C | 3.6% | 0hPa | 2.5V | 00:00:00 | 00:00:00 | 00:00:00 | |
| DO3MHA-11 | 2026-09-04 00:43:29 | 45.07972 | 9.21096 | 89° | 9km/h | 26429m | 5.1m/s | -49.1°C | 3.6% | 0hPa | 2.5V | 00:00:00 | 02:09:49 | 08:30:00 | |
| DB0UT-7 | 2026-09-04 00:43:28 | 45.07972 | 9.21094 | 74° | 13km/h | 26424m | 4.6m/s | -49.1°C | 3.6% | 0hPa | 2.5V | 00:00:00 | 02:09:48 | 08:30:00 | |
| IW2NTF | 2026-09-04 00:43:27 | 45.07967 | 9.21089 | 9° | 13km/h | 26407m | 5.1m/s | -49.1°C | 3.6% | 0hPa | 2.6V | 08:30:00 | 02:09:45 | 00:00:00 | |
| RDZBGO | 2026-09-04 00:43:27 | 45.07971 | 9.21092 | 49° | 7km/h | 26419m | 5.2m/s | -49.2°C | 1.2% | 0hPa | 2.5V | 00:00:00 | 00:00:00 | 00:00:00 | |
| NBG1-10 | 2026-09-04 00:43:23 | 45.07960 | 9.21089 | 350° | 15km/h | 26399m | 5.0m/s | -49.1°C | 3.6% | 0hPa | 2.5V | 00:00:00 | 02:09:43 | 08:30:00 | |
| DO3MHA-11 | 2026-09-04 00:43:19 | 45.07957 | 9.21096 | 262° | 7km/h | 26378m | 5.2m/s | -49.1°C | 3.6% | 0hPa | 2.5V | 00:00:00 | 02:09:39 | 00:00:00 | |
| IW2NTF | 2026-09-04 00:43:17 | 45.07954 | 9.21107 | 302° | 7km/h | 26357m | 4.5m/s | -49.2°C | 3.6% | 0hPa | 2.5V | 08:30:00 | 02:09:35 | 00:00:00 | |
| OE5DRO-10 | 2026-09-04 00:43:13 | 45.07953 | 9.21111 | 280° | 16km/h | 26346m | 5.5m/s | -49.2°C | 3.6% | 0hPa | 2.6V | 00:00:00 | 00:00:00 | 08:30:00 | |
| DO3MHA-11 | 2026-09-04 00:43:09 | 45.07949 | 9.21121 | 308° | 18km/h | 26326m | 4.5m/s | -49.1°C | 3.6% | 0hPa | 2.5V | 00:00:00 | 02:09:29 | 00:00:00 | |
| IW2NTF | 2026-09-04 00:43:06 | 45.07944 | 9.21157 | 273° | 20km/h | 26295m | 5.7m/s | -49.3°C | 3.6% | 0hPa | 2.5V | 08:30:00 | 02:09:23 | 00:00:00 | |
| DO3MHA-11 | 2026-09-04 00:42:59 | 45.07940 | 9.21185 | 275° | 20km/h | 26276m | 4.8m/s | -49.2°C | 3.6% | 0hPa | 2.5V | 00:00:00 | 02:09:19 | 00:00:00 | |
| DB0UT-7 | 2026-09-04 00:42:58 | 45.07940 | 9.21191 | 264° | 24km/h | 26271m | 5.8m/s | -49.1°C | 3.6% | 0hPa | 2.5V | 00:00:00 | 00:00:00 | 00:00:00 | |
| OE5DRO-10 | 2026-09-04 00:42:54 | 45.07945 | 9.21216 | 267° | 24km/h | 26251m | 5.4m/s | 0°C | 0% | 0hPa | 2.5V | 00:00:00 | 00:00:00 | 00:00:00 | |
| NBG1-10 | 2026-09-04 00:42:50 | 45.07945 | 9.21249 | 261° | 26km/h | 26230m | 5.5m/s | -49.0°C | 3.6% | 0hPa | 2.5V | 00:00:00 | 02:09:10 | 00:00:00 | |
| DO3MHA-11 | 2026-09-04 00:42:49 | 45.07946 | 9.21258 | 256° | 26km/h | 26225m | 5.0m/s | -49.0°C | 3.6% | 0hPa | 2.5V | 00:00:00 | 02:09:09 | 00:00:00 | |
| RDZBGO | 2026-09-04 00:42:45 | 45.07951 | 9.21285 | 260° | 27km/h | 26209m | 5.0m/s | -49.0°C | 1.2% | 0hPa | 2.5V | 00:00:00 | 00:00:00 | 00:00:00 | |
| IW2NTF | 2026-09-04 00:42:44 | 45.07966 | 9.21351 | 263° | 22km/h | 26168m | 4.2m/s | -49.1°C | 3.6% | 0hPa | 2.5V | 08:30:00 | 02:08:58 | 00:00:00 | |
| DO3MHA-11 | 2026-09-04 00:42:38 | 45.07966 | 9.21351 | 264° | 27km/h | 26169m | 4.1m/s | -49.0°C | 3.6% | 0hPa | 2.6V | 00:00:00 | 02:08:58 | 00:00:00 | |
| OE5DRO-10 | 2026-09-04 00:42:35 | 45.07970 | 9.21373 | 246° | 29km/h | 26153m | 4.8m/s | -49.1°C | 3.6% | 0hPa | 2.6V | 00:00:00 | 00:00:00 | 00:00:00 | |
| IW2NTF | 2026-09-04 00:42:34 | 45.07986 | 9.21440 | 242° | 29km/h | 26119m | 5.1m/s | -49.2°C | 3.7% | 0hPa | 2.6V | 08:30:00 | 02:08:48 | 00:00:00 | |
| DB0UT-7 | 2026-09-04 00:42:28 | 45.07986 | 9.21440 | 243° | 26km/h | 26119m | 5.0m/s | -49.1°C | 3.7% | 0hPa | 2.6V | 00:00:00 | 02:08:48 | 00:00:00 | |
| DO3MHA-11 | 2026-09-04 00:42:27 | 45.07989 | 9.21448 | 239° | 29km/h | 26114m | 4.4m/s | -49.1°C | 3.6% | 0hPa | 2.6V | 00:00:00 | 02:08:47 | 00:00:00 | |
| RDZBGO | 2026-09-04 00:42:25 | 45.07996 | 9.21464 | 245° | 26km/h | 26105m | 5.6m/s | -49.1°C | 1.2% | 0hPa | 2.5V | 00:00:00 | 00:00:00 | 00:00:00 | |
| IW2NTF | 2026-09-04 00:42:24 | 45.08021 | 9.21526 | 234° | 35km/h | 26070m | 4.8m/s | -49°C | 3.6% | 0hPa | 2.5V | 08:30:00 | 02:08:38 | 00:00:00 | |
| DO3MHA-11 | 2026-09-04 00:42:17 | 45.08026 | 9.21536 | 239° | 26km/h | 26065m | 5.8m/s | -48.9°C | 3.6% | 0hPa | 2.6V | 00:00:00 | 02:08:37 | 00:00:00 | |
| OE5DRO-10 | 2026-09-04 00:42:16 | 45.08030 | 9.21547 | 243° | 24km/h | 26059m | 4.6m/s | -48.9°C | 3.6% | 0hPa | 2.6V | 00:00:00 | 00:00:00 | 00:00:00 | |
| IW2NTF | 2026-09-04 00:42:09 | 45.08058 | 9.21603 | 238° | 18km/h | 26020m | 4.8m/s | -48.7°C | 3.6% | 0hPa | 2.5V | 08:30:00 | 02:08:28 | 00:00:00 | |
| DO3MHA-11 | 2026-09-04 00:42:07 | 45.08060 | 9.21609 | 239° | 24km/h | 26016m | 4.3m/s | -48.7°C | 3.5% | 0hPa | 2.5V | 00:00:00 | 02:08:27 | 00:00:00 | |
| IW2NTF | 2026-09-04 00:42:04 | 45.08094 | 9.21667 | 204° | 16km/h | 25969m | 5.2m/s | -48.5°C | 3.5% | 0hPa | 2.5V | 08:30:00 | 02:08:18 | 00:00:00 | |
| RDZBGO | 2026-09-04 00:42:03 | 45.08072 | 9.21630 | 231° | 27km/h | 26000m | 4.7m/s | -48.6°C | 1.1% | 0hPa | 2.5V | 00:00:00 | 00:00:00 | 00:00:00 | |
| DB0UT-7 | 2026-09-04 00:41:58 | 45.08094 | 9.21667 | 205° | 13km/h | 25970m | 5.1m/s | -48.5°C | 3.5% | 0hPa | 2.5V | 00:00:00 | 00:00:00 | 00:00:00 | |
| DO3MHA-11 | 2026-09-04 00:41:57 | 45.08098 | 9.21669 | 196° | 16km/h | 25965m | 4.4m/s | -48.5°C | 3.5% | 0hPa | 2.5V | 00:00:00 | 02:08:17 | 08:30:00 | |
| IW2NTF | 2026-09-04 00:41:54 | 45.08124 | 9.21706 | 211° | 16km/h | 25922m | 3.9m/s | -48.4°C | 3.4% | 0hPa | 2.6V | 08:30:00 | 02:08:08 | 00:00:00 | |
| DO3MHA-11 | 2026-09-04 00:41:47 | 45.08127 | 9.21709 | 214° | 11km/h | 25918m | 4.8m/s | -48.3°C | 3.4% | 0hPa | 2.5V | 00:00:00 | 02:08:07 | 00:00:00 | |
| IW2NTF | 2026-09-04 00:41:44 | 45.08148 | 9.21723 | 237° | 9km/h | 25874m | 5.4m/s | -48.6°C | 3.4% | 0hPa | 2.5V | 08:30:00 | 02:07:58 | 00:00:00 | |
| RDZBGO | 2026-09-04 00:41:42 | 45.08136 | 9.21718 | 204° | 9km/h | 25898m | 5.0m/s | -48.5°C | 1.1% | 0hPa | 2.5V | 00:00:00 | 00:00:00 | 00:00:00 | |
| OE5DRO-10 | 2026-09-04 00:41:38 | 45.08148 | 9.21723 | 238° | 9km/h | 25874m | 5.3m/s | -48.6°C | 3.4% | 0hPa | 2.5V | 00:00:00 | 00:00:00 | 00:00:00 | |
| DO3MHA-11 | 2026-09-04 00:41:37 | 45.08149 | 9.21726 | 253° | 9km/h | 25869m | 4.5m/s | -48.6°C | 3.5% | 0hPa | 2.5V | 00:00:00 | 02:07:57 | 00:00:00 | |
| IW2NTF | 2026-09-04 00:41:29 | 45.08164 | 9.21736 | 77° | 4km/h | 25824m | 4.4m/s | -48.6°C | 3.4% | 0hPa | 2.5V | 08:30:00 | 02:07:48 | 00:00:00 | |
| DB0UT-7 | 2026-09-04 00:41:28 | 45.08164 | 9.21736 | 78° | 5km/h | 25824m | 4.4m/s | -48.6°C | 3.4% | 0hPa | 2.5V | 00:00:00 | 02:07:48 | 00:00:00 | |
| DO3MHA-11 | 2026-09-04 00:41:27 | 45.08164 | 9.21734 | 79° | 7km/h | 25820m | 5.2m/s | -48.6°C | 3.4% | 0hPa | 2.5V | 00:00:00 | 02:07:47 | 00:00:00 | |
| IW2NTF | 2026-09-04 00:41:23 | 45.08165 | 9.21739 | 229° | 7km/h | 25775m | 4.8m/s | -49°C | 3.5% | 0hPa | 2.5V | 08:30:00 | 02:07:38 | 00:00:00 | |
| RDZBGO | 2026-09-04 00:41:23 | 45.08164 | 9.21725 | 0° | 0km/h | 25801m | 5.2m/s | -48.8°C | 1.1% | 0hPa | 2.6V | 00:00:00 | 00:00:00 | 00:00:00 | |
| OE5DRO-10 | 2026-09-04 00:41:19 | 45.08164 | 9.21736 | 252° | 5km/h | 25781m | 5.4m/s | -48.9°C | 0% | 0hPa | 2.6V | 00:00:00 | 00:00:00 | 00:00:00 | |
| DO3MHA-11 | 2026-09-04 00:41:17 | 45.08166 | 9.21740 | 199° | 5km/h | 25771m | 3.9m/s | -49.0°C | 3.5% | 0hPa | 2.6V | 00:00:00 | 02:07:37 | 00:00:00 | |
| IW2NTF | 2026-09-04 00:41:13 | 45.08162 | 9.21732 | 208° | 4km/h | 25728m | 4.7m/s | -49.1°C | 3.4% | 0hPa | 2.6V | 08:30:00 | 02:07:28 | 00:00:00 | |
| NBG1-10 | 2026-09-04 00:41:11 | 45.08162 | 9.21734 | 37° | 9km/h | 25743m | 5.0m/s | -49.0°C | 3.4% | 0hPa | 2.5V | 00:00:00 | 02:07:31 | 00:00:00 | |
| DO3MHA-11 | 2026-09-04 00:41:07 | 45.08162 | 9.21733 | 242° | 5km/h | 25723m | 5.4m/s | -49.1°C | 3.5% | 0hPa | 2.5V | 00:00:00 | 02:07:27 | 00:00:00 | |
| IW2NTF | 2026-09-04 00:41:04 | 45.08160 | 9.21736 | 354° | 7km/h | 25681m | 5.5m/s | -49.5°C | 3.5% | 0hPa | 2.5V | 08:30:00 | 02:07:18 | 00:00:00 | |
| RDZBGO | 2026-09-04 00:41:01 | 45.08162 | 9.21741 | 81° | 2km/h | 25700m | 5.3m/s | -49.4°C | 1.1% | 0hPa | 2.6V | 00:00:00 | 00:00:00 | 00:00:00 | |
| OE5DRO-10 | 2026-09-04 00:41:00 | 45.08161 | 9.21738 | 76° | 7km/h | 25691m | 4.0m/s | 0°C | 0% | 0hPa | 2.6V | 00:00:00 | 00:00:00 | 00:00:00 | |
| DB0UT-7 | 2026-09-04 00:40:58 | 45.08160 | 9.21736 | 355° | 9km/h | 25681m | 5.5m/s | -49.5°C | 3.5% | 0hPa | 2.6V | 00:00:00 | 00:00:00 | 00:00:00 | |
| DO3MHA-11 | 2026-09-04 00:40:57 | 45.08158 | 9.21736 | 337° | 7km/h | 25676m | 4.9m/s | -49.6°C | 3.5% | 0hPa | 2.6V | 00:00:00 | 02:07:17 | 00:00:00 | |
| IW2NTF | 2026-09-04 00:40:54 | 45.08146 | 9.21751 | 287° | 4km/h | 25631m | 5.5m/s | -50.5°C | 3.7% | 0hPa | 2.5V | 08:30:00 | 02:07:08 | 00:00:00 | |
| DO3MHA-11 | 2026-09-04 00:40:47 | 45.08145 | 9.21752 | 283° | 11km/h | 25626m | 4.9m/s | -50.5°C | 3.7% | 0hPa | 2.5V | 00:00:00 | 02:07:07 | 00:00:00 | |
| IW2NTF | 2026-09-04 00:40:41 | 45.08143 | 9.21784 | 206° | 7km/h | 25585m | 4.7m/s | -50.8°C | 3.8% | 0hPa | 2.5V | 08:30:00 | 02:06:58 | 00:00:00 | |
| DO3MHA-11 | 2026-09-04 00:40:37 | 45.08145 | 9.21784 | 169° | 11km/h | 25580m | 4.3m/s | -50.7°C | 3.8% | 0hPa | 2.6V | 00:00:00 | 02:06:57 | 00:00:00 | |
| IW2NTF | 2026-09-04 00:40:33 | 45.08165 | 9.21797 | 216° | 13km/h | 25538m | 4.8m/s | -50.8°C | 3.7% | 0hPa | 2.6V | 08:30:00 | 02:06:48 | 00:00:00 | |
| DB0UT-7 | 2026-09-04 00:40:28 | 45.08165 | 9.21797 | 217° | 9km/h | 25538m | 4.8m/s | -50.7°C | 3.7% | 0hPa | 2.6V | 00:00:00 | 02:06:48 | 00:00:00 | |
| DO3MHA-11 | 2026-09-04 00:40:27 | 45.08168 | 9.21799 | 227° | 9km/h | 25533m | 5.0m/s | -50.7°C | 3.8% | 0hPa | 2.6V | 00:00:00 | 02:06:47 | 08:30:00 | |
| OE5DRO-10 | 2026-09-04 00:40:22 | 45.08176 | 9.21807 | 187° | 11km/h | 25510m | 4.4m/s | 0°C | 0% | 0hPa | 2.5V | 00:00:00 | 00:00:00 | 00:00:00 | |
| RDZBGO | 2026-09-04 00:40:21 | 45.08179 | 9.21808 | 181° | 11km/h | 25505m | 4.8m/s | -51.0°C | 1.2% | 0hPa | 2.5V | 00:00:00 | 00:00:00 | 00:00:00 | |
| IW2NTF | 2026-09-04 00:40:19 | 45.08187 | 9.21806 | 171° | 11km/h | 25489m | 4.7m/s | -51°C | 3.8% | 0hPa | 2.5V | 08:30:00 | 02:06:38 | 00:00:00 | |
| DO3MHA-11 | 2026-09-04 00:40:17 | 45.08190 | 9.21806 | 179° | 9km/h | 25484m | 5.5m/s | -51.0°C | 3.8% | 0hPa | 2.5V | 00:00:00 | 02:06:37 | 00:00:00 | |
| IW2NTF | 2026-09-04 00:40:13 | 45.08210 | 9.21818 | 149° | 11km/h | 25441m | 4.5m/s | -51.2°C | 3.8% | 0hPa | 2.5V | 08:30:00 | 02:06:28 | 00:00:00 | |
| DO3MHA-11 | 2026-09-04 00:40:07 | 45.08212 | 9.21815 | 135° | 9km/h | 25438m | 3.8m/s | -51.1°C | 3.8% | 0hPa | 2.6V | 00:00:00 | 02:06:27 | 00:00:00 | |
| IW2NTF | 2026-09-04 00:40:04 | 45.08218 | 9.21790 | 142° | 2km/h | 25394m | 4.8m/s | -51.1°C | 3.7% | 0hPa | 2.6V | 08:30:00 | 02:06:18 | 00:00:00 | |
| RDZBGO | 2026-09-04 00:40:00 | 45.08217 | 9.21791 | 140° | 5km/h | 25403m | 4.3m/s | -51.1°C | 0% | 0hPa | 2.5V | 00:00:00 | 00:00:00 | 00:00:00 | |
| DB0UT-7 | 2026-09-04 00:39:58 | 45.08218 | 9.21790 | 143° | 15km/h | 25394m | 4.8m/s | -51.1°C | 3.7% | 0hPa | 2.5V | 00:00:00 | 00:00:00 | 00:00:00 | |
| DO3MHA-11 | 2026-09-04 00:39:57 | 45.08218 | 9.21790 | 3° | 13km/h | 25389m | 5.6m/s | -51.1°C | 3.7% | 0hPa | 2.5V | 00:00:00 | 02:06:17 | 00:00:00 | |
| IW2NTF | 2026-09-04 00:39:53 | 45.08212 | 9.21756 | 68° | 18km/h | 25346m | 5.4m/s | -51.9°C | 3.9% | 0hPa | 2.6V | 08:30:00 | 02:06:08 | 00:00:00 | |
| DO3MHA-11 | 2026-09-04 00:39:47 | 45.08210 | 9.21751 | 51° | 15km/h | 25342m | 4.6m/s | -51.9°C | 3.9% | 0hPa | 2.5V | 00:00:00 | 02:06:07 | 00:00:00 | |
| NBG1-10 | 2026-09-04 00:39:46 | 45.08206 | 9.21747 | 37° | 20km/h | 25337m | 4.4m/s | -51.9°C | 3.9% | 0hPa | 2.5V | 00:00:00 | 02:06:06 | 00:00:00 | |
| IW2NTF | 2026-09-04 00:39:44 | 45.08187 | 9.21720 | 49° | 22km/h | 25298m | 4.6m/s | -52°C | 3.9% | 0hPa | 2.5V | 08:30:00 | 02:05:58 | 00:00:00 | |
| RDZBGO | 2026-09-04 00:39:39 | 45.08190 | 9.21726 | 51° | 20km/h | 25304m | 5.3m/s | -52.0°C | 0% | 0hPa | 2.5V | 00:00:00 | 00:00:00 | 00:00:00 | |
| DO3MHA-11 | 2026-09-04 00:39:37 | 45.08183 | 9.21714 | 48° | 18km/h | 25294m | 5.3m/s | -52.0°C | 3.9% | 0hPa | 2.5V | 00:00:00 | 02:05:57 | 00:00:00 | |
| DB0UT-7 | 2026-09-04 00:39:28 | 45.08140 | 9.21707 | 2° | 20km/h | 25248m | 4.6m/s | -52.1°C | 3.9% | 0hPa | 2.5V | 00:00:00 | 02:05:48 | 00:00:00 | |
| DO3MHA-11 | 2026-09-04 00:39:27 | 45.08136 | 9.21706 | 13° | 20km/h | 25244m | 5.2m/s | -52.1°C | 4.0% | 0hPa | 2.5V | 00:00:00 | 02:05:47 | 00:00:00 | |
| RDZBGO | 2026-09-04 00:39:18 | 45.08093 | 9.21694 | 353° | 26km/h | 25200m | 6.0m/s | 0°C | 0% | 0hPa | 2.6V | 00:00:00 | 00:00:00 | 00:00:00 | |
| DO3MHA-11 | 2026-09-04 00:39:17 | 45.08086 | 9.21695 | 348° | 22km/h | 25194m | 4.8m/s | -52.3°C | 4.0% | 0hPa | 2.6V | 00:00:00 | 02:05:37 | 00:00:00 | |
| NBG1-10 | 2026-09-04 00:39:13 | 45.08062 | 9.21709 | 330° | 18km/h | 25175m | 4.8m/s | -52.3°C | 4.0% | 0hPa | 2.6V | 00:00:00 | 02:05:33 | 00:00:00 | |
| DO3MHA-11 | 2026-09-04 00:39:06 | 45.08031 | 9.21727 | 335° | 18km/h | 25139m | 4.6m/s | -52.5°C | 4.1% | 0hPa | 2.5V | 00:00:00 | 02:05:26 | 00:00:00 | |
| IW2NTF | 2026-09-04 00:39:04 | 45.07999 | 9.21753 | 331° | 16km/h | 25104m | 4.3m/s | -52.5°C | 4% | 0hPa | 2.5V | 08:30:00 | 02:05:19 | 00:00:00 | |
| DB0UT-7 | 2026-09-04 00:38:58 | 45.07995 | 9.21756 | 336° | 18km/h | 25099m | 5.5m/s | -52.5°C | 4.0% | 0hPa | 2.5V | 00:00:00 | 00:00:00 | 08:30:00 | |
| DO3MHA-11 | 2026-09-04 00:38:56 | 45.07987 | 9.21761 | 335° | 15km/h | 25089m | 4.9m/s | -52.5°C | 4.0% | 0hPa | 2.6V | 00:00:00 | 02:05:16 | 08:30:00 | |
| IW2NTF | 2026-09-04 00:38:55 | 45.07970 | 9.21786 | 321° | 20km/h | 25052m | 5m/s | -52.7°C | 4.1% | 0hPa | 2.6V | 08:30:00 | 02:05:09 | 00:00:00 | |
| DO3MHA-11 | 2026-09-04 00:38:46 | 45.07958 | 9.21799 | 320° | 16km/h | 25037m | 4.3m/s | -52.8°C | 4.1% | 0hPa | 2.6V | 00:00:00 | 02:05:06 | 00:00:00 | |
| IW2NTF | 2026-09-04 00:38:44 | 45.07935 | 9.21825 | 274° | 11km/h | 25003m | 5.8m/s | -52.9°C | 4.1% | 0hPa | 2.6V | 08:30:00 | 02:04:59 | 00:00:00 | |
| NBG1-10 | 2026-09-04 00:38:40 | 45.07936 | 9.21821 | 309° | 15km/h | 25009m | 5.4m/s | -52.9°C | 4.1% | 0hPa | 2.5V | 00:00:00 | 02:05:00 | 00:00:00 | |
| DO3MHA-11 | 2026-09-04 00:38:36 | 45.07937 | 9.21841 | 265° | 18km/h | 24990m | 5.6m/s | -52.9°C | 4.2% | 0hPa | 2.5V | 00:00:00 | 02:04:56 | 00:00:00 | |
| IW2NTF | 2026-09-04 00:38:34 | 45.07926 | 9.21892 | 288° | 15km/h | 24954m | 4.4m/s | -52.9°C | 4.1% | 0hPa | 2.5V | 08:30:00 | 02:04:49 | 00:00:00 | |
| DB0UT-7 | 2026-09-04 00:38:28 | 45.07924 | 9.21896 | 296° | 13km/h | 24950m | 5.5m/s | -52.9°C | 4.1% | 0hPa | 2.6V | 00:00:00 | 02:04:48 | 00:00:00 | |
| DO3MHA-11 | 2026-09-04 00:38:26 | 45.07922 | 9.21903 | 289° | 16km/h | 24940m | 4.1m/s | -52.8°C | 4.2% | 0hPa | 2.6V | 00:00:00 | 02:04:46 | 00:00:00 | |
| IW2NTF | 2026-09-04 00:38:25 | 45.07929 | 9.21940 | 284° | 18km/h | 24905m | 5.2m/s | -52.9°C | 4.2% | 0hPa | 2.5V | 08:30:00 | 02:04:39 | 00:00:00 | |
| DO3MHA-11 | 2026-09-04 00:38:16 | 45.07923 | 9.21957 | 302° | 11km/h | 24892m | 4.4m/s | -52.8°C | 4.1% | 0hPa | 2.6V | 00:00:00 | 02:04:36 | 00:00:00 | |
| IW2NTF | 2026-09-04 00:38:15 | 45.07928 | 9.21984 | 230° | 7km/h | 24857m | 4.8m/s | -52.8°C | 4.1% | 0hPa | 2.6V | 08:30:00 | 02:04:29 | 00:00:00 | |
| NBG1-10 | 2026-09-04 00:38:07 | 45.07931 | 9.21987 | 202° | 13km/h | 24848m | 5.7m/s | -52.7°C | 4.1% | 0hPa | 2.5V | 00:00:00 | 02:04:27 | 00:00:00 | |
| IW2NTF | 2026-09-04 00:38:02 | 45.07932 | 9.22019 | 253° | 18km/h | 24807m | 4.9m/s | -52.8°C | 4.1% | 0hPa | 2.5V | 08:30:00 | 02:04:19 | 00:00:00 | |
| DB0UT-7 | 2026-09-04 00:37:58 | 45.07933 | 9.22026 | 246° | 13km/h | 24803m | 4.8m/s | -52.8°C | 4.1% | 0hPa | 2.5V | 00:00:00 | 00:00:00 | 00:00:00 | |
| DO3MHA-11 | 2026-09-04 00:37:56 | 45.07937 | 9.22037 | 247° | 11km/h | 24792m | 5.2m/s | -52.8°C | 4.1% | 0hPa | 2.5V | 00:00:00 | 02:04:16 | 00:00:00 | |
| IW2NTF | 2026-09-04 00:37:53 | 45.07943 | 9.22055 | 304° | 11km/h | 24756m | 5.6m/s | -53°C | 4.1% | 0hPa | 2.5V | 08:30:00 | 02:04:09 | 00:00:00 | |
| DO3MHA-11 | 2026-09-04 00:37:46 | 45.07937 | 9.22072 | 284° | 15km/h | 24742m | 5.3m/s | -52.9°C | 4.2% | 0hPa | 2.5V | 00:00:00 | 02:04:06 | 00:00:00 | |
| IW2NTF | 2026-09-04 00:37:39 | 45.07943 | 9.22110 | 234° | 7km/h | 24707m | 4.9m/s | -52.9°C | 4.2% | 0hPa | 2.5V | 08:30:00 | 02:03:59 | 00:00:00 | |
| DO3MHA-11 | 2026-09-04 00:37:36 | 45.07946 | 9.22115 | 243° | 13km/h | 24693m | 3.7m/s | -52.8°C | 4.2% | 0hPa | 2.6V | 00:00:00 | 02:03:56 | 00:00:00 | |
| IW2NTF | 2026-09-04 00:37:34 | 45.07941 | 9.22144 | 250° | 16km/h | 24658m | 4m/s | -52.8°C | 4.2% | 0hPa | 2.6V | 08:30:00 | 02:03:49 | 00:00:00 | |
| NBG1-10 | 2026-09-04 00:37:34 | 45.07945 | 9.22119 | 306° | 9km/h | 24683m | 5.7m/s | -52.8°C | 4.2% | 0hPa | 2.6V | 00:00:00 | 02:03:54 | 08:30:00 | |
| DB0UT-7 | 2026-09-04 00:37:28 | 45.07942 | 9.22149 | 244° | 9km/h | 24654m | 4.4m/s | -52.7°C | 4.2% | 0hPa | 2.5V | 00:00:00 | 02:03:48 | 00:00:00 | |
| DO3MHA-11 | 2026-09-04 00:37:26 | 45.07945 | 9.22156 | 252° | 7km/h | 24644m | 4.5m/s | -52.7°C | 4.2% | 0hPa | 2.5V | 00:00:00 | 02:03:46 | 08:30:00 | |
| IW2NTF | 2026-09-04 00:37:24 | 45.07948 | 9.22176 | 267° | 4km/h | 24611m | 5.8m/s | -52.6°C | 4.1% | 0hPa | 2.5V | 08:30:00 | 02:03:39 | 00:00:00 | |
| DO3MHA-11 | 2026-09-04 00:37:16 | 45.07945 | 9.22180 | 310° | 13km/h | 24597m | 4.6m/s | -52.5°C | 4.2% | 0hPa | 2.5V | 00:00:00 | 02:03:36 | 00:00:00 | |
| IW2NTF | 2026-09-04 00:37:14 | 45.07930 | 9.22212 | 324° | 7km/h | 24563m | 4.2m/s | -52.4°C | 4.1% | 0hPa | 2.5V | 08:30:00 | 02:03:29 | 00:00:00 | |
| DO3MHA-11 | 2026-09-04 00:37:06 | 45.07927 | 9.22217 | 280° | 7km/h | 24549m | 4.4m/s | -52.2°C | 4.1% | 0hPa | 2.5V | 00:00:00 | 02:03:26 | 00:00:00 | |
| IW2NTF | 2026-09-04 00:37:04 | 45.07925 | 9.22228 | 290° | 15km/h | 24514m | 4.6m/s | -52.1°C | 4% | 0hPa | 2.5V | 08:30:00 | 02:03:19 | 00:00:00 | |
| DB0UT-7 | 2026-09-04 00:36:58 | 45.07924 | 9.22233 | 290° | 11km/h | 24510m | 3.9m/s | -52.1°C | 4.0% | 0hPa | 2.5V | 00:00:00 | 00:00:00 | 00:00:00 | |
| DO3MHA-11 | 2026-09-04 00:36:56 | 45.07921 | 9.22241 | 303° | 7km/h | 24501m | 5.1m/s | -52.0°C | 3.9% | 0hPa | 2.5V | 00:00:00 | 02:03:16 | 00:00:00 | |
| IW2NTF | 2026-09-04 00:36:55 | 45.07918 | 9.22251 | 230° | 7km/h | 24467m | 5.6m/s | -52.4°C | 4% | 0hPa | 2.6V | 08:30:00 | 02:03:09 | 00:00:00 | |
| DO3MHA-11 | 2026-09-04 00:36:46 | 45.07923 | 9.22260 | 243° | 11km/h | 24452m | 5.4m/s | -52.4°C | 4.1% | 0hPa | 2.5V | 00:00:00 | 02:03:06 | 00:00:00 | |
| IW2NTF | 2026-09-04 00:36:45 | 45.07923 | 9.22291 | 331° | 5km/h | 24418m | 4.4m/s | -52.6°C | 4% | 0hPa | 2.5V | 08:30:00 | 02:02:59 | 00:00:00 | |
| DO3MHA-11 | 2026-09-04 00:36:36 | 45.07919 | 9.22297 | 291° | 15km/h | 24403m | 4.1m/s | -52.8°C | 4.1% | 0hPa | 2.5V | 00:00:00 | 02:02:56 | 00:00:00 | |
| IW2NTF | 2026-09-04 00:36:34 | 45.07916 | 9.22329 | 289° | 24km/h | 24369m | 4.7m/s | -52.9°C | 4.2% | 0hPa | 2.5V | 08:30:00 | 02:02:49 | 00:00:00 | |
| DB0UT-7 | 2026-09-04 00:36:28 | 45.07914 | 9.22336 | 296° | 11km/h | 24365m | 4.2m/s | -52.8°C | 4.2% | 0hPa | 2.6V | 00:00:00 | 02:02:48 | 00:00:00 | |
| DO3MHA-11 | 2026-09-04 00:36:26 | 45.07909 | 9.22349 | 304° | 11km/h | 24354m | 5.3m/s | -52.8°C | 4.2% | 0hPa | 2.6V | 00:00:00 | 02:02:46 | 00:00:00 | |
| IW2NTF | 2026-09-04 00:36:24 | 45.07897 | 9.22376 | 291° | 7km/h | 24320m | 6m/s | -52.8°C | 4.2% | 0hPa | 2.6V | 08:30:00 | 02:02:39 | 00:00:00 | |
| DO3MHA-11 | 2026-09-04 00:36:16 | 45.07896 | 9.22383 | 275° | 11km/h | 24305m | 6.0m/s | -52.7°C | 4.1% | 0hPa | 2.5V | 00:00:00 | 02:02:36 | 00:00:00 | |
| IW2NTF | 2026-09-04 00:36:14 | 45.07883 | 9.22399 | 8° | 15km/h | 24269m | 4.8m/s | -52.7°C | 4.1% | 0hPa | 2.5V | 08:30:00 | 02:02:29 | 00:00:00 | |
| DO3MHA-11 | 2026-09-04 00:36:06 | 45.07873 | 9.22399 | 353° | 7km/h | 24255m | 4.1m/s | -52.6°C | 4.1% | 0hPa | 2.5V | 00:00:00 | 02:02:26 | 00:00:00 | |
| IW2NTF | 2026-09-04 00:36:05 | 45.07872 | 9.22412 | 246° | 9km/h | 24219m | 4.7m/s | -52.7°C | 4.2% | 0hPa | 2.5V | 08:30:00 | 02:02:19 | 00:00:00 | |
| DB0UT-7 | 2026-09-04 00:35:58 | 45.07872 | 9.22414 | 242° | 9km/h | 24215m | 5.4m/s | -52.6°C | 4.2% | 0hPa | 2.5V | 00:00:00 | 00:00:00 | 00:00:00 | |
| NBG1-10 | 2026-09-04 00:35:57 | 45.07873 | 9.22415 | 304° | 9km/h | 24209m | 4.6m/s | -52.6°C | 4.1% | 0hPa | 2.6V | 00:00:00 | 02:02:17 | 00:00:00 | |
| DO3MHA-11 | 2026-09-04 00:35:56 | 45.07872 | 9.22415 | 11° | 11km/h | 24205m | 4.3m/s | -52.5°C | 4.1% | 0hPa | 2.6V | 00:00:00 | 02:02:16 | 08:30:00 | |
| IW2NTF | 2026-09-04 00:35:54 | 45.07849 | 9.22405 | 34° | 9km/h | 24169m | 4m/s | -52.5°C | 4.1% | 0hPa | 2.5V | 08:30:00 | 02:02:09 | 00:00:00 | |
| DO3MHA-11 | 2026-09-04 00:35:46 | 45.07847 | 9.22407 | 262° | 7km/h | 24154m | 4.8m/s | -52.4°C | 4.1% | 0hPa | 2.6V | 00:00:00 | 02:02:06 | 00:00:00 | |
| IW2NTF | 2026-09-04 00:35:41 | 45.07847 | 9.22418 | 354° | 11km/h | 24118m | 4.5m/s | -52.6°C | 4.1% | 0hPa | 2.6V | 08:30:00 | 02:01:59 | 00:00:00 | |
| DO3MHA-11 | 2026-09-04 00:35:36 | 45.07840 | 9.22414 | 40° | 7km/h | 24103m | 4.2m/s | -52.5°C | 4.1% | 0hPa | 2.5V | 00:00:00 | 02:01:56 | 00:00:00 | |
| IW2NTF | 2026-09-04 00:35:34 | 45.07836 | 9.22423 | 235° | 7km/h | 24068m | 5.6m/s | -52.6°C | 4% | 0hPa | 2.5V | 08:30:00 | 02:01:49 | 00:00:00 | |
| DB0UT-7 | 2026-09-04 00:35:28 | 45.07837 | 9.22424 | 223° | 11km/h | 24063m | 4.6m/s | -52.5°C | 4.0% | 0hPa | 2.6V | 00:00:00 | 02:01:48 | 00:00:00 | |
| DO3MHA-11 | 2026-09-04 00:35:26 | 45.07838 | 9.22427 | 296° | 11km/h | 24054m | 5.6m/s | -52.6°C | 4.1% | 0hPa | 2.6V | 00:00:00 | 02:01:46 | 00:00:00 | |
| IW2NTF | 2026-09-04 00:35:25 | 45.07820 | 9.22417 | 9° | 9km/h | 24018m | 5.9m/s | -52.7°C | 4.1% | 0hPa | 2.5V | 08:30:00 | 02:01:39 | 00:00:00 | |
| NBG1-10 | 2026-09-04 00:35:23 | 45.07832 | 9.22427 | 21° | 13km/h | 24038m | 5.6m/s | -52.6°C | 4.1% | 0hPa | 2.5V | 00:00:00 | 02:01:43 | 00:00:00 | |
| DO3MHA-11 | 2026-09-04 00:35:16 | 45.07815 | 9.22422 | 296° | 9km/h | 24004m | 4.7m/s | -52.7°C | 4.0% | 0hPa | 2.6V | 00:00:00 | 02:01:36 | 00:00:00 | |
| IW2NTF | 2026-09-04 00:35:11 | 45.07805 | 9.22433 | 340° | 13km/h | 23968m | 4.8m/s | -53°C | 4.1% | 0hPa | 2.6V | 08:30:00 | 02:01:29 | 00:00:00 | |
| DO3MHA-11 | 2026-09-04 00:35:06 | 45.07794 | 9.22436 | 345° | 15km/h | 23953m | 4.2m/s | -53.0°C | 4.1% | 0hPa | 2.6V | 00:00:00 | 02:01:26 | 00:00:00 | |
| IW2NTF | 2026-09-04 00:35:03 | 45.07780 | 9.22473 | 296° | 11km/h | 23906m | 5.9m/s | -53°C | 4.1% | 0hPa | 2.6V | 08:30:00 | 02:01:17 | 00:00:00 | |
| DB0UT-7 | 2026-09-04 00:34:58 | 45.07781 | 9.22469 | 288° | 18km/h | 23912m | 4.9m/s | -52.9°C | 4.1% | 0hPa | 2.5V | 00:00:00 | 00:00:00 | 00:00:00 | |
| DO3MHA-11 | 2026-09-04 00:34:56 | 45.07779 | 9.22476 | 306° | 18km/h | 23901m | 5.2m/s | -53.0°C | 4.2% | 0hPa | 2.5V | 00:00:00 | 02:01:16 | 00:00:00 | |
| IW2NTF | 2026-09-04 00:34:53 | 45.07755 | 9.22519 | 268° | 27km/h | 23857m | 4.9m/s | -53.2°C | 4.2% | 0hPa | 2.5V | 08:30:00 | 02:01:07 | 00:00:00 | |
| NBG1-10 | 2026-09-04 00:34:50 | 45.07760 | 9.22497 | 311° | 16km/h | 23873m | 4.4m/s | 0°C | 0% | 0hPa | 2.5V | 00:00:00 | 02:01:10 | 00:00:00 | |
| DO3MHA-11 | 2026-09-04 00:34:46 | 45.07755 | 9.22529 | 259° | 20km/h | 23852m | 5.7m/s | -53.1°C | 4.2% | 0hPa | 2.5V | 00:00:00 | 02:01:06 | 00:00:00 | |
| IW2NTF | 2026-09-04 00:34:42 | 45.07766 | 9.22589 | 273° | 9km/h | 23805m | 5.5m/s | -53°C | 4.2% | 0hPa | 2.5V | 08:30:00 | 02:00:57 | 00:00:00 | |
| DO3MHA-11 | 2026-09-04 00:34:36 | 45.07766 | 9.22592 | 268° | 15km/h | 23800m | 5.0m/s | -52.9°C | 4.2% | 0hPa | 2.5V | 00:00:00 | 02:00:56 | 00:00:00 | |
| IW2NTF | 2026-09-04 00:34:32 | 45.07782 | 9.22637 | 219° | 13km/h | 23754m | 4.8m/s | -52.9°C | 4.2% | 0hPa | 2.5V | 08:30:00 | 02:00:47 | 00:00:00 | |
| DB0UT-7 | 2026-09-04 00:34:28 | 45.07779 | 9.22634 | 214° | 11km/h | 23759m | 4.3m/s | -52.9°C | 4.2% | 0hPa | 2.6V | 00:00:00 | 02:00:48 | 08:30:00 | |
| DO3MHA-11 | 2026-09-04 00:34:26 | 45.07784 | 9.22640 | 236° | 11km/h | 23749m | 5.4m/s | -52.9°C | 4.2% | 0hPa | 2.5V | 00:00:00 | 02:00:46 | 08:30:00 | |
| IW2NTF | 2026-09-04 00:34:23 | 45.07795 | 9.22667 | 192° | 11km/h | 23701m | 5.5m/s | -52.8°C | 4.1% | 0hPa | 2.6V | 08:30:00 | 02:00:37 | 00:00:00 | |
| NBG1-10 | 2026-09-04 00:34:17 | 45.07795 | 9.22667 | 193° | 15km/h | 23702m | 5.4m/s | -52.7°C | 4.1% | 0hPa | 2.5V | 00:00:00 | 02:00:37 | 00:00:00 | |
| DO3MHA-11 | 2026-09-04 00:34:15 | 45.07802 | 9.22668 | 177° | 13km/h | 23690m | 5.0m/s | -52.6°C | 4.1% | 0hPa | 2.5V | 00:00:00 | 02:00:35 | 00:00:00 | |
| IW2NTF | 2026-09-04 00:34:13 | 45.07829 | 9.22672 | 196° | 9km/h | 23648m | 5.5m/s | -52.6°C | 4.1% | 0hPa | 2.5V | 08:30:00 | 02:00:27 | 00:00:00 | |
| DO3MHA-11 | 2026-09-04 00:34:05 | 45.07832 | 9.22673 | 198° | 15km/h | 23637m | 4.9m/s | -52.5°C | 4.1% | 0hPa | 2.5V | 00:00:00 | 02:00:25 | 00:00:00 | |
| IW2NTF | 2026-09-04 00:34:02 | 45.07859 | 9.22661 | 173° | 18km/h | 23594m | 5m/s | -52.6°C | 4.1% | 0hPa | 2.5V | 08:30:00 | 02:00:17 | 00:00:00 | |
| DB0UT-7 | 2026-09-04 00:33:58 | 45.07854 | 9.22662 | 170° | 13km/h | 23600m | 4.7m/s | -52.5°C | 4.1% | 0hPa | 2.5V | 00:00:00 | 00:00:00 | 00:00:00 | |
| DO3MHA-11 | 2026-09-04 00:33:55 | 45.07869 | 9.22660 | 176° | 16km/h | 23584m | 5.0m/s | -52.6°C | 4.1% | 0hPa | 2.5V | 00:00:00 | 02:00:15 | 00:00:00 | |
| IW2NTF | 2026-09-04 00:33:52 | 45.07897 | 9.22641 | 134° | 22km/h | 23543m | 4.8m/s | -52.6°C | 4.1% | 0hPa | 2.6V | 08:30:00 | 02:00:07 | 00:00:00 | |
| DO3MHA-11 | 2026-09-04 00:33:45 | 45.07904 | 9.22630 | 131° | 13km/h | 23532m | 5.1m/s | -52.5°C | 4.0% | 0hPa | 2.5V | 00:00:00 | 02:00:05 | 00:00:00 | |
| NBG1-10 | 2026-09-04 00:33:44 | 45.07906 | 9.22625 | 134° | 13km/h | 23528m | 4.7m/s | -52.5°C | 4.0% | 0hPa | 2.5V | 00:00:00 | 02:00:04 | 00:00:00 | |
| IW2NTF | 2026-09-04 00:33:43 | 45.07925 | 9.22617 | 173° | 7km/h | 23492m | 4.6m/s | -52.6°C | 4% | 0hPa | 2.5V | 08:30:00 | 01:59:57 | 00:00:00 | |
| DO3MHA-11 | 2026-09-04 00:33:35 | 45.07930 | 9.22613 | 138° | 13km/h | 23482m | 4.3m/s | -52.5°C | 4.0% | 0hPa | 2.5V | 00:00:00 | 01:59:55 | 00:00:00 | |
| IW2NTF | 2026-09-04 00:33:32 | 45.07948 | 9.22581 | 179° | 9km/h | 23443m | 4.3m/s | -52.9°C | 4.1% | 0hPa | 2.5V | 08:30:00 | 01:59:47 | 00:00:00 | |
| DO3MHA-11 | 2026-09-04 00:33:25 | 45.07951 | 9.22583 | 220° | 15km/h | 23433m | 5.1m/s | -52.9°C | 4.1% | 0hPa | 2.5V | 00:00:00 | 01:59:45 | 00:00:00 | |
| IW2NTF | 2026-09-04 00:33:23 | 45.07962 | 9.22553 | 91° | 24km/h | 23392m | 4.7m/s | -53°C | 4.1% | 0hPa | 2.6V | 08:30:00 | 01:59:37 | 00:00:00 | |
| DB0UT-7 | 2026-09-04 00:33:18 | 45.07961 | 9.22562 | 98° | 15km/h | 23398m | 5.8m/s | -52.9°C | 4.1% | 0hPa | 2.6V | 00:00:00 | 01:59:38 | 00:00:00 | |
| DO3MHA-11 | 2026-09-04 00:33:15 | 45.07962 | 9.22538 | 95° | 9km/h | 23384m | 5.2m/s | -52.9°C | 4.1% | 0hPa | 2.6V | 00:00:00 | 01:59:35 | 00:00:00 | |
| IW2NTF | 2026-09-04 00:33:11 | 45.07953 | 9.22527 | 47° | 11km/h | 23345m | 5m/s | -53.1°C | 4.1% | 0hPa | 2.6V | 08:30:00 | 01:59:27 | 00:00:00 | |
| DO3MHA-11 | 2026-09-04 00:33:05 | 45.07951 | 9.22518 | 78° | 15km/h | 23336m | 3.9m/s | -53.1°C | 4.1% | 0hPa | 2.5V | 00:00:00 | 01:59:25 | 00:00:00 | |
| IW2NTF | 2026-09-04 00:33:01 | 45.07930 | 9.22484 | 10° | 7km/h | 23300m | 4.6m/s | -53.3°C | 4.2% | 0hPa | 2.5V | 08:30:00 | 01:59:17 | 00:00:00 | |
| DO3MHA-11 | 2026-09-04 00:32:55 | 45.07926 | 9.22482 | 19° | 11km/h | 23291m | 5.2m/s | -53.3°C | 4.1% | 0hPa | 2.6V | 00:00:00 | 01:59:15 | 08:30:00 | |
| IW2NTF | 2026-09-04 00:32:47 | 45.07912 | 9.22457 | 37° | 11km/h | 23253m | 3.5m/s | -53.5°C | 4.2% | 0hPa | 2.5V | 08:30:00 | 01:59:07 | 00:00:00 | |
| IW2NTF | 2026-09-04 00:32:42 | 45.07892 | 9.22452 | 18° | 9km/h | 23207m | 4.5m/s | -53.9°C | 4.3% | 0hPa | 2.6V | 08:30:00 | 01:58:57 | 00:00:00 | |
| NBG1-10 | 2026-09-04 00:32:38 | 45.07894 | 9.22453 | 22° | 7km/h | 23213m | 4.9m/s | -53.8°C | 4.3% | 0hPa | 2.5V | 00:00:00 | 01:58:58 | 00:00:00 | |
| DO3MHA-11 | 2026-09-04 00:32:35 | 45.07887 | 9.22451 | 1° | 11km/h | 23200m | 5.1m/s | -53.9°C | 4.3% | 0hPa | 2.5V | 00:00:00 | 01:58:55 | 00:00:00 | |
| IW2NTF | 2026-09-04 00:32:27 | 45.07869 | 9.22463 | 342° | 11km/h | 23161m | 4.4m/s | -54.1°C | 4.4% | 0hPa | 2.5V | 08:30:00 | 01:58:47 | 00:00:00 | |
| DO3MHA-11 | 2026-09-04 00:32:25 | 45.07864 | 9.22465 | 347° | 7km/h | 23152m | 5.3m/s | -54.1°C | 4.4% | 0hPa | 2.6V | 00:00:00 | 01:58:45 | 00:00:00 | |
| IW2NTF | 2026-09-04 00:32:22 | 45.07851 | 9.22462 | 263° | 5km/h | 23115m | 4.5m/s | -54.1°C | 4.4% | 0hPa | 2.5V | 08:30:00 | 01:58:37 | 00:00:00 | |
| DB0UT-7 | 2026-09-04 00:32:18 | 45.07851 | 9.22460 | 335° | 7km/h | 23121m | 5.2m/s | -54.0°C | 4.3% | 0hPa | 2.6V | 00:00:00 | 01:58:38 | 00:00:00 | |
| DO3MHA-11 | 2026-09-04 00:32:15 | 45.07852 | 9.22466 | 260° | 4km/h | 23107m | 4.9m/s | -54.1°C | 4.3% | 0hPa | 2.6V | 00:00:00 | 01:58:35 | 00:00:00 | |
| IW2NTF | 2026-09-04 00:32:11 | 45.07851 | 9.22472 | 70° | 4km/h | 23069m | 4.6m/s | -54.3°C | 4.3% | 0hPa | 2.6V | 08:30:00 | 01:58:27 | 00:00:00 | |
| DO3MHA-11 | 2026-09-04 00:32:05 | 45.07851 | 9.22471 | 253° | 11km/h | 23062m | 4.0m/s | -54.3°C | 4.4% | 0hPa | 2.5V | 00:00:00 | 01:58:25 | 00:00:00 | |
| IW2NTF | 2026-09-04 00:32:01 | 45.07855 | 9.22502 | 235° | 7km/h | 23027m | 4.6m/s | -54.2°C | 4.4% | 0hPa | 2.5V | 08:30:00 | 01:58:17 | 00:00:00 | |
| DO3MHA-11 | 2026-09-04 00:31:55 | 45.07859 | 9.22506 | 211° | 11km/h | 23018m | 4.4m/s | -54.2°C | 4.4% | 0hPa | 2.6V | 00:00:00 | 01:58:15 | 00:00:00 | |
| IW2NTF | 2026-09-04 00:31:52 | 45.07872 | 9.22530 | 229° | 15km/h | 22983m | 3.7m/s | -54.5°C | 4.3% | 0hPa | 2.5V | 08:30:00 | 01:58:07 | 00:00:00 | |
| DB0UT-7 | 2026-09-04 00:31:48 | 45.07869 | 9.22526 | 228° | 9km/h | 22987m | 3.7m/s | -54.4°C | 4.4% | 0hPa | 2.6V | 00:00:00 | 00:00:00 | 00:00:00 | |
| DO3MHA-11 | 2026-09-04 00:31:45 | 45.07875 | 9.22539 | 246° | 9km/h | 22974m | 4.5m/s | -54.4°C | 4.4% | 0hPa | 2.6V | 00:00:00 | 01:58:05 | 00:00:00 | |
| IW2NTF | 2026-09-04 00:31:41 | 45.07888 | 9.22540 | 137° | 5km/h | 22938m | 4.6m/s | -54.5°C | 4.3% | 0hPa | 2.6V | 08:30:00 | 01:57:57 | 00:00:00 | |
| NBG1-10 | 2026-09-04 00:31:32 | 45.07892 | 9.22536 | 200° | 11km/h | 22916m | 4.0m/s | -54.7°C | 4.4% | 0hPa | 2.5V | 00:00:00 | 01:57:52 | 00:00:00 | |
| IW2NTF | 2026-09-04 00:31:31 | 45.07886 | 9.22538 | 43° | 5km/h | 22894m | 5.1m/s | -54.8°C | 4.4% | 0hPa | 2.5V | 08:30:00 | 01:57:47 | 00:00:00 | |
| DO3MHA-11 | 2026-09-04 00:31:25 | 45.07885 | 9.22532 | 96° | 11km/h | 22885m | 4.3m/s | -54.9°C | 4.5% | 0hPa | 2.6V | 00:00:00 | 01:57:45 | 08:30:00 | |
| IW2NTF | 2026-09-04 00:31:21 | 45.07877 | 9.22506 | 43° | 9km/h | 22848m | 4.1m/s | -55°C | 4.5% | 0hPa | 2.5V | 08:30:00 | 01:57:37 | 00:00:00 | |
| DB0UT-7 | 2026-09-04 00:31:18 | 45.07879 | 9.22508 | 49° | 9km/h | 22853m | 4.3m/s | -55.0°C | 4.5% | 0hPa | 2.5V | 00:00:00 | 01:57:38 | 00:00:00 | |
| DO3MHA-11 | 2026-09-04 00:31:15 | 45.07872 | 9.22501 | 34° | 13km/h | 22839m | 4.8m/s | -54.9°C | 4.5% | 0hPa | 2.6V | 00:00:00 | 01:57:35 | 00:00:00 | |
| IW2NTF | 2026-09-04 00:31:12 | 45.07862 | 9.22467 | 82° | 11km/h | 22801m | 4.5m/s | -55°C | 4.5% | 0hPa | 2.6V | 08:30:00 | 01:57:27 | 00:00:00 | |
| DO3MHA-11 | 2026-09-04 00:31:05 | 45.07861 | 9.22461 | 70° | 7km/h | 22792m | 5.1m/s | -55.0°C | 4.5% | 0hPa | 2.5V | 00:00:00 | 01:57:25 | 00:00:00 | |
| IW2NTF | 2026-09-04 00:30:59 | 45.07846 | 9.22453 | 62° | 5km/h | 22754m | 4.5m/s | -55.1°C | 4.5% | 0hPa | 2.5V | 08:30:00 | 01:57:17 | 00:00:00 | |
| NBG1-10 | 2026-09-04 00:30:59 | 45.07850 | 9.22456 | 15° | 9km/h | 22764m | 3.8m/s | -55.0°C | 4.5% | 0hPa | 2.6V | 00:00:00 | 01:57:19 | 00:00:00 | |
| DO3MHA-11 | 2026-09-04 00:30:55 | 45.07847 | 9.22449 | 111° | 7km/h | 22746m | 4.3m/s | -55.0°C | 4.4% | 0hPa | 2.6V | 00:00:00 | 01:57:15 | 00:00:00 | |
| IW2NTF | 2026-09-04 00:30:52 | 45.07840 | 9.22432 | 6° | 9km/h | 22709m | 5.4m/s | -55.2°C | 4.5% | 0hPa | 2.5V | 08:30:00 | 01:57:07 | 00:00:00 | |
| DB0UT-7 | 2026-09-04 00:30:48 | 45.07842 | 9.22433 | 25° | 7km/h | 22713m | 3.7m/s | -55.1°C | 4.5% | 0hPa | 2.5V | 00:00:00 | 00:00:00 | 00:00:00 | |
| DO3MHA-11 | 2026-09-04 00:30:45 | 45.07834 | 9.22432 | 352° | 5km/h | 22699m | 4.0m/s | -55.3°C | 4.5% | 0hPa | 2.5V | 00:00:00 | 01:57:05 | 00:00:00 | |
| IW2NTF | 2026-09-04 00:30:39 | 45.07824 | 9.22434 | 10° | 4km/h | 22661m | 4.5m/s | -55.4°C | 4.5% | 0hPa | 2.5V | 08:30:00 | 01:56:57 | 00:00:00 | |
| DO3MHA-11 | 2026-09-04 00:30:35 | 45.07822 | 9.22434 | 3° | 11km/h | 22651m | 5.2m/s | -55.5°C | 4.6% | 0hPa | 2.6V | 00:00:00 | 01:56:55 | 00:00:00 | |
| IW2NTF | 2026-09-04 00:30:33 | 45.07815 | 9.22459 | 259° | 15km/h | 22612m | 4.3m/s | -55.6°C | 4.6% | 0hPa | 2.6V | 08:30:00 | 01:56:47 | 00:00:00 | |
| DO3MHA-11 | 2026-09-04 00:30:25 | 45.07816 | 9.22468 | 268° | 9km/h | 22602m | 4.8m/s | -55.6°C | 4.6% | 0hPa | 2.5V | 00:00:00 | 01:56:45 | 00:00:00 | |
| IW2NTF | 2026-09-04 00:30:19 | 45.07822 | 9.22487 | 256° | 13km/h | 22563m | 4.2m/s | -55.6°C | 4.6% | 0hPa | 2.5V | 08:30:00 | 01:56:37 | 00:00:00 | |
| DB0UT-7 | 2026-09-04 00:30:18 | 45.07822 | 9.22483 | 259° | 9km/h | 22568m | 4.4m/s | -55.6°C | 4.7% | 0hPa | 2.5V | 00:00:00 | 01:56:38 | 00:00:00 | |
| DO3MHA-11 | 2026-09-04 00:30:15 | 45.07825 | 9.22496 | 241° | 9km/h | 22553m | 4.7m/s | -55.6°C | 4.6% | 0hPa | 2.5V | 00:00:00 | 01:56:35 | 00:00:00 | |
| IW2NTF | 2026-09-04 00:30:13 | 45.07836 | 9.22511 | 177° | 15km/h | 22515m | 5.7m/s | -55.6°C | 4.6% | 0hPa | 2.5V | 08:30:00 | 01:56:27 | 00:00:00 | |
| DO3MHA-11 | 2026-09-04 00:30:06 | 45.07845 | 9.22511 | 185° | 9km/h | 22507m | 3.9m/s | -55.6°C | 4.6% | 0hPa | 2.6V | 00:00:00 | 01:56:25 | 00:00:00 | |
| IW2NTF | 2026-09-04 00:29:57 | 45.07861 | 9.22523 | 214° | 4km/h | 22467m | 4.4m/s | -55.6°C | 4.6% | 0hPa | 2.6V | 08:30:00 | 01:56:17 | 00:00:00 | |
| DO3MHA-11 | 2026-09-04 00:29:55 | 45.07862 | 9.22523 | 93° | 5km/h | 22458m | 5.9m/s | -55.5°C | 4.6% | 0hPa | 2.5V | 00:00:00 | 01:56:15 | 08:30:00 | |
| IW2NTF | 2026-09-04 00:29:52 | 45.07872 | 9.22519 | 197° | 0km/h | 22419m | 4.2m/s | -55.6°C | 4.6% | 0hPa | 2.5V | 08:30:00 | 01:56:07 | 00:00:00 | |
| DB0UT-7 | 2026-09-04 00:29:48 | 45.07872 | 9.22519 | 198° | 5km/h | 22424m | 5.0m/s | -55.5°C | 4.6% | 0hPa | 2.5V | 00:00:00 | 00:00:00 | 08:30:00 | |
| DO3MHA-11 | 2026-09-04 00:29:45 | 45.07872 | 9.22518 | 83° | 5km/h | 22410m | 5.2m/s | -55.6°C | 4.7% | 0hPa | 2.5V | 00:00:00 | 01:56:05 | 00:00:00 | |
| IW2NTF | 2026-09-04 00:29:40 | 45.07870 | 9.22501 | 84° | 2km/h | 22361m | 5.4m/s | -55.6°C | 4.7% | 0hPa | 2.5V | 08:30:00 | 01:55:55 | 00:00:00 | |
| DO3MHA-11 | 2026-09-04 00:29:35 | 45.07870 | 9.22501 | 85° | 7km/h | 22361m | 5.4m/s | -55.5°C | 4.7% | 0hPa | 2.5V | 00:00:00 | 01:55:55 | 00:00:00 | |
| NBG1-10 | 2026-09-04 00:29:28 | 45.07864 | 9.22491 | 42° | 9km/h | 22327m | 5.3m/s | -55.4°C | 4.7% | 0hPa | 2.5V | 00:00:00 | 01:55:48 | 00:00:00 | |
| IW2NTF | 2026-09-04 00:29:26 | 45.07859 | 9.22485 | 62° | 5km/h | 22312m | 5.5m/s | -55.4°C | 4.7% | 0hPa | 2.5V | 08:30:00 | 01:55:45 | 00:00:00 | |
| DO3MHA-11 | 2026-09-04 00:29:25 | 45.07859 | 9.22485 | 63° | 5km/h | 22313m | 5.5m/s | -55.3°C | 4.7% | 0hPa | 2.5V | 00:00:00 | 01:55:45 | 00:00:00 | |
| IW2NTF | 2026-09-04 00:29:20 | 45.07849 | 9.22474 | 22° | 13km/h | 22264m | 5.2m/s | -55.1°C | 4.5% | 0hPa | 2.6V | 08:30:00 | 01:55:35 | 00:00:00 | |
| DB0UT-7 | 2026-09-04 00:29:18 | 45.07855 | 9.22477 | 22° | 7km/h | 22279m | 5.1m/s | -55.1°C | 4.5% | 0hPa | 2.5V | 00:00:00 | 01:55:38 | 00:00:00 | |
| DO3MHA-11 | 2026-09-04 00:29:15 | 45.07849 | 9.22473 | 23° | 13km/h | 22265m | 5.1m/s | -55.0°C | 4.5% | 0hPa | 2.5V | 00:00:00 | 01:55:35 | 00:00:00 | |
| IW2NTF | 2026-09-04 00:29:08 | 45.07833 | 9.22441 | 42° | 7km/h | 22218m | 5.4m/s | -55.3°C | 4.5% | 0hPa | 2.5V | 08:30:00 | 01:55:25 | 00:00:00 | |
| DO3MHA-11 | 2026-09-04 00:29:05 | 45.07833 | 9.22441 | 43° | 5km/h | 22219m | 5.4m/s | -55.2°C | 4.5% | 0hPa | 2.5V | 00:00:00 | 01:55:25 | 00:00:00 | |
| IW2NTF | 2026-09-04 00:28:56 | 45.07822 | 9.22433 | 75° | 5km/h | 22172m | 4.3m/s | -55.3°C | 4.6% | 0hPa | 2.5V | 08:30:00 | 01:55:15 | 00:00:00 | |
| DO3MHA-11 | 2026-09-04 00:28:55 | 45.07822 | 9.22433 | 76° | 5km/h | 22172m | 4.2m/s | -55.3°C | 4.6% | 0hPa | 2.5V | 00:00:00 | 01:55:15 | 00:00:00 | |
| DB0UT-7 | 2026-09-04 00:28:48 | 45.07813 | 9.22431 | 355° | 7km/h | 22139m | 4.3m/s | -55.4°C | 4.6% | 0hPa | 2.6V | 00:00:00 | 00:00:00 | 00:00:00 | |
| IW2NTF | 2026-09-04 00:28:46 | 45.07811 | 9.22435 | 307° | 7km/h | 22124m | 4.3m/s | -55.4°C | 4.6% | 0hPa | 2.6V | 08:30:00 | 01:55:05 | 00:00:00 | |
| DO3MHA-11 | 2026-09-04 00:28:45 | 45.07811 | 9.22434 | 308° | 4km/h | 22125m | 4.3m/s | -55.4°C | 4.6% | 0hPa | 2.5V | 00:00:00 | 01:55:05 | 00:00:00 | |
| IW2NTF | 2026-09-04 00:28:35 | 45.07807 | 9.22447 | 269° | 5km/h | 22077m | 4.2m/s | -55.3°C | 4.4% | 0hPa | 2.5V | 08:30:00 | 01:54:55 | 00:00:00 | |
| DO3MHA-11 | 2026-09-04 00:28:35 | 45.07807 | 9.22447 | 270° | 9km/h | 22077m | 4.2m/s | -55.2°C | 4.4% | 0hPa | 2.5V | 00:00:00 | 01:54:55 | 00:00:00 | |
| IW2NTF | 2026-09-04 00:28:25 | 45.07795 | 9.22471 | 285° | 7km/h | 22029m | 5.1m/s | -55.7°C | 4.5% | 0hPa | 2.5V | 08:30:00 | 01:54:45 | 00:00:00 | |
| DO3MHA-11 | 2026-09-04 00:28:25 | 45.07795 | 9.22471 | 286° | 9km/h | 22029m | 5.1m/s | -55.6°C | 4.5% | 0hPa | 2.5V | 00:00:00 | 01:54:45 | 08:30:00 | |
| NBG1-10 | 2026-09-04 00:28:22 | 45.07796 | 9.22478 | 250° | 13km/h | 22017m | 5.0m/s | -55.8°C | 4.5% | 0hPa | 2.5V | 00:00:00 | 01:54:42 | 00:00:00 | |
| DB0UT-7 | 2026-09-04 00:28:18 | 45.07801 | 9.22497 | 252° | 13km/h | 21998m | 5.0m/s | -56.0°C | 4.6% | 0hPa | 2.5V | 00:00:00 | 01:54:38 | 00:00:00 | |
| IW2NTF | 2026-09-04 00:28:16 | 45.07803 | 9.22505 | 264° | 5km/h | 21985m | 4.1m/s | -56.3°C | 4.7% | 0hPa | 2.6V | 08:30:00 | 01:54:35 | 00:00:00 | |
| DO3MHA-11 | 2026-09-04 00:28:15 | 45.07803 | 9.22505 | 265° | 11km/h | 21985m | 4.0m/s | -56.3°C | 4.7% | 0hPa | 2.5V | 00:00:00 | 01:54:35 | 00:00:00 | |
| IW2NTF | 2026-09-04 00:28:05 | 45.07818 | 9.22535 | 215° | 15km/h | 21939m | 4.2m/s | -56.6°C | 4.8% | 0hPa | 2.5V | 08:30:00 | 01:54:25 | 00:00:00 | |
| DO3MHA-11 | 2026-09-04 00:28:05 | 45.07818 | 9.22535 | 216° | 7km/h | 21939m | 4.1m/s | -56.5°C | 4.8% | 0hPa | 2.5V | 00:00:00 | 01:54:25 | 00:00:00 | |
| IW2NTF | 2026-09-04 00:27:57 | 45.07851 | 9.22565 | 213° | 16km/h | 21894m | 4.3m/s | -56.9°C | 4.9% | 0hPa | 2.5V | 08:30:00 | 01:54:15 | 00:00:00 | |
| IW2NTF | 2026-09-04 00:27:51 | 45.07849 | 9.22578 | 279° | 7km/h | 21849m | 4.1m/s | -56.8°C | 4.8% | 0hPa | 2.6V | 08:30:00 | 01:54:05 | 00:00:00 | |
| NBG1-10 | 2026-09-04 00:27:49 | 45.07855 | 9.22576 | 2° | 5km/h | 21868m | 5.2m/s | -56.7°C | 4.9% | 0hPa | 2.5V | 00:00:00 | 01:54:09 | 00:00:00 | |
| DB0UT-7 | 2026-09-04 00:27:48 | 45.07853 | 9.22575 | 10° | 5km/h | 21863m | 4.3m/s | -56.7°C | 4.8% | 0hPa | 2.5V | 00:00:00 | 00:00:00 | 00:00:00 | |
| DO3MHA-11 | 2026-09-04 00:27:44 | 45.07849 | 9.22581 | 256° | 5km/h | 21846m | 3.8m/s | -56.7°C | 4.8% | 0hPa | 2.5V | 00:00:00 | 01:54:04 | 00:00:00 | |
| IW2NTF | 2026-09-04 00:27:37 | 45.07858 | 9.22593 | 43° | 4km/h | 21804m | 4.6m/s | -56.8°C | 4.8% | 0hPa | 2.6V | 08:30:00 | 01:53:55 | 00:00:00 | |
| DO3MHA-11 | 2026-09-04 00:27:34 | 45.07857 | 9.22592 | 26° | 5km/h | 21800m | 3.5m/s | -56.8°C | 4.8% | 0hPa | 2.5V | 00:00:00 | 01:53:54 | 00:00:00 | |
| IW2NTF | 2026-09-04 00:27:31 | 45.07859 | 9.22599 | 144° | 4km/h | 21761m | 4.8m/s | -57.1°C | 5% | 0hPa | 2.5V | 08:30:00 | 01:53:45 | 00:00:00 | |
| DO3MHA-11 | 2026-09-04 00:27:24 | 45.07860 | 9.22598 | 148° | 4km/h | 21756m | 4.4m/s | -57.1°C | 5.0% | 0hPa | 2.5V | 00:00:00 | 01:53:44 | 00:00:00 | |
| DB0UT-7 | 2026-09-04 00:27:18 | 45.07865 | 9.22593 | 64° | 9km/h | 21729m | 4.2m/s | -56.9°C | 4.9% | 0hPa | 2.5V | 00:00:00 | 01:53:38 | 00:00:00 | |
| IW2NTF | 2026-09-04 00:27:16 | 45.07864 | 9.22589 | 95° | 7km/h | 21715m | 5m/s | -56.9°C | 4.9% | 0hPa | 2.5V | 08:30:00 | 01:53:35 | 00:00:00 | |
| NBG1-10 | 2026-09-04 00:27:16 | 45.07864 | 9.22591 | 77° | 9km/h | 21720m | 5.2m/s | -56.9°C | 4.9% | 0hPa | 2.5V | 00:00:00 | 01:53:36 | 00:00:00 | |
| DO3MHA-11 | 2026-09-04 00:27:14 | 45.07865 | 9.22586 | 104° | 9km/h | 21710m | 4.1m/s | -56.9°C | 4.9% | 0hPa | 2.5V | 00:00:00 | 01:53:34 | 00:00:00 | |
| IW2NTF | 2026-09-04 00:27:11 | 45.07879 | 9.22563 | 116° | 11km/h | 21670m | 5.3m/s | -57°C | 5% | 0hPa | 2.6V | 08:30:00 | 01:53:25 | 00:00:00 | |
| DO3MHA-11 | 2026-09-04 00:27:04 | 45.07880 | 9.22560 | 107° | 11km/h | 21665m | 4.2m/s | -56.9°C | 5.0% | 0hPa | 2.5V | 00:00:00 | 01:53:24 | 00:00:00 | |
| IW2NTF | 2026-09-04 00:26:57 | 45.07896 | 9.22537 | 150° | 7km/h | 21626m | 4.2m/s | -56.9°C | 4.9% | 0hPa | 2.5V | 08:30:00 | 01:53:15 | 00:00:00 | |
| DO3MHA-11 | 2026-09-04 00:26:54 | 45.07898 | 9.22535 | 141° | 5km/h | 21622m | 5.0m/s | -56.8°C | 5.0% | 0hPa | 2.5V | 00:00:00 | 01:53:14 | 00:00:00 | |
| IW2NTF | 2026-09-04 00:26:51 | 45.07907 | 9.22518 | 72° | 4km/h | 21581m | 3.6m/s | -56.7°C | 4.9% | 0hPa | 2.5V | 08:30:00 | 01:53:05 | 00:00:00 | |
| DB0UT-7 | 2026-09-04 00:26:48 | 45.07906 | 9.22522 | 110° | 11km/h | 21595m | 4.5m/s | -56.7°C | 5.0% | 0hPa | 2.5V | 00:00:00 | 00:00:00 | 00:00:00 | |
| DO3MHA-11 | 2026-09-04 00:26:44 | 45.07906 | 9.22516 | 41° | 5km/h | 21577m | 5.1m/s | -56.6°C | 4.9% | 0hPa | 2.5V | 00:00:00 | 01:53:04 | 08:30:00 | |
| NBG1-10 | 2026-09-04 00:26:43 | 45.07905 | 9.22516 | 356° | 7km/h | 21572m | 5.5m/s | -56.6°C | 4.9% | 0hPa | 2.5V | 00:00:00 | 01:53:03 | 00:00:00 | |
| IW2NTF | 2026-09-04 00:26:37 | 45.07906 | 9.22528 | 144° | 2km/h | 21525m | 4.4m/s | -56.3°C | 4.9% | 0hPa | 2.5V | 08:30:00 | 01:52:53 | 00:00:00 | |
| DO3MHA-11 | 2026-09-04 00:26:34 | 45.07905 | 9.22528 | 214° | 5km/h | 21530m | 5.5m/s | -56.3°C | 4.9% | 0hPa | 2.6V | 00:00:00 | 01:52:54 | 00:00:00 | |
| IW2NTF | 2026-09-04 00:26:27 | 45.07894 | 9.22542 | 276° | 15km/h | 21481m | 4.8m/s | -56°C | 4.8% | 0hPa | 2.6V | 08:30:00 | 01:52:43 | 00:00:00 | |
| DO3MHA-11 | 2026-09-04 00:26:24 | 45.07894 | 9.22538 | 276° | 7km/h | 21486m | 4.7m/s | -56.0°C | 4.8% | 0hPa | 2.5V | 00:00:00 | 01:52:44 | 00:00:00 | |
| IW2NTF | 2026-09-04 00:26:18 | 45.07887 | 9.22562 | 311° | 9km/h | 21438m | 4.9m/s | -55.9°C | 4.7% | 0hPa | 2.5V | 08:30:00 | 01:52:33 | 00:00:00 | |
| DO3MHA-11 | 2026-09-04 00:26:14 | 45.07888 | 9.22560 | 303° | 13km/h | 21443m | 4.4m/s | -55.8°C | 4.7% | 0hPa | 2.5V | 00:00:00 | 01:52:34 | 00:00:00 | |
| NBG1-10 | 2026-09-04 00:26:10 | 45.07880 | 9.22573 | 296° | 15km/h | 21425m | 4.2m/s | -55.8°C | 4.7% | 0hPa | 2.5V | 00:00:00 | 01:52:30 | 08:30:00 | |
| IW2NTF | 2026-09-04 00:26:04 | 45.07877 | 9.22608 | 299° | 9km/h | 21393m | 4.5m/s | -55.9°C | 4.8% | 0hPa | 2.5V | 08:30:00 | 01:52:23 | 00:00:00 | |
| DO3MHA-11 | 2026-09-04 00:26:04 | 45.07878 | 9.22605 | 293° | 15km/h | 21398m | 4.1m/s | -55.9°C | 4.8% | 0hPa | 2.6V | 00:00:00 | 01:52:24 | 00:00:00 | |
| DB0UT-7 | 2026-09-04 00:26:01 | 45.07875 | 9.22613 | 312° | 16km/h | 21383m | 4.1m/s | -55.8°C | 4.8% | 0hPa | 2.6V | 00:00:00 | 01:52:21 | 00:00:00 | |
| IW2NTF | 2026-09-04 00:25:59 | 45.07851 | 9.22649 | 278° | 18km/h | 21347m | 4.6m/s | -55.6°C | 4.8% | 0hPa | 2.6V | 08:30:00 | 01:52:13 | 00:00:00 | |
| DO3MHA-11 | 2026-09-04 00:25:54 | 45.07852 | 9.22642 | 290° | 15km/h | 21352m | 5.0m/s | -55.6°C | 4.8% | 0hPa | 2.5V | 00:00:00 | 01:52:14 | 00:00:00 | |
| IW2NTF | 2026-09-04 00:25:44 | 45.07840 | 9.22700 | 300° | 20km/h | 21296m | 5.5m/s | -55.2°C | 4.5% | 0hPa | 2.5V | 08:30:00 | 01:52:03 | 00:00:00 | |
| DO3MHA-11 | 2026-09-04 00:25:44 | 45.07842 | 9.22693 | 292° | 18km/h | 21301m | 5.0m/s | -55.2°C | 4.5% | 0hPa | 2.5V | 00:00:00 | 01:52:04 | 00:00:00 | |
| IW2NTF | 2026-09-04 00:25:37 | 45.07840 | 9.22757 | 263° | 16km/h | 21248m | 5.2m/s | -55.2°C | 4.6% | 0hPa | 2.5V | 08:30:00 | 01:51:53 | 00:00:00 | |
| DO3MHA-11 | 2026-09-04 00:25:34 | 45.07839 | 9.22750 | 252° | 16km/h | 21254m | 5.4m/s | -55.1°C | 4.5% | 0hPa | 2.6V | 00:00:00 | 01:51:54 | 00:00:00 | |
| DB0UT-7 | 2026-09-04 00:25:31 | 45.07840 | 9.22766 | 293° | 15km/h | 21239m | 4.1m/s | -55.1°C | 4.5% | 0hPa | 2.6V | 00:00:00 | 00:00:00 | 00:00:00 | |
| IW2NTF | 2026-09-04 00:25:26 | 45.07838 | 9.22810 | 259° | 15km/h | 21201m | 4.4m/s | -55.2°C | 4.5% | 0hPa | 2.6V | 08:30:00 | 01:51:43 | 00:00:00 | |
| IW2NTF | 2026-09-04 00:25:19 | 45.07862 | 9.22870 | 227° | 18km/h | 21153m | 4.2m/s | -55.1°C | 4.5% | 0hPa | 2.5V | 08:30:00 | 01:51:33 | 00:00:00 | |
| DO3MHA-11 | 2026-09-04 00:25:14 | 45.07859 | 9.22865 | 230° | 16km/h | 21159m | 5.1m/s | -55.1°C | 4.4% | 0hPa | 2.5V | 00:00:00 | 01:51:34 | 08:30:00 | |
| IW2NTF | 2026-09-04 00:25:07 | 45.07891 | 9.22905 | 232° | 16km/h | 21106m | 4.1m/s | -55.6°C | 4.6% | 0hPa | 2.5V | 08:30:00 | 01:51:23 | 00:00:00 | |
| DO3MHA-11 | 2026-09-04 00:25:04 | 45.07888 | 9.22900 | 229° | 15km/h | 21111m | 5.1m/s | -55.5°C | 4.5% | 0hPa | 2.6V | 00:00:00 | 01:51:24 | 00:00:00 | |
| IW2NTF | 2026-09-04 00:24:56 | 45.07925 | 9.22920 | 157° | 24km/h | 21058m | 4.5m/s | -55.7°C | 4.7% | 0hPa | 2.6V | 08:30:00 | 01:51:13 | 00:00:00 | |
| DO3MHA-11 | 2026-09-04 00:24:54 | 45.07919 | 9.22923 | 159° | 18km/h | 21064m | 5.7m/s | -55.7°C | 4.6% | 0hPa | 2.5V | 00:00:00 | 01:51:14 | 00:00:00 | |
| IW2NTF | 2026-09-04 00:24:45 | 45.07963 | 9.22896 | 124° | 7km/h | 21013m | 3.8m/s | -55.4°C | 4.6% | 0hPa | 2.5V | 08:30:00 | 01:51:03 | 00:00:00 | |
| DO3MHA-11 | 2026-09-04 00:24:44 | 45.07962 | 9.22898 | 142° | 15km/h | 21018m | 4.4m/s | -55.4°C | 4.6% | 0hPa | 2.5V | 00:00:00 | 01:51:04 | 00:00:00 | |
| DB0UT-7 | 2026-09-04 00:24:41 | 45.07966 | 9.22891 | 137° | 13km/h | 21005m | 4.9m/s | -55.3°C | 4.6% | 0hPa | 2.6V | 00:00:00 | 01:51:01 | 08:30:00 | |
| IW2NTF | 2026-09-04 00:24:39 | 45.08004 | 9.22889 | 180° | 18km/h | 20969m | 4.1m/s | -55.2°C | 4.4% | 0hPa | 2.5V | 08:30:00 | 01:50:53 | 00:00:00 | |
| DO3MHA-11 | 2026-09-04 00:24:34 | 45.07999 | 9.22888 | 187° | 11km/h | 20973m | 4.7m/s | -55.2°C | 4.4% | 0hPa | 2.5V | 00:00:00 | 01:50:54 | 00:00:00 | |
| NBG1-10 | 2026-09-04 00:24:31 | 45.08011 | 9.22888 | 178° | 15km/h | 20960m | 5.0m/s | -55.3°C | 4.5% | 0hPa | 2.5V | 00:00:00 | 01:50:51 | 00:00:00 | |
| IW2NTF | 2026-09-04 00:24:24 | 45.08025 | 9.22883 | 179° | 9km/h | 20924m | 4.6m/s | -55.5°C | 4.6% | 0hPa | 2.6V | 08:30:00 | 01:50:43 | 00:00:00 | |
| DO3MHA-11 | 2026-09-04 00:24:24 | 45.08023 | 9.22884 | 163° | 11km/h | 20929m | 5.0m/s | -55.4°C | 4.5% | 0hPa | 2.5V | 00:00:00 | 01:50:44 | 00:00:00 | |
| IW2NTF | 2026-09-04 00:24:19 | 45.08052 | 9.22897 | 204° | 13km/h | 20878m | 4.7m/s | -55.9°C | 4.7% | 0hPa | 2.5V | 08:30:00 | 01:50:33 | 00:00:00 | |
| DO3MHA-11 | 2026-09-04 00:24:14 | 45.08049 | 9.22895 | 217° | 16km/h | 20884m | 5.3m/s | -55.7°C | 4.6% | 0hPa | 2.5V | 00:00:00 | 01:50:34 | 00:00:00 | |
| DB0UT-7 | 2026-09-04 00:24:11 | 45.08058 | 9.22899 | 192° | 16km/h | 20870m | 4.1m/s | -55.9°C | 4.7% | 0hPa | 2.5V | 00:00:00 | 00:00:00 | 00:00:00 | |
| IW2NTF | 2026-09-04 00:24:05 | 45.08098 | 9.22902 | 176° | 22km/h | 20833m | 4.9m/s | -55.9°C | 4.7% | 0hPa | 2.5V | 08:30:00 | 01:50:23 | 00:00:00 | |
| DO3MHA-11 | 2026-09-04 00:24:04 | 45.08092 | 9.22903 | 177° | 18km/h | 20839m | 4.8m/s | -55.9°C | 4.7% | 0hPa | 2.6V | 00:00:00 | 01:50:24 | 00:00:00 | |
| NBG1-10 | 2026-09-04 00:23:58 | 45.08124 | 9.22900 | 180° | 18km/h | 20811m | 5.4m/s | -55.8°C | 4.7% | 0hPa | 2.6V | 00:00:00 | 01:50:18 | 00:00:00 | |
| IW2NTF | 2026-09-04 00:23:57 | 45.08139 | 9.22900 | 168° | 13km/h | 20787m | 3.8m/s | -55.7°C | 4.7% | 0hPa | 2.6V | 08:30:00 | 01:50:13 | 00:00:00 | |
| DO3MHA-11 | 2026-09-04 00:23:54 | 45.08136 | 9.22900 | 173° | 15km/h | 20791m | 4.7m/s | -55.7°C | 4.7% | 0hPa | 2.5V | 00:00:00 | 01:50:14 | 00:00:00 | |
| IW2NTF | 2026-09-04 00:23:44 | 45.08176 | 9.22886 | 152° | 13km/h | 20742m | 3.9m/s | -55.6°C | 4.5% | 0hPa | 2.5V | 08:30:00 | 01:50:03 | 00:00:00 | |
| DO3MHA-11 | 2026-09-04 00:23:44 | 45.08173 | 9.22888 | 158° | 15km/h | 20746m | 4.6m/s | -55.5°C | 4.6% | 0hPa | 2.5V | 00:00:00 | 01:50:04 | 08:30:00 | |
| DB0UT-7 | 2026-09-04 00:23:41 | 45.08182 | 9.22881 | 149° | 18km/h | 20732m | 4.9m/s | -55.5°C | 4.5% | 0hPa | 2.5V | 00:00:00 | 01:50:01 | 00:00:00 | |
| IW2NTF | 2026-09-04 00:23:38 | 45.08212 | 9.22860 | 151° | 18km/h | 20696m | 4.6m/s | -55.8°C | 4.5% | 0hPa | 2.5V | 08:30:00 | 01:49:53 | 00:00:00 | |
| DO3MHA-11 | 2026-09-04 00:23:34 | 45.08207 | 9.22863 | 158° | 20km/h | 20700m | 4.2m/s | -55.7°C | 4.5% | 0hPa | 2.6V | 00:00:00 | 01:49:54 | 00:00:00 | |
| IW2NTF | 2026-09-04 00:23:25 | 45.08244 | 9.22808 | 122° | 16km/h | 20650m | 4.7m/s | -56.5°C | 4.8% | 0hPa | 2.6V | 08:30:00 | 01:49:43 | 00:00:00 | |
| DO3MHA-11 | 2026-09-04 00:23:24 | 45.08242 | 9.22812 | 126° | 16km/h | 20654m | 4.3m/s | -56.4°C | 4.7% | 0hPa | 2.5V | 00:00:00 | 01:49:44 | 00:00:00 | |
| IW2NTF | 2026-09-04 00:23:18 | 45.08267 | 9.22757 | 138° | 15km/h | 20603m | 5.4m/s | -56.8°C | 4.8% | 0hPa | 2.5V | 08:30:00 | 01:49:33 | 00:00:00 | |
| DO3MHA-11 | 2026-09-04 00:23:14 | 45.08264 | 9.22761 | 139° | 13km/h | 20608m | 4.3m/s | -56.8°C | 4.9% | 0hPa | 2.5V | 00:00:00 | 01:49:34 | 00:00:00 | |
| NBG1-10 | 2026-09-04 00:23:13 | 45.08267 | 9.22757 | 139° | 9km/h | 20603m | 5.4m/s | -56.8°C | 4.8% | 0hPa | 2.6V | 00:00:00 | 01:49:33 | 00:00:00 | |
| DB0UT-7 | 2026-09-04 00:23:11 | 45.08272 | 9.22751 | 140° | 9km/h | 20594m | 3.8m/s | -56.8°C | 4.9% | 0hPa | 2.6V | 00:00:00 | 00:00:00 | 00:00:00 | |
| IW2NTF | 2026-09-04 00:23:03 | 45.08281 | 9.22725 | 95° | 13km/h | 20557m | 5m/s | -56.9°C | 4.9% | 0hPa | 2.5V | 08:30:00 | 01:49:23 | 00:00:00 | |
| IW2NTF | 2026-09-04 00:22:57 | 45.08288 | 9.22685 | 322° | 2km/h | 20501m | 4.8m/s | -56.9°C | 5.1% | 0hPa | 2.5V | 08:30:00 | 01:49:11 | 00:00:00 | |
| DO3MHA-11 | 2026-09-04 00:22:54 | 45.08288 | 9.22686 | 112° | 9km/h | 20516m | 4.8m/s | -56.8°C | 5.0% | 0hPa | 2.6V | 00:00:00 | 01:49:14 | 00:00:00 | |
| IW2NTF | 2026-09-04 00:22:41 | 45.08290 | 9.22669 | 59° | 2km/h | 20455m | 5.3m/s | -56.6°C | 4.9% | 0hPa | 2.6V | 08:30:00 | 01:49:01 | 00:00:00 | |
| DB0UT-7 | 2026-09-04 00:22:41 | 45.08290 | 9.22669 | 60° | 5km/h | 20456m | 5.3m/s | -56.6°C | 4.9% | 0hPa | 2.5V | 00:00:00 | 01:49:01 | 00:00:00 | |
| NBG1-10 | 2026-09-04 00:22:40 | 45.08289 | 9.22668 | 8° | 7km/h | 20451m | 4.7m/s | -56.6°C | 4.9% | 0hPa | 2.5V | 00:00:00 | 01:49:00 | 00:00:00 | |
| IW2NTF | 2026-09-04 00:22:32 | 45.08275 | 9.22670 | 46° | 4km/h | 20410m | 5.3m/s | -56.4°C | 4.8% | 0hPa | 2.5V | 08:30:00 | 01:48:51 | 00:00:00 | |
| IW2NTF | 2026-09-04 00:22:26 | 45.08265 | 9.22687 | 319° | 9km/h | 20365m | 5.1m/s | -56.2°C | 4.9% | 0hPa | 2.5V | 08:30:00 | 01:48:41 | 00:00:00 | |
| IW2NTF | 2026-09-04 00:22:12 | 45.08257 | 9.22701 | 293° | 11km/h | 20320m | 4.8m/s | -56.1°C | 4.8% | 0hPa | 2.6V | 08:30:00 | 01:48:31 | 00:00:00 | |
| DB0UT-7 | 2026-09-04 00:22:11 | 45.08257 | 9.22701 | 294° | 15km/h | 20320m | 4.7m/s | -56.0°C | 4.8% | 0hPa | 2.5V | 00:00:00 | 00:00:00 | 00:00:00 | |
| NBG1-10 | 2026-09-04 00:22:07 | 45.08253 | 9.22719 | 305° | 16km/h | 20302m | 5.2m/s | -56.0°C | 4.7% | 0hPa | 2.5V | 00:00:00 | 01:48:27 | 00:00:00 | |
| IW2NTF | 2026-09-04 00:22:06 | 45.08245 | 9.22743 | 262° | 11km/h | 20274m | 4.6m/s | -55.9°C | 4.6% | 0hPa | 2.5V | 08:30:00 | 01:48:21 | 00:00:00 | |
| IW2NTF | 2026-09-04 00:21:53 | 45.08244 | 9.22793 | 284° | 18km/h | 20230m | 4.9m/s | -55.7°C | 4.5% | 0hPa | 2.5V | 08:30:00 | 01:48:11 | 00:00:00 | |
| DO3MHA-11 | 2026-09-04 00:21:50 | 45.08243 | 9.22799 | 275° | 15km/h | 20226m | 4.3m/s | -55.7°C | 4.6% | 0hPa | 2.5V | 00:00:00 | 01:48:10 | 00:00:00 | |
| IW2NTF | 2026-09-04 00:21:47 | 45.08249 | 9.22843 | 268° | 18km/h | 20184m | 5m/s | -56.4°C | 4.7% | 0hPa | 2.6V | 08:30:00 | 01:48:01 | 00:00:00 | |
| DB0UT-7 | 2026-09-04 00:21:41 | 45.08249 | 9.22842 | 269° | 20km/h | 20184m | 5.0m/s | -56.3°C | 4.7% | 0hPa | 2.6V | 00:00:00 | 01:48:01 | 00:00:00 | |
| DO3MHA-11 | 2026-09-04 00:21:40 | 45.08249 | 9.22849 | 274° | 20km/h | 20179m | 4.2m/s | -56.4°C | 4.8% | 0hPa | 2.5V | 00:00:00 | 01:48:00 | 00:00:00 | |
| IW2NTF | 2026-09-04 00:21:33 | 45.08258 | 9.22908 | 228° | 18km/h | 20140m | 5.6m/s | -56.4°C | 4.8% | 0hPa | 2.5V | 08:30:00 | 01:47:51 | 00:00:00 | |
| IW2NTF | 2026-09-04 00:21:26 | 45.08294 | 9.22952 | 222° | 20km/h | 20094m | 3.5m/s | -56.2°C | 4.8% | 0hPa | 2.5V | 08:30:00 | 01:47:41 | 00:00:00 | |
| DO3MHA-11 | 2026-09-04 00:21:17 | 45.08311 | 9.22964 | 195° | 20km/h | 20076m | 4.2m/s | -56.1°C | 4.8% | 0hPa | 2.6V | 00:00:00 | 01:47:37 | 08:30:00 | |
| IW2NTF | 2026-09-04 00:21:14 | 45.08343 | 9.22978 | 201° | 16km/h | 20049m | 4.2m/s | -56°C | 4.7% | 0hPa | 2.6V | 08:30:00 | 01:47:31 | 00:00:00 | |
| DB0UT-7 | 2026-09-04 00:21:11 | 45.08342 | 9.22978 | 202° | 22km/h | 20049m | 4.2m/s | -55.9°C | 4.7% | 0hPa | 2.5V | 00:00:00 | 00:00:00 | 00:00:00 | |
| DO3MHA-11 | 2026-09-04 00:21:07 | 45.08357 | 9.22990 | 209° | 20km/h | 20030m | 5.1m/s | -55.9°C | 4.7% | 0hPa | 2.5V | 00:00:00 | 01:47:27 | 00:00:00 | |
| IW2NTF | 2026-09-04 00:21:06 | 45.08384 | 9.23000 | 188° | 24km/h | 20004m | 4.7m/s | -55.8°C | 4.6% | 0hPa | 2.5V | 08:30:00 | 01:47:21 | 00:00:00 | |
| DO3MHA-11 | 2026-09-04 00:20:57 | 45.08406 | 9.23001 | 183° | 22km/h | 19986m | 5.1m/s | -55.7°C | 4.6% | 0hPa | 2.5V | 00:00:00 | 01:47:17 | 00:00:00 | |
| IW2NTF | 2026-09-04 00:20:54 | 45.08436 | 9.22994 | 160° | 22km/h | 19959m | 5m/s | -55.6°C | 4.5% | 0hPa | 2.5V | 08:30:00 | 01:47:11 | 00:00:00 | |
| DO3MHA-11 | 2026-09-04 00:20:47 | 45.08461 | 9.22986 | 172° | 24km/h | 19941m | 5.1m/s | -55.6°C | 4.5% | 0hPa | 2.6V | 00:00:00 | 01:47:07 | 00:00:00 | |
| IW2NTF | 2026-09-04 00:20:44 | 45.08497 | 9.22986 | 174° | 22km/h | 19914m | 4.9m/s | -56°C | 4.5% | 0hPa | 2.6V | 08:30:00 | 01:47:01 | 00:00:00 | |
| DB0UT-7 | 2026-09-04 00:20:41 | 45.08497 | 9.22986 | 175° | 31km/h | 19914m | 4.9m/s | -56.0°C | 4.5% | 0hPa | 2.5V | 00:00:00 | 01:47:01 | 00:00:00 | |
| DO3MHA-11 | 2026-09-04 00:20:37 | 45.08518 | 9.22978 | 163° | 29km/h | 19896m | 4.2m/s | -56.1°C | 4.5% | 0hPa | 2.5V | 00:00:00 | 01:46:57 | 00:00:00 | |
| IW2NTF | 2026-09-04 00:20:33 | 45.08556 | 9.22958 | 162° | 33km/h | 19870m | 5.5m/s | -56.5°C | 4.6% | 0hPa | 2.5V | 08:30:00 | 01:46:51 | 00:00:00 | |
| DO3MHA-11 | 2026-09-04 00:20:27 | 45.08589 | 9.22943 | 156° | 33km/h | 19853m | 4.2m/s | -56.7°C | 4.8% | 0hPa | 2.5V | 00:00:00 | 01:46:47 | 00:00:00 | |
| IW2NTF | 2026-09-04 00:20:23 | 45.08627 | 9.22903 | 140° | 35km/h | 19827m | 4.5m/s | -57.2°C | 4.8% | 0hPa | 2.5V | 08:30:00 | 01:46:41 | 00:00:00 | |
| DO3MHA-11 | 2026-09-04 00:20:17 | 45.08655 | 9.22874 | 149° | 38km/h | 19809m | 5.0m/s | -57.3°C | 5.0% | 0hPa | 2.6V | 00:00:00 | 01:46:37 | 00:00:00 | |
| IW2NTF | 2026-09-04 00:20:15 | 45.08704 | 9.22834 | 142° | 38km/h | 19781m | 5.1m/s | -57.4°C | 5% | 0hPa | 2.6V | 08:30:00 | 01:46:31 | 00:00:00 | |
| DB0UT-7 | 2026-09-04 00:20:11 | 45.08704 | 9.22834 | 143° | 33km/h | 19782m | 5.1m/s | -57.4°C | 5.0% | 0hPa | 2.6V | 00:00:00 | 00:00:00 | 08:30:00 | |
| DO3MHA-11 | 2026-09-04 00:20:07 | 45.08732 | 9.22795 | 131° | 35km/h | 19764m | 4.5m/s | -57.3°C | 4.9% | 0hPa | 2.5V | 00:00:00 | 01:46:27 | 00:00:00 | |
| IW2NTF | 2026-09-04 00:20:04 | 45.08772 | 9.22748 | 144° | 33km/h | 19736m | 4.8m/s | -57.2°C | 4.8% | 0hPa | 2.5V | 08:30:00 | 01:46:21 | 00:00:00 | |
| DO3MHA-11 | 2026-09-04 00:19:57 | 45.08799 | 9.22721 | 145° | 31km/h | 19719m | 3.7m/s | -57.2°C | 4.9% | 0hPa | 2.5V | 00:00:00 | 01:46:17 | 00:00:00 | |
| IW2NTF | 2026-09-04 00:19:54 | 45.08835 | 9.22676 | 135° | 35km/h | 19692m | 4m/s | -57.6°C | 5.1% | 0hPa | 2.5V | 08:30:00 | 01:46:11 | 00:00:00 | |
| DO3MHA-11 | 2026-09-04 00:19:47 | 45.08858 | 9.22643 | 138° | 31km/h | 19675m | 4.7m/s | -57.6°C | 5.1% | 0hPa | 2.6V | 00:00:00 | 01:46:07 | 08:30:00 | |
| IW2NTF | 2026-09-04 00:19:44 | 45.08891 | 9.22594 | 125° | 31km/h | 19647m | 5m/s | -57.5°C | 5.1% | 0hPa | 2.6V | 08:30:00 | 01:46:01 | 00:00:00 | |
| DB0UT-7 | 2026-09-04 00:19:41 | 45.08891 | 9.22594 | 126° | 26km/h | 19648m | 4.9m/s | -57.5°C | 5.1% | 0hPa | 2.5V | 00:00:00 | 01:46:01 | 00:00:00 | |
| DO3MHA-11 | 2026-09-04 00:19:37 | 45.08909 | 9.22557 | 120° | 26km/h | 19630m | 4.8m/s | -57.4°C | 5.1% | 0hPa | 2.5V | 00:00:00 | 01:45:57 | 00:00:00 | |
| IW2NTF | 2026-09-04 00:19:34 | 45.08935 | 9.22515 | 143° | 27km/h | 19603m | 4.1m/s | -57.3°C | 5% | 0hPa | 2.5V | 08:30:00 | 01:45:51 | 00:00:00 | |
| DO3MHA-11 | 2026-09-04 00:19:27 | 45.08954 | 9.22492 | 138° | 24km/h | 19586m | 5.4m/s | -57.3°C | 5.1% | 0hPa | 2.5V | 00:00:00 | 01:45:47 | 00:00:00 | |
| IW2NTF | 2026-09-04 00:19:24 | 45.08976 | 9.22455 | 133° | 20km/h | 19558m | 4.5m/s | -57.2°C | 5.1% | 0hPa | 2.5V | 08:30:00 | 01:45:41 | 00:00:00 | |
| DO3MHA-11 | 2026-09-04 00:19:17 | 45.08994 | 9.22435 | 144° | 20km/h | 19541m | 5.0m/s | -57.0°C | 5.0% | 0hPa | 2.6V | 00:00:00 | 01:45:37 | 00:00:00 | |
| IW2NTF | 2026-09-04 00:19:13 | 45.09019 | 9.22409 | 147° | 20km/h | 19513m | 5.2m/s | -56.8°C | 4.9% | 0hPa | 2.6V | 08:30:00 | 01:45:31 | 00:00:00 | |
| DB0UT-7 | 2026-09-04 00:19:11 | 45.09019 | 9.22409 | 148° | 15km/h | 19513m | 5.2m/s | -56.8°C | 4.9% | 0hPa | 2.5V | 00:00:00 | 00:00:00 | 00:00:00 | |
| DO3MHA-11 | 2026-09-04 00:19:07 | 45.09034 | 9.22397 | 154° | 16km/h | 19496m | 4.6m/s | -56.6°C | 4.9% | 0hPa | 2.5V | 00:00:00 | 01:45:27 | 00:00:00 | |
| IW2NTF | 2026-09-04 00:19:02 | 45.09053 | 9.22375 | 137° | 16km/h | 19470m | 5m/s | -56.5°C | 4.8% | 0hPa | 2.5V | 08:30:00 | 01:45:21 | 00:00:00 | |
| DO3MHA-11 | 2026-09-04 00:18:57 | 45.09067 | 9.22362 | 156° | 13km/h | 19452m | 4.8m/s | -56.3°C | 4.8% | 0hPa | 2.5V | 00:00:00 | 01:45:17 | 00:00:00 | |
| IW2NTF | 2026-09-04 00:18:56 | 45.09085 | 9.22350 | 135° | 13km/h | 19424m | 5.1m/s | -56.1°C | 4.6% | 0hPa | 2.5V | 08:30:00 | 01:45:11 | 00:00:00 | |
| DO3MHA-11 | 2026-09-04 00:18:47 | 45.09094 | 9.22335 | 140° | 15km/h | 19407m | 4.1m/s | -56.1°C | 4.5% | 0hPa | 2.6V | 00:00:00 | 01:45:07 | 00:00:00 | |
| NBG1-10 | 2026-09-04 00:18:46 | 45.09097 | 9.22331 | 146° | 20km/h | 19404m | 3.2m/s | -56.2°C | 4.5% | 0hPa | 2.7V | 00:00:00 | 01:45:06 | 00:00:00 | |
| IW2NTF | 2026-09-04 00:18:41 | 45.09113 | 9.22319 | 152° | 15km/h | 19382m | 4.2m/s | -56.7°C | 4.7% | 0hPa | 2.7V | 08:30:00 | 01:45:01 | 00:00:00 | |
| DB0UT-7 | 2026-09-04 00:18:41 | 45.09113 | 9.22319 | 153° | 20km/h | 19382m | 4.1m/s | -56.6°C | 4.7% | 0hPa | 2.7V | 00:00:00 | 01:45:01 | 00:00:00 | |
| DO3MHA-11 | 2026-09-04 00:18:37 | 45.09125 | 9.22310 | 157° | 20km/h | 19365m | 3.8m/s | -56.7°C | 4.7% | 0hPa | 2.5V | 00:00:00 | 01:44:57 | 00:00:00 | |
| IW2NTF | 2026-09-04 00:18:32 | 45.09151 | 9.22291 | 152° | 20km/h | 19339m | 3m/s | -57.1°C | 4.8% | 0hPa | 2.5V | 08:30:00 | 01:44:51 | 00:00:00 | |
| DO3MHA-11 | 2026-09-04 00:18:27 | 45.09173 | 9.22277 | 158° | 22km/h | 19323m | 3.6m/s | -57.4°C | 4.9% | 0hPa | 2.5V | 00:00:00 | 01:44:47 | 00:00:00 | |
| IW2NTF | 2026-09-04 00:18:21 | 45.09212 | 9.22250 | 141° | 22km/h | 19287m | 4.4m/s | -57.5°C | 5% | 0hPa | 2.5V | 08:30:00 | 01:44:39 | 00:00:00 | |
| DO3MHA-11 | 2026-09-04 00:18:17 | 45.09220 | 9.22240 | 134° | 20km/h | 19279m | 3.8m/s | -57.5°C | 5.0% | 0hPa | 2.6V | 00:00:00 | 01:44:37 | 08:30:00 | |
| NBG1-10 | 2026-09-04 00:18:13 | 45.09236 | 9.22221 | 144° | 22km/h | 19262m | 4.2m/s | -57.6°C | 5.0% | 0hPa | 2.5V | 00:00:00 | 01:44:33 | 08:30:00 | |
| IW2NTF | 2026-09-04 00:18:12 | 45.09252 | 9.22205 | 153° | 18km/h | 19245m | 4.8m/s | -57.7°C | 5.1% | 0hPa | 2.5V | 08:30:00 | 01:44:29 | 00:00:00 | |
| DB0UT-7 | 2026-09-04 00:18:11 | 45.09244 | 9.22212 | 144° | 22km/h | 19253m | 4.2m/s | -57.6°C | 5.0% | 0hPa | 2.6V | 00:00:00 | 00:00:00 | 00:00:00 | |
| DO3MHA-11 | 2026-09-04 00:18:07 | 45.09261 | 9.22200 | 166° | 18km/h | 19237m | 3.4m/s | -57.6°C | 5.1% | 0hPa | 2.6V | 00:00:00 | 01:44:27 | 00:00:00 | |
| IW2NTF | 2026-09-04 00:18:01 | 45.09298 | 9.22192 | 171° | 22km/h | 19203m | 4.3m/s | -57.5°C | 5% | 0hPa | 2.6V | 08:30:00 | 01:44:19 | 00:00:00 | |
| DO3MHA-11 | 2026-09-04 00:17:57 | 45.09308 | 9.22189 | 169° | 24km/h | 19196m | 4.2m/s | -57.4°C | 4.9% | 0hPa | 2.7V | 00:00:00 | 01:44:17 | 00:00:00 | |
| IW2NTF | 2026-09-04 00:17:51 | 45.09367 | 9.22184 | 177° | 27km/h | 19154m | 4.4m/s | -57.4°C | 4.8% | 0hPa | 2.7V | 08:30:00 | 01:44:07 | 00:00:00 | |
| DO3MHA-11 | 2026-09-04 00:17:47 | 45.09366 | 9.22184 | 178° | 26km/h | 19154m | 4.3m/s | -57.3°C | 4.8% | 0hPa | 2.7V | 00:00:00 | 01:44:07 | 00:00:00 | |
| IW2NTF | 2026-09-04 00:17:42 | 45.09430 | 9.22178 | 179° | 29km/h | 19113m | 4.6m/s | -57.6°C | 4.9% | 0hPa | 2.5V | 08:30:00 | 01:43:57 | 00:00:00 | |
| DB0UT-7 | 2026-09-04 00:17:41 | 45.09404 | 9.22180 | 176° | 31km/h | 19129m | 3.5m/s | -57.6°C | 4.9% | 0hPa | 2.5V | 00:00:00 | 01:44:01 | 00:00:00 | |
| NBG1-10 | 2026-09-04 00:17:40 | 45.09410 | 9.22179 | 177° | 31km/h | 19125m | 4.7m/s | -57.6°C | 4.9% | 0hPa | 2.5V | 00:00:00 | 01:44:00 | 00:00:00 | |
| DO3MHA-11 | 2026-09-04 00:17:37 | 45.09430 | 9.22178 | 180° | 33km/h | 19113m | 4.5m/s | -57.6°C | 4.9% | 0hPa | 2.5V | 00:00:00 | 01:43:57 | 00:00:00 | |
| IW2NTF | 2026-09-04 00:17:31 | 45.09512 | 9.22167 | 171° | 31km/h | 19072m | 4.8m/s | -57.9°C | 4.9% | 0hPa | 2.5V | 08:30:00 | 01:43:47 | 00:00:00 | |
| DO3MHA-11 | 2026-09-04 00:17:27 | 45.09512 | 9.22167 | 172° | 35km/h | 19072m | 4.7m/s | -57.8°C | 4.9% | 0hPa | 2.6V | 00:00:00 | 01:43:47 | 00:00:00 | |
| IW2NTF | 2026-09-04 00:17:22 | 45.09596 | 9.22160 | 174° | 31km/h | 19032m | 3.7m/s | -58.3°C | 5.1% | 0hPa | 2.6V | 08:30:00 | 01:43:37 | 00:00:00 | |
| DO3MHA-11 | 2026-09-04 00:17:17 | 45.09596 | 9.22160 | 175° | 31km/h | 19032m | 3.6m/s | -58.2°C | 5.1% | 0hPa | 2.6V | 00:00:00 | 01:43:37 | 00:00:00 | |
| IW2NTF | 2026-09-04 00:17:12 | 45.09668 | 9.22121 | 154° | 27km/h | 18989m | 4.2m/s | -58.4°C | 5.2% | 0hPa | 2.5V | 08:30:00 | 01:43:27 | 00:00:00 | |
| DB0UT-7 | 2026-09-04 00:17:11 | 45.09642 | 9.22141 | 147° | 31km/h | 19006m | 3.8m/s | -58.3°C | 5.2% | 0hPa | 2.7V | 00:00:00 | 00:00:00 | 00:00:00 | |
| NBG1-10 | 2026-09-04 00:17:07 | 45.09668 | 9.22121 | 155° | 31km/h | 18990m | 4.2m/s | -58.4°C | 5.2% | 0hPa | 2.5V | 00:00:00 | 01:43:27 | 00:00:00 | |
| IW2NTF | 2026-09-04 00:17:02 | 45.09739 | 9.22078 | 148° | 33km/h | 18947m | 4.9m/s | -58.5°C | 5.1% | 0hPa | 2.5V | 08:30:00 | 01:43:17 | 00:00:00 | |
| DO3MHA-11 | 2026-09-04 00:16:57 | 45.09738 | 9.22077 | 149° | 31km/h | 18948m | 4.8m/s | -58.4°C | 5.1% | 0hPa | 2.7V | 00:00:00 | 01:43:17 | 00:00:00 | |
| IW2NTF | 2026-09-04 00:16:51 | 45.09798 | 9.22025 | 143° | 31km/h | 18906m | 5m/s | -58.8°C | 5.3% | 0hPa | 2.7V | 08:30:00 | 01:43:07 | 00:00:00 | |
| DO3MHA-11 | 2026-09-04 00:16:43 | 45.09825 | 9.21991 | 139° | 33km/h | 18889m | 3.9m/s | -58.7°C | 5.4% | 0hPa | 2.5V | 00:00:00 | 01:43:03 | 08:30:00 | |
| IW2NTF | 2026-09-04 00:16:42 | 45.09857 | 9.21936 | 123° | 31km/h | 18863m | 4.8m/s | -58.6°C | 5.2% | 0hPa | 2.5V | 08:30:00 | 01:42:57 | 00:00:00 | |
| DB0UT-7 | 2026-09-04 00:16:41 | 45.09839 | 9.21973 | 133° | 29km/h | 18881m | 4.6m/s | -58.6°C | 5.4% | 0hPa | 2.5V | 00:00:00 | 01:43:01 | 00:00:00 | |
| DO3MHA-11 | 2026-09-04 00:16:33 | 45.09875 | 9.21900 | 125° | 27km/h | 18845m | 4.1m/s | -58.5°C | 5.1% | 0hPa | 2.5V | 00:00:00 | 01:42:53 | 00:00:00 | |
| IW2NTF | 2026-09-04 00:16:32 | 45.09903 | 9.21852 | 121° | 26km/h | 18819m | 4.2m/s | -58.6°C | 5.2% | 0hPa | 2.5V | 08:30:00 | 01:42:47 | 00:00:00 | |
| NBG1-10 | 2026-09-04 00:16:28 | 45.09899 | 9.21860 | 130° | 27km/h | 18824m | 5.4m/s | -58.5°C | 5.1% | 0hPa | 2.5V | 00:00:00 | 01:42:48 | 00:00:00 | |
| DO3MHA-11 | 2026-09-04 00:16:23 | 45.09917 | 9.21820 | 128° | 27km/h | 18803m | 4.0m/s | -58.7°C | 5.3% | 0hPa | 2.7V | 00:00:00 | 01:42:43 | 00:00:00 | |
| IW2NTF | 2026-09-04 00:16:21 | 45.09938 | 9.21776 | 120° | 27km/h | 18776m | 4.9m/s | -58.6°C | 5.2% | 0hPa | 2.7V | 08:30:00 | 01:42:37 | 00:00:00 | |
| DO3MHA-11 | 2026-09-04 00:16:13 | 45.09951 | 9.21736 | 111° | 26km/h | 18759m | 3.8m/s | -58.6°C | 5.2% | 0hPa | 2.5V | 00:00:00 | 01:42:33 | 00:00:00 | |
| IW2NTF | 2026-09-04 00:16:12 | 45.09966 | 9.21677 | 109° | 22km/h | 18733m | 4.2m/s | -59°C | 5.2% | 0hPa | 2.5V | 08:30:00 | 01:42:27 | 00:00:00 | |
| DB0UT-7 | 2026-09-04 00:16:11 | 45.09957 | 9.21714 | 113° | 27km/h | 18750m | 4.0m/s | -58.7°C | 5.3% | 0hPa | 2.5V | 00:00:00 | 00:00:00 | 00:00:00 | |
| DO3MHA-11 | 2026-09-04 00:16:03 | 45.09975 | 9.21654 | 120° | 27km/h | 18716m | 4.7m/s | -59.1°C | 5.3% | 0hPa | 2.5V | 00:00:00 | 01:42:23 | 00:00:00 | |
| IW2NTF | 2026-09-04 00:16:00 | 45.09995 | 9.21606 | 119° | 35km/h | 18690m | 4.8m/s | -59.2°C | 5.4% | 0hPa | 2.5V | 08:30:00 | 01:42:17 | 00:00:00 | |
| NBG1-10 | 2026-09-04 00:15:55 | 45.10003 | 9.21584 | 121° | 29km/h | 18682m | 3.1m/s | -59.1°C | 5.5% | 0hPa | 2.7V | 00:00:00 | 01:42:15 | 00:00:00 | |
| DO3MHA-11 | 2026-09-04 00:15:53 | 45.10012 | 9.21567 | 135° | 27km/h | 18674m | 4.4m/s | -59.1°C | 5.5% | 0hPa | 2.7V | 00:00:00 | 01:42:13 | 00:00:00 | |
| IW2NTF | 2026-09-04 00:15:50 | 45.10042 | 9.21523 | 120° | 27km/h | 18650m | 3.5m/s | -59.1°C | 5.4% | 0hPa | 2.7V | 08:30:00 | 01:42:07 | 00:00:00 | |
| DO3MHA-11 | 2026-09-04 00:15:43 | 45.10056 | 9.21492 | 130° | 29km/h | 18634m | 4.0m/s | -58.9°C | 5.4% | 0hPa | 2.5V | 00:00:00 | 01:42:03 | 00:00:00 | |
| DB0UT-7 | 2026-09-04 00:15:41 | 45.10067 | 9.21474 | 131° | 31km/h | 18626m | 3.6m/s | -58.9°C | 5.4% | 0hPa | 2.7V | 00:00:00 | 01:42:01 | 08:30:00 | |
| IW2NTF | 2026-09-04 00:15:40 | 45.10088 | 9.21442 | 135° | 26km/h | 18610m | 4.1m/s | -58.9°C | 5.2% | 0hPa | 2.5V | 08:30:00 | 01:41:57 | 00:00:00 | |
| DO3MHA-11 | 2026-09-04 00:15:33 | 45.10108 | 9.21415 | 137° | 29km/h | 18592m | 4.2m/s | -58.9°C | 5.3% | 0hPa | 2.5V | 00:00:00 | 01:41:53 | 00:00:00 | |
| IW2NTF | 2026-09-04 00:15:30 | 45.10139 | 9.21369 | 135° | 31km/h | 18568m | 4.3m/s | -59.1°C | 5.4% | 0hPa | 2.5V | 08:30:00 | 01:41:47 | 00:00:00 | |
| IW2NTF | 2026-09-04 00:15:23 | 45.10198 | 9.21295 | 141° | 33km/h | 18525m | 4.8m/s | -59°C | 5.5% | 0hPa | 2.7V | 08:30:00 | 01:41:37 | 00:00:00 | |
| NBG1-10 | 2026-09-04 00:15:22 | 45.10167 | 9.21334 | 138° | 33km/h | 18547m | 4.6m/s | -59.1°C | 5.6% | 0hPa | 2.5V | 00:00:00 | 01:41:42 | 00:00:00 | |
| DO3MHA-11 | 2026-09-04 00:15:13 | 45.10225 | 9.21268 | 150° | 31km/h | 18507m | 3.6m/s | -58.9°C | 5.3% | 0hPa | 2.5V | 00:00:00 | 01:41:33 | 08:30:00 | |
| IW2NTF | 2026-09-04 00:15:11 | 45.10266 | 9.21233 | 144° | 29km/h | 18482m | 3.8m/s | -58.8°C | 5.2% | 0hPa | 2.5V | 08:30:00 | 01:41:27 | 00:00:00 | |
| IW2NTF | 2026-09-04 00:14:58 | 45.10318 | 9.21153 | 130° | 31km/h | 18439m | 3.9m/s | -59.2°C | 5.4% | 0hPa | 2.5V | 08:30:00 | 01:41:17 | 00:00:00 | |
| DO3MHA-11 | 2026-09-04 00:14:53 | 45.10340 | 9.21119 | 131° | 37km/h | 18422m | 5.1m/s | -59.4°C | 5.5% | 0hPa | 2.7V | 00:00:00 | 01:41:13 | 00:00:00 | |
| IW2NTF | 2026-09-04 00:14:52 | 45.10374 | 9.21052 | 117° | 37km/h | 18396m | 4.2m/s | -59.4°C | 5.5% | 0hPa | 2.7V | 08:30:00 | 01:41:07 | 00:00:00 | |
| NBG1-10 | 2026-09-04 00:14:49 | 45.10365 | 9.21074 | 124° | 29km/h | 18404m | 4.0m/s | -59.4°C | 5.6% | 0hPa | 2.5V | 00:00:00 | 01:41:09 | 00:00:00 | |
| DO3MHA-11 | 2026-09-04 00:14:43 | 45.10388 | 9.21008 | 114° | 29km/h | 18379m | 4.8m/s | -59.2°C | 5.6% | 0hPa | 2.5V | 00:00:00 | 01:41:03 | 00:00:00 | |
| IW2NTF | 2026-09-04 00:14:42 | 45.10406 | 9.20951 | 116° | 31km/h | 18355m | 4.3m/s | -59.2°C | 5.5% | 0hPa | 2.5V | 08:30:00 | 01:40:57 | 00:00:00 | |
| DB0UT-7 | 2026-09-04 00:14:41 | 45.10394 | 9.20990 | 114° | 26km/h | 18372m | 3.3m/s | -59.2°C | 5.5% | 0hPa | 2.5V | 00:00:00 | 01:41:01 | 00:00:00 | |
| DO3MHA-11 | 2026-09-04 00:14:33 | 45.10422 | 9.20916 | 128° | 27km/h | 18338m | 4.3m/s | -59.1°C | 5.5% | 0hPa | 2.5V | 00:00:00 | 01:40:53 | 00:00:00 | |
| IW2NTF | 2026-09-04 00:14:31 | 45.10453 | 9.20868 | 129° | 27km/h | 18312m | 5m/s | -59°C | 5.5% | 0hPa | 2.5V | 08:30:00 | 01:40:47 | 00:00:00 | |
| DO3MHA-11 | 2026-09-04 00:14:23 | 45.10467 | 9.20840 | 130° | 24km/h | 18295m | 4.7m/s | -58.9°C | 5.5% | 0hPa | 2.7V | 00:00:00 | 01:40:43 | 00:00:00 | |
| IW2NTF | 2026-09-04 00:14:22 | 45.10491 | 9.20802 | 131° | 26km/h | 18271m | 4.9m/s | -58.8°C | 5.4% | 0hPa | 2.7V | 08:30:00 | 01:40:37 | 00:00:00 | |
| NBG1-10 | 2026-09-04 00:14:16 | 45.10495 | 9.20795 | 135° | 26km/h | 18267m | 4.0m/s | 0°C | 0% | 0hPa | 2.5V | 00:00:00 | 01:40:36 | 00:00:00 | |
| DO3MHA-11 | 2026-09-04 00:14:13 | 45.10506 | 9.20777 | 122° | 22km/h | 18254m | 4.6m/s | -58.7°C | 5.4% | 0hPa | 2.5V | 00:00:00 | 01:40:33 | 00:00:00 | |
| IW2NTF | 2026-09-04 00:14:11 | 45.10523 | 9.20747 | 153° | 24km/h | 18230m | 4.2m/s | -58.6°C | 5.4% | 0hPa | 2.5V | 08:30:00 | 01:40:27 | 00:00:00 | |
| DB0UT-7 | 2026-09-04 00:14:11 | 45.10510 | 9.20764 | 112° | 26km/h | 18247m | 3.3m/s | -58.6°C | 5.4% | 0hPa | 2.7V | 00:00:00 | 00:00:00 | 00:00:00 | |
| DO3MHA-11 | 2026-09-04 00:14:03 | 45.10547 | 9.20724 | 139° | 24km/h | 18214m | 4.4m/s | -58.5°C | 5.4% | 0hPa | 2.5V | 00:00:00 | 01:40:23 | 00:00:00 | |
| IW2NTF | 2026-09-04 00:14:02 | 45.10571 | 9.20691 | 132° | 26km/h | 18189m | 4.1m/s | -58.4°C | 5.3% | 0hPa | 2.5V | 08:30:00 | 01:40:17 | 00:00:00 | |
| DO3MHA-11 | 2026-09-04 00:13:53 | 45.10589 | 9.20664 | 140° | 29km/h | 18172m | 4.6m/s | -58.3°C | 5.2% | 0hPa | 2.7V | 00:00:00 | 01:40:13 | 00:00:00 | |
| IW2NTF | 2026-09-04 00:13:50 | 45.10629 | 9.20637 | 161° | 31km/h | 18147m | 5m/s | -58.3°C | 5.2% | 0hPa | 2.7V | 08:30:00 | 01:40:07 | 00:00:00 | |
| NBG1-10 | 2026-09-04 00:13:43 | 45.10656 | 9.20623 | 153° | 40km/h | 18130m | 4.6m/s | 0°C | 0% | 0hPa | 2.5V | 00:00:00 | 01:40:03 | 00:00:00 | |
| IW2NTF | 2026-09-04 00:13:42 | 45.10693 | 9.20590 | 150° | 33km/h | 18105m | 4.8m/s | -58.4°C | 5.3% | 0hPa | 2.5V | 08:30:00 | 01:39:57 | 00:00:00 | |
| DB0UT-7 | 2026-09-04 00:13:41 | 45.10668 | 9.20612 | 147° | 37km/h | 18122m | 4.0m/s | -58.2°C | 5.2% | 0hPa | 2.5V | 00:00:00 | 01:40:01 | 00:00:00 | |
| DO3MHA-11 | 2026-09-04 00:13:33 | 45.10728 | 9.20572 | 170° | 35km/h | 18087m | 4.2m/s | -58.8°C | 5.4% | 0hPa | 2.5V | 00:00:00 | 01:39:53 | 00:00:00 | |
| IW2NTF | 2026-09-04 00:13:29 | 45.10777 | 9.20554 | 155° | 31km/h | 18061m | 3.9m/s | -58.8°C | 5.3% | 0hPa | 2.5V | 08:30:00 | 01:39:47 | 00:00:00 | |
| DO3MHA-11 | 2026-09-04 00:13:23 | 45.10809 | 9.20527 | 151° | 42km/h | 18045m | 4.2m/s | -58.8°C | 5.4% | 0hPa | 2.7V | 00:00:00 | 01:39:43 | 00:00:00 | |
| IW2NTF | 2026-09-04 00:13:22 | 45.10868 | 9.20489 | 155° | 42km/h | 18021m | 3.4m/s | -59.3°C | 5.5% | 0hPa | 2.7V | 08:30:00 | 01:39:37 | 00:00:00 | |
| DO3MHA-11 | 2026-09-04 00:13:13 | 45.10903 | 9.20465 | 151° | 42km/h | 18004m | 4.4m/s | -59.2°C | 5.6% | 0hPa | 2.5V | 00:00:00 | 01:39:33 | 00:00:00 | |
| DB0UT-7 | 2026-09-04 00:13:11 | 45.10920 | 9.20451 | 149° | 47km/h | 17996m | 4.4m/s | -59.2°C | 5.6% | 0hPa | 2.5V | 00:00:00 | 00:00:00 | 00:00:00 | |
| IW2NTF | 2026-09-04 00:13:10 | 45.10957 | 9.20422 | 150° | 46km/h | 17979m | 3.9m/s | -59.2°C | 5.6% | 0hPa | 2.5V | 08:30:00 | 01:39:27 | 00:00:00 | |
| IW2NTF | 2026-09-04 00:13:03 | 45.11051 | 9.20351 | 152° | 47km/h | 17940m | 5m/s | -59.6°C | 5.5% | 0hPa | 2.5V | 08:30:00 | 01:39:17 | 00:00:00 | |
| DO3MHA-11 | 2026-09-04 00:12:53 | 45.11096 | 9.20319 | 149° | 53km/h | 17923m | 4.8m/s | -59.6°C | 5.5% | 0hPa | 2.7V | 00:00:00 | 01:39:13 | 00:00:00 | |
| IW2NTF | 2026-09-04 00:12:49 | 45.11157 | 9.20261 | 142° | 53km/h | 17899m | 4.6m/s | -60.1°C | 5.8% | 0hPa | 2.7V | 08:30:00 | 01:39:07 | 00:00:00 | |
| DO3MHA-11 | 2026-09-04 00:12:43 | 45.11205 | 9.20214 | 150° | 55km/h | 17883m | 3.2m/s | -60.5°C | 5.9% | 0hPa | 2.5V | 00:00:00 | 01:39:03 | 00:00:00 | |
| DB0UT-7 | 2026-09-04 00:12:41 | 45.11231 | 9.20193 | 150° | 58km/h | 17877m | 3.3m/s | -60.8°C | 6.0% | 0hPa | 2.7V | 00:00:00 | 01:39:01 | 00:00:00 | |
| IW2NTF | 2026-09-04 00:12:37 | 45.11274 | 9.20149 | 141° | 51km/h | 17862m | 3.9m/s | -61°C | 6.2% | 0hPa | 2.5V | 08:30:00 | 01:38:57 | 00:00:00 | |
| DO3MHA-11 | 2026-09-04 00:12:33 | 45.11316 | 9.20101 | 138° | 64km/h | 17846m | 4.2m/s | -60.9°C | 6.3% | 0hPa | 2.5V | 00:00:00 | 01:38:53 | 00:00:00 | |
| IW2NTF | 2026-09-04 00:12:32 | 45.11386 | 9.20013 | 136° | 64km/h | 17822m | 4.2m/s | -60.8°C | 6.1% | 0hPa | 2.5V | 08:30:00 | 01:38:47 | 00:00:00 | |
| DO3MHA-11 | 2026-09-04 00:12:23 | 45.11436 | 9.19949 | 140° | 58km/h | 17807m | 3.6m/s | -60.6°C | 6.1% | 0hPa | 2.7V | 00:00:00 | 01:38:43 | 00:00:00 | |
| IW2NTF | 2026-09-04 00:12:19 | 45.11507 | 9.19865 | 143° | 53km/h | 17783m | 3.3m/s | -60.8°C | 6.2% | 0hPa | 2.7V | 08:30:00 | 01:38:37 | 00:00:00 | |
| IW2NTF | 2026-09-04 00:12:13 | 45.11615 | 9.19733 | 138° | 55km/h | 17745m | 3.9m/s | -61°C | 6.3% | 0hPa | 2.5V | 08:30:00 | 01:38:27 | 00:00:00 | |
| DB0UT-7 | 2026-09-04 00:12:11 | 45.11569 | 9.19785 | 140° | 51km/h | 17761m | 3.9m/s | -60.8°C | 6.2% | 0hPa | 2.5V | 00:00:00 | 00:00:00 | 00:00:00 | |
| DO3MHA-11 | 2026-09-04 00:12:03 | 45.11655 | 9.19686 | 141° | 51km/h | 17730m | 3.1m/s | -60.8°C | 6.3% | 0hPa | 2.5V | 00:00:00 | 01:38:23 | 00:00:00 | |
| IW2NTF | 2026-09-04 00:12:00 | 45.11711 | 9.19615 | 137° | 53km/h | 17706m | 3.9m/s | -60.8°C | 6.2% | 0hPa | 2.5V | 08:30:00 | 01:38:17 | 00:00:00 | |
| DO3MHA-11 | 2026-09-04 00:11:53 | 45.11749 | 9.19562 | 136° | 51km/h | 17689m | 4.6m/s | -60.8°C | 6.2% | 0hPa | 2.5V | 00:00:00 | 01:38:13 | 00:00:00 | |
| IW2NTF | 2026-09-04 00:11:52 | 45.11805 | 9.19485 | 136° | 49km/h | 17664m | 4.5m/s | -60.7°C | 6.2% | 0hPa | 2.5V | 08:30:00 | 01:38:07 | 00:00:00 | |
| DB0UT-7 | 2026-09-04 00:11:41 | 45.11860 | 9.19415 | 142° | 49km/h | 17640m | 4.9m/s | -60.7°C | 6.2% | 0hPa | 2.7V | 00:00:00 | 01:38:01 | 00:00:00 | |
| IW2NTF | 2026-09-04 00:11:40 | 45.11899 | 9.19373 | 137° | 47km/h | 17622m | 3.9m/s | -60.6°C | 6.2% | 0hPa | 2.7V | 08:30:00 | 01:37:57 | 00:00:00 | |
| DO3MHA-11 | 2026-09-04 00:11:33 | 45.11934 | 9.19326 | 135° | 47km/h | 17606m | 4.0m/s | -60.6°C | 6.1% | 0hPa | 2.5V | 00:00:00 | 01:37:53 | 00:00:00 | |
| IW2NTF | 2026-09-04 00:11:28 | 45.11982 | 9.19254 | 136° | 46km/h | 17578m | 4m/s | -60.6°C | 6.1% | 0hPa | 2.5V | 08:30:00 | 01:37:47 | 00:00:00 | |
| DO3MHA-11 | 2026-09-04 00:11:23 | 45.12015 | 9.19204 | 133° | 53km/h | 17561m | 5.0m/s | -60.8°C | 6.3% | 0hPa | 2.5V | 00:00:00 | 01:37:43 | 00:00:00 | |
| IW2NTF | 2026-09-04 00:11:21 | 45.12082 | 9.19088 | 127° | 51km/h | 17527m | 4.2m/s | -60.9°C | 6.3% | 0hPa | 2.5V | 08:30:00 | 01:37:35 | 00:00:00 | |
| DB0UT-7 | 2026-09-04 00:11:11 | 45.12112 | 9.19027 | 126° | 46km/h | 17510m | 4.6m/s | -60.8°C | 6.2% | 0hPa | 2.5V | 00:00:00 | 00:00:00 | 08:30:00 | |
| IW2NTF | 2026-09-04 00:11:10 | 45.12156 | 9.18932 | 125° | 51km/h | 17483m | 3.8m/s | -60.7°C | 6.3% | 0hPa | 2.5V | 08:30:00 | 01:37:25 | 00:00:00 | |
| DO3MHA-11 | 2026-09-04 00:11:10 | 45.12119 | 9.19011 | 125° | 49km/h | 17505m | 3.5m/s | -60.8°C | 6.2% | 0hPa | 2.5V | 00:00:00 | 01:37:30 | 00:00:00 | |
| DO3MHA-11 | 2026-09-04 00:11:00 | 45.12186 | 9.18863 | 120° | 46km/h | 17462m | 4.9m/s | -60.7°C | 6.3% | 0hPa | 2.7V | 00:00:00 | 01:37:20 | 00:00:00 | |
| IW2NTF | 2026-09-04 00:10:58 | 45.12214 | 9.18795 | 121° | 47km/h | 17441m | 4.1m/s | -60.6°C | 6.2% | 0hPa | 2.7V | 08:30:00 | 01:37:15 | 00:00:00 | |
| DO3MHA-11 | 2026-09-04 00:10:50 | 45.12249 | 9.18725 | 122° | 37km/h | 17421m | 3.8m/s | -60.4°C | 6.1% | 0hPa | 2.7V | 00:00:00 | 01:37:10 | 00:00:00 | |
| IW2NTF | 2026-09-04 00:10:49 | 45.12280 | 9.18643 | 112° | 31km/h | 17390m | 3.5m/s | -60.3°C | 6% | 0hPa | 2.7V | 08:30:00 | 01:37:03 | 00:00:00 | |
| DB0UT-7 | 2026-09-04 00:10:41 | 45.12287 | 9.18623 | 123° | 35km/h | 17382m | 4.0m/s | -60.2°C | 6.0% | 0hPa | 2.5V | 00:00:00 | 01:37:01 | 00:00:00 | |
| DO3MHA-11 | 2026-09-04 00:10:40 | 45.12292 | 9.18613 | 126° | 38km/h | 17378m | 4.2m/s | -60.2°C | 6.0% | 0hPa | 2.5V | 00:00:00 | 01:37:00 | 08:30:00 | |
| IW2NTF | 2026-09-04 00:10:33 | 45.12333 | 9.18532 | 122° | 37km/h | 17347m | 4.9m/s | -60.5°C | 6.1% | 0hPa | 2.5V | 08:30:00 | 01:36:53 | 00:00:00 | |
| DO3MHA-11 | 2026-09-04 00:10:30 | 45.12345 | 9.18499 | 117° | 33km/h | 17335m | 5.1m/s | -60.4°C | 6.1% | 0hPa | 2.5V | 00:00:00 | 01:36:50 | 00:00:00 | |
| IW2NTF | 2026-09-04 00:10:23 | 45.12374 | 9.18433 | 128° | 33km/h | 17303m | 3.9m/s | -60.4°C | 6.1% | 0hPa | 2.5V | 08:30:00 | 01:36:43 | 00:00:00 | |
| DO3MHA-11 | 2026-09-04 00:10:20 | 45.12389 | 9.18401 | 121° | 31km/h | 17290m | 3.8m/s | -60.4°C | 6.2% | 0hPa | 2.5V | 00:00:00 | 01:36:40 | 00:00:00 | |
| IW2NTF | 2026-09-04 00:10:18 | 45.12418 | 9.18332 | 125° | 27km/h | 17259m | 5m/s | -60.4°C | 6.2% | 0hPa | 2.5V | 08:30:00 | 01:36:33 | 00:00:00 | |
| DB0UT-7 | 2026-09-04 00:10:11 | 45.12426 | 9.18317 | 129° | 37km/h | 17252m | 4.0m/s | -60.3°C | 6.2% | 0hPa | 2.7V | 00:00:00 | 00:00:00 | 00:00:00 | |
| DO3MHA-11 | 2026-09-04 00:10:09 | 45.12435 | 9.18300 | 124° | 33km/h | 17243m | 4.2m/s | -60.3°C | 6.1% | 0hPa | 2.7V | 00:00:00 | 01:36:29 | 00:00:00 | |
| IW2NTF | 2026-09-04 00:10:07 | 45.12461 | 9.18248 | 119° | 33km/h | 17216m | 4.1m/s | -60.4°C | 6% | 0hPa | 2.7V | 08:30:00 | 01:36:23 | 00:00:00 | |
| DO3MHA-11 | 2026-09-04 00:09:58 | 45.12485 | 9.18195 | 127° | 40km/h | 17192m | 4.8m/s | -60.2°C | 6.1% | 0hPa | 2.5V | 00:00:00 | 01:36:18 | 00:00:00 | |
| IW2NTF | 2026-09-04 00:09:56 | 45.12521 | 9.18143 | 137° | 42km/h | 17170m | 5.1m/s | -60.3°C | 6.2% | 0hPa | 2.5V | 08:30:00 | 01:36:13 | 00:00:00 | |
| IW2NTF | 2026-09-04 00:09:48 | 45.12585 | 9.18035 | 130° | 42km/h | 17124m | 4.8m/s | -60.2°C | 6.2% | 0hPa | 2.5V | 08:30:00 | 01:36:03 | 00:00:00 | |
| DO3MHA-11 | 2026-09-04 00:09:48 | 45.12556 | 9.18092 | 130° | 40km/h | 17148m | 4.1m/s | -60.3°C | 6.2% | 0hPa | 2.5V | 00:00:00 | 01:36:08 | 00:00:00 | |
| DB0UT-7 | 2026-09-04 00:09:41 | 45.12599 | 9.18012 | 132° | 37km/h | 17116m | 4.7m/s | -60.1°C | 6.2% | 0hPa | 2.5V | 00:00:00 | 01:36:01 | 00:00:00 | |
| DO3MHA-11 | 2026-09-04 00:09:38 | 45.12619 | 9.17978 | 130° | 37km/h | 17103m | 4.9m/s | -60.1°C | 6.1% | 0hPa | 2.5V | 00:00:00 | 01:35:58 | 00:00:00 | |
| IW2NTF | 2026-09-04 00:09:34 | 45.12647 | 9.17929 | 119° | 35km/h | 17080m | 3.9m/s | -60.1°C | 6.2% | 0hPa | 2.7V | 08:30:00 | 01:35:53 | 00:00:00 | |
| IW2NTF | 2026-09-04 00:09:28 | 45.12707 | 9.17825 | 134° | 33km/h | 17036m | 4.8m/s | -60°C | 6.1% | 0hPa | 2.7V | 08:30:00 | 01:35:43 | 00:00:00 | |
| DO3MHA-11 | 2026-09-04 00:09:28 | 45.12675 | 9.17871 | 128° | 35km/h | 17058m | 4.6m/s | -60.0°C | 6.0% | 0hPa | 2.5V | 00:00:00 | 01:35:48 | 00:00:00 | |
| DO3MHA-11 | 2026-09-04 00:09:18 | 45.12729 | 9.17777 | 120° | 35km/h | 17015m | 3.8m/s | -60.2°C | 6.3% | 0hPa | 2.5V | 00:00:00 | 01:35:38 | 00:00:00 | |
| IW2NTF | 2026-09-04 00:09:17 | 45.12749 | 9.17723 | 125° | 33km/h | 16993m | 4.4m/s | -60.5°C | 6.4% | 0hPa | 2.5V | 08:30:00 | 01:35:33 | 00:00:00 | |
| DB0UT-7 | 2026-09-04 00:09:11 | 45.12760 | 9.17704 | 130° | 40km/h | 16985m | 4.0m/s | -60.4°C | 6.3% | 0hPa | 2.5V | 00:00:00 | 00:00:00 | 00:00:00 | |
| DO3MHA-11 | 2026-09-04 00:09:08 | 45.12774 | 9.17674 | 121° | 42km/h | 16972m | 3.9m/s | -60.4°C | 6.3% | 0hPa | 2.5V | 00:00:00 | 01:35:28 | 08:30:00 | |
| IW2NTF | 2026-09-04 00:09:06 | 45.12801 | 9.17611 | 117° | 42km/h | 16949m | 5.4m/s | -60.3°C | 6.2% | 0hPa | 2.5V | 08:30:00 | 01:35:23 | 00:00:00 | |
| DO3MHA-11 | 2026-09-04 00:08:58 | 45.12823 | 9.17542 | 115° | 44km/h | 16927m | 3.7m/s | -60.2°C | 6.4% | 0hPa | 2.7V | 00:00:00 | 01:35:18 | 00:00:00 | |
| IW2NTF | 2026-09-04 00:08:54 | 45.12845 | 9.17471 | 117° | 46km/h | 16905m | 4.7m/s | -60.3°C | 6.5% | 0hPa | 2.7V | 08:30:00 | 01:35:13 | 00:00:00 | |
| DO3MHA-11 | 2026-09-04 00:08:48 | 45.12870 | 9.17405 | 119° | 42km/h | 16884m | 4.9m/s | -60.3°C | 6.6% | 0hPa | 2.5V | 00:00:00 | 01:35:08 | 00:00:00 | |
| IW2NTF | 2026-09-04 00:08:44 | 45.12891 | 9.17341 | 111° | 40km/h | 16863m | 4m/s | -60.2°C | 6.5% | 0hPa | 2.5V | 08:30:00 | 01:35:03 | 00:00:00 | |
| DB0UT-7 | 2026-09-04 00:08:41 | 45.12899 | 9.17314 | 118° | 37km/h | 16854m | 4.2m/s | -60.1°C | 6.5% | 0hPa | 2.5V | 00:00:00 | 01:35:01 | 00:00:00 | |
| IW2NTF | 2026-09-04 00:08:38 | 45.12948 | 9.17220 | 127° | 35km/h | 16819m | 4.1m/s | -59.9°C | 6.4% | 0hPa | 2.5V | 08:30:00 | 01:34:53 | 00:00:00 | |
| IW2NTF | 2026-09-04 00:08:27 | 45.13004 | 9.17115 | 127° | 40km/h | 16778m | 3.6m/s | -60.2°C | 6.5% | 0hPa | 2.5V | 08:30:00 | 01:34:43 | 00:00:00 | |
| IW2NTF | 2026-09-04 00:08:19 | 45.13055 | 9.17021 | 125° | 31km/h | 16737m | 3.4m/s | -60.5°C | 7% | 0hPa | 2.7V | 08:30:00 | 01:34:33 | 00:00:00 | |
| DB0UT-7 | 2026-09-04 00:08:11 | 45.13065 | 9.17002 | 130° | 44km/h | 16730m | 4.5m/s | -60.5°C | 7.1% | 0hPa | 2.5V | 00:00:00 | 00:00:00 | 00:00:00 | |
| IW2NTF | 2026-09-04 00:08:05 | 45.13117 | 9.16916 | 136° | 33km/h | 16698m | 3.4m/s | -61°C | 6.9% | 0hPa | 2.5V | 08:30:00 | 01:34:23 | 00:00:00 | |
| IW2NTF | 2026-09-04 00:07:59 | 45.13194 | 9.16823 | 144° | 46km/h | 16659m | 4.7m/s | -61°C | 7.1% | 0hPa | 2.5V | 08:30:00 | 01:34:13 | 00:00:00 | |
| IW2NTF | 2026-09-04 00:07:47 | 45.13291 | 9.16715 | 143° | 57km/h | 16620m | 3.6m/s | -61.6°C | 7.5% | 0hPa | 2.7V | 08:30:00 | 01:34:03 | 00:00:00 | |
| DB0UT-7 | 2026-09-04 00:07:41 | 45.13314 | 9.16692 | 144° | 53km/h | 16613m | 4.4m/s | -61.6°C | 7.5% | 0hPa | 2.7V | 00:00:00 | 01:34:01 | 00:00:00 | |
| IW2NTF | 2026-09-04 00:07:35 | 45.13398 | 9.16593 | 137° | 51km/h | 16581m | 4m/s | -61.6°C | 7.4% | 0hPa | 2.7V | 08:30:00 | 01:33:53 | 00:00:00 | |
| IW2NTF | 2026-09-04 00:07:27 | 45.13489 | 9.16459 | 128° | 51km/h | 16539m | 4.2m/s | -62°C | 7.9% | 0hPa | 2.5V | 08:30:00 | 01:33:43 | 00:00:00 | |
| IW2NTF | 2026-09-04 00:07:14 | 45.13574 | 9.16318 | 125° | 53km/h | 16496m | 4.9m/s | -62°C | 7.9% | 0hPa | 2.5V | 08:30:00 | 01:33:33 | 00:00:00 | |
| DB0UT-7 | 2026-09-04 00:07:11 | 45.13588 | 9.16287 | 122° | 46km/h | 16488m | 4.3m/s | -62.0°C | 7.8% | 0hPa | 2.7V | 00:00:00 | 00:00:00 | 00:00:00 | |
| DO3MHA-11 | 2026-09-04 00:07:10 | 45.13595 | 9.16271 | 123° | 51km/h | 16483m | 4.4m/s | -62.0°C | 7.8% | 0hPa | 2.7V | 00:00:00 | 01:33:30 | 00:00:00 | |
| IW2NTF | 2026-09-04 00:07:06 | 45.13642 | 9.16174 | 126° | 47km/h | 16455m | 3.7m/s | -61.9°C | 7.8% | 0hPa | 2.7V | 08:30:00 | 01:33:23 | 00:00:00 | |
| DO3MHA-11 | 2026-09-04 00:07:00 | 45.13662 | 9.16130 | 120° | 46km/h | 16442m | 4.4m/s | -61.8°C | 7.6% | 0hPa | 2.7V | 00:00:00 | 01:33:20 | 00:00:00 | |
| IW2NTF | 2026-09-04 00:06:55 | 45.13705 | 9.16030 | 122° | 42km/h | 16413m | 4.2m/s | -61.7°C | 7.7% | 0hPa | 2.7V | 08:30:00 | 01:33:13 | 00:00:00 | |
| DO3MHA-11 | 2026-09-04 00:06:50 | 45.13723 | 9.15992 | 124° | 44km/h | 16401m | 4.8m/s | -61.8°C | 7.8% | 0hPa | 2.5V | 00:00:00 | 01:33:10 | 00:00:00 | |
| IW2NTF | 2026-09-04 00:06:47 | 45.13769 | 9.15903 | 123° | 42km/h | 16372m | 4.6m/s | -62°C | 7.8% | 0hPa | 2.5V | 08:30:00 | 01:33:03 | 00:00:00 | |
| DB0UT-7 | 2026-09-04 00:06:41 | 45.13780 | 9.15879 | 124° | 53km/h | 16365m | 3.5m/s | -62.0°C | 7.8% | 0hPa | 2.7V | 00:00:00 | 01:33:01 | 08:30:00 | |
| DO3MHA-11 | 2026-09-04 00:06:40 | 45.13786 | 9.15867 | 128° | 40km/h | 16361m | 4.7m/s | -62.0°C | 7.8% | 0hPa | 2.5V | 00:00:00 | 01:33:00 | 00:00:00 | |
| IW2NTF | 2026-09-04 00:06:37 | 45.13832 | 9.15795 | 136° | 44km/h | 16331m | 4.7m/s | -61.9°C | 7.8% | 0hPa | 2.5V | 08:30:00 | 01:32:53 | 00:00:00 | |
| DO3MHA-11 | 2026-09-04 00:06:30 | 45.13857 | 9.15762 | 135° | 44km/h | 16319m | 4.4m/s | -61.8°C | 7.8% | 0hPa | 2.5V | 00:00:00 | 01:32:50 | 00:00:00 | |
| IW2NTF | 2026-09-04 00:06:27 | 45.13914 | 9.15684 | 136° | 42km/h | 16288m | 3.3m/s | -61.8°C | 7.8% | 0hPa | 2.5V | 08:30:00 | 01:32:43 | 00:00:00 | |
| DO3MHA-11 | 2026-09-04 00:06:20 | 45.13940 | 9.15653 | 141° | 47km/h | 16276m | 4.0m/s | -61.8°C | 7.7% | 0hPa | 2.7V | 00:00:00 | 01:32:40 | 00:00:00 | |
| IW2NTF | 2026-09-04 00:06:18 | 45.14003 | 9.15579 | 139° | 49km/h | 16246m | 5m/s | -61.7°C | 7.7% | 0hPa | 2.7V | 08:30:00 | 01:32:33 | 00:00:00 | |
| DO3MHA-11 | 2026-09-04 00:06:10 | 45.14032 | 9.15544 | 141° | 55km/h | 16233m | 4.8m/s | -61.6°C | 7.6% | 0hPa | 2.5V | 00:00:00 | 01:32:30 | 08:30:00 | |
| IW2NTF | 2026-09-04 00:06:07 | 45.14101 | 9.15465 | 141° | 55km/h | 16203m | 4.6m/s | -61.6°C | 7.7% | 0hPa | 2.6V | 08:30:00 | 01:32:23 | 00:00:00 | |
| DO3MHA-11 | 2026-09-04 00:05:58 | 45.14157 | 9.15402 | 143° | 55km/h | 16181m | 5.1m/s | -61.5°C | 7.5% | 0hPa | 2.5V | 00:00:00 | 01:32:18 | 00:00:00 | |
| IW2NTF | 2026-09-04 00:05:56 | 45.14210 | 9.15344 | 135° | 49km/h | 16159m | 3.7m/s | -61.8°C | 7.6% | 0hPa | 2.5V | 08:30:00 | 01:32:13 | 00:00:00 | |
| DO3MHA-11 | 2026-09-04 00:05:48 | 45.14264 | 9.15276 | 145° | 62km/h | 16138m | 4.4m/s | -61.9°C | 7.7% | 0hPa | 2.6V | 00:00:00 | 01:32:08 | 00:00:00 | |
| IW2NTF | 2026-09-04 00:05:46 | 45.14353 | 9.15184 | 141° | 60km/h | 16107m | 4.1m/s | -61.9°C | 7.7% | 0hPa | 2.6V | 08:30:00 | 01:32:01 | 00:00:00 | |
| DB0UT-7 | 2026-09-04 00:05:45 | 45.14303 | 9.15237 | 144° | 66km/h | 16125m | 4.9m/s | -61.9°C | 7.7% | 0hPa | 2.5V | 00:00:00 | 00:00:00 | 00:00:00 | |
| DO3MHA-11 | 2026-09-04 00:05:38 | 45.14388 | 9.15142 | 140° | 66km/h | 16094m | 5.1m/s | -61.8°C | 7.7% | 0hPa | 2.5V | 00:00:00 | 01:31:58 | 00:00:00 | |
| IW2NTF | 2026-09-04 00:05:36 | 45.14475 | 9.15036 | 139° | 68km/h | 16063m | 4.3m/s | -61.8°C | 7.6% | 0hPa | 2.5V | 08:30:00 | 01:31:51 | 00:00:00 | |
| DO3MHA-11 | 2026-09-04 00:05:28 | 45.14512 | 9.14988 | 136° | 68km/h | 16051m | 3.2m/s | -61.8°C | 7.7% | 0hPa | 2.5V | 00:00:00 | 01:31:48 | 00:00:00 | |
| IW2NTF | 2026-09-04 00:05:26 | 45.14595 | 9.14869 | 133° | 73km/h | 16022m | 4.6m/s | -61.8°C | 7.6% | 0hPa | 2.5V | 08:30:00 | 01:31:41 | 00:00:00 | |
| DO3MHA-11 | 2026-09-04 00:05:18 | 45.14634 | 9.14814 | 135° | 66km/h | 16011m | 3.6m/s | -61.7°C | 7.6% | 0hPa | 2.7V | 00:00:00 | 01:31:38 | 00:00:00 | |
| IW2NTF | 2026-09-04 00:05:16 | 45.14710 | 9.14690 | 127° | 64km/h | 15981m | 4.6m/s | -61.6°C | 7.5% | 0hPa | 2.7V | 08:30:00 | 01:31:31 | 00:00:00 | |
| DB0UT-7 | 2026-09-04 00:05:15 | 45.14669 | 9.14760 | 131° | 62km/h | 15999m | 3.6m/s | -61.6°C | 7.6% | 0hPa | 2.6V | 00:00:00 | 01:31:35 | 00:00:00 | |
| DO3MHA-11 | 2026-09-04 00:05:08 | 45.14741 | 9.14635 | 131° | 64km/h | 15969m | 3.6m/s | -61.5°C | 7.4% | 0hPa | 2.6V | 00:00:00 | 01:31:28 | 00:00:00 | |
| IW2NTF | 2026-09-04 00:05:06 | 45.14814 | 9.14512 | 130° | 58km/h | 15943m | 3.2m/s | -61.4°C | 7.4% | 0hPa | 2.6V | 08:30:00 | 01:31:21 | 00:00:00 | |
| DO3MHA-11 | 2026-09-04 00:04:58 | 45.14842 | 9.14461 | 126° | 60km/h | 15931m | 4.0m/s | -61.3°C | 7.4% | 0hPa | 2.6V | 00:00:00 | 01:31:18 | 00:00:00 | |
| IW2NTF | 2026-09-04 00:04:56 | 45.14904 | 9.14337 | 129° | 60km/h | 15901m | 4.1m/s | -61.4°C | 7.5% | 0hPa | 2.6V | 08:30:00 | 01:31:11 | 00:00:00 | |
| IW2NTF | 2026-09-04 00:04:50 | 45.14991 | 9.14164 | 120° | 60km/h | 15861m | 3.3m/s | -61.5°C | 7.5% | 0hPa | 2.6V | 08:30:00 | 01:31:01 | 00:00:00 | |
| DO3MHA-11 | 2026-09-04 00:04:48 | 45.14933 | 9.14286 | 127° | 58km/h | 15888m | 3.8m/s | -61.5°C | 7.6% | 0hPa | 2.6V | 00:00:00 | 01:31:08 | 00:00:00 | |
| DB0UT-7 | 2026-09-04 00:04:45 | 45.14959 | 9.14234 | 125° | 55km/h | 15877m | 4.1m/s | -61.5°C | 7.6% | 0hPa | 2.6V | 00:00:00 | 00:00:00 | 00:00:00 | |
| DO3MHA-11 | 2026-09-04 00:04:38 | 45.15014 | 9.14112 | 124° | 55km/h | 15849m | 3.7m/s | -61.4°C | 7.6% | 0hPa | 2.7V | 00:00:00 | 01:30:58 | 08:30:00 | |
| IW2NTF | 2026-09-04 00:04:33 | 45.15071 | 9.14002 | 131° | 53km/h | 15821m | 3.4m/s | -61.2°C | 7.5% | 0hPa | 2.7V | 08:30:00 | 01:30:51 | 00:00:00 | |
| DO3MHA-11 | 2026-09-04 00:04:28 | 45.15097 | 9.13958 | 131° | 55km/h | 15808m | 4.0m/s | -61.1°C | 7.5% | 0hPa | 2.7V | 00:00:00 | 01:30:48 | 00:00:00 | |
| IW2NTF | 2026-09-04 00:04:23 | 45.15162 | 9.13856 | 127° | 57km/h | 15776m | 3.8m/s | -61°C | 7.4% | 0hPa | 2.7V | 08:30:00 | 01:30:41 | 00:00:00 | |
| DO3MHA-11 | 2026-09-04 00:04:18 | 45.15188 | 9.13810 | 134° | 57km/h | 15765m | 3.5m/s | -60.9°C | 7.6% | 0hPa | 2.7V | 00:00:00 | 01:30:38 | 00:00:00 | |
| IW2NTF | 2026-09-04 00:04:15 | 45.15276 | 9.13707 | 140° | 57km/h | 15730m | 4.9m/s | -60.7°C | 7.3% | 0hPa | 2.7V | 08:30:00 | 01:30:30 | 00:00:00 | |
| DB0UT-7 | 2026-09-04 00:04:15 | 45.15219 | 9.13769 | 141° | 57km/h | 15752m | 4.1m/s | -60.8°C | 7.6% | 0hPa | 2.5V | 00:00:00 | 01:30:35 | 00:00:00 | |
| DO3MHA-11 | 2026-09-04 00:04:09 | 45.15297 | 9.13679 | 136° | 55km/h | 15722m | 3.6m/s | -60.6°C | 7.2% | 0hPa | 2.5V | 00:00:00 | 01:30:28 | 00:00:00 | |
| IW2NTF | 2026-09-04 00:04:00 | 45.15381 | 9.13576 | 147° | 53km/h | 15687m | 4.7m/s | -60.3°C | 7.2% | 0hPa | 2.6V | 08:30:00 | 01:30:20 | 00:00:00 | |
| DO3MHA-11 | 2026-09-04 00:03:58 | 45.15404 | 9.13556 | 148° | 57km/h | 15678m | 4.9m/s | -60.2°C | 7.3% | 0hPa | 2.6V | 00:00:00 | 01:30:18 | 00:00:00 | |
| IW2NTF | 2026-09-04 00:03:52 | 45.15495 | 9.13457 | 143° | 58km/h | 15645m | 3.5m/s | -60.2°C | 7.3% | 0hPa | 2.6V | 08:30:00 | 01:30:10 | 00:00:00 | |
| DO3MHA-11 | 2026-09-04 00:03:48 | 45.15519 | 9.13433 | 146° | 55km/h | 15637m | 4.4m/s | -60.3°C | 7.4% | 0hPa | 2.5V | 00:00:00 | 01:30:08 | 00:00:00 | |
| DB0UT-7 | 2026-09-04 00:03:45 | 45.15552 | 9.13401 | 146° | 60km/h | 15625m | 4.9m/s | -60.5°C | 7.5% | 0hPa | 2.5V | 00:00:00 | 00:00:00 | 00:00:00 | |
| IW2NTF | 2026-09-04 00:03:41 | 45.15611 | 9.13346 | 149° | 55km/h | 15604m | 3.8m/s | -60.5°C | 7.6% | 0hPa | 2.5V | 08:30:00 | 01:30:00 | 00:00:00 | |
| DO3MHA-11 | 2026-09-04 00:03:39 | 45.15636 | 9.13325 | 152° | 60km/h | 15595m | 4.5m/s | -60.4°C | 7.5% | 0hPa | 2.6V | 00:00:00 | 01:29:58 | 00:00:00 | |
| IW2NTF | 2026-09-04 00:03:34 | 45.15766 | 9.13215 | 145° | 60km/h | 15552m | 4.1m/s | -60.3°C | 7.6% | 0hPa | 2.6V | 08:30:00 | 01:29:48 | 00:00:00 | |
| DO3MHA-11 | 2026-09-04 00:03:28 | 45.15766 | 9.13215 | 146° | 62km/h | 15552m | 4.0m/s | -60.3°C | 7.6% | 0hPa | 2.6V | 00:00:00 | 01:29:48 | 00:00:00 | |
| IW2NTF | 2026-09-04 00:03:21 | 45.15898 | 9.13091 | 142° | 58km/h | 15510m | 4.4m/s | -60.3°C | 7.7% | 0hPa | 2.6V | 08:30:00 | 01:29:38 | 00:00:00 | |
| DO3MHA-11 | 2026-09-04 00:03:18 | 45.15898 | 9.13091 | 143° | 60km/h | 15510m | 4.4m/s | -60.2°C | 7.7% | 0hPa | 2.6V | 00:00:00 | 01:29:38 | 00:00:00 | |
| DB0UT-7 | 2026-09-04 00:03:15 | 45.15932 | 9.13052 | 140° | 62km/h | 15497m | 4.1m/s | -60.2°C | 7.8% | 0hPa | 2.6V | 00:00:00 | 01:29:35 | 00:00:00 | |
| IW2NTF | 2026-09-04 00:03:13 | 45.16017 | 9.12953 | 139° | 66km/h | 15468m | 3.4m/s | -60.2°C | 7.7% | 0hPa | 2.7V | 08:30:00 | 01:29:28 | 00:00:00 | |
| DO3MHA-11 | 2026-09-04 00:03:08 | 45.16017 | 9.12953 | 140° | 64km/h | 15469m | 3.4m/s | -60.2°C | 7.7% | 0hPa | 2.7V | 00:00:00 | 01:29:28 | 08:30:00 | |
| IW2NTF | 2026-09-04 00:03:00 | 45.16142 | 9.12804 | 133° | 60km/h | 15427m | 4.9m/s | -60.2°C | 7.9% | 0hPa | 2.7V | 08:30:00 | 01:29:18 | 00:00:00 | |
| IW2NTF | 2026-09-04 00:02:54 | 45.16246 | 9.12646 | 140° | 64km/h | 15386m | 3.5m/s | -60.3°C | 7.9% | 0hPa | 2.6V | 08:30:00 | 01:29:08 | 00:00:00 | |
| IW2NTF | 2026-09-04 00:02:41 | 45.16351 | 9.12502 | 134° | 55km/h | 15346m | 3.5m/s | -60.4°C | 7.9% | 0hPa | 2.6V | 08:30:00 | 01:28:58 | 00:00:00 | |
| IW2NTF | 2026-09-04 00:02:34 | 45.16461 | 9.12369 | 137° | 58km/h | 15306m | 4.7m/s | -60.3°C | 7.9% | 0hPa | 2.6V | 08:30:00 | 01:28:48 | 00:00:00 | |
| DO3MHA-11 | 2026-09-04 00:02:27 | 45.16705 | 9.12073 | 145° | 68km/h | 15222m | 4.6m/s | -60.5°C | 7.9% | 0hPa | 2.7V | 00:00:00 | 01:28:28 | 00:00:00 | |
| IW2NTF | 2026-09-04 00:02:21 | 45.16581 | 9.12223 | 139° | 64km/h | 15263m | 4m/s | -60.4°C | 7.8% | 0hPa | 2.7V | 08:30:00 | 01:28:38 | 00:00:00 | |
| IW2NTF | 2026-09-04 00:02:14 | 45.16733 | 9.12046 | 143° | 68km/h | 15214m | 4.5m/s | -60.5°C | 7.9% | 0hPa | 2.6V | 08:30:00 | 01:28:26 | 00:00:00 | |
| DO3MHA-11 | 2026-09-04 00:01:59 | 45.17017 | 9.11748 | 142° | 69km/h | 15134m | 4.2m/s | -60.7°C | 8.3% | 0hPa | 2.7V | 00:00:00 | 01:28:06 | 00:00:00 | |
| DB0UT-7 | 2026-09-04 00:01:57 | 45.17032 | 9.11732 | 142° | 69km/h | 15130m | 3.9m/s | -60.7°C | 8.3% | 0hPa | 2.7V | 00:00:00 | 00:00:00 | 08:30:00 | |
| IW2NTF | 2026-09-04 00:01:56 | 45.16868 | 9.11896 | 143° | 68km/h | 15173m | 3.9m/s | -60.6°C | 8.2% | 0hPa | 2.7V | 08:30:00 | 01:28:16 | 00:00:00 | |
| IW2NTF | 2026-09-04 00:01:51 | 45.17017 | 9.11748 | 141° | 73km/h | 15134m | 4.2m/s | -60.8°C | 8.3% | 0hPa | 2.7V | 08:30:00 | 01:28:06 | 00:00:00 | |
| DO3MHA-11 | 2026-09-04 00:01:45 | 45.17151 | 9.11597 | 146° | 71km/h | 15094m | 3.2m/s | -60.7°C | 8.5% | 0hPa | 2.6V | 00:00:00 | 01:27:56 | 08:30:00 | |
| IW2NTF | 2026-09-04 00:01:42 | 45.17152 | 9.11596 | 145° | 68km/h | 15094m | 3.3m/s | -60.8°C | 8.5% | 0hPa | 2.6V | 08:30:00 | 01:27:56 | 00:00:00 | |
| DO3MHA-11 | 2026-09-04 00:01:31 | 45.17298 | 9.11451 | 143° | 71km/h | 15055m | 4.3m/s | -60.9°C | 8.8% | 0hPa | 2.6V | 00:00:00 | 01:27:46 | 00:00:00 | |
| IW2NTF | 2026-09-04 00:01:30 | 45.17298 | 9.11451 | 142° | 69km/h | 15055m | 4.3m/s | -61°C | 8.8% | 0hPa | 2.6V | 08:30:00 | 01:27:46 | 00:00:00 | |
| DO3MHA-11 | 2026-09-04 00:01:19 | 45.17448 | 9.11306 | 145° | 73km/h | 15018m | 4.1m/s | -61.0°C | 9.1% | 0hPa | 2.6V | 00:00:00 | 01:27:36 | 00:00:00 | |
| IW2NTF | 2026-09-04 00:01:18 | 45.17448 | 9.11306 | 144° | 73km/h | 15017m | 4.2m/s | -61.1°C | 9.1% | 0hPa | 2.6V | 08:30:00 | 01:27:36 | 00:00:00 | |
| IW2NTF | 2026-09-04 00:01:09 | 45.17599 | 9.11162 | 147° | 75km/h | 14979m | 3.4m/s | -61.2°C | 9.4% | 0hPa | 2.6V | 08:30:00 | 01:27:26 | 00:00:00 | |
| IW2NTF | 2026-09-04 00:00:59 | 45.17754 | 9.11005 | 142° | 78km/h | 14941m | 3.8m/s | -61.2°C | 9.5% | 0hPa | 2.7V | 08:30:00 | 01:27:16 | 00:00:00 | |
| DO3MHA-11 | 2026-09-04 00:00:58 | 45.17753 | 9.11005 | 143° | 75km/h | 14941m | 3.8m/s | -61.2°C | 9.5% | 0hPa | 2.7V | 00:00:00 | 01:27:16 | 00:00:00 | |
| IW2NTF | 2026-09-04 00:00:49 | 45.17904 | 9.10844 | 142° | 68km/h | 14903m | 3.6m/s | -61.2°C | 9.9% | 0hPa | 2.7V | 08:30:00 | 01:27:06 | 00:00:00 | |
| DO3MHA-11 | 2026-09-04 00:00:47 | 45.17904 | 9.10843 | 143° | 73km/h | 14903m | 3.5m/s | -61.2°C | 9.9% | 0hPa | 2.6V | 00:00:00 | 01:27:06 | 00:00:00 | |
| DB0UT-7 | 2026-09-04 00:00:45 | 45.17918 | 9.10829 | 142° | 71km/h | 14900m | 3.4m/s | -61.1°C | 9.9% | 0hPa | 2.6V | 00:00:00 | 00:00:00 | 00:00:00 | |
| IW2NTF | 2026-09-04 00:00:38 | 45.18048 | 9.10681 | 140° | 71km/h | 14865m | 4.4m/s | -61°C | 10% | 0hPa | 2.6V | 08:30:00 | 01:26:56 | 00:00:00 | |
| IW2NTF | 2026-09-04 00:00:32 | 45.18214 | 9.10477 | 139° | 73km/h | 14818m | 3.3m/s | -61.2°C | 10.9% | 0hPa | 2.7V | 08:30:00 | 01:26:44 | 00:00:00 | |
| DO3MHA-11 | 2026-09-04 00:00:29 | 45.18186 | 9.10511 | 139° | 69km/h | 14826m | 3.7m/s | -61.1°C | 10.8% | 0hPa | 2.6V | 00:00:00 | 01:26:46 | 00:00:00 | |
| IW2NTF | 2026-09-04 00:00:18 | 45.18316 | 9.10345 | 135° | 69km/h | 14787m | 3.3m/s | -61.2°C | 11.4% | 0hPa | 2.6V | 08:30:00 | 01:26:36 | 00:00:00 | |
| DO3MHA-11 | 2026-09-04 00:00:18 | 45.18316 | 9.10345 | 136° | 77km/h | 14787m | 3.3m/s | -61.2°C | 11.4% | 0hPa | 2.6V | 00:00:00 | 01:26:36 | 00:00:00 | |
| DB0UT-7 | 2026-09-04 00:00:17 | 45.18329 | 9.10327 | 136° | 73km/h | 14784m | 3.2m/s | -61.2°C | 11.4% | 0hPa | 2.6V | 00:00:00 | 01:26:35 | 00:00:00 | |
| IW2NTF | 2026-09-04 00:00:10 | 45.18456 | 9.10156 | 137° | 73km/h | 14750m | 3.2m/s | -61.3°C | 12.1% | 0hPa | 2.6V | 08:30:00 | 01:26:26 | 00:00:00 | |
| DO3MHA-11 | 2026-09-04 00:00:06 | 45.18456 | 9.10156 | 138° | 73km/h | 14750m | 3.2m/s | -61.3°C | 12.1% | 0hPa | 2.6V | 00:00:00 | 01:26:26 | 08:30:00 | |
| IW2NTF | 2026-09-03 23:59:56 | 45.18588 | 9.09981 | 137° | 77km/h | 14711m | 4.1m/s | -61.5°C | 13.1% | 0hPa | 2.7V | 08:30:00 | 01:26:16 | 00:00:00 | |
| DO3MHA-11 | 2026-09-03 23:59:54 | 45.18618 | 9.09944 | 139° | 73km/h | 14703m | 4.6m/s | -61.6°C | 13.4% | 0hPa | 2.7V | 00:00:00 | 01:26:14 | 00:00:00 | |
| IW2NTF | 2026-09-03 23:59:49 | 45.18728 | 9.09810 | 137° | 71km/h | 14671m | 3.9m/s | -61.9°C | 14.8% | 0hPa | 2.7V | 08:30:00 | 01:26:06 | 00:00:00 | |
| DB0UT-7 | 2026-09-03 23:59:45 | 45.18741 | 9.09793 | 139° | 75km/h | 14667m | 4.5m/s | -62.0°C | 14.9% | 0hPa | 2.6V | 00:00:00 | 00:00:00 | 00:00:00 | |
| DO3MHA-11 | 2026-09-03 23:59:44 | 45.18755 | 9.09775 | 139° | 80km/h | 14663m | 3.6m/s | -62.0°C | 15.0% | 0hPa | 2.6V | 00:00:00 | 01:26:04 | 00:00:00 | |
| IW2NTF | 2026-09-03 23:59:37 | 45.18877 | 9.09621 | 136° | 78km/h | 14631m | 3.4m/s | -62.5°C | 16.4% | 0hPa | 2.6V | 08:30:00 | 01:25:56 | 00:00:00 | |
| DO3MHA-11 | 2026-09-03 23:59:34 | 45.18905 | 9.09584 | 138° | 73km/h | 14624m | 4.4m/s | -62.4°C | 16.5% | 0hPa | 2.7V | 00:00:00 | 01:25:54 | 00:00:00 | |
| IW2NTF | 2026-09-03 23:59:31 | 45.19012 | 9.09452 | 140° | 73km/h | 14591m | 4.5m/s | -62.7°C | 17.6% | 0hPa | 2.6V | 08:30:00 | 01:25:46 | 00:00:00 | |
| DO3MHA-11 | 2026-09-03 23:59:19 | 45.19114 | 9.09334 | 141° | 73km/h | 14563m | 3.2m/s | -62.7°C | 18.4% | 0hPa | 2.6V | 00:00:00 | 01:25:39 | 00:00:00 | |
| IW2NTF | 2026-09-03 23:59:16 | 45.19158 | 9.09285 | 142° | 73km/h | 14551m | 3.5m/s | -62.9°C | 19% | 0hPa | 2.6V | 08:30:00 | 01:25:36 | 00:00:00 | |
| DB0UT-7 | 2026-09-03 23:59:15 | 45.19172 | 9.09269 | 142° | 71km/h | 14547m | 4.6m/s | -62.9°C | 19.0% | 0hPa | 2.6V | 00:00:00 | 01:25:35 | 00:00:00 | |
| IW2NTF | 2026-09-03 23:59:11 | 45.19300 | 9.09123 | 143° | 69km/h | 14511m | 3.6m/s | -62.6°C | 20.3% | 0hPa | 2.6V | 08:30:00 | 01:25:26 | 00:00:00 | |
| DO3MHA-11 | 2026-09-03 23:59:09 | 45.19259 | 9.09169 | 140° | 71km/h | 14523m | 3.9m/s | -62.7°C | 19.9% | 0hPa | 2.6V | 00:00:00 | 01:25:29 | 00:00:00 | |
| DO3MHA-11 | 2026-09-03 23:58:59 | 45.19401 | 9.09016 | 144° | 71km/h | 14482m | 4.5m/s | -62.4°C | 21.9% | 0hPa | 2.6V | 00:00:00 | 01:25:19 | 00:00:00 | |
| IW2NTF | 2026-09-03 23:58:56 | 45.19446 | 9.08970 | 145° | 71km/h | 14470m | 4.5m/s | -62.4°C | 21.8% | 0hPa | 2.6V | 08:30:00 | 01:25:16 | 00:00:00 | |
| IW2NTF | 2026-09-03 23:58:46 | 45.19624 | 9.08790 | 145° | 75km/h | 14422m | 4.4m/s | -62.3°C | 23.4% | 0hPa | 2.6V | 08:30:00 | 01:25:04 | 00:00:00 | |
| DB0UT-7 | 2026-09-03 23:58:45 | 45.19608 | 9.08806 | 144° | 77km/h | 14426m | 4.8m/s | 0°C | 0% | 0hPa | 2.6V | 00:00:00 | 00:00:00 | 00:00:00 | |
| DO3MHA-11 | 2026-09-03 23:58:39 | 45.19701 | 9.08711 | 144° | 78km/h | 14402m | 4.8m/s | -62.2°C | 24.0% | 0hPa | 2.6V | 00:00:00 | 01:24:59 | 00:00:00 | |
| IW2NTF | 2026-09-03 23:58:34 | 45.19782 | 9.08623 | 140° | 77km/h | 14383m | 3.4m/s | -62.5°C | 25.4% | 0hPa | 2.6V | 08:30:00 | 01:24:54 | 00:00:00 | |
| IW2NTF | 2026-09-03 23:58:29 | 45.19932 | 9.08452 | 140° | 80km/h | 14345m | 4.2m/s | -63.6°C | 30.3% | 0hPa | 2.6V | 08:30:00 | 01:24:44 | 00:00:00 | |
| DO3MHA-11 | 2026-09-03 23:58:29 | 45.19856 | 9.08541 | 141° | 78km/h | 14363m | 3.9m/s | -63.2°C | 28.5% | 0hPa | 2.6V | 00:00:00 | 01:24:49 | 08:30:00 | |
| DO3MHA-11 | 2026-09-03 23:58:19 | 45.20008 | 9.08364 | 143° | 75km/h | 14327m | 3.0m/s | -63.6°C | 31.8% | 0hPa | 2.7V | 00:00:00 | 01:24:39 | 00:00:00 | |
| IW2NTF | 2026-09-03 23:58:14 | 45.20081 | 9.08276 | 138° | 75km/h | 14307m | 4.7m/s | -64°C | 33.6% | 0hPa | 2.7V | 08:30:00 | 01:24:34 | 00:00:00 | |
| IW2NTF | 2026-09-03 23:58:09 | 45.20228 | 9.08119 | 142° | 71km/h | 14268m | 3.3m/s | -64.3°C | 35.4% | 0hPa | 2.6V | 08:30:00 | 01:24:24 | 00:00:00 | |
| DO3MHA-11 | 2026-09-03 23:58:09 | 45.20154 | 9.08195 | 145° | 71km/h | 14288m | 3.0m/s | -64.2°C | 35.3% | 0hPa | 2.6V | 00:00:00 | 01:24:29 | 00:00:00 | |
| DO3MHA-11 | 2026-09-03 23:57:59 | 45.20299 | 9.08041 | 142° | 69km/h | 14250m | 3.2m/s | -64.8°C | 0% | 0hPa | 2.6V | 00:00:00 | 01:24:19 | 00:00:00 | |
| IW2NTF | 2026-09-03 23:57:54 | 45.20371 | 9.07965 | 147° | 69km/h | 14230m | 3.7m/s | -64.9°C | 41.8% | 0hPa | 2.6V | 08:30:00 | 01:24:14 | 00:00:00 | |
| DO3MHA-11 | 2026-09-03 23:57:49 | 45.20443 | 9.07909 | 153° | 68km/h | 14211m | 3.4m/s | 0°C | 0% | 0hPa | 2.6V | 00:00:00 | 01:24:09 | 00:00:00 | |
| DB0UT-7 | 2026-09-03 23:57:45 | 45.20499 | 9.07861 | 145° | 73km/h | 14197m | 3.5m/s | 0°C | 0% | 0hPa | 2.6V | 00:00:00 | 00:00:00 | 00:00:00 | |
| IW2NTF | 2026-09-03 23:57:42 | 45.20542 | 9.07816 | 142° | 73km/h | 14185m | 3.4m/s | -65°C | 44% | 0hPa | 2.6V | 08:30:00 | 01:24:02 | 00:00:00 | |
| IW2NTF | 2026-09-03 23:57:32 | 45.20694 | 9.07679 | 148° | 73km/h | 14142m | 4m/s | -65°C | 48.4% | 0hPa | 2.6V | 08:30:00 | 01:23:52 | 00:00:00 | |
| DO3MHA-11 | 2026-09-03 23:57:29 | 45.20742 | 9.07637 | 149° | 75km/h | 14130m | 3.5m/s | 0°C | 0% | 0hPa | 2.6V | 00:00:00 | 01:23:49 | 00:00:00 | |
| IW2NTF | 2026-09-03 23:57:23 | 45.20852 | 9.07538 | 144° | 73km/h | 14103m | 3.1m/s | -65.5°C | 50.5% | 0hPa | 2.6V | 08:30:00 | 01:23:42 | 00:00:00 | |
| DO3MHA-11 | 2026-09-03 23:57:19 | 45.20900 | 9.07491 | 147° | 77km/h | 14094m | 3.0m/s | 0°C | 0% | 0hPa | 2.6V | 00:00:00 | 01:23:39 | 00:00:00 | |
| IW2NTF | 2026-09-03 23:57:17 | 45.21020 | 9.07402 | 154° | 75km/h | 14066m | 3.3m/s | -65.9°C | 54.8% | 0hPa | 2.6V | 08:30:00 | 01:23:32 | 00:00:00 | |
| DB0UT-7 | 2026-09-03 23:57:12 | 45.21020 | 9.07402 | 155° | 73km/h | 14067m | 3.2m/s | 0°C | 0% | 0hPa | 2.6V | 00:00:00 | 01:23:32 | 00:00:00 | |
| DO3MHA-11 | 2026-09-03 23:57:09 | 45.21071 | 9.07372 | 160° | 77km/h | 14054m | 3.7m/s | 0°C | 0% | 0hPa | 2.6V | 00:00:00 | 01:23:29 | 00:00:00 | |
| IW2NTF | 2026-09-03 23:57:07 | 45.21197 | 9.07304 | 158° | 78km/h | 14027m | 3.9m/s | -66.2°C | 56.5% | 0hPa | 2.6V | 08:30:00 | 01:23:22 | 00:00:00 | |
| DO3MHA-11 | 2026-09-03 23:56:58 | 45.21271 | 9.07261 | 158° | 82km/h | 14012m | 3.5m/s | 0°C | 0% | 0hPa | 2.6V | 00:00:00 | 01:23:18 | 08:30:00 | |
| IW2NTF | 2026-09-03 23:56:54 | 45.21383 | 9.07193 | 156° | 80km/h | 13988m | 3.4m/s | -66.5°C | 58.5% | 0hPa | 2.6V | 08:30:00 | 01:23:12 | 00:00:00 | |
| IW2NTF | 2026-09-03 23:56:47 | 45.21563 | 9.07068 | 154° | 78km/h | 13948m | 3.4m/s | -66.8°C | 59.4% | 0hPa | 2.6V | 08:30:00 | 01:23:02 | 00:00:00 | |
| IW2NTF | 2026-09-03 23:56:33 | 45.21743 | 9.06926 | 152° | 84km/h | 13910m | 4.6m/s | -67.3°C | 62.2% | 0hPa | 2.6V | 08:30:00 | 01:22:52 | 00:00:00 | |
| IW2NTF | 2026-09-03 23:56:27 | 45.21935 | 9.06784 | 149° | 84km/h | 13870m | 4.9m/s | -67.3°C | 62% | 0hPa | 2.6V | 08:30:00 | 01:22:42 | 00:00:00 | |
| IW2NTF | 2026-09-03 23:56:13 | 45.22137 | 9.06628 | 150° | 93km/h | 13830m | 4.1m/s | -66.9°C | 60.5% | 0hPa | 2.7V | 08:30:00 | 01:22:32 | 00:00:00 | |
| IW2NTF | 2026-09-03 23:56:07 | 45.22336 | 9.06471 | 148° | 88km/h | 13789m | 4.1m/s | -66.7°C | 60.1% | 0hPa | 2.8V | 08:30:00 | 01:22:22 | 00:00:00 | |
| IW2NTF | 2026-09-03 23:55:53 | 45.22530 | 9.06312 | 147° | 88km/h | 13748m | 4.5m/s | -66.5°C | 59.8% | 0hPa | 2.6V | 08:30:00 | 01:22:12 | 00:00:00 | |
| IW2NTF | 2026-09-03 23:55:47 | 45.22719 | 9.06140 | 149° | 89km/h | 13706m | 4.8m/s | -67.2°C | 64% | 0hPa | 2.6V | 08:30:00 | 01:22:02 | 00:00:00 | |
| IW2NTF | 2026-09-03 23:55:34 | 45.22898 | 9.05968 | 148° | 89km/h | 13664m | 4.8m/s | -67°C | 64.9% | 0hPa | 2.6V | 08:30:00 | 01:21:52 | 00:00:00 | |
| IW2NTF | 2026-09-03 23:55:27 | 45.23074 | 9.05835 | 140° | 75km/h | 13614m | 9.6m/s | -66.5°C | 58.9% | 0hPa | 2.7V | 08:30:00 | 01:21:42 | 00:00:00 | |
| IW2NTF | 2026-09-03 23:55:15 | 45.23282 | 9.05646 | 153° | 84km/h | 13528m | 7.9m/s | -65.9°C | 56.4% | 0hPa | 2.8V | 08:30:00 | 01:21:30 | 00:00:00 | |
| IW2NTF | 2026-09-03 23:55:02 | 45.23478 | 9.05529 | 155° | 78km/h | 13471m | 7.9m/s | -66.4°C | 54.7% | 0hPa | 2.6V | 08:30:00 | 01:21:20 | 00:00:00 | |
| IW2NTF | 2026-09-03 23:54:55 | 45.23666 | 9.05435 | 165° | 84km/h | 13423m | 3.7m/s | -66.8°C | 56.5% | 0hPa | 2.6V | 08:30:00 | 01:21:10 | 00:00:00 | |
| IW2NTF | 2026-09-03 23:54:42 | 45.23862 | 9.05347 | 159° | 75km/h | 13382m | 3m/s | -67.1°C | 59.8% | 0hPa | 2.6V | 08:30:00 | 01:21:00 | 00:00:00 | |
| IW2NTF | 2026-09-03 23:54:32 | 45.24043 | 9.05240 | 157° | 78km/h | 13342m | 4.1m/s | -67°C | 58.8% | 0hPa | 2.8V | 08:30:00 | 01:20:50 | 00:00:00 | |
| IW2NTF | 2026-09-03 23:54:22 | 45.24213 | 9.05135 | 153° | 75km/h | 13300m | 5m/s | -66.6°C | 58.7% | 0hPa | 2.6V | 08:30:00 | 01:20:40 | 00:00:00 | |
| IW2NTF | 2026-09-03 23:54:16 | 45.24383 | 9.05010 | 152° | 75km/h | 13262m | 4.6m/s | -66.2°C | 58.6% | 0hPa | 2.6V | 08:30:00 | 01:20:30 | 00:00:00 | |
| IW2NTF | 2026-09-03 23:54:02 | 45.24539 | 9.04891 | 149° | 73km/h | 13226m | 3.3m/s | -65.9°C | 60.7% | 0hPa | 2.8V | 08:30:00 | 01:20:20 | 00:00:00 | |
| IW2NTF | 2026-09-03 23:53:55 | 45.24703 | 9.04771 | 152° | 75km/h | 13193m | 3.6m/s | -65.6°C | 62.5% | 0hPa | 2.6V | 08:30:00 | 01:20:10 | 00:00:00 | |
| IW2NTF | 2026-09-03 23:53:41 | 45.24867 | 9.04654 | 152° | 71km/h | 13157m | 3.2m/s | -65.3°C | 63.7% | 0hPa | 2.6V | 08:30:00 | 01:20:00 | 00:00:00 | |
| IW2NTF | 2026-09-03 23:53:35 | 45.25028 | 9.04533 | 152° | 73km/h | 13120m | 4m/s | -65°C | 63.7% | 0hPa | 2.6V | 08:30:00 | 01:19:50 | 00:00:00 | |
| IW2NTF | 2026-09-03 23:53:21 | 45.25188 | 9.04415 | 151° | 68km/h | 13082m | 3m/s | -64.6°C | 63.4% | 0hPa | 2.8V | 08:30:00 | 01:19:40 | 00:00:00 | |
| IW2NTF | 2026-09-03 23:53:15 | 45.25343 | 9.04294 | 152° | 69km/h | 13042m | 4.3m/s | -64.3°C | 63.1% | 0hPa | 2.8V | 08:30:00 | 01:19:30 | 00:00:00 | |
| IW2NTF | 2026-09-03 23:53:01 | 45.25497 | 9.04180 | 153° | 71km/h | 13004m | 3.8m/s | -64°C | 63.1% | 0hPa | 2.8V | 08:30:00 | 01:19:20 | 00:00:00 | |
| IW2NTF | 2026-09-03 23:52:55 | 45.25658 | 9.04062 | 150° | 69km/h | 12966m | 4.3m/s | -63.8°C | 62.8% | 0hPa | 2.8V | 08:30:00 | 01:19:10 | 00:00:00 | |
| IW2NTF | 2026-09-03 23:52:42 | 45.25813 | 9.03946 | 153° | 71km/h | 12928m | 4m/s | -63.5°C | 63.2% | 0hPa | 2.6V | 08:30:00 | 01:19:00 | 00:00:00 | |
| IW2NTF | 2026-09-03 23:52:31 | 45.25965 | 9.03831 | 154° | 64km/h | 12890m | 3.2m/s | -63.3°C | 64.5% | 0hPa | 2.8V | 08:30:00 | 01:18:50 | 00:00:00 | |
| IW2NTF | 2026-09-03 23:52:25 | 45.26118 | 9.03716 | 149° | 71km/h | 12853m | 3.7m/s | -63°C | 65.4% | 0hPa | 2.8V | 08:30:00 | 01:18:40 | 00:00:00 | |
| IW2NTF | 2026-09-03 23:52:10 | 45.26269 | 9.03596 | 150° | 66km/h | 12813m | 4.6m/s | -62.7°C | 63% | 0hPa | 2.7V | 08:30:00 | 01:18:30 | 00:00:00 | |
| IW2NTF | 2026-09-03 23:52:00 | 45.26417 | 9.03468 | 147° | 68km/h | 12773m | 4.5m/s | -62.4°C | 62.7% | 0hPa | 2.7V | 08:30:00 | 01:18:20 | 00:00:00 | |
| IW2NTF | 2026-09-03 23:51:50 | 45.26560 | 9.03336 | 146° | 64km/h | 12734m | 4.7m/s | -62.1°C | 61.1% | 0hPa | 2.7V | 08:30:00 | 01:18:10 | 00:00:00 | |
| IW2NTF | 2026-09-03 23:51:40 | 45.26706 | 9.03207 | 147° | 69km/h | 12692m | 4.9m/s | -61.9°C | 60.2% | 0hPa | 2.8V | 08:30:00 | 01:18:00 | 00:00:00 | |
| IW2NTF | 2026-09-03 23:51:35 | 45.26854 | 9.03074 | 145° | 75km/h | 12651m | 4.5m/s | -61.5°C | 58.3% | 0hPa | 2.6V | 08:30:00 | 01:17:50 | 00:00:00 | |
| IW2NTF | 2026-09-03 23:51:20 | 45.26999 | 9.02933 | 148° | 71km/h | 12611m | 3.8m/s | -61.2°C | 54.7% | 0hPa | 2.7V | 08:30:00 | 01:17:40 | 00:00:00 | |
| IW2NTF | 2026-09-03 23:51:15 | 45.27143 | 9.02783 | 141° | 69km/h | 12570m | 4.7m/s | -61°C | 52.9% | 0hPa | 2.7V | 08:30:00 | 01:17:30 | 00:00:00 | |
| IW2NTF | 2026-09-03 23:51:00 | 45.27286 | 9.02630 | 141° | 69km/h | 12529m | 3.5m/s | -60.6°C | 51.7% | 0hPa | 2.8V | 08:30:00 | 01:17:20 | 00:00:00 | |
| IW2NTF | 2026-09-03 23:50:55 | 45.27427 | 9.02471 | 140° | 73km/h | 12489m | 4.2m/s | -60.3°C | 51% | 0hPa | 2.7V | 08:30:00 | 01:17:10 | 00:00:00 | |
| IW2NTF | 2026-09-03 23:50:42 | 45.27565 | 9.02318 | 141° | 73km/h | 12450m | 3.3m/s | -60°C | 51.9% | 0hPa | 2.7V | 08:30:00 | 01:17:00 | 00:00:00 | |
| IW2NTF | 2026-09-03 23:50:32 | 45.27705 | 9.02162 | 140° | 69km/h | 12410m | 3.8m/s | -59.7°C | 49.6% | 0hPa | 2.8V | 08:30:00 | 01:16:50 | 00:00:00 | |
| IW2NTF | 2026-09-03 23:50:20 | 45.27839 | 9.02003 | 140° | 71km/h | 12370m | 4m/s | -59.5°C | 48.8% | 0hPa | 2.7V | 08:30:00 | 01:16:40 | 00:00:00 | |
| IW2NTF | 2026-09-03 23:50:15 | 45.27979 | 9.01842 | 142° | 73km/h | 12330m | 4.8m/s | -59.1°C | 48% | 0hPa | 2.7V | 08:30:00 | 01:16:30 | 00:00:00 | |
| IW2NTF | 2026-09-03 23:50:05 | 45.28117 | 9.01671 | 138° | 71km/h | 12289m | 4.5m/s | -58.7°C | 48.2% | 0hPa | 2.8V | 08:30:00 | 01:16:20 | 00:00:00 | |
| IW2NTF | 2026-09-03 23:49:50 | 45.28258 | 9.01503 | 138° | 71km/h | 12251m | 3.4m/s | -58.4°C | 48.9% | 0hPa | 2.7V | 08:30:00 | 01:16:10 | 00:00:00 | |
| IW2NTF | 2026-09-03 23:49:41 | 45.28402 | 9.01343 | 141° | 71km/h | 12212m | 3.5m/s | -58°C | 47.6% | 0hPa | 2.7V | 08:30:00 | 01:16:00 | 00:00:00 | |
| IW2NTF | 2026-09-03 23:49:35 | 45.28540 | 9.01180 | 144° | 73km/h | 12173m | 3.7m/s | -57.7°C | 44.5% | 0hPa | 2.8V | 08:30:00 | 01:15:50 | 00:00:00 | |
| IW2NTF | 2026-09-03 23:49:21 | 45.28677 | 9.01011 | 139° | 73km/h | 12135m | 3.3m/s | -57.3°C | 41.7% | 0hPa | 2.7V | 08:30:00 | 01:15:40 | 00:00:00 | |
| IW2NTF | 2026-09-03 23:49:15 | 45.28822 | 9.00855 | 138° | 73km/h | 12095m | 4.2m/s | -56.9°C | 39% | 0hPa | 2.7V | 08:30:00 | 01:15:30 | 00:00:00 | |
| IW2NTF | 2026-09-03 23:49:05 | 45.28962 | 9.00688 | 141° | 75km/h | 12056m | 4.6m/s | -56.6°C | 37.2% | 0hPa | 2.7V | 08:30:00 | 01:15:20 | 00:00:00 | |
| IW2NTF | 2026-09-03 23:48:55 | 45.29106 | 9.00526 | 139° | 71km/h | 12016m | 4.7m/s | -56.2°C | 35.9% | 0hPa | 2.7V | 08:30:00 | 01:15:10 | 00:00:00 | |
| IW2NTF | 2026-09-03 23:48:45 | 45.29250 | 9.00356 | 138° | 75km/h | 11977m | 4.3m/s | -55.8°C | 36.1% | 0hPa | 2.8V | 08:30:00 | 01:15:00 | 00:00:00 | |
| IW2NTF | 2026-09-03 23:48:31 | 45.29394 | 9.00187 | 140° | 71km/h | 11939m | 4m/s | -55.5°C | 36.5% | 0hPa | 2.7V | 08:30:00 | 01:14:50 | 00:00:00 | |
| IW2NTF | 2026-09-03 23:48:25 | 45.29534 | 9.00019 | 141° | 71km/h | 11900m | 3m/s | -55.1°C | 36.8% | 0hPa | 2.7V | 08:30:00 | 01:14:40 | 00:00:00 | |
| IW2NTF | 2026-09-03 23:48:15 | 45.29678 | 8.99849 | 138° | 71km/h | 11863m | 3.6m/s | -54.8°C | 37% | 0hPa | 2.8V | 08:30:00 | 01:14:30 | 00:00:00 | |
| IW2NTF | 2026-09-03 23:48:02 | 45.29815 | 8.99681 | 139° | 73km/h | 11824m | 3.3m/s | -54.5°C | 37.6% | 0hPa | 2.8V | 08:30:00 | 01:14:20 | 00:00:00 | |
| IW2NTF | 2026-09-03 23:47:55 | 45.29953 | 8.99508 | 141° | 69km/h | 11789m | 4.1m/s | -54.2°C | 41.1% | 0hPa | 2.8V | 08:30:00 | 01:14:10 | 00:00:00 | |
| IW2NTF | 2026-09-03 23:47:41 | 45.30091 | 8.99339 | 135° | 71km/h | 11752m | 4.5m/s | -54.2°C | 49.2% | 0hPa | 2.7V | 08:30:00 | 01:14:00 | 00:00:00 | |
| IW2NTF | 2026-09-03 23:47:35 | 45.30231 | 8.99174 | 141° | 73km/h | 11716m | 2.9m/s | -54.1°C | 48.7% | 0hPa | 2.7V | 08:30:00 | 01:13:50 | 00:00:00 | |
| IW2NTF | 2026-09-03 23:47:25 | 45.30366 | 8.99000 | 137° | 73km/h | 11678m | 3.2m/s | -53.7°C | 44% | 0hPa | 2.7V | 08:30:00 | 01:13:40 | 00:00:00 | |
| IW2NTF | 2026-09-03 23:47:10 | 45.30500 | 8.98837 | 141° | 69km/h | 11642m | 4m/s | -53.4°C | 41.3% | 0hPa | 2.8V | 08:30:00 | 01:13:30 | 00:00:00 | |
| IW2NTF | 2026-09-03 23:47:05 | 45.30637 | 8.98676 | 139° | 69km/h | 11603m | 3.9m/s | -53°C | 38.8% | 0hPa | 2.7V | 08:30:00 | 01:13:20 | 00:00:00 | |
| IW2NTF | 2026-09-03 23:46:50 | 45.30774 | 8.98517 | 141° | 69km/h | 11563m | 4.2m/s | -52.6°C | 36.7% | 0hPa | 2.7V | 08:30:00 | 01:13:10 | 00:00:00 | |
| IW2NTF | 2026-09-03 23:46:45 | 45.30905 | 8.98359 | 140° | 69km/h | 11525m | 3.4m/s | -52.3°C | 34.6% | 0hPa | 2.8V | 08:30:00 | 01:13:00 | 00:00:00 | |
| IW2NTF | 2026-09-03 23:46:33 | 45.31042 | 8.98196 | 141° | 68km/h | 11488m | 3.9m/s | -51.9°C | 32.2% | 0hPa | 2.7V | 08:30:00 | 01:12:50 | 00:00:00 | |
| IW2NTF | 2026-09-03 23:46:25 | 45.31174 | 8.98042 | 138° | 71km/h | 11453m | 3.4m/s | -51.5°C | 31% | 0hPa | 2.8V | 08:30:00 | 01:12:40 | 00:00:00 | |
| IW2NTF | 2026-09-03 23:46:13 | 45.31306 | 8.97882 | 140° | 68km/h | 11415m | 3.3m/s | -51.2°C | 28.8% | 0hPa | 2.8V | 08:30:00 | 01:12:30 | 00:00:00 | |
| IW2NTF | 2026-09-03 23:46:03 | 45.31440 | 8.97719 | 139° | 68km/h | 11376m | 4.4m/s | -50.8°C | 27.2% | 0hPa | 2.7V | 08:30:00 | 01:12:20 | 00:00:00 | |
| IW2NTF | 2026-09-03 23:45:53 | 45.31576 | 8.97561 | 141° | 68km/h | 11336m | 5m/s | -50.4°C | 24.9% | 0hPa | 2.8V | 08:30:00 | 01:12:10 | 00:00:00 | |
| IW2NTF | 2026-09-03 23:45:43 | 45.31705 | 8.97420 | 142° | 71km/h | 11297m | 3.4m/s | -50°C | 24% | 0hPa | 2.7V | 08:30:00 | 01:12:00 | 00:00:00 | |
| IW2NTF | 2026-09-03 23:45:33 | 45.31842 | 8.97265 | 142° | 69km/h | 11258m | 4.1m/s | -49.7°C | 23.1% | 0hPa | 2.8V | 08:30:00 | 01:11:50 | 00:00:00 | |
| IW2NTF | 2026-09-03 23:45:23 | 45.31974 | 8.97118 | 139° | 71km/h | 11220m | 3.9m/s | -49.3°C | 22.4% | 0hPa | 2.8V | 08:30:00 | 01:11:40 | 00:00:00 | |
| IW2NTF | 2026-09-03 23:45:13 | 45.32108 | 8.96957 | 141° | 69km/h | 11182m | 3.7m/s | -49°C | 21.6% | 0hPa | 2.7V | 08:30:00 | 01:11:30 | 00:00:00 | |
| IW2NTF | 2026-09-03 23:45:02 | 45.32240 | 8.96805 | 142° | 68km/h | 11143m | 3.4m/s | -48.6°C | 20.8% | 0hPa | 2.7V | 08:30:00 | 01:11:20 | 00:00:00 | |
| IW2NTF | 2026-09-03 23:44:53 | 45.32373 | 8.96649 | 141° | 68km/h | 11106m | 4m/s | -48.2°C | 20.5% | 0hPa | 2.7V | 08:30:00 | 01:11:10 | 00:00:00 | |
| IW2NTF | 2026-09-03 23:44:43 | 45.32509 | 8.96497 | 141° | 69km/h | 11066m | 4.4m/s | -47.9°C | 20.4% | 0hPa | 2.7V | 08:30:00 | 01:11:00 | 00:00:00 | |
| IW2NTF | 2026-09-03 23:44:33 | 45.32642 | 8.96343 | 143° | 69km/h | 11026m | 3.8m/s | -47.6°C | 22.2% | 0hPa | 2.7V | 08:30:00 | 01:10:50 | 00:00:00 | |
| IW2NTF | 2026-09-03 23:44:23 | 45.32778 | 8.96194 | 142° | 68km/h | 10986m | 3.4m/s | -47.3°C | 24% | 0hPa | 2.7V | 08:30:00 | 01:10:40 | 00:00:00 | |
| IW2NTF | 2026-09-03 23:44:13 | 45.32914 | 8.96049 | 142° | 68km/h | 10948m | 4.1m/s | -47°C | 25.6% | 0hPa | 2.7V | 08:30:00 | 01:10:30 | 00:00:00 | |
| IW2NTF | 2026-09-03 23:44:03 | 45.33052 | 8.95878 | 138° | 64km/h | 10906m | 4.8m/s | -46.7°C | 27.9% | 0hPa | 2.8V | 08:30:00 | 01:10:19 | 00:00:00 | |
| IW2NTF | 2026-09-03 23:43:53 | 45.33179 | 8.95726 | 140° | 66km/h | 10865m | 4.2m/s | -46.3°C | 28.3% | 0hPa | 2.7V | 08:30:00 | 01:10:09 | 00:00:00 | |
| IW2NTF | 2026-09-03 23:43:43 | 45.33300 | 8.95556 | 133° | 62km/h | 10820m | 4.5m/s | -45.9°C | 27.6% | 0hPa | 2.8V | 08:30:00 | 01:09:59 | 00:00:00 | |
| IW2NTF | 2026-09-03 23:43:34 | 45.33424 | 8.95390 | 133° | 71km/h | 10774m | 3.7m/s | -45.5°C | 26.3% | 0hPa | 2.8V | 08:30:00 | 01:09:49 | 00:00:00 | |
| IW2NTF | 2026-09-03 23:43:21 | 45.33543 | 8.95208 | 138° | 68km/h | 10730m | 4.3m/s | -45.1°C | 24% | 0hPa | 2.8V | 08:30:00 | 01:09:39 | 00:00:00 | |
| IW2NTF | 2026-09-03 23:43:11 | 45.33661 | 8.95025 | 132° | 68km/h | 10690m | 3.5m/s | -44.7°C | 22.7% | 0hPa | 2.8V | 08:30:00 | 01:09:29 | 00:00:00 | |
| IW2NTF | 2026-09-03 23:43:01 | 45.33802 | 8.94799 | 130° | 71km/h | 10642m | 4.2m/s | -44.2°C | 22.1% | 0hPa | 2.8V | 08:30:00 | 01:09:17 | 00:00:00 | |
| IW2NTF | 2026-09-03 23:42:51 | 45.33918 | 8.94601 | 130° | 69km/h | 10604m | 4.4m/s | -43.9°C | 20.8% | 0hPa | 2.8V | 08:30:00 | 01:09:07 | 00:00:00 | |
| IW2NTF | 2026-09-03 23:42:41 | 45.34039 | 8.94407 | 131° | 71km/h | 10565m | 4.5m/s | -43.5°C | 19.5% | 0hPa | 2.8V | 08:30:00 | 01:08:57 | 00:00:00 | |
| IW2NTF | 2026-09-03 23:42:31 | 45.34151 | 8.94220 | 132° | 71km/h | 10526m | 4.2m/s | -43.1°C | 18.3% | 0hPa | 2.8V | 08:30:00 | 01:08:47 | 00:00:00 | |
| IW2NTF | 2026-09-03 23:42:19 | 45.34272 | 8.94027 | 130° | 71km/h | 10488m | 3.5m/s | -42.7°C | 17.8% | 0hPa | 2.8V | 08:30:00 | 01:08:37 | 00:00:00 | |
| IW2NTF | 2026-09-03 23:42:11 | 45.34393 | 8.93839 | 132° | 71km/h | 10449m | 4.1m/s | -42.4°C | 16.1% | 0hPa | 2.7V | 08:30:00 | 01:08:27 | 00:00:00 | |
| IW2NTF | 2026-09-03 23:42:01 | 45.34512 | 8.93650 | 132° | 69km/h | 10410m | 3.3m/s | -42°C | 15.1% | 0hPa | 2.7V | 08:30:00 | 01:08:17 | 00:00:00 | |
| IW2NTF | 2026-09-03 23:41:51 | 45.34631 | 8.93460 | 133° | 71km/h | 10371m | 3.5m/s | -41.6°C | 14.1% | 0hPa | 2.8V | 08:30:00 | 01:08:07 | 00:00:00 | |
| IW2NTF | 2026-09-03 23:41:42 | 45.34751 | 8.93267 | 133° | 71km/h | 10330m | 4.3m/s | -41.2°C | 13.4% | 0hPa | 2.8V | 08:30:00 | 01:07:57 | 00:00:00 | |
| IW2NTF | 2026-09-03 23:41:32 | 45.34875 | 8.93072 | 130° | 71km/h | 10291m | 3.8m/s | -41°C | 14.6% | 0hPa | 2.8V | 08:30:00 | 01:07:47 | 00:00:00 | |
| IW2NTF | 2026-09-03 23:41:22 | 45.34995 | 8.92868 | 127° | 77km/h | 10253m | 3.3m/s | -40.7°C | 15.4% | 0hPa | 2.7V | 08:30:00 | 01:07:37 | 00:00:00 | |
| IW2NTF | 2026-09-03 23:41:12 | 45.35110 | 8.92671 | 130° | 71km/h | 10214m | 3.3m/s | -40.4°C | 16.2% | 0hPa | 2.8V | 08:30:00 | 01:07:27 | 00:00:00 | |
| IW2NTF | 2026-09-03 23:41:02 | 45.35220 | 8.92473 | 130° | 69km/h | 10177m | 3.7m/s | -40.2°C | 19.1% | 0hPa | 2.8V | 08:30:00 | 01:07:17 | 00:00:00 | |
| IW2NTF | 2026-09-03 23:40:47 | 45.35330 | 8.92285 | 128° | 69km/h | 10139m | 3.5m/s | -39.9°C | 19.4% | 0hPa | 2.9V | 08:30:00 | 01:07:07 | 00:00:00 | |
| IW2NTF | 2026-09-03 23:40:42 | 45.35442 | 8.92089 | 127° | 69km/h | 10100m | 4m/s | -39.6°C | 19.6% | 0hPa | 2.7V | 08:30:00 | 01:06:57 | 00:00:00 | |
| IW2NTF | 2026-09-03 23:40:28 | 45.35546 | 8.91889 | 126° | 69km/h | 10062m | 3.7m/s | -39.3°C | 18.1% | 0hPa | 2.8V | 08:30:00 | 01:06:47 | 00:00:00 | |
| IW2NTF | 2026-09-03 23:40:23 | 45.35652 | 8.91685 | 125° | 68km/h | 10024m | 2.8m/s | -39°C | 17.3% | 0hPa | 2.9V | 08:30:00 | 01:06:37 | 00:00:00 | |
| IW2NTF | 2026-09-03 23:40:12 | 45.35760 | 8.91472 | 126° | 75km/h | 9988m | 3.2m/s | -38.7°C | 16.7% | 0hPa | 2.7V | 08:30:00 | 01:06:27 | 00:00:00 | |
| IW2NTF | 2026-09-03 23:40:03 | 45.35868 | 8.91264 | 128° | 68km/h | 9951m | 4.5m/s | -38.3°C | 16.1% | 0hPa | 2.8V | 08:30:00 | 01:06:17 | 00:00:00 | |
| IW2NTF | 2026-09-03 23:39:51 | 45.35977 | 8.91061 | 125° | 73km/h | 9912m | 4.1m/s | -38°C | 15.9% | 0hPa | 2.9V | 08:30:00 | 01:06:07 | 00:00:00 | |
| IW2NTF | 2026-09-03 23:39:41 | 45.36085 | 8.90852 | 126° | 75km/h | 9874m | 3.5m/s | -37.6°C | 15.1% | 0hPa | 2.7V | 08:30:00 | 01:05:57 | 00:00:00 | |
| IW2NTF | 2026-09-03 23:39:31 | 45.36195 | 8.90638 | 123° | 73km/h | 9837m | 3.4m/s | -37.3°C | 14.9% | 0hPa | 2.9V | 08:30:00 | 01:05:47 | 00:00:00 | |
| IW2NTF | 2026-09-03 23:39:21 | 45.36304 | 8.90416 | 124° | 73km/h | 9799m | 4m/s | -37°C | 14.8% | 0hPa | 2.9V | 08:30:00 | 01:05:37 | 00:00:00 | |
| IW2NTF | 2026-09-03 23:39:11 | 45.36409 | 8.90198 | 124° | 80km/h | 9762m | 3.7m/s | -36.7°C | 15.2% | 0hPa | 2.7V | 08:30:00 | 01:05:27 | 00:00:00 | |
| IW2NTF | 2026-09-03 23:39:02 | 45.36512 | 8.89964 | 124° | 73km/h | 9724m | 4.3m/s | -36.3°C | 14.9% | 0hPa | 2.9V | 08:30:00 | 01:05:17 | 00:00:00 | |
| IW2NTF | 2026-09-03 23:38:52 | 45.36615 | 8.89736 | 121° | 73km/h | 9688m | 4.1m/s | -36°C | 14.8% | 0hPa | 2.7V | 08:30:00 | 01:05:07 | 00:00:00 | |
| IW2NTF | 2026-09-03 23:38:42 | 45.36715 | 8.89496 | 120° | 77km/h | 9651m | 3.9m/s | -35.7°C | 14.8% | 0hPa | 2.9V | 08:30:00 | 01:04:57 | 00:00:00 | |
| IW2NTF | 2026-09-03 23:38:32 | 45.36817 | 8.89248 | 118° | 78km/h | 9610m | 3.3m/s | -35.4°C | 14.3% | 0hPa | 2.9V | 08:30:00 | 01:04:47 | 00:00:00 | |
| IW2NTF | 2026-09-03 23:38:22 | 45.36916 | 8.88995 | 119° | 82km/h | 9571m | 3.6m/s | -35°C | 13.6% | 0hPa | 2.9V | 08:30:00 | 01:04:37 | 00:00:00 | |
| IW2NTF | 2026-09-03 23:38:12 | 45.37018 | 8.88732 | 117° | 82km/h | 9533m | 4.6m/s | -34.7°C | 12.7% | 0hPa | 2.9V | 08:30:00 | 01:04:27 | 00:00:00 | |
| IW2NTF | 2026-09-03 23:38:02 | 45.37118 | 8.88473 | 118° | 82km/h | 9495m | 3.1m/s | -34.4°C | 12% | 0hPa | 2.9V | 08:30:00 | 01:04:17 | 00:00:00 | |
| IW2NTF | 2026-09-03 23:37:52 | 45.37220 | 8.88211 | 119° | 82km/h | 9457m | 3m/s | -34°C | 11.6% | 0hPa | 2.9V | 08:30:00 | 01:04:07 | 00:00:00 | |
| IW2NTF | 2026-09-03 23:37:43 | 45.37328 | 8.87929 | 116° | 88km/h | 9423m | 3.5m/s | -33.8°C | 11.1% | 0hPa | 2.9V | 08:30:00 | 01:03:57 | 00:00:00 | |
| IW2NTF | 2026-09-03 23:37:29 | 45.37432 | 8.87647 | 120° | 89km/h | 9389m | 3.4m/s | -33.5°C | 10.6% | 0hPa | 2.9V | 08:30:00 | 01:03:47 | 00:00:00 | |
| IW2NTF | 2026-09-03 23:37:17 | 45.37539 | 8.87365 | 119° | 88km/h | 9355m | 2.8m/s | -33.1°C | 10.4% | 0hPa | 2.9V | 08:30:00 | 01:03:37 | 00:00:00 | |
| IW2NTF | 2026-09-03 23:37:07 | 45.37651 | 8.87081 | 120° | 93km/h | 9322m | 4.1m/s | -32.8°C | 9.7% | 0hPa | 2.9V | 08:30:00 | 01:03:27 | 00:00:00 | |
| IW2NTF | 2026-09-03 23:36:58 | 45.37799 | 8.86734 | 122° | 88km/h | 9274m | 3.4m/s | -32.4°C | 9.7% | 0hPa | 2.8V | 08:30:00 | 01:03:14 | 00:00:00 | |
| IW2NTF | 2026-09-03 23:36:47 | 45.37917 | 8.86464 | 118° | 84km/h | 9242m | 2.8m/s | -32.1°C | 9.4% | 0hPa | 2.9V | 08:30:00 | 01:03:04 | 00:00:00 | |
| IW2NTF | 2026-09-03 23:36:37 | 45.38032 | 8.86205 | 124° | 84km/h | 9207m | 3.9m/s | -31.9°C | 9.5% | 0hPa | 2.8V | 08:30:00 | 01:02:54 | 00:00:00 | |
| IW2NTF | 2026-09-03 23:36:25 | 45.38145 | 8.85953 | 124° | 82km/h | 9176m | 3.5m/s | -31.7°C | 9.8% | 0hPa | 2.9V | 08:30:00 | 01:02:44 | 00:00:00 | |
| IW2NTF | 2026-09-03 23:36:19 | 45.38269 | 8.85715 | 122° | 77km/h | 9133m | 2.7m/s | -31.4°C | 10.2% | 0hPa | 2.9V | 08:30:00 | 01:02:34 | 00:00:00 | |
| IW2NTF | 2026-09-03 23:36:09 | 45.38375 | 8.85483 | 127° | 77km/h | 9097m | 3.8m/s | -31.1°C | 10.1% | 0hPa | 2.9V | 08:30:00 | 01:02:24 | 00:00:00 | |
| IW2NTF | 2026-09-03 23:35:59 | 45.38484 | 8.85262 | 127° | 69km/h | 9063m | 3.5m/s | -30.8°C | 9.8% | 0hPa | 2.9V | 08:30:00 | 01:02:14 | 00:00:00 | |
| IW2NTF | 2026-09-03 23:35:43 | 45.38632 | 8.85034 | 127° | 69km/h | 9017m | 3.8m/s | -30.4°C | 9.6% | 0hPa | 2.9V | 08:30:00 | 01:02:02 | 00:00:00 | |
| IW2NTF | 2026-09-03 23:35:32 | 45.38773 | 8.84792 | 139° | 82km/h | 8968m | 1.9m/s | -29.9°C | 9.6% | 0hPa | 2.9V | 08:30:00 | 01:01:50 | 00:00:00 | |
| IW2NTF | 2026-09-03 23:35:22 | 45.38895 | 8.84601 | 130° | 66km/h | 8920m | 4.2m/s | -29.6°C | 9.7% | 0hPa | 2.8V | 08:30:00 | 01:01:40 | 00:00:00 | |
| IW2NTF | 2026-09-03 23:35:12 | 45.39030 | 8.84399 | 129° | 69km/h | 8881m | 3.5m/s | -29.3°C | 9.6% | 0hPa | 2.9V | 08:30:00 | 01:01:29 | 00:00:00 | |
| IW2NTF | 2026-09-03 23:35:02 | 45.39141 | 8.84226 | 135° | 68km/h | 8847m | 3.6m/s | -29.1°C | 10.2% | 0hPa | 2.9V | 08:30:00 | 01:01:19 | 00:00:00 | |
| IW2NTF | 2026-09-03 23:34:52 | 45.39245 | 8.84048 | 135° | 64km/h | 8811m | 4m/s | -28.8°C | 10.3% | 0hPa | 2.9V | 08:30:00 | 01:01:09 | 00:00:00 | |
| IW2NTF | 2026-09-03 23:34:42 | 45.39359 | 8.83890 | 134° | 62km/h | 8776m | 3.2m/s | -28.6°C | 10.5% | 0hPa | 2.8V | 08:30:00 | 01:00:59 | 00:00:00 | |
| IW2NTF | 2026-09-03 23:34:32 | 45.39464 | 8.83735 | 133° | 60km/h | 8747m | 2.2m/s | -28.3°C | 10.8% | 0hPa | 2.9V | 08:30:00 | 01:00:49 | 00:00:00 | |
| IW2NTF | 2026-09-03 23:34:23 | 45.39561 | 8.83578 | 136° | 58km/h | 8715m | 3.8m/s | -28°C | 10.8% | 0hPa | 2.9V | 08:30:00 | 01:00:39 | 00:00:00 | |
| IW2NTF | 2026-09-03 23:34:12 | 45.39658 | 8.83425 | 127° | 57km/h | 8686m | 3.8m/s | -27.8°C | 10.8% | 0hPa | 2.9V | 08:30:00 | 01:00:29 | 00:00:00 | |
| IW2NTF | 2026-09-03 23:34:02 | 45.39749 | 8.83275 | 128° | 55km/h | 8655m | 2.4m/s | -27.5°C | 10.8% | 0hPa | 2.8V | 08:30:00 | 01:00:19 | 00:00:00 | |
| IW2NTF | 2026-09-03 23:33:52 | 45.39835 | 8.83115 | 130° | 57km/h | 8625m | 3.5m/s | -27.2°C | 10.6% | 0hPa | 2.9V | 08:30:00 | 01:00:09 | 00:00:00 | |
| IW2NTF | 2026-09-03 23:33:42 | 45.39924 | 8.82962 | 130° | 53km/h | 8594m | 3.3m/s | -27.1°C | 11.2% | 0hPa | 2.9V | 08:30:00 | 00:59:59 | 00:00:00 | |
| IW2NTF | 2026-09-03 23:33:33 | 45.40009 | 8.82804 | 123° | 57km/h | 8558m | 3.5m/s | -26.8°C | 11.1% | 0hPa | 2.8V | 08:30:00 | 00:59:49 | 00:00:00 | |
| IW2NTF | 2026-09-03 23:33:23 | 45.40085 | 8.82635 | 123° | 57km/h | 8526m | 4.1m/s | -26.4°C | 11% | 0hPa | 2.9V | 08:30:00 | 00:59:39 | 00:00:00 | |
| IW2NTF | 2026-09-03 23:33:14 | 45.40169 | 8.82470 | 126° | 55km/h | 8494m | 3.4m/s | -26.2°C | 11.6% | 0hPa | 2.9V | 08:30:00 | 00:59:29 | 00:00:00 | |
| IW2NTF | 2026-09-03 23:33:04 | 45.40250 | 8.82304 | 123° | 57km/h | 8459m | 3.7m/s | -26°C | 11.5% | 0hPa | 2.9V | 08:30:00 | 00:59:19 | 00:00:00 | |
| IW2NTF | 2026-09-03 23:32:54 | 45.40329 | 8.82143 | 125° | 55km/h | 8425m | 2.5m/s | -25.6°C | 11.4% | 0hPa | 2.9V | 08:30:00 | 00:59:09 | 00:00:00 | |
| IW2NTF | 2026-09-03 23:32:44 | 45.40410 | 8.81975 | 126° | 55km/h | 8392m | 3.6m/s | -25.5°C | 12.2% | 0hPa | 2.9V | 08:30:00 | 00:58:59 | 00:00:00 | |
| IW2NTF | 2026-09-03 23:32:35 | 45.40495 | 8.81809 | 122° | 58km/h | 8357m | 3.9m/s | -25.4°C | 13.6% | 0hPa | 2.9V | 08:30:00 | 00:58:49 | 00:00:00 | |
| IW2NTF | 2026-09-03 23:32:24 | 45.40577 | 8.81636 | 123° | 58km/h | 8322m | 3m/s | -25.2°C | 14% | 0hPa | 2.9V | 08:30:00 | 00:58:39 | 00:00:00 | |
| IW2NTF | 2026-09-03 23:32:14 | 45.40657 | 8.81459 | 122° | 57km/h | 8287m | 3.3m/s | -25.2°C | 15.4% | 0hPa | 2.8V | 08:30:00 | 00:58:29 | 00:00:00 | |
| IW2NTF | 2026-09-03 23:32:04 | 45.40724 | 8.81271 | 115° | 57km/h | 8248m | 4m/s | -24.9°C | 15.8% | 0hPa | 2.8V | 08:30:00 | 00:58:19 | 00:00:00 | |
| IW2NTF | 2026-09-03 23:31:55 | 45.40804 | 8.81106 | 120° | 68km/h | 8208m | 4.4m/s | -24.6°C | 15.8% | 0hPa | 2.8V | 08:30:00 | 00:58:09 | 00:00:00 | |
| IW2NTF | 2026-09-03 23:31:44 | 45.40889 | 8.80941 | 133° | 47km/h | 8150m | 4.9m/s | -24.1°C | 16% | 0hPa | 2.8V | 08:30:00 | 00:57:59 | 00:00:00 | |
| IW2NTF | 2026-09-03 23:31:31 | 45.40993 | 8.80791 | 144° | 55km/h | 8093m | 5.5m/s | -23.6°C | 15.5% | 0hPa | 2.9V | 08:30:00 | 00:57:49 | 00:00:00 | |
| IW2NTF | 2026-09-03 23:31:21 | 45.41096 | 8.80628 | 140° | 47km/h | 8030m | 7m/s | -23°C | 15% | 0hPa | 2.9V | 08:30:00 | 00:57:39 | 00:00:00 | |
| IW2NTF | 2026-09-03 23:31:14 | 45.41179 | 8.80474 | 133° | 60km/h | 7979m | 6.1m/s | -22.5°C | 15.1% | 0hPa | 2.9V | 08:30:00 | 00:57:29 | 00:00:00 | |
| IW2NTF | 2026-09-03 23:31:01 | 45.41267 | 8.80326 | 123° | 55km/h | 7917m | 4.4m/s | -22°C | 15.3% | 0hPa | 2.9V | 08:30:00 | 00:57:19 | 00:00:00 | |
| IW2NTF | 2026-09-03 23:30:51 | 45.41359 | 8.80181 | 130° | 53km/h | 7857m | 5.7m/s | -21.5°C | 14.9% | 0hPa | 2.9V | 08:30:00 | 00:57:09 | 00:00:00 | |
| IW2NTF | 2026-09-03 23:30:41 | 45.41455 | 8.80051 | 133° | 53km/h | 7807m | 3.2m/s | -21°C | 14.7% | 0hPa | 2.8V | 08:30:00 | 00:56:59 | 00:00:00 | |
| IW2NTF | 2026-09-03 23:30:31 | 45.41556 | 8.79920 | 141° | 51km/h | 7759m | 5.9m/s | -20.6°C | 14.3% | 0hPa | 2.9V | 08:30:00 | 00:56:49 | 00:00:00 | |
| IW2NTF | 2026-09-03 23:30:24 | 45.41659 | 8.79797 | 136° | 51km/h | 7717m | 3.4m/s | -20.2°C | 14.2% | 0hPa | 2.9V | 08:30:00 | 00:56:39 | 00:00:00 | |
| IW2NTF | 2026-09-03 23:30:11 | 45.41753 | 8.79672 | 139° | 55km/h | 7678m | 3.8m/s | -19.9°C | 13.8% | 0hPa | 2.8V | 08:30:00 | 00:56:29 | 00:00:00 | |
| IW2NTF | 2026-09-03 23:29:59 | 45.41855 | 8.79543 | 131° | 53km/h | 7636m | 3.5m/s | -19.5°C | 13.4% | 0hPa | 2.9V | 08:30:00 | 00:56:19 | 00:00:00 | |
| IW2NTF | 2026-09-03 23:29:49 | 45.41978 | 8.79379 | 139° | 47km/h | 7584m | 5.2m/s | -19.1°C | 13.4% | 0hPa | 2.9V | 08:30:00 | 00:56:06 | 00:00:00 | |
| IW2NTF | 2026-09-03 23:29:39 | 45.42076 | 8.79241 | 133° | 55km/h | 7544m | 3.3m/s | -18.8°C | 13.4% | 0hPa | 2.9V | 08:30:00 | 00:55:56 | 00:00:00 | |
| IW2NTF | 2026-09-03 23:29:31 | 45.42170 | 8.79112 | 135° | 51km/h | 7506m | 3.7m/s | -18.5°C | 13.9% | 0hPa | 2.9V | 08:30:00 | 00:55:46 | 00:00:00 | |
| IW2NTF | 2026-09-03 23:29:21 | 45.42265 | 8.78988 | 135° | 47km/h | 7467m | 4.7m/s | -18.2°C | 14% | 0hPa | 2.9V | 08:30:00 | 00:55:36 | 00:00:00 | |
| IW2NTF | 2026-09-03 23:29:11 | 45.42358 | 8.78847 | 134° | 51km/h | 7426m | 3m/s | -17.8°C | 13.9% | 0hPa | 2.9V | 08:30:00 | 00:55:26 | 00:00:00 | |
| IW2NTF | 2026-09-03 23:29:01 | 45.42446 | 8.78707 | 131° | 55km/h | 7392m | 3m/s | -17.6°C | 13.8% | 0hPa | 2.9V | 08:30:00 | 00:55:16 | 00:00:00 | |
| IW2NTF | 2026-09-03 23:28:51 | 45.42543 | 8.78566 | 130° | 55km/h | 7357m | 3m/s | -17.4°C | 14.7% | 0hPa | 2.9V | 08:30:00 | 00:55:06 | 00:00:00 | |
| IW2NTF | 2026-09-03 23:28:41 | 45.42633 | 8.78425 | 136° | 57km/h | 7323m | 3.5m/s | -17.1°C | 14.2% | 0hPa | 2.9V | 08:30:00 | 00:54:56 | 00:00:00 | |
| IW2NTF | 2026-09-03 23:28:31 | 45.42722 | 8.78281 | 133° | 49km/h | 7288m | 3.3m/s | -16.9°C | 14.5% | 0hPa | 2.8V | 08:30:00 | 00:54:46 | 00:00:00 | |
| IW2NTF | 2026-09-03 23:28:21 | 45.42816 | 8.78135 | 131° | 55km/h | 7252m | 3.2m/s | -16.7°C | 15.3% | 0hPa | 2.9V | 08:30:00 | 00:54:36 | 00:00:00 | |
| IW2NTF | 2026-09-03 23:28:11 | 45.42910 | 8.77993 | 134° | 53km/h | 7216m | 4.3m/s | -16.7°C | 17.5% | 0hPa | 2.8V | 08:30:00 | 00:54:26 | 00:00:00 | |
| IW2NTF | 2026-09-03 23:28:01 | 45.43002 | 8.77845 | 132° | 55km/h | 7178m | 3.5m/s | -16.5°C | 17.9% | 0hPa | 2.9V | 08:30:00 | 00:54:16 | 00:00:00 | |
| IW2NTF | 2026-09-03 23:27:51 | 45.43105 | 8.77700 | 132° | 58km/h | 7140m | 4.6m/s | -16.3°C | 19.5% | 0hPa | 2.9V | 08:30:00 | 00:54:06 | 00:00:00 | |
| IW2NTF | 2026-09-03 23:27:41 | 45.43201 | 8.77553 | 136° | 58km/h | 7103m | 4.2m/s | -16.1°C | 21.4% | 0hPa | 2.9V | 08:30:00 | 00:53:56 | 00:00:00 | |
| IW2NTF | 2026-09-03 23:27:31 | 45.43302 | 8.77415 | 133° | 53km/h | 7065m | 4.6m/s | -15.8°C | 22.4% | 0hPa | 2.9V | 08:30:00 | 00:53:46 | 00:00:00 | |
| IW2NTF | 2026-09-03 23:27:20 | 45.43408 | 8.77262 | 134° | 53km/h | 7025m | 4m/s | -15.5°C | 22.8% | 0hPa | 2.9V | 08:30:00 | 00:53:35 | 00:00:00 | |
| IW2NTF | 2026-09-03 23:27:03 | 45.43525 | 8.77101 | 135° | 55km/h | 6983m | 3.8m/s | -15.2°C | 23% | 0hPa | 2.9V | 08:30:00 | 00:53:23 | 00:00:00 | |
| IW2NTF | 2026-09-03 23:26:53 | 45.43628 | 8.76957 | 136° | 53km/h | 6944m | 4.1m/s | -14.8°C | 23% | 0hPa | 2.9V | 08:30:00 | 00:53:12 | 00:00:00 | |
| IW2NTF | 2026-09-03 23:26:43 | 45.43722 | 8.76824 | 134° | 51km/h | 6908m | 3.9m/s | -14.5°C | 22.9% | 0hPa | 2.9V | 08:30:00 | 00:53:02 | 00:00:00 | |
| IW2NTF | 2026-09-03 23:26:33 | 45.43815 | 8.76698 | 136° | 51km/h | 6872m | 4m/s | -14.2°C | 22.6% | 0hPa | 2.9V | 08:30:00 | 00:52:52 | 00:00:00 | |
| IW2NTF | 2026-09-03 23:26:24 | 45.43908 | 8.76578 | 138° | 49km/h | 6838m | 2.9m/s | -13.8°C | 22% | 0hPa | 2.9V | 08:30:00 | 00:52:42 | 00:00:00 | |
| IW2NTF | 2026-09-03 23:26:13 | 45.43996 | 8.76455 | 142° | 49km/h | 6806m | 2.5m/s | -13.5°C | 21.3% | 0hPa | 2.9V | 08:30:00 | 00:52:32 | 00:00:00 | |
| IW2NTF | 2026-09-03 23:26:03 | 45.44093 | 8.76338 | 133° | 47km/h | 6774m | 2.9m/s | -13.3°C | 20.9% | 0hPa | 2.9V | 08:30:00 | 00:52:22 | 00:00:00 | |
| IW2NTF | 2026-09-03 23:25:53 | 45.44186 | 8.76218 | 137° | 53km/h | 6742m | 3.5m/s | -13.1°C | 22.4% | 0hPa | 2.9V | 08:30:00 | 00:52:12 | 00:00:00 | |
| IW2NTF | 2026-09-03 23:25:43 | 45.44284 | 8.76095 | 137° | 47km/h | 6710m | 3.1m/s | -12.9°C | 23.6% | 0hPa | 2.9V | 08:30:00 | 00:52:02 | 00:00:00 | |
| IW2NTF | 2026-09-03 23:25:33 | 45.44375 | 8.75977 | 139° | 49km/h | 6679m | 2.8m/s | -12.7°C | 24% | 0hPa | 2.8V | 08:30:00 | 00:51:52 | 00:00:00 | |
| IW2NTF | 2026-09-03 23:25:23 | 45.44471 | 8.75859 | 137° | 49km/h | 6648m | 3m/s | -12.4°C | 24.1% | 0hPa | 2.9V | 08:30:00 | 00:51:42 | 00:00:00 | |
| IW2NTF | 2026-09-03 23:25:13 | 45.44564 | 8.75737 | 138° | 46km/h | 6615m | 3.4m/s | -12.1°C | 23.7% | 0hPa | 2.9V | 08:30:00 | 00:51:32 | 00:00:00 | |
| IW2NTF | 2026-09-03 23:25:03 | 45.44657 | 8.75609 | 136° | 55km/h | 6584m | 3.5m/s | -11.8°C | 23.2% | 0hPa | 2.9V | 08:30:00 | 00:51:22 | 00:00:00 | |
| IW2NTF | 2026-09-03 23:24:53 | 45.44753 | 8.75479 | 135° | 53km/h | 6552m | 2.4m/s | -11.5°C | 22.2% | 0hPa | 2.9V | 08:30:00 | 00:51:12 | 00:00:00 | |
| IW2NTF | 2026-09-03 23:24:47 | 45.44846 | 8.75355 | 137° | 53km/h | 6518m | 4.5m/s | -11.2°C | 21% | 0hPa | 2.9V | 08:30:00 | 00:51:02 | 00:00:00 | |
| IW2NTF | 2026-09-03 23:24:37 | 45.44942 | 8.75221 | 134° | 53km/h | 6482m | 4m/s | -10.8°C | 21.4% | 0hPa | 2.9V | 08:30:00 | 00:50:52 | 00:00:00 | |
| IW2NTF | 2026-09-03 23:24:27 | 45.45036 | 8.75092 | 135° | 53km/h | 6447m | 4.3m/s | -10.6°C | 22.8% | 0hPa | 2.9V | 08:30:00 | 00:50:42 | 00:00:00 | |
| IW2NTF | 2026-09-03 23:24:17 | 45.45129 | 8.74946 | 131° | 53km/h | 6411m | 4.7m/s | -10.2°C | 22.5% | 0hPa | 2.9V | 08:30:00 | 00:50:32 | 00:00:00 | |
| IW2NTF | 2026-09-03 23:24:07 | 45.45230 | 8.74801 | 131° | 53km/h | 6367m | 4.1m/s | -9.8°C | 22.2% | 0hPa | 2.9V | 08:30:00 | 00:50:22 | 00:00:00 | |
| IW2NTF | 2026-09-03 23:23:58 | 45.45325 | 8.74665 | 131° | 58km/h | 6321m | 5.2m/s | -9.5°C | 22.5% | 0hPa | 2.8V | 08:30:00 | 00:50:12 | 00:00:00 | |
| IW2NTF | 2026-09-03 23:23:47 | 45.45425 | 8.74526 | 138° | 55km/h | 6279m | 4.5m/s | -9.1°C | 22.2% | 0hPa | 2.9V | 08:30:00 | 00:50:02 | 00:00:00 | |
| IW2NTF | 2026-09-03 23:23:37 | 45.45526 | 8.74377 | 130° | 57km/h | 6238m | 3.4m/s | -8.8°C | 21.7% | 0hPa | 2.9V | 08:30:00 | 00:49:52 | 00:00:00 | |
| IW2NTF | 2026-09-03 23:23:27 | 45.45626 | 8.74240 | 135° | 55km/h | 6192m | 5.7m/s | -8.4°C | 20.3% | 0hPa | 2.9V | 08:30:00 | 00:49:42 | 00:00:00 | |
| IW2NTF | 2026-09-03 23:23:17 | 45.45726 | 8.74083 | 132° | 55km/h | 6148m | 2.9m/s | -8.1°C | 21.3% | 0hPa | 2.9V | 08:30:00 | 00:49:32 | 00:00:00 | |
| IW2NTF | 2026-09-03 23:23:07 | 45.45828 | 8.73932 | 130° | 58km/h | 6109m | 4.1m/s | -7.8°C | 20.8% | 0hPa | 2.9V | 08:30:00 | 00:49:22 | 00:00:00 | |
| IW2NTF | 2026-09-03 23:22:57 | 45.45924 | 8.73780 | 128° | 58km/h | 6069m | 4.5m/s | -7.5°C | 19% | 0hPa | 2.8V | 08:30:00 | 00:49:12 | 00:00:00 | |
| IW2NTF | 2026-09-03 23:22:47 | 45.46017 | 8.73630 | 131° | 57km/h | 6028m | 4.8m/s | -7.8°C | 24.8% | 0hPa | 2.9V | 08:30:00 | 00:49:02 | 00:00:00 | |
| IW2NTF | 2026-09-03 23:22:37 | 45.46109 | 8.73483 | 128° | 55km/h | 5987m | 4.7m/s | -7.7°C | 29.1% | 0hPa | 2.9V | 08:30:00 | 00:48:52 | 00:00:00 | |
| IW2NTF | 2026-09-03 23:22:27 | 45.46206 | 8.73360 | 142° | 49km/h | 5939m | 5.3m/s | -7.4°C | 30.6% | 0hPa | 2.9V | 08:30:00 | 00:48:42 | 00:00:00 | |
| IW2NTF | 2026-09-03 23:22:17 | 45.46307 | 8.73238 | 140° | 55km/h | 5891m | 4.7m/s | -7.4°C | 35.2% | 0hPa | 2.9V | 08:30:00 | 00:48:32 | 00:00:00 | |
| IW2NTF | 2026-09-03 23:22:07 | 45.46398 | 8.73131 | 138° | 46km/h | 5838m | 4.9m/s | -7.1°C | 35.4% | 0hPa | 2.9V | 08:30:00 | 00:48:22 | 00:00:00 | |
| IW2NTF | 2026-09-03 23:21:57 | 45.46485 | 8.73019 | 143° | 46km/h | 5795m | 4.6m/s | -6.8°C | 36.8% | 0hPa | 2.9V | 08:30:00 | 00:48:12 | 00:00:00 | |
| IW2NTF | 2026-09-03 23:21:47 | 45.46575 | 8.72922 | 141° | 49km/h | 5743m | 4.6m/s | -6.6°C | 39% | 0hPa | 2.9V | 08:30:00 | 00:48:02 | 00:00:00 | |
| IW2NTF | 2026-09-03 23:21:36 | 45.46674 | 8.72806 | 142° | 46km/h | 5686m | 4.1m/s | -6.2°C | 38.7% | 0hPa | 3V | 08:30:00 | 00:47:51 | 00:00:00 | |
| IW2NTF | 2026-09-03 23:21:26 | 45.46756 | 8.72701 | 146° | 40km/h | 5643m | 3.9m/s | -5.8°C | 38% | 0hPa | 2.9V | 08:30:00 | 00:47:41 | 00:00:00 | |
| IW2NTF | 2026-09-03 23:21:16 | 45.46845 | 8.72597 | 140° | 44km/h | 5605m | 3.4m/s | -5.5°C | 37.9% | 0hPa | 2.9V | 08:30:00 | 00:47:31 | 00:00:00 | |
| IW2NTF | 2026-09-03 23:21:06 | 45.46935 | 8.72498 | 134° | 44km/h | 5566m | 4.5m/s | -5.2°C | 38.9% | 0hPa | 2.9V | 08:30:00 | 00:47:21 | 00:00:00 | |
| IW2NTF | 2026-09-03 23:20:55 | 45.47034 | 8.72399 | 143° | 44km/h | 5527m | 4.7m/s | -4.8°C | 38.2% | 0hPa | 2.9V | 08:30:00 | 00:47:10 | 00:00:00 | |
| IW2NTF | 2026-09-03 23:20:44 | 45.47129 | 8.72267 | 140° | 58km/h | 5471m | 3.5m/s | -4.4°C | 38.6% | 0hPa | 2.9V | 08:30:00 | 00:46:59 | 00:00:00 | |
| IW2NTF | 2026-09-03 23:20:34 | 45.47226 | 8.72173 | 144° | 51km/h | 5417m | 3.5m/s | -4°C | 36.3% | 0hPa | 3V | 08:30:00 | 00:46:49 | 00:00:00 | |
| IW2NTF | 2026-09-03 23:20:24 | 45.47324 | 8.72094 | 157° | 42km/h | 5368m | 4.8m/s | -3.7°C | 31.9% | 0hPa | 2.9V | 08:30:00 | 00:46:39 | 00:00:00 | |
| IW2NTF | 2026-09-03 23:20:14 | 45.47421 | 8.72016 | 145° | 33km/h | 5315m | 3.4m/s | -3.5°C | 34.2% | 0hPa | 3V | 08:30:00 | 00:46:28 | 00:00:00 | |
| IW2NTF | 2026-09-03 23:20:02 | 45.47523 | 8.71919 | 151° | 47km/h | 5263m | 4.2m/s | -3.2°C | 35.8% | 0hPa | 3V | 08:30:00 | 00:46:17 | 00:00:00 | |
| IW2NTF | 2026-09-03 23:19:52 | 45.47626 | 8.71848 | 150° | 40km/h | 5224m | 3.8m/s | -3.1°C | 37.8% | 0hPa | 2.9V | 08:30:00 | 00:46:07 | 00:00:00 | |
| IW2NTF | 2026-09-03 23:19:42 | 45.47716 | 8.71774 | 157° | 37km/h | 5183m | 4.7m/s | -3.2°C | 44.2% | 0hPa | 3V | 08:30:00 | 00:45:57 | 00:00:00 | |
| IW2NTF | 2026-09-03 23:19:32 | 45.47799 | 8.71713 | 154° | 38km/h | 5143m | 5.3m/s | -3.1°C | 48.2% | 0hPa | 3V | 08:30:00 | 00:45:47 | 00:00:00 | |
| IW2NTF | 2026-09-03 23:19:21 | 45.47900 | 8.71633 | 156° | 42km/h | 5095m | 3.1m/s | -2.9°C | 52.1% | 0hPa | 3V | 08:30:00 | 00:45:36 | 00:00:00 | |
| IW2NTF | 2026-09-03 23:19:11 | 45.47995 | 8.71567 | 160° | 42km/h | 5054m | 4m/s | -2.6°C | 49.4% | 0hPa | 3V | 08:30:00 | 00:45:26 | 00:00:00 | |
| IW2NTF | 2026-09-03 23:19:01 | 45.48104 | 8.71498 | 147° | 51km/h | 5017m | 4.2m/s | -2.3°C | 46.2% | 0hPa | 3V | 08:30:00 | 00:45:16 | 00:00:00 | |
| IW2NTF | 2026-09-03 23:18:51 | 45.48209 | 8.71424 | 151° | 49km/h | 4977m | 3.5m/s | -2°C | 43.5% | 0hPa | 3V | 08:30:00 | 00:45:06 | 00:00:00 | |
| IW2NTF | 2026-09-03 23:18:45 | 45.48269 | 8.71380 | 152° | 42km/h | 4951m | 4.8m/s | -1.7°C | 43.2% | 0hPa | 3V | 08:30:00 | 00:45:00 | 00:00:00 | |
| IW2NTF | 2026-09-03 23:18:39 | 45.48333 | 8.71344 | 162° | 47km/h | 4927m | 3.8m/s | -1.5°C | 41.8% | 0hPa | 3V | 08:30:00 | 00:44:54 | 00:00:00 | |
| IW2NTF | 2026-09-03 23:18:33 | 45.48393 | 8.71304 | 155° | 44km/h | 4903m | 3.3m/s | -1.3°C | 40.4% | 0hPa | 3V | 08:30:00 | 00:44:48 | 00:00:00 | |
| IW2NTF | 2026-09-03 23:18:27 | 45.48456 | 8.71272 | 160° | 47km/h | 4881m | 3.5m/s | -1.1°C | 38.8% | 0hPa | 3V | 08:30:00 | 00:44:42 | 00:00:00 | |
| IW2NTF | 2026-09-03 23:18:21 | 45.48513 | 8.71229 | 147° | 40km/h | 4860m | 4.9m/s | -0.8°C | 37.4% | 0hPa | 3V | 08:30:00 | 00:44:36 | 00:00:00 | |
| IW2NTF | 2026-09-03 23:18:15 | 45.48580 | 8.71199 | 169° | 49km/h | 4833m | 3.4m/s | -0.7°C | 44.2% | 0hPa | 3V | 08:30:00 | 00:44:30 | 00:00:00 | |
| IW2NTF | 2026-09-03 23:18:09 | 45.48647 | 8.71173 | 165° | 40km/h | 4801m | 6.9m/s | -0.5°C | 44% | 0hPa | 3V | 08:30:00 | 00:44:24 | 00:00:00 | |
| IW2NTF | 2026-09-03 23:18:03 | 45.48707 | 8.71154 | 165° | 46km/h | 4769m | 4.7m/s | -0.1°C | 43.3% | 0hPa | 3V | 08:30:00 | 00:44:18 | 00:00:00 | |
| IW2NTF | 2026-09-03 23:17:57 | 45.48772 | 8.71130 | 160° | 47km/h | 4741m | 3.7m/s | 0.1°C | 45% | 0hPa | 3V | 08:30:00 | 00:44:12 | 00:00:00 | |
| IW2NTF | 2026-09-03 23:17:52 | 45.48840 | 8.71103 | 168° | 46km/h | 4716m | 4.5m/s | 0.3°C | 44.5% | 0hPa | 3V | 08:30:00 | 00:44:06 | 00:00:00 | |
| IW2NTF | 2026-09-03 23:17:45 | 45.48900 | 8.71076 | 157° | 38km/h | 4691m | 5.4m/s | 0.5°C | 44% | 0hPa | 3V | 08:30:00 | 00:44:00 | 00:00:00 | |
| IW2NTF | 2026-09-03 23:17:39 | 45.48969 | 8.71035 | 155° | 53km/h | 4660m | 3.7m/s | 0.8°C | 42.5% | 0hPa | 3V | 08:30:00 | 00:43:54 | 00:00:00 | |
| IW2NTF | 2026-09-03 23:17:33 | 45.49034 | 8.70995 | 160° | 42km/h | 4633m | 3.6m/s | 1.1°C | 41.2% | 0hPa | 3V | 08:30:00 | 00:43:48 | 00:00:00 | |
| IW2NTF | 2026-09-03 23:17:27 | 45.49097 | 8.70966 | 163° | 42km/h | 4612m | 3.6m/s | 1.3°C | 38.6% | 0hPa | 3V | 08:30:00 | 00:43:42 | 00:00:00 | |
| IW2NTF | 2026-09-03 23:17:21 | 45.49166 | 8.70930 | 161° | 49km/h | 4591m | 3.3m/s | 1.4°C | 34.1% | 0hPa | 3V | 08:30:00 | 00:43:36 | 00:00:00 | |
| IW2NTF | 2026-09-03 23:17:15 | 45.49229 | 8.70896 | 156° | 44km/h | 4570m | 3.6m/s | 1.6°C | 35% | 0hPa | 3V | 08:30:00 | 00:43:30 | 00:00:00 | |
| IW2NTF | 2026-09-03 23:17:09 | 45.49295 | 8.70848 | 152° | 55km/h | 4551m | 4m/s | 1.7°C | 38.7% | 0hPa | 3V | 08:30:00 | 00:43:24 | 00:00:00 | |
| IW2NTF | 2026-09-03 23:17:03 | 45.49365 | 8.70800 | 152° | 51km/h | 4521m | 5.7m/s | 1.9°C | 39.5% | 0hPa | 3V | 08:30:00 | 00:43:18 | 00:00:00 | |
| IW2NTF | 2026-09-03 23:16:57 | 45.49430 | 8.70750 | 155° | 47km/h | 4492m | 5.4m/s | 2.2°C | 35.7% | 0hPa | 3V | 08:30:00 | 00:43:12 | 00:00:00 | |
| IW2NTF | 2026-09-03 23:16:51 | 45.49496 | 8.70712 | 161° | 49km/h | 4461m | 4.7m/s | 2.5°C | 25% | 0hPa | 3V | 08:30:00 | 00:43:06 | 00:00:00 | |
| IW2NTF | 2026-09-03 23:16:45 | 45.49561 | 8.70676 | 155° | 42km/h | 4439m | 3.4m/s | 2.7°C | 23.1% | 0hPa | 3V | 08:30:00 | 00:43:00 | 00:00:00 | |
| IW2NTF | 2026-09-03 23:16:37 | 45.49655 | 8.70617 | 156° | 51km/h | 4412m | 2.9m/s | 3°C | 20% | 0hPa | 3V | 08:30:00 | 00:42:52 | 00:00:00 | |
| IW2NTF | 2026-09-03 23:16:31 | 45.49722 | 8.70580 | 159° | 46km/h | 4392m | 4.3m/s | 3.1°C | 19.7% | 0hPa | 3V | 08:30:00 | 00:42:46 | 00:00:00 | |
| IW2NTF | 2026-09-03 23:16:25 | 45.49789 | 8.70541 | 156° | 49km/h | 4371m | 2.4m/s | 3.3°C | 18.7% | 0hPa | 3V | 08:30:00 | 00:42:40 | 00:00:00 | |
| IW2NTF | 2026-09-03 23:16:19 | 45.49860 | 8.70499 | 163° | 49km/h | 4353m | 2.9m/s | 3.5°C | 15.8% | 0hPa | 3V | 08:30:00 | 00:42:34 | 00:00:00 | |
| IW2NTF | 2026-09-03 23:16:13 | 45.49928 | 8.70463 | 155° | 46km/h | 4333m | 2.7m/s | 3.7°C | 12.1% | 0hPa | 3V | 08:30:00 | 00:42:28 | 00:00:00 | |
| IW2NTF | 2026-09-03 23:16:07 | 45.49992 | 8.70424 | 156° | 47km/h | 4314m | 3.4m/s | 3.9°C | 11.2% | 0hPa | 3V | 08:30:00 | 00:42:22 | 00:00:00 | |
| IW2NTF | 2026-09-03 23:16:01 | 45.50055 | 8.70384 | 157° | 44km/h | 4297m | 3.6m/s | 4°C | 10.6% | 0hPa | 3V | 08:30:00 | 00:42:16 | 00:00:00 | |
| IW2NTF | 2026-09-03 23:15:55 | 45.50119 | 8.70347 | 158° | 49km/h | 4279m | 3.3m/s | 4.2°C | 9.6% | 0hPa | 3V | 08:30:00 | 00:42:10 | 00:00:00 | |
| IW2NTF | 2026-09-03 23:15:49 | 45.50185 | 8.70307 | 158° | 46km/h | 4262m | 3.2m/s | 4.3°C | 7.2% | 0hPa | 3V | 08:30:00 | 00:42:04 | 00:00:00 | |
| IW2NTF | 2026-09-03 23:15:43 | 45.50249 | 8.70267 | 154° | 47km/h | 4241m | 4.4m/s | 4.3°C | 10.7% | 0hPa | 3V | 08:30:00 | 00:41:58 | 00:00:00 | |
| IW2NTF | 2026-09-03 23:15:37 | 45.50315 | 8.70222 | 153° | 49km/h | 4221m | 2.5m/s | 4.4°C | 14% | 0hPa | 3V | 08:30:00 | 00:41:52 | 00:00:00 | |
| IW2NTF | 2026-09-03 23:15:30 | 45.50391 | 8.70172 | 156° | 46km/h | 4199m | 2.9m/s | 4.5°C | 13.4% | 0hPa | 3V | 08:30:00 | 00:41:45 | 00:00:00 | |
| IW2NTF | 2026-09-03 23:15:24 | 45.50460 | 8.70123 | 154° | 55km/h | 4180m | 3.3m/s | 4.6°C | 13.8% | 0hPa | 3V | 08:30:00 | 00:41:39 | 00:00:00 | |
| IW2NTF | 2026-09-03 23:15:18 | 45.50532 | 8.70073 | 155° | 49km/h | 4159m | 2.8m/s | 4.7°C | 15.2% | 0hPa | 3V | 08:30:00 | 00:41:33 | 00:00:00 | |
| IW2NTF | 2026-09-03 23:15:12 | 45.50599 | 8.70028 | 156° | 49km/h | 4140m | 3.7m/s | 4.7°C | 17.1% | 0hPa | 3V | 08:30:00 | 00:41:27 | 00:00:00 | |
| IW2NTF | 2026-09-03 23:15:06 | 45.50670 | 8.69983 | 153° | 51km/h | 4119m | 3.9m/s | 4.5°C | 30.3% | 0hPa | 3V | 08:30:00 | 00:41:21 | 00:00:00 | |
| IW2NTF | 2026-09-03 23:15:00 | 45.50737 | 8.69937 | 154° | 47km/h | 4100m | 4m/s | 4.4°C | 39.3% | 0hPa | 3V | 08:30:00 | 00:41:15 | 00:00:00 | |
| IW2NTF | 2026-09-03 23:14:54 | 45.50807 | 8.69889 | 150° | 53km/h | 4079m | 2.7m/s | 4.6°C | 37.1% | 0hPa | 3V | 08:30:00 | 00:41:09 | 00:00:00 | |
| IW2NTF | 2026-09-03 23:14:48 | 45.50880 | 8.69835 | 153° | 53km/h | 4060m | 2.7m/s | 4.6°C | 37.3% | 0hPa | 3V | 08:30:00 | 00:41:03 | 00:00:00 | |
| IW2NTF | 2026-09-03 23:14:42 | 45.50956 | 8.69784 | 153° | 55km/h | 4039m | 4m/s | 4.7°C | 37.9% | 0hPa | 3V | 08:30:00 | 00:40:57 | 00:00:00 | |
| IW2NTF | 2026-09-03 23:14:36 | 45.51030 | 8.69733 | 156° | 57km/h | 4016m | 3.1m/s | 4.7°C | 38.8% | 0hPa | 3V | 08:30:00 | 00:40:51 | 00:00:00 | |
| IW2NTF | 2026-09-03 23:14:30 | 45.51106 | 8.69688 | 155° | 55km/h | 3997m | 3.4m/s | 4.7°C | 44.3% | 0hPa | 3V | 08:30:00 | 00:40:45 | 00:00:00 | |
| IW2NTF | 2026-09-03 23:14:24 | 45.51181 | 8.69641 | 154° | 55km/h | 3973m | 4m/s | 4.8°C | 42.2% | 0hPa | 3V | 08:30:00 | 00:40:39 | 00:00:00 | |
| IW2NTF | 2026-09-03 23:14:18 | 45.51257 | 8.69591 | 157° | 55km/h | 3950m | 3.3m/s | 4.8°C | 41.5% | 0hPa | 3V | 08:30:00 | 00:40:33 | 00:00:00 | |
| IW2NTF | 2026-09-03 23:14:12 | 45.51331 | 8.69543 | 153° | 53km/h | 3928m | 4.4m/s | 4.9°C | 43% | 0hPa | 3V | 08:30:00 | 00:40:27 | 00:00:00 | |
| IW2NTF | 2026-09-03 23:14:06 | 45.51403 | 8.69491 | 152° | 51km/h | 3904m | 3.6m/s | 4.8°C | 45.3% | 0hPa | 3V | 08:30:00 | 00:40:21 | 00:00:00 | |
| IW2NTF | 2026-09-03 23:14:00 | 45.51471 | 8.69442 | 155° | 49km/h | 3882m | 3.5m/s | 4.9°C | 47.3% | 0hPa | 3V | 08:30:00 | 00:40:15 | 00:00:00 | |
| IW2NTF | 2026-09-03 23:13:54 | 45.51544 | 8.69399 | 155° | 53km/h | 3862m | 3.6m/s | 4.9°C | 42.8% | 0hPa | 3V | 08:30:00 | 00:40:09 | 00:00:00 | |
| IW2NTF | 2026-09-03 23:13:49 | 45.51612 | 8.69339 | 147° | 57km/h | 3840m | 4.3m/s | 4.9°C | 40.6% | 0hPa | 3V | 08:30:00 | 00:40:03 | 00:00:00 | |
| IW2NTF | 2026-09-03 23:13:42 | 45.51687 | 8.69291 | 159° | 47km/h | 3813m | 5.5m/s | 5°C | 41.2% | 0hPa | 3V | 08:30:00 | 00:39:57 | 00:00:00 | |
| IW2NTF | 2026-09-03 23:13:36 | 45.51736 | 8.69248 | 140° | 33km/h | 3786m | 4.3m/s | 5.1°C | 41.2% | 0hPa | 3V | 08:30:00 | 00:39:51 | 00:00:00 | |
| IW2NTF | 2026-09-03 23:13:31 | 45.51772 | 8.69195 | 132° | 37km/h | 3762m | 4m/s | 5.2°C | 42.3% | 0hPa | 3V | 08:30:00 | 00:39:45 | 00:00:00 | |
| IW2NTF | 2026-09-03 23:13:25 | 45.51824 | 8.69143 | 152° | 44km/h | 3734m | 5.8m/s | 5.3°C | 43.4% | 0hPa | 3V | 08:30:00 | 00:39:39 | 00:00:00 | |
| IW2NTF | 2026-09-03 23:13:18 | 45.51875 | 8.69092 | 144° | 37km/h | 3707m | 3.6m/s | 5.5°C | 43.8% | 0hPa | 3V | 08:30:00 | 00:39:33 | 00:00:00 | |
| IW2NTF | 2026-09-03 23:13:12 | 45.51920 | 8.69051 | 150° | 33km/h | 3685m | 3.3m/s | 5.6°C | 43.9% | 0hPa | 3V | 08:30:00 | 00:39:27 | 00:00:00 | |
| IW2NTF | 2026-09-03 23:13:06 | 45.51966 | 8.69005 | 138° | 35km/h | 3665m | 3.4m/s | 5.7°C | 44.3% | 0hPa | 3V | 08:30:00 | 00:39:21 | 00:00:00 | |
| IW2NTF | 2026-09-03 23:13:00 | 45.52010 | 8.68960 | 149° | 37km/h | 3644m | 3m/s | 5.9°C | 44.1% | 0hPa | 3V | 08:30:00 | 00:39:15 | 00:00:00 | |
| IW2NTF | 2026-09-03 23:12:54 | 45.52060 | 8.68917 | 139° | 35km/h | 3622m | 5.3m/s | 6.1°C | 44% | 0hPa | 3V | 08:30:00 | 00:39:09 | 00:00:00 | |
| IW2NTF | 2026-09-03 23:12:48 | 45.52107 | 8.68860 | 145° | 42km/h | 3592m | 3.4m/s | 6.3°C | 43.3% | 0hPa | 3V | 08:30:00 | 00:39:03 | 00:00:00 | |
| IW2NTF | 2026-09-03 23:12:42 | 45.52136 | 8.68822 | 127° | 24km/h | 3563m | 5.9m/s | 6.5°C | 43.9% | 0hPa | 3V | 08:30:00 | 00:38:57 | 00:00:00 | |
| IW2NTF | 2026-09-03 23:12:36 | 45.52167 | 8.68760 | 119° | 37km/h | 3538m | 3.7m/s | 6.7°C | 43.5% | 0hPa | 3V | 08:30:00 | 00:38:51 | 00:00:00 | |
| IW2NTF | 2026-09-03 23:12:30 | 45.52195 | 8.68712 | 141° | 31km/h | 3509m | 6m/s | 6.8°C | 44.5% | 0hPa | 3V | 08:30:00 | 00:38:45 | 00:00:00 | |
| IW2NTF | 2026-09-03 23:12:24 | 45.52219 | 8.68682 | 140° | 18km/h | 3477m | 3.7m/s | 7°C | 44.7% | 0hPa | 3V | 08:30:00 | 00:38:40 | 00:00:00 | |
| IW2NTF | 2026-09-03 23:12:18 | 45.52251 | 8.68656 | 142° | 29km/h | 3455m | 4.4m/s | 7.2°C | 44.4% | 0hPa | 3V | 08:30:00 | 00:38:34 | 00:00:00 | |
| IW2NTF | 2026-09-03 23:12:12 | 45.52284 | 8.68620 | 158° | 27km/h | 3426m | 3.2m/s | 7.5°C | 44.3% | 0hPa | 3V | 08:30:00 | 00:38:28 | 00:00:00 | |
| IW2NTF | 2026-09-03 23:12:07 | 45.52323 | 8.68598 | 143° | 27km/h | 3403m | 5m/s | 7.7°C | 43.7% | 0hPa | 3V | 08:30:00 | 00:38:22 | 00:00:00 | |
| IW2NTF | 2026-09-03 23:12:01 | 45.52350 | 8.68557 | 137° | 24km/h | 3372m | 3.2m/s | 8°C | 43% | 0hPa | 3V | 08:30:00 | 00:38:16 | 00:00:00 | |
| IW2NTF | 2026-09-03 23:11:55 | 45.52373 | 8.68524 | 140° | 26km/h | 3349m | 3.6m/s | 8.2°C | 43% | 0hPa | 3V | 08:30:00 | 00:38:10 | 00:00:00 | |
| IW2NTF | 2026-09-03 23:11:49 | 45.52401 | 8.68474 | 110° | 31km/h | 3327m | 3m/s | 8.3°C | 43.5% | 0hPa | 3V | 08:30:00 | 00:38:04 | 00:00:00 | |
| IW2NTF | 2026-09-03 23:11:43 | 45.52420 | 8.68424 | 126° | 27km/h | 3301m | 5.9m/s | 8.4°C | 44.3% | 0hPa | 3V | 08:30:00 | 00:37:58 | 00:00:00 | |
| IW2NTF | 2026-09-03 23:11:37 | 45.52455 | 8.68385 | 138° | 22km/h | 3277m | 3.8m/s | 8.6°C | 44% | 0hPa | 3V | 08:30:00 | 00:37:52 | 00:00:00 | |
| IW2NTF | 2026-09-03 23:11:32 | 45.52472 | 8.68358 | 125° | 27km/h | 3252m | 3.9m/s | 8.8°C | 43.7% | 0hPa | 3V | 08:30:00 | 00:37:47 | 00:00:00 | |
| IW2NTF | 2026-09-03 23:11:25 | 45.52494 | 8.68317 | 116° | 9km/h | 3228m | 3.5m/s | 9°C | 44% | 0hPa | 3V | 08:30:00 | 00:37:40 | 00:00:00 | |
| IW2NTF | 2026-09-03 23:11:19 | 45.52514 | 8.68300 | 156° | 18km/h | 3209m | 2.7m/s | 9.1°C | 44.4% | 0hPa | 3V | 08:30:00 | 00:37:34 | 00:00:00 | |
| IW2NTF | 2026-09-03 23:11:13 | 45.52527 | 8.68288 | 88° | 9km/h | 3189m | 4.2m/s | 9.2°C | 45.3% | 0hPa | 3V | 08:30:00 | 00:37:28 | 00:00:00 | |
| IW2NTF | 2026-09-03 23:11:07 | 45.52546 | 8.68259 | 152° | 24km/h | 3157m | 6.3m/s | 9.3°C | 46.4% | 0hPa | 3V | 08:30:00 | 00:37:22 | 00:00:00 | |
| IW2NTF | 2026-09-03 23:11:02 | 45.52563 | 8.68230 | 117° | 20km/h | 3126m | 6.6m/s | 9.2°C | 49.3% | 0hPa | 3V | 08:30:00 | 00:37:16 | 00:00:00 | |
| IW2NTF | 2026-09-03 23:10:55 | 45.52583 | 8.68202 | 135° | 18km/h | 3091m | 5.6m/s | 9.4°C | 49.8% | 0hPa | 3V | 08:30:00 | 00:37:10 | 00:00:00 | |
| IW2NTF | 2026-09-03 23:10:49 | 45.52600 | 8.68156 | 121° | 27km/h | 3060m | 5m/s | 9.4°C | 51.9% | 0hPa | 3V | 08:30:00 | 00:37:04 | 00:00:00 | |
| IW2NTF | 2026-09-03 23:10:43 | 45.52613 | 8.68113 | 105° | 22km/h | 3031m | 3.7m/s | 9.3°C | 53.2% | 0hPa | 3V | 08:30:00 | 00:36:58 | 00:00:00 | |
| IW2NTF | 2026-09-03 23:10:37 | 45.52628 | 8.68067 | 115° | 20km/h | 3010m | 3m/s | 9.4°C | 53.5% | 0hPa | 3V | 08:30:00 | 00:36:52 | 00:00:00 | |
| IW2NTF | 2026-09-03 23:10:31 | 45.52636 | 8.68018 | 98° | 20km/h | 2987m | 3.6m/s | 9.5°C | 53.2% | 0hPa | 3V | 08:30:00 | 00:36:46 | 00:00:00 | |
| IW2NTF | 2026-09-03 23:10:25 | 45.52639 | 8.67977 | 98° | 22km/h | 2965m | 4m/s | 9.7°C | 52.4% | 0hPa | 3V | 08:30:00 | 00:36:40 | 00:00:00 | |
| IW2NTF | 2026-09-03 23:10:19 | 45.52647 | 8.67935 | 111° | 16km/h | 2943m | 4.5m/s | 9.9°C | 51.9% | 0hPa | 3V | 08:30:00 | 00:36:34 | 00:00:00 | |
| IW2NTF | 2026-09-03 23:10:12 | 45.52652 | 8.67897 | 83° | 20km/h | 2916m | 3.8m/s | 10.2°C | 51.1% | 0hPa | 3V | 08:30:00 | 00:36:27 | 00:00:00 | |
| IW2NTF | 2026-09-03 23:10:06 | 45.52656 | 8.67861 | 112° | 18km/h | 2895m | 2.7m/s | 10.4°C | 50.4% | 0hPa | 3V | 08:30:00 | 00:36:21 | 00:00:00 | |
| IW2NTF | 2026-09-03 23:10:00 | 45.52657 | 8.67825 | 91° | 16km/h | 2875m | 3.6m/s | 10.6°C | 49.8% | 0hPa | 3V | 08:30:00 | 00:36:15 | 00:00:00 | |
| IW2NTF | 2026-09-03 23:09:54 | 45.52666 | 8.67798 | 140° | 16km/h | 2856m | 3.1m/s | 10.8°C | 49.1% | 0hPa | 3V | 08:30:00 | 00:36:09 | 00:00:00 | |
| IW2NTF | 2026-09-03 23:09:48 | 45.52676 | 8.67787 | 91° | 4km/h | 2834m | 5.9m/s | 10.9°C | 48.4% | 0hPa | 3V | 08:30:00 | 00:36:03 | 00:00:00 | |
| IW2NTF | 2026-09-03 23:09:42 | 45.52682 | 8.67772 | 100° | 9km/h | 2802m | 5.6m/s | 11.2°C | 47.4% | 0hPa | 3V | 08:30:00 | 00:35:57 | 00:00:00 | |
| IW2NTF | 2026-09-03 23:09:31 | 45.52681 | 8.67746 | 110° | 15km/h | 2778m | 3.9m/s | 11.4°C | 47% | 0hPa | 3V | 08:30:00 | 00:35:51 | 00:00:00 | |
| IW2NTF | 2026-09-03 23:09:31 | 45.52684 | 8.67714 | 73° | 20km/h | 2761m | 2.6m/s | 11.5°C | 46.7% | 0hPa | 3V | 08:30:00 | 00:35:46 | 00:00:00 | |
| IW2NTF | 2026-09-03 23:09:25 | 45.52676 | 8.67689 | 88° | 9km/h | 2738m | 6.8m/s | 11.7°C | 46.3% | 0hPa | 3V | 08:30:00 | 00:35:40 | 00:00:00 | |
| IW2NTF | 2026-09-03 23:09:19 | 45.52696 | 8.67661 | 163° | 18km/h | 2707m | 4.2m/s | 11.8°C | 45.4% | 0hPa | 3V | 08:30:00 | 00:35:34 | 00:00:00 | |
| IW2NTF | 2026-09-03 23:09:13 | 45.52704 | 8.67665 | 333° | 4km/h | 2679m | 5.5m/s | 12°C | 44.7% | 0hPa | 3V | 08:30:00 | 00:35:28 | 00:00:00 | |
| IW2NTF | 2026-09-03 23:09:07 | 45.52709 | 8.67670 | 174° | 11km/h | 2649m | 4.5m/s | 12.3°C | 44.1% | 0hPa | 3V | 08:30:00 | 00:35:22 | 00:00:00 | |
| IW2NTF | 2026-09-03 23:08:59 | 45.52728 | 8.67661 | 103° | 9km/h | 2610m | 6.6m/s | 12.5°C | 44.8% | 0hPa | 3V | 08:30:00 | 00:35:14 | 00:00:00 | |
| IW2NTF | 2026-09-03 23:08:53 | 45.52730 | 8.67633 | 84° | 11km/h | 2578m | 4.9m/s | 12.7°C | 45.5% | 0hPa | 3V | 08:30:00 | 00:35:08 | 00:00:00 | |
| IW2NTF | 2026-09-03 23:08:45 | 45.52728 | 8.67621 | 114° | 9km/h | 2542m | 5m/s | 13°C | 45.6% | 0hPa | 3V | 08:30:00 | 00:35:00 | 00:00:00 | |
| IW2NTF | 2026-09-03 23:08:39 | 45.52728 | 8.67594 | 101° | 5km/h | 2517m | 5m/s | 13.2°C | 45.3% | 0hPa | 3V | 08:30:00 | 00:34:54 | 00:00:00 | |
| IW2NTF | 2026-09-03 23:08:33 | 45.52735 | 8.67602 | 188° | 4km/h | 2487m | 3.7m/s | 13.5°C | 44.9% | 0hPa | 3V | 08:30:00 | 00:34:48 | 00:00:00 | |
| IW2NTF | 2026-09-03 23:08:25 | 45.52739 | 8.67601 | 106° | 2km/h | 2455m | 5.3m/s | 13.7°C | 45% | 0hPa | 3V | 08:30:00 | 00:34:40 | 00:00:00 | |
| IW2NTF | 2026-09-03 23:08:19 | 45.52740 | 8.67597 | 250° | 5km/h | 2434m | 2.7m/s | 13.8°C | 45% | 0hPa | 3V | 08:30:00 | 00:34:34 | 00:00:00 | |
| IW2NTF | 2026-09-03 23:08:13 | 45.52744 | 8.67602 | 193° | 2km/h | 2414m | 3.8m/s | 13.9°C | 45.8% | 0hPa | 3V | 08:30:00 | 00:34:28 | 00:00:00 | |
| IW2NTF | 2026-09-03 23:08:07 | 45.52748 | 8.67607 | 277° | 2km/h | 2394m | 3m/s | 14.1°C | 45.5% | 0hPa | 3V | 08:30:00 | 00:34:22 | 00:00:00 | |
| IW2NTF | 2026-09-03 23:08:01 | 45.52750 | 8.67609 | 192° | 5km/h | 2373m | 4.6m/s | 14.2°C | 45% | 0hPa | 3V | 08:30:00 | 00:34:16 | 00:00:00 | |
| IW2NTF | 2026-09-03 23:07:55 | 45.52757 | 8.67619 | 247° | 9km/h | 2350m | 4.4m/s | 14.5°C | 43.1% | 0hPa | 3V | 08:30:00 | 00:34:10 | 00:00:00 | |
| IW2NTF | 2026-09-03 23:07:49 | 45.52764 | 8.67645 | 225° | 15km/h | 2327m | 3.2m/s | 14.7°C | 42.2% | 0hPa | 3V | 08:30:00 | 00:34:04 | 00:00:00 | |
| IW2NTF | 2026-09-03 23:07:43 | 45.52774 | 8.67654 | 234° | 7km/h | 2298m | 7.2m/s | 15°C | 41.5% | 0hPa | 3V | 08:30:00 | 00:33:58 | 00:00:00 | |
| IW2NTF | 2026-09-03 23:07:37 | 45.52789 | 8.67662 | 128° | 11km/h | 2263m | 5.8m/s | 15.3°C | 40.4% | 0hPa | 3V | 08:30:00 | 00:33:52 | 00:00:00 | |
| IW2NTF | 2026-09-03 23:07:31 | 45.52789 | 8.67658 | 233° | 9km/h | 2235m | 4.8m/s | 15.6°C | 39.8% | 0hPa | 3V | 08:30:00 | 00:33:46 | 00:00:00 | |
| IW2NTF | 2026-09-03 23:07:25 | 45.52802 | 8.67654 | 94° | 11km/h | 2206m | 4.3m/s | 15.9°C | 39% | 0hPa | 3V | 08:30:00 | 00:33:40 | 00:00:00 | |
| IW2NTF | 2026-09-03 23:07:19 | 45.52792 | 8.67654 | 287° | 13km/h | 2180m | 3.7m/s | 16.2°C | 37.5% | 0hPa | 3V | 08:30:00 | 00:33:34 | 00:00:00 | |
| IW2NTF | 2026-09-03 23:07:13 | 45.52802 | 8.67679 | 167° | 11km/h | 2156m | 4.6m/s | 16.4°C | 36.2% | 0hPa | 3V | 08:30:00 | 00:33:28 | 00:00:00 | |
| IW2NTF | 2026-09-03 23:07:07 | 45.52797 | 8.67665 | 326° | 4km/h | 2124m | 4.2m/s | 16.7°C | 0% | 0hPa | 3V | 08:30:00 | 00:33:22 | 00:00:00 | |
| IW2NTF | 2026-09-03 23:07:01 | 45.52801 | 8.67682 | 217° | 13km/h | 2087m | 3.6m/s | 17°C | 0% | 0hPa | 3V | 08:30:00 | 00:33:16 | 00:00:00 | |
| IW2NTF | 2026-09-03 23:06:56 | 45.52818 | 8.67695 | 225° | 11km/h | 2067m | 4.5m/s | 17.2°C | 0% | 0hPa | 3V | 08:30:00 | 00:33:10 | 00:00:00 | |
| IW2NTF | 2026-09-03 23:06:49 | 45.52816 | 8.67717 | 347° | 11km/h | 2044m | 4m/s | 17.4°C | 0% | 0hPa | 3V | 08:30:00 | 00:33:04 | 00:00:00 | |
| IW2NTF | 2026-09-03 23:06:43 | 45.52813 | 8.67690 | 124° | 18km/h | 2018m | 3.7m/s | 17.7°C | 0% | 0hPa | 3V | 08:30:00 | 00:32:58 | 00:00:00 | |
| IW2NTF | 2026-09-03 23:06:37 | 45.52827 | 8.67690 | 303° | 5km/h | 1992m | 4.6m/s | 17.9°C | 0% | 0hPa | 3V | 08:30:00 | 00:32:52 | 00:00:00 | |
| IW2NTF | 2026-09-03 23:06:31 | 45.52823 | 8.67694 | 348° | 9km/h | 1984m | 5m/s | 18°C | 0% | 0hPa | 3V | 08:30:00 | 00:32:50 | 00:00:00 | |
| IW2NTF | 2026-09-03 23:06:31 | 45.52818 | 8.67694 | 0° | 13km/h | 1976m | 4.2m/s | 18.1°C | 0% | 0hPa | 3V | 08:30:00 | 00:32:48 | 00:00:00 | |
| IW2NTF | 2026-09-03 23:06:31 | 45.52812 | 8.67696 | 341° | 9km/h | 1968m | 4.3m/s | 18.2°C | 0% | 0hPa | 3V | 08:30:00 | 00:32:46 | 00:00:00 | |
| IW2NTF | 2026-09-03 23:06:25 | 45.52809 | 8.67700 | 294° | 7km/h | 1960m | 3.8m/s | 18.3°C | 0% | 0hPa | 3V | 08:30:00 | 00:32:44 | 00:00:00 | |
| IW2NTF | 2026-09-03 23:06:25 | 45.52809 | 8.67706 | 236° | 11km/h | 1952m | 3.8m/s | 18.3°C | 0% | 0hPa | 3V | 08:30:00 | 00:32:42 | 00:00:00 | |
| IW2NTF | 2026-09-03 23:06:25 | 45.52815 | 8.67709 | 176° | 16km/h | 1944m | 4.4m/s | 18.4°C | 0% | 0hPa | 3V | 08:30:00 | 00:32:40 | 00:00:00 | |
| IW2NTF | 2026-09-03 23:06:19 | 45.52823 | 8.67703 | 141° | 20km/h | 1936m | 4.2m/s | 18.5°C | 0% | 0hPa | 3V | 08:30:00 | 00:32:38 | 00:00:00 | |
| IW2NTF | 2026-09-03 23:06:19 | 45.52827 | 8.67693 | 99° | 15km/h | 1927m | 4.4m/s | 18.6°C | 0% | 0hPa | 3V | 08:30:00 | 00:32:36 | 00:00:00 | |
| IW2NTF | 2026-09-03 23:06:19 | 45.52825 | 8.67684 | 45° | 13km/h | 1918m | 4.6m/s | 18.7°C | 0% | 0hPa | 3V | 08:30:00 | 00:32:34 | 00:00:00 | |
| IW2NTF | 2026-09-03 23:06:13 | 45.52819 | 8.67683 | 345° | 11km/h | 1908m | 5m/s | 18.8°C | 0% | 0hPa | 3V | 08:30:00 | 00:32:32 | 00:00:00 | |
| IW2NTF | 2026-09-03 23:06:13 | 45.52817 | 8.67688 | 289° | 5km/h | 1898m | 5.2m/s | 18.8°C | 0% | 0hPa | 3V | 08:30:00 | 00:32:30 | 00:00:00 | |
| IW2NTF | 2026-09-03 23:06:13 | 45.52816 | 8.67695 | 280° | 11km/h | 1887m | 5.1m/s | 18.9°C | 0% | 0hPa | 3V | 08:30:00 | 00:32:28 | 00:00:00 | |
| IW2NTF | 2026-09-03 23:06:07 | 45.52813 | 8.67701 | 333° | 13km/h | 1879m | 3.5m/s | 19°C | 0% | 0hPa | 3V | 08:30:00 | 00:32:26 | 00:00:00 | |
| IW2NTF | 2026-09-03 23:06:07 | 45.52807 | 8.67699 | 56° | 15km/h | 1870m | 4.9m/s | 19.1°C | 0% | 0hPa | 3V | 08:30:00 | 00:32:24 | 00:00:00 | |
| IW2NTF | 2026-09-03 23:06:07 | 45.52806 | 8.67686 | 97° | 22km/h | 1860m | 5.7m/s | 19.2°C | 0% | 0hPa | 3V | 08:30:00 | 00:32:22 | 00:00:00 | |
| IW2NTF | 2026-09-03 23:06:01 | 45.52810 | 8.67673 | 125° | 16km/h | 1850m | 4.8m/s | 19.3°C | 0% | 0hPa | 3V | 08:30:00 | 00:32:20 | 00:00:00 | |
| IW2NTF | 2026-09-03 23:06:01 | 45.52814 | 8.67667 | 153° | 11km/h | 1840m | 4.3m/s | 19.4°C | 0% | 0hPa | 3V | 08:30:00 | 00:32:18 | 00:00:00 | |
| IW2NTF | 2026-09-03 23:06:01 | 45.52820 | 8.67667 | 193° | 13km/h | 1829m | 5.2m/s | 19.5°C | 0% | 0hPa | 3V | 08:30:00 | 00:32:16 | 00:00:00 | |
| IW2NTF | 2026-09-03 23:05:55 | 45.52825 | 8.67670 | 224° | 7km/h | 1822m | 3.3m/s | 19.6°C | 0% | 0hPa | 3V | 08:30:00 | 00:32:14 | 00:00:00 | |
| IW2NTF | 2026-09-03 23:05:55 | 45.52827 | 8.67677 | 250° | 11km/h | 1815m | 4.9m/s | 19.7°C | 0% | 0hPa | 3V | 08:30:00 | 00:32:12 | 00:00:00 | |
| IW2NTF | 2026-09-03 23:05:55 | 45.52826 | 8.67682 | 342° | 15km/h | 1808m | 3.9m/s | 19.8°C | 0% | 0hPa | 3V | 08:30:00 | 00:32:10 | 00:00:00 | |
| IW2NTF | 2026-09-03 23:05:48 | 45.52818 | 8.67681 | 26° | 18km/h | 1801m | 4.5m/s | 19.8°C | 0% | 0hPa | 3V | 08:30:00 | 00:32:08 | 00:00:00 | |
| IW2NTF | 2026-09-03 23:05:48 | 45.52813 | 8.67675 | 72° | 9km/h | 1790m | 5.9m/s | 20°C | 0% | 0hPa | 3V | 08:30:00 | 00:32:06 | 00:00:00 | |
| IW2NTF | 2026-09-03 23:05:48 | 45.52814 | 8.67662 | 94° | 18km/h | 1769m | 6.6m/s | 20.2°C | 0% | 0hPa | 3V | 08:30:00 | 00:32:03 | 00:00:00 | |
| IW2NTF | 2026-09-03 23:05:42 | 45.52816 | 8.67646 | 103° | 26km/h | 1760m | 1.9m/s | 20.3°C | 0% | 0hPa | 3V | 08:30:00 | 00:32:01 | 00:00:00 | |
| IW2NTF | 2026-09-03 23:05:42 | 45.52821 | 8.67632 | 134° | 16km/h | 1754m | 4.7m/s | 20.3°C | 0% | 0hPa | 3V | 08:30:00 | 00:31:59 | 00:00:00 | |
| IW2NTF | 2026-09-03 23:05:42 | 45.52826 | 8.67630 | 241° | 5km/h | 1743m | 5.5m/s | 20.3°C | 0% | 0hPa | 3V | 08:30:00 | 00:31:57 | 00:00:00 | |
| IW2NTF | 2026-09-03 23:05:36 | 45.52823 | 8.67637 | 322° | 13km/h | 1732m | 4.5m/s | 20.3°C | 0% | 0hPa | 3V | 08:30:00 | 00:31:55 | 00:00:00 | |
| IW2NTF | 2026-09-03 23:05:36 | 45.52818 | 8.67636 | 47° | 13km/h | 1722m | 6m/s | 20.4°C | 0% | 0hPa | 3V | 08:30:00 | 00:31:53 | 00:00:00 | |
| IW2NTF | 2026-09-03 23:05:36 | 45.52814 | 8.67625 | 73° | 22km/h | 1708m | 6.7m/s | 20.4°C | 0% | 0hPa | 3V | 08:30:00 | 00:31:51 | 00:00:00 | |
| IW2NTF | 2026-09-03 23:05:30 | 45.52810 | 8.67610 | 61° | 22km/h | 1698m | 3.3m/s | 20.4°C | 0% | 0hPa | 3V | 08:30:00 | 00:31:49 | 00:00:00 | |
| IW2NTF | 2026-09-03 23:05:30 | 45.52803 | 8.67598 | 44° | 24km/h | 1692m | 3.9m/s | 20.4°C | 0% | 0hPa | 3V | 08:30:00 | 00:31:47 | 00:00:00 | |
| IW2NTF | 2026-09-03 23:05:30 | 45.52794 | 8.67587 | 37° | 22km/h | 1686m | 3m/s | 20.5°C | 0% | 0hPa | 3V | 08:30:00 | 00:31:45 | 00:00:00 | |
| IW2NTF | 2026-09-03 23:05:24 | 45.52785 | 8.67576 | 45° | 22km/h | 1680m | 4.2m/s | 20.6°C | 0% | 0hPa | 3V | 08:30:00 | 00:31:43 | 00:00:00 | |
| IW2NTF | 2026-09-03 23:05:24 | 45.52776 | 8.67564 | 45° | 24km/h | 1671m | 4.9m/s | 20.6°C | 0% | 0hPa | 3V | 08:30:00 | 00:31:41 | 00:00:00 | |
| IW2NTF | 2026-09-03 23:05:24 | 45.52769 | 8.67547 | 66° | 27km/h | 1662m | 3.7m/s | 20.7°C | 0% | 0hPa | 3V | 08:30:00 | 00:31:39 | 00:00:00 | |
| IW2NTF | 2026-09-03 23:05:18 | 45.52767 | 8.67531 | 101° | 20km/h | 1654m | 4.7m/s | 20.8°C | 0% | 0hPa | 3V | 08:30:00 | 00:31:37 | 00:00:00 | |
| IW2NTF | 2026-09-03 23:05:18 | 45.52770 | 8.67525 | 233° | 7km/h | 1645m | 5m/s | 20.8°C | 0% | 0hPa | 3V | 08:30:00 | 00:31:35 | 00:00:00 | |
| IW2NTF | 2026-09-03 23:05:18 | 45.52769 | 8.67530 | 296° | 5km/h | 1636m | 4.8m/s | 20.9°C | 0% | 0hPa | 3V | 08:30:00 | 00:31:33 | 00:00:00 | |
| IW2NTF | 2026-09-03 23:05:12 | 45.52768 | 8.67523 | 80° | 24km/h | 1623m | 7.2m/s | 21°C | 0% | 0hPa | 3V | 08:30:00 | 00:31:31 | 00:00:00 | |
| IW2NTF | 2026-09-03 23:05:12 | 45.52763 | 8.67503 | 67° | 26km/h | 1612m | 4.7m/s | 21.1°C | 0% | 0hPa | 3V | 08:30:00 | 00:31:29 | 00:00:00 | |
| IW2NTF | 2026-09-03 23:05:12 | 45.52760 | 8.67492 | 72° | 7km/h | 1600m | 6.5m/s | 21.2°C | 0% | 0hPa | 3V | 08:30:00 | 00:31:27 | 00:00:00 | |
| IW2NTF | 2026-09-03 23:05:06 | 45.52762 | 8.67485 | 125° | 16km/h | 1590m | 3.6m/s | 21.2°C | 0% | 0hPa | 3V | 00:00:00 | 00:31:25 | 00:00:00 | |
| IW2NTF | 2026-09-03 23:05:06 | 45.52766 | 8.67471 | 107° | 24km/h | 1582m | 4.1m/s | 21.1°C | 0% | 0hPa | 3V | 00:00:00 | 00:31:23 | 00:00:00 | |
| IW2NTF | 2026-09-03 23:05:06 | 45.52767 | 8.67452 | 77° | 29km/h | 1575m | 4.1m/s | 21.1°C | 0% | 0hPa | 3V | 00:00:00 | 00:31:21 | 00:00:00 | |
| IW2NTF | 2026-09-03 23:04:58 | 45.52751 | 8.67425 | 22° | 15km/h | 1557m | 5.2m/s | 21.2°C | 0% | 0hPa | 3V | 00:00:00 | 00:31:17 | 00:00:00 | |
| IW2NTF | 2026-09-03 23:04:58 | 45.52748 | 8.67425 | 174° | 5km/h | 1546m | 4.5m/s | 21.1°C | 0% | 0hPa | 3V | 00:00:00 | 00:31:15 | 00:00:00 | |
| IW2NTF | 2026-09-03 23:04:58 | 45.52752 | 8.67423 | 155° | 11km/h | 1539m | 4.9m/s | 21.1°C | 0% | 0hPa | 3V | 00:00:00 | 00:31:13 | 00:00:00 | |
| IW2NTF | 2026-09-03 23:04:52 | 45.52755 | 8.67418 | 109° | 9km/h | 1527m | 7m/s | 21.2°C | 0% | 0hPa | 3V | 00:00:00 | 00:31:11 | 00:00:00 | |
| IW2NTF | 2026-09-03 23:04:52 | 45.52756 | 8.67410 | 94° | 18km/h | 1514m | 5.7m/s | 21.2°C | 0% | 0hPa | 3V | 00:00:00 | 00:31:09 | 00:00:00 | |
| IW2NTF | 2026-09-03 23:04:52 | 45.52758 | 8.67393 | 98° | 31km/h | 1507m | 2.8m/s | 21.2°C | 0% | 0hPa | 3V | 00:00:00 | 00:31:07 | 00:00:00 | |
| IW2NTF | 2026-09-03 23:04:46 | 45.52761 | 8.67377 | 109° | 11km/h | 1499m | 6.2m/s | 21.3°C | 0% | 0hPa | 3V | 00:00:00 | 00:31:05 | 00:00:00 | |
| IW2NTF | 2026-09-03 23:04:46 | 45.52760 | 8.67375 | 79° | 2km/h | 1489m | 4.2m/s | 21.3°C | 0% | 0hPa | 3V | 00:00:00 | 00:31:03 | 00:00:00 | |
| IW2NTF | 2026-09-03 23:04:46 | 45.52764 | 8.67368 | 126° | 18km/h | 1480m | 4.2m/s | 21.3°C | 0% | 0hPa | 3V | 00:00:00 | 00:31:01 | 00:00:00 | |
| IW2NTF | 2026-09-03 23:04:40 | 45.52766 | 8.67358 | 87° | 11km/h | 1472m | 4.4m/s | 21.4°C | 0% | 0hPa | 3V | 00:00:00 | 00:30:59 | 00:00:00 | |
| IW2NTF | 2026-09-03 23:04:40 | 45.52763 | 8.67353 | 20° | 13km/h | 1466m | 2.7m/s | 21.4°C | 0% | 0hPa | 3V | 00:00:00 | 00:30:57 | 00:00:00 | |
| IW2NTF | 2026-09-03 23:04:40 | 45.52755 | 8.67348 | 31° | 18km/h | 1459m | 3.7m/s | 21.4°C | 0% | 0hPa | 3V | 00:00:00 | 00:30:55 | 00:00:00 | |
| IW2NTF | 2026-09-03 23:04:34 | 45.52750 | 8.67341 | 91° | 9km/h | 1448m | 7.2m/s | 21.4°C | 0% | 0hPa | 3V | 00:00:00 | 00:30:53 | 00:00:00 | |
| IW2NTF | 2026-09-03 23:04:34 | 45.52762 | 8.67323 | 112° | 18km/h | 1428m | 5.1m/s | 21.4°C | 0% | 0hPa | 3V | 00:00:00 | 00:30:49 | 00:00:00 | |
| IW2NTF | 2026-09-03 23:04:28 | 45.52766 | 8.67309 | 112° | 24km/h | 1417m | 5.4m/s | 21.4°C | 0% | 0hPa | 3V | 00:00:00 | 00:30:47 | 00:00:00 | |
| IW2NTF | 2026-09-03 23:04:28 | 45.52771 | 8.67291 | 107° | 27km/h | 1410m | 3.8m/s | 21.4°C | 0% | 0hPa | 3V | 00:00:00 | 00:30:45 | 00:00:00 | |
| IW2NTF | 2026-09-03 23:04:28 | 45.52771 | 8.67275 | 65° | 18km/h | 1401m | 4.7m/s | 21.3°C | 0% | 0hPa | 3V | 00:00:00 | 00:30:43 | 00:00:00 | |
| IW2NTF | 2026-09-03 23:04:22 | 45.52763 | 8.67266 | 38° | 20km/h | 1394m | 3.5m/s | 0°C | 0% | 0hPa | 3V | 00:00:00 | 00:30:41 | 00:00:00 | |
| IW2NTF | 2026-09-03 23:04:22 | 45.52761 | 8.67255 | 102° | 16km/h | 1383m | 8.3m/s | 0°C | 0% | 0hPa | 3V | 00:00:00 | 00:30:39 | 00:00:00 | |
| IW2NTF | 2026-09-03 23:04:22 | 45.52768 | 8.67244 | 147° | 31km/h | 1368m | 5.9m/s | 0°C | 0% | 0hPa | 3V | 00:00:00 | 00:30:37 | 00:00:00 | |
| IW2NTF | 2026-09-03 23:04:16 | 45.52775 | 8.67230 | 92° | 22km/h | 1356m | 7.7m/s | 0°C | 0% | 0hPa | 3V | 00:00:00 | 00:30:35 | 00:00:00 | |
| IW2NTF | 2026-09-03 23:04:16 | 45.52771 | 8.67214 | 64° | 22km/h | 1342m | 6m/s | 0°C | 0% | 0hPa | 3V | 00:00:00 | 00:30:33 | 00:00:00 | |
| IW2NTF | 2026-09-03 23:04:16 | 45.52769 | 8.67196 | 91° | 31km/h | 1330m | 5.8m/s | 0°C | 0% | 0hPa | 3V | 00:00:00 | 00:30:31 | 00:00:00 | |
| IW2NTF | 2026-09-03 23:04:10 | 45.52771 | 8.67175 | 102° | 24km/h | 1321m | 4.1m/s | 0°C | 0% | 0hPa | 3V | 00:00:00 | 00:30:29 | 00:00:00 | |
| IW2NTF | 2026-09-03 23:04:10 | 45.52775 | 8.67163 | 116° | 18km/h | 1312m | 3.9m/s | 0°C | 0% | 0hPa | 3V | 00:00:00 | 00:30:27 | 00:00:00 | |
| IW2NTF | 2026-09-03 23:04:10 | 45.52780 | 8.67143 | 112° | 35km/h | 1305m | 3.6m/s | 0°C | 0% | 0hPa | 3V | 00:00:00 | 00:30:25 | 00:00:00 | |
| IW2NTF | 2026-09-03 23:04:04 | 45.52785 | 8.67125 | 108° | 16km/h | 1297m | 6.3m/s | 0°C | 0% | 0hPa | 3V | 00:00:00 | 00:30:23 | 00:00:00 | |
| IW2NTF | 2026-09-03 23:04:04 | 45.52782 | 8.67119 | 24° | 15km/h | 1286m | 3.8m/s | 0°C | 0% | 0hPa | 3V | 00:00:00 | 00:30:21 | 00:00:00 | |
| IW2NTF | 2026-09-03 23:04:04 | 45.52778 | 8.67108 | 91° | 22km/h | 1278m | 5.5m/s | 0°C | 0% | 0hPa | 3V | 00:00:00 | 00:30:19 | 00:00:00 | |
| IW2NTF | 2026-09-03 23:03:58 | 45.52781 | 8.67090 | 103° | 29km/h | 1269m | 3.4m/s | 0°C | 0% | 0hPa | 3V | 00:00:00 | 00:30:17 | 00:00:00 | |
| IW2NTF | 2026-09-03 23:03:58 | 45.52782 | 8.67068 | 90° | 31km/h | 1260m | 5m/s | 0°C | 0% | 0hPa | 3V | 00:00:00 | 00:30:15 | 00:00:00 | |
| IW2NTF | 2026-09-03 23:03:58 | 45.52786 | 8.67054 | 164° | 13km/h | 1250m | 4.7m/s | 0°C | 0% | 0hPa | 3V | 00:00:00 | 00:30:13 | 00:00:00 | |
| IW2NTF | 2026-09-03 23:03:52 | 45.52789 | 8.67047 | 88° | 20km/h | 1241m | 5.2m/s | 0°C | 0% | 0hPa | 3V | 00:00:00 | 00:30:11 | 00:00:00 | |
| IW2NTF | 2026-09-03 23:03:52 | 45.52789 | 8.67031 | 102° | 20km/h | 1233m | 4.2m/s | 0°C | 0% | 0hPa | 3V | 00:00:00 | 00:30:09 | 00:00:00 | |
| IW2NTF | 2026-09-03 23:03:52 | 45.52793 | 8.67021 | 123° | 16km/h | 1225m | 3.5m/s | 0°C | 0% | 0hPa | 3V | 00:00:00 | 00:30:07 | 00:00:00 | |
| IW2NTF | 2026-09-03 23:03:46 | 45.52800 | 8.67010 | 141° | 20km/h | 1217m | 4.3m/s | 0°C | 0% | 0hPa | 3V | 00:00:00 | 00:30:05 | 00:00:00 | |
| IW2NTF | 2026-09-03 23:03:46 | 45.52807 | 8.66998 | 104° | 29km/h | 1209m | 4.9m/s | 0°C | 0% | 0hPa | 3V | 00:00:00 | 00:30:03 | 00:00:00 | |
| IW2NTF | 2026-09-03 23:03:46 | 45.52809 | 8.66975 | 91° | 29km/h | 1199m | 5.1m/s | 0°C | 0% | 0hPa | 3V | 00:00:00 | 00:30:01 | 00:00:00 | |
| IW2NTF | 2026-09-03 23:03:40 | 45.52807 | 8.66963 | 16° | 13km/h | 1187m | 6m/s | 0°C | 0% | 0hPa | 3V | 00:00:00 | 00:29:59 | 00:00:00 | |
| IW2NTF | 2026-09-03 23:03:40 | 45.52803 | 8.66959 | 70° | 11km/h | 1177m | 5.2m/s | 0°C | 0% | 0hPa | 3V | 00:00:00 | 00:29:57 | 00:00:00 | |
| IW2NTF | 2026-09-03 23:03:40 | 45.52805 | 8.66945 | 107° | 27km/h | 1166m | 4.4m/s | 0°C | 0% | 0hPa | 3V | 00:00:00 | 00:29:55 | 00:00:00 | |
| IW2NTF | 2026-09-03 23:03:32 | 45.52806 | 8.66909 | 95° | 29km/h | 1151m | 4.5m/s | 0°C | 0% | 0hPa | 3V | 00:00:00 | 00:29:51 | 00:00:00 | |
| IW2NTF | 2026-09-03 23:03:32 | 45.52811 | 8.66892 | 131° | 18km/h | 1143m | 3.8m/s | 0°C | 0% | 0hPa | 3V | 00:00:00 | 00:29:49 | 00:00:00 | |
| IW2NTF | 2026-09-03 23:03:32 | 45.52811 | 8.66887 | 17° | 13km/h | 1134m | 4.7m/s | 0°C | 0% | 0hPa | 3V | 00:00:00 | 00:29:47 | 00:00:00 | |
| IW2NTF | 2026-09-03 23:03:26 | 45.52805 | 8.66875 | 71° | 27km/h | 1126m | 2.8m/s | 0°C | 0% | 0hPa | 3V | 00:00:00 | 00:29:45 | 00:00:00 | |
| IW2NTF | 2026-09-03 23:03:26 | 45.52806 | 8.66856 | 102° | 18km/h | 1120m | 3.8m/s | 0°C | 0% | 0hPa | 3V | 00:00:00 | 00:29:43 | 00:00:00 | |
| IW2NTF | 2026-09-03 23:03:26 | 45.52809 | 8.66851 | 181° | 11km/h | 1113m | 3m/s | 0°C | 0% | 0hPa | 3V | 00:00:00 | 00:29:41 | 00:00:00 | |
| IW2NTF | 2026-09-03 23:03:21 | 45.52814 | 8.66846 | 112° | 18km/h | 1106m | 5.7m/s | 0°C | 0% | 0hPa | 3V | 00:00:00 | 00:29:39 | 00:00:00 | |
| IW2NTF | 2026-09-03 23:03:21 | 45.52816 | 8.66830 | 86° | 16km/h | 1095m | 5.3m/s | 0°C | 0% | 0hPa | 3V | 00:00:00 | 00:29:37 | 00:00:00 | |
| IW2NTF | 2026-09-03 23:03:21 | 45.52813 | 8.66824 | 35° | 7km/h | 1087m | 3.9m/s | 0°C | 0% | 0hPa | 3V | 00:00:00 | 00:29:35 | 00:00:00 | |
| IW2NTF | 2026-09-03 23:03:14 | 45.52814 | 8.66814 | 110° | 22km/h | 1077m | 4.1m/s | 0°C | 0% | 0hPa | 3V | 00:00:00 | 00:29:33 | 00:00:00 | |
| IW2NTF | 2026-09-03 23:03:14 | 45.52815 | 8.66797 | 79° | 27km/h | 1071m | 4m/s | 0°C | 0% | 0hPa | 3V | 00:00:00 | 00:29:31 | 00:00:00 | |
| IW2NTF | 2026-09-03 23:03:14 | 45.52808 | 8.66782 | 38° | 20km/h | 1063m | 4m/s | 0°C | 0% | 0hPa | 3V | 00:00:00 | 00:29:29 | 00:00:00 | |
| IW2NTF | 2026-09-03 23:03:08 | 45.52800 | 8.66780 | 347° | 9km/h | 1056m | 3.1m/s | 0°C | 0% | 0hPa | 3V | 00:00:00 | 00:29:27 | 00:00:00 | |
| IW2NTF | 2026-09-03 23:03:08 | 45.52800 | 8.66778 | 107° | 11km/h | 1045m | 6.7m/s | 0°C | 0% | 0hPa | 3V | 00:00:00 | 00:29:25 | 00:00:00 | |
| IW2NTF | 2026-09-03 23:03:08 | 45.52798 | 8.66765 | 72° | 24km/h | 1032m | 5.3m/s | 0°C | 0% | 0hPa | 3V | 00:00:00 | 00:29:23 | 00:00:00 | |
| IW2NTF | 2026-09-03 23:03:02 | 45.52796 | 8.66746 | 90° | 27km/h | 1024m | 3.4m/s | 0°C | 0% | 0hPa | 2.9V | 00:00:00 | 00:29:21 | 00:00:00 | |
| IW2NTF | 2026-09-03 23:03:02 | 45.52800 | 8.66730 | 123° | 24km/h | 1017m | 4.7m/s | 0°C | 0% | 0hPa | 3V | 00:00:00 | 00:29:19 | 00:00:00 | |
| IW2NTF | 2026-09-03 23:03:02 | 45.52805 | 8.66721 | 122° | 9km/h | 1007m | 5.7m/s | 0°C | 0% | 0hPa | 3V | 00:00:00 | 00:29:17 | 00:00:00 | |
| IW2NTF | 2026-09-03 23:02:55 | 45.52806 | 8.66724 | 338° | 9km/h | 992m | 3.1m/s | 0°C | 0% | 0hPa | 3V | 00:00:00 | 00:29:14 | 00:00:00 | |
| IW2NTF | 2026-09-03 23:02:55 | 45.52799 | 8.66717 | 57° | 24km/h | 982m | 5.5m/s | 0°C | 0% | 0hPa | 3V | 00:00:00 | 00:29:12 | 00:00:00 | |
| IW2NTF | 2026-09-03 23:02:55 | 45.52795 | 8.66705 | 54° | 16km/h | 973m | 6.1m/s | 0°C | 0% | 0hPa | 3V | 00:00:00 | 00:29:10 | 00:00:00 | |
| IW2NTF | 2026-09-03 23:02:49 | 45.52789 | 8.66694 | 55° | 20km/h | 961m | 4.7m/s | 0°C | 0% | 0hPa | 3V | 00:00:00 | 00:29:08 | 00:00:00 | |
| IW2NTF | 2026-09-03 23:02:49 | 45.52787 | 8.66681 | 113° | 16km/h | 951m | 5.5m/s | 0°C | 0% | 0hPa | 3V | 00:00:00 | 00:29:06 | 00:00:00 | |
| IW2NTF | 2026-09-03 23:02:49 | 45.52790 | 8.66677 | 259° | 4km/h | 943m | 4m/s | 0°C | 0% | 0hPa | 3V | 00:00:00 | 00:29:04 | 00:00:00 | |
| IW2NTF | 2026-09-03 23:02:43 | 45.52790 | 8.66673 | 70° | 16km/h | 933m | 4.7m/s | 0°C | 0% | 0hPa | 3V | 00:00:00 | 00:29:02 | 00:00:00 | |
| IW2NTF | 2026-09-03 23:02:43 | 45.52786 | 8.66658 | 58° | 27km/h | 926m | 2.2m/s | 0°C | 0% | 0hPa | 2.9V | 00:00:00 | 00:29:00 | 00:00:00 | |
| IW2NTF | 2026-09-03 23:02:43 | 45.52779 | 8.66644 | 50° | 16km/h | 918m | 6.2m/s | 0°C | 0% | 0hPa | 3V | 00:00:00 | 00:28:58 | 00:00:00 | |
| IW2NTF | 2026-09-03 23:02:37 | 45.52777 | 8.66639 | 183° | 7km/h | 904m | 6.4m/s | 0°C | 0% | 0hPa | 3V | 00:00:00 | 00:28:56 | 00:00:00 | |
| IW2NTF | 2026-09-03 23:02:37 | 45.52776 | 8.66642 | 323° | 13km/h | 895m | 3.2m/s | 0°C | 0% | 0hPa | 3V | 00:00:00 | 00:28:54 | 00:00:00 | |
| IW2NTF | 2026-09-03 23:02:37 | 45.52771 | 8.66645 | 42° | 5km/h | 885m | 6.4m/s | 0°C | 0% | 0hPa | 2.9V | 00:00:00 | 00:28:52 | 00:00:00 | |
| IW2NTF | 2026-09-03 23:02:31 | 45.52773 | 8.66634 | 110° | 27km/h | 872m | 5.2m/s | 0°C | 0% | 0hPa | 3V | 00:00:00 | 00:28:50 | 00:00:00 | |
| IW2NTF | 2026-09-03 23:02:31 | 45.52772 | 8.66617 | 67° | 22km/h | 864m | 4.9m/s | 0°C | 0% | 0hPa | 3V | 00:00:00 | 00:28:48 | 00:00:00 | |
| IW2NTF | 2026-09-03 23:02:31 | 45.52764 | 8.66601 | 54° | 26km/h | 854m | 4.7m/s | 0°C | 0% | 0hPa | 3V | 00:00:00 | 00:28:46 | 00:00:00 | |
| IW2NTF | 2026-09-03 23:02:26 | 45.52764 | 8.66589 | 141° | 18km/h | 842m | 6.2m/s | 0°C | 0% | 0hPa | 3V | 00:00:00 | 00:28:44 | 00:00:00 | |
| IW2NTF | 2026-09-03 23:02:26 | 45.52768 | 8.66578 | 76° | 20km/h | 833m | 3.5m/s | 0°C | 0% | 0hPa | 3V | 00:00:00 | 00:28:42 | 00:00:00 | |
| IW2NTF | 2026-09-03 23:02:26 | 45.52767 | 8.66562 | 102° | 24km/h | 825m | 4.4m/s | 0°C | 0% | 0hPa | 3V | 00:00:00 | 00:28:40 | 00:00:00 |